<?xml version="1.0" encoding="UTF-8" standalone="no" ?>
<gpx xmlns="http://www.topografix.com/GPX/1/1" xmlns:xsi="http://www.w3.org/2001/XMLSchema-instance" xsi:schemaLocation="http://www.topografix.com/GPX/1/1 http://www.topografix.com/GPX/1/1/gpx.xsd" version="1.1" creator="VisuGPX - https://www.visugpx.com">
  <metadata>
    <name>20190330 - Lac au Duc</name>
    <desc><![CDATA[Jolie balade autour du lac au Duc. Beaucoup d'oiseaux et un espace bien protégé. Dépaysement garanti. https://www.tourismebretagne.com/destinations/les-10-destinations/destination-broceliande/le-lac-au-duc/]]></desc>
  </metadata>
  <wpt lat="47.98157" lon="-2.38274">
    <ele>28</ele>
    <name><![CDATA[Pause à 30/03 à 14:38]]></name>
    <desc><![CDATA[Pause de 2min 15s]]></desc>
  </wpt>
  <wpt lat="47.98189" lon="-2.38334">
    <ele>25</ele>
    <name><![CDATA[Pause à 30/03 à 14:40]]></name>
    <desc><![CDATA[Pause de 2min 9s]]></desc>
  </wpt>
  <wpt lat="47.94228" lon="-2.41684">
    <ele>41</ele>
    <name><![CDATA[Pause à 30/03 à 16:44]]></name>
    <desc><![CDATA[Pause de 4min 46s]]></desc>
  </wpt>
  <trk>
    <name><![CDATA[Lac au duc]]></name>
    <trkseg>
      <trkpt lat="47.94186" lon="-2.41189">
        <ele>40</ele>
        <time>2019-03-30T12:20:13Z</time>
      </trkpt>
      <trkpt lat="47.94189" lon="-2.41195">
        <ele>38</ele>
        <time>2019-03-30T12:20:27Z</time>
      </trkpt>
      <trkpt lat="47.94191" lon="-2.41201">
        <ele>35</ele>
        <time>2019-03-30T12:20:32Z</time>
      </trkpt>
      <trkpt lat="47.94196" lon="-2.41204">
        <ele>32</ele>
        <time>2019-03-30T12:20:37Z</time>
      </trkpt>
      <trkpt lat="47.942" lon="-2.412">
        <ele>30</ele>
        <time>2019-03-30T12:20:42Z</time>
      </trkpt>
      <trkpt lat="47.94205" lon="-2.41197">
        <ele>29</ele>
        <time>2019-03-30T12:20:47Z</time>
      </trkpt>
      <trkpt lat="47.9421" lon="-2.41195">
        <ele>29</ele>
        <time>2019-03-30T12:20:51Z</time>
      </trkpt>
      <trkpt lat="47.94215" lon="-2.41191">
        <ele>30</ele>
        <time>2019-03-30T12:21:00Z</time>
      </trkpt>
      <trkpt lat="47.9422" lon="-2.41191">
        <ele>32</ele>
        <time>2019-03-30T12:21:04Z</time>
      </trkpt>
      <trkpt lat="47.94225" lon="-2.4119">
        <ele>33</ele>
        <time>2019-03-30T12:21:08Z</time>
      </trkpt>
      <trkpt lat="47.9423" lon="-2.41186">
        <ele>33</ele>
        <time>2019-03-30T12:21:12Z</time>
      </trkpt>
      <trkpt lat="47.94233" lon="-2.4118">
        <ele>33</ele>
        <time>2019-03-30T12:21:16Z</time>
      </trkpt>
      <trkpt lat="47.94238" lon="-2.41177">
        <ele>33</ele>
        <time>2019-03-30T12:21:21Z</time>
      </trkpt>
      <trkpt lat="47.94243" lon="-2.41174">
        <ele>33</ele>
        <time>2019-03-30T12:21:26Z</time>
      </trkpt>
      <trkpt lat="47.94247" lon="-2.41177">
        <ele>32</ele>
        <time>2019-03-30T12:21:32Z</time>
      </trkpt>
      <trkpt lat="47.94248" lon="-2.41183">
        <ele>32</ele>
        <time>2019-03-30T12:21:38Z</time>
      </trkpt>
      <trkpt lat="47.94251" lon="-2.41189">
        <ele>31</ele>
        <time>2019-03-30T12:21:46Z</time>
      </trkpt>
      <trkpt lat="47.94254" lon="-2.41196">
        <ele>30</ele>
        <time>2019-03-30T12:21:50Z</time>
      </trkpt>
      <trkpt lat="47.94254" lon="-2.41204">
        <ele>30</ele>
        <time>2019-03-30T12:21:55Z</time>
      </trkpt>
      <trkpt lat="47.94254" lon="-2.41212">
        <ele>30</ele>
        <time>2019-03-30T12:22:00Z</time>
      </trkpt>
      <trkpt lat="47.94253" lon="-2.41219">
        <ele>30</ele>
        <time>2019-03-30T12:22:04Z</time>
      </trkpt>
      <trkpt lat="47.94254" lon="-2.41226">
        <ele>30</ele>
        <time>2019-03-30T12:22:08Z</time>
      </trkpt>
      <trkpt lat="47.94256" lon="-2.41234">
        <ele>32</ele>
        <time>2019-03-30T12:22:12Z</time>
      </trkpt>
      <trkpt lat="47.94258" lon="-2.4124">
        <ele>32</ele>
        <time>2019-03-30T12:22:16Z</time>
      </trkpt>
      <trkpt lat="47.94259" lon="-2.41247">
        <ele>32</ele>
        <time>2019-03-30T12:22:20Z</time>
      </trkpt>
      <trkpt lat="47.94262" lon="-2.41251">
        <ele>32</ele>
        <time>2019-03-30T12:22:23Z</time>
      </trkpt>
      <trkpt lat="47.94267" lon="-2.41256">
        <ele>32</ele>
        <time>2019-03-30T12:22:27Z</time>
      </trkpt>
      <trkpt lat="47.9427" lon="-2.41261">
        <ele>32</ele>
        <time>2019-03-30T12:22:31Z</time>
      </trkpt>
      <trkpt lat="47.94275" lon="-2.41266">
        <ele>31</ele>
        <time>2019-03-30T12:22:35Z</time>
      </trkpt>
      <trkpt lat="47.94279" lon="-2.41269">
        <ele>31</ele>
        <time>2019-03-30T12:22:40Z</time>
      </trkpt>
      <trkpt lat="47.94283" lon="-2.41273">
        <ele>31</ele>
        <time>2019-03-30T12:22:44Z</time>
      </trkpt>
      <trkpt lat="47.94289" lon="-2.41277">
        <ele>31</ele>
        <time>2019-03-30T12:22:49Z</time>
      </trkpt>
      <trkpt lat="47.94293" lon="-2.4128">
        <ele>32</ele>
        <time>2019-03-30T12:22:51Z</time>
      </trkpt>
      <trkpt lat="47.94297" lon="-2.41283">
        <ele>33</ele>
        <time>2019-03-30T12:22:54Z</time>
      </trkpt>
      <trkpt lat="47.94302" lon="-2.41287">
        <ele>33</ele>
        <time>2019-03-30T12:22:58Z</time>
      </trkpt>
      <trkpt lat="47.94306" lon="-2.4129">
        <ele>34</ele>
        <time>2019-03-30T12:23:01Z</time>
      </trkpt>
      <trkpt lat="47.94311" lon="-2.41293">
        <ele>35</ele>
        <time>2019-03-30T12:23:04Z</time>
      </trkpt>
      <trkpt lat="47.94316" lon="-2.41295">
        <ele>35</ele>
        <time>2019-03-30T12:23:08Z</time>
      </trkpt>
      <trkpt lat="47.94321" lon="-2.41294">
        <ele>35</ele>
        <time>2019-03-30T12:23:13Z</time>
      </trkpt>
      <trkpt lat="47.94327" lon="-2.41296">
        <ele>36</ele>
        <time>2019-03-30T12:23:17Z</time>
      </trkpt>
      <trkpt lat="47.94332" lon="-2.41296">
        <ele>36</ele>
        <time>2019-03-30T12:23:21Z</time>
      </trkpt>
      <trkpt lat="47.94337" lon="-2.41296">
        <ele>36</ele>
        <time>2019-03-30T12:23:26Z</time>
      </trkpt>
      <trkpt lat="47.94341" lon="-2.41299">
        <ele>36</ele>
        <time>2019-03-30T12:23:29Z</time>
      </trkpt>
      <trkpt lat="47.94346" lon="-2.41301">
        <ele>37</ele>
        <time>2019-03-30T12:23:33Z</time>
      </trkpt>
      <trkpt lat="47.94352" lon="-2.41304">
        <ele>37</ele>
        <time>2019-03-30T12:23:37Z</time>
      </trkpt>
      <trkpt lat="47.94357" lon="-2.41305">
        <ele>38</ele>
        <time>2019-03-30T12:23:40Z</time>
      </trkpt>
      <trkpt lat="47.94361" lon="-2.41302">
        <ele>37</ele>
        <time>2019-03-30T12:23:45Z</time>
      </trkpt>
      <trkpt lat="47.94366" lon="-2.41301">
        <ele>36</ele>
        <time>2019-03-30T12:23:51Z</time>
      </trkpt>
      <trkpt lat="47.94371" lon="-2.41301">
        <ele>35</ele>
        <time>2019-03-30T12:23:56Z</time>
      </trkpt>
      <trkpt lat="47.94376" lon="-2.413">
        <ele>34</ele>
        <time>2019-03-30T12:24:04Z</time>
      </trkpt>
      <trkpt lat="47.94381" lon="-2.41298">
        <ele>33</ele>
        <time>2019-03-30T12:24:08Z</time>
      </trkpt>
      <trkpt lat="47.94386" lon="-2.41298">
        <ele>32</ele>
        <time>2019-03-30T12:24:12Z</time>
      </trkpt>
      <trkpt lat="47.94391" lon="-2.41298">
        <ele>32</ele>
        <time>2019-03-30T12:24:16Z</time>
      </trkpt>
      <trkpt lat="47.94396" lon="-2.41297">
        <ele>32</ele>
        <time>2019-03-30T12:24:21Z</time>
      </trkpt>
      <trkpt lat="47.94401" lon="-2.41296">
        <ele>32</ele>
        <time>2019-03-30T12:24:25Z</time>
      </trkpt>
      <trkpt lat="47.94406" lon="-2.41295">
        <ele>31</ele>
        <time>2019-03-30T12:24:29Z</time>
      </trkpt>
      <trkpt lat="47.94411" lon="-2.41293">
        <ele>31</ele>
        <time>2019-03-30T12:24:33Z</time>
      </trkpt>
      <trkpt lat="47.94416" lon="-2.4129">
        <ele>30</ele>
        <time>2019-03-30T12:24:37Z</time>
      </trkpt>
      <trkpt lat="47.94422" lon="-2.41289">
        <ele>30</ele>
        <time>2019-03-30T12:24:41Z</time>
      </trkpt>
      <trkpt lat="47.94427" lon="-2.41287">
        <ele>30</ele>
        <time>2019-03-30T12:24:45Z</time>
      </trkpt>
      <trkpt lat="47.94432" lon="-2.41286">
        <ele>30</ele>
        <time>2019-03-30T12:24:49Z</time>
      </trkpt>
      <trkpt lat="47.94437" lon="-2.41282">
        <ele>30</ele>
        <time>2019-03-30T12:24:53Z</time>
      </trkpt>
      <trkpt lat="47.94441" lon="-2.41279">
        <ele>30</ele>
        <time>2019-03-30T12:24:56Z</time>
      </trkpt>
      <trkpt lat="47.94447" lon="-2.41278">
        <ele>30</ele>
        <time>2019-03-30T12:25:01Z</time>
      </trkpt>
      <trkpt lat="47.94451" lon="-2.41275">
        <ele>30</ele>
        <time>2019-03-30T12:25:04Z</time>
      </trkpt>
      <trkpt lat="47.94455" lon="-2.41271">
        <ele>29</ele>
        <time>2019-03-30T12:25:08Z</time>
      </trkpt>
      <trkpt lat="47.9446" lon="-2.41269">
        <ele>28</ele>
        <time>2019-03-30T12:25:12Z</time>
      </trkpt>
      <trkpt lat="47.94465" lon="-2.41268">
        <ele>27</ele>
        <time>2019-03-30T12:25:16Z</time>
      </trkpt>
      <trkpt lat="47.9447" lon="-2.41264">
        <ele>26</ele>
        <time>2019-03-30T12:25:20Z</time>
      </trkpt>
      <trkpt lat="47.94475" lon="-2.41264">
        <ele>27</ele>
        <time>2019-03-30T12:25:25Z</time>
      </trkpt>
      <trkpt lat="47.9448" lon="-2.41263">
        <ele>27</ele>
        <time>2019-03-30T12:25:29Z</time>
      </trkpt>
      <trkpt lat="47.94485" lon="-2.41261">
        <ele>28</ele>
        <time>2019-03-30T12:25:33Z</time>
      </trkpt>
      <trkpt lat="47.9449" lon="-2.4126">
        <ele>28</ele>
        <time>2019-03-30T12:25:37Z</time>
      </trkpt>
      <trkpt lat="47.94495" lon="-2.41257">
        <ele>29</ele>
        <time>2019-03-30T12:25:41Z</time>
      </trkpt>
      <trkpt lat="47.945" lon="-2.41254">
        <ele>29</ele>
        <time>2019-03-30T12:25:45Z</time>
      </trkpt>
      <trkpt lat="47.94505" lon="-2.41252">
        <ele>29</ele>
        <time>2019-03-30T12:25:49Z</time>
      </trkpt>
      <trkpt lat="47.9451" lon="-2.41251">
        <ele>29</ele>
        <time>2019-03-30T12:25:53Z</time>
      </trkpt>
      <trkpt lat="47.94514" lon="-2.41249">
        <ele>29</ele>
        <time>2019-03-30T12:25:57Z</time>
      </trkpt>
      <trkpt lat="47.9452" lon="-2.41246">
        <ele>30</ele>
        <time>2019-03-30T12:26:01Z</time>
      </trkpt>
      <trkpt lat="47.94525" lon="-2.41243">
        <ele>30</ele>
        <time>2019-03-30T12:26:05Z</time>
      </trkpt>
      <trkpt lat="47.9453" lon="-2.41241">
        <ele>30</ele>
        <time>2019-03-30T12:26:09Z</time>
      </trkpt>
      <trkpt lat="47.94535" lon="-2.4124">
        <ele>31</ele>
        <time>2019-03-30T12:26:13Z</time>
      </trkpt>
      <trkpt lat="47.94541" lon="-2.41238">
        <ele>31</ele>
        <time>2019-03-30T12:26:17Z</time>
      </trkpt>
      <trkpt lat="47.94546" lon="-2.41236">
        <ele>32</ele>
        <time>2019-03-30T12:26:21Z</time>
      </trkpt>
      <trkpt lat="47.94551" lon="-2.41234">
        <ele>33</ele>
        <time>2019-03-30T12:26:25Z</time>
      </trkpt>
      <trkpt lat="47.94555" lon="-2.41233">
        <ele>33</ele>
        <time>2019-03-30T12:26:29Z</time>
      </trkpt>
      <trkpt lat="47.9456" lon="-2.41233">
        <ele>32</ele>
        <time>2019-03-30T12:26:34Z</time>
      </trkpt>
      <trkpt lat="47.94564" lon="-2.4123">
        <ele>32</ele>
        <time>2019-03-30T12:26:39Z</time>
      </trkpt>
      <trkpt lat="47.94569" lon="-2.41228">
        <ele>31</ele>
        <time>2019-03-30T12:26:43Z</time>
      </trkpt>
      <trkpt lat="47.94574" lon="-2.41226">
        <ele>31</ele>
        <time>2019-03-30T12:26:47Z</time>
      </trkpt>
      <trkpt lat="47.94579" lon="-2.41224">
        <ele>30</ele>
        <time>2019-03-30T12:26:52Z</time>
      </trkpt>
      <trkpt lat="47.94584" lon="-2.4122">
        <ele>30</ele>
        <time>2019-03-30T12:26:56Z</time>
      </trkpt>
      <trkpt lat="47.94588" lon="-2.41217">
        <ele>30</ele>
        <time>2019-03-30T12:27:00Z</time>
      </trkpt>
      <trkpt lat="47.94593" lon="-2.41214">
        <ele>30</ele>
        <time>2019-03-30T12:27:04Z</time>
      </trkpt>
      <trkpt lat="47.94597" lon="-2.41212">
        <ele>30</ele>
        <time>2019-03-30T12:27:08Z</time>
      </trkpt>
      <trkpt lat="47.94602" lon="-2.4121">
        <ele>30</ele>
        <time>2019-03-30T12:27:13Z</time>
      </trkpt>
      <trkpt lat="47.94607" lon="-2.41207">
        <ele>30</ele>
        <time>2019-03-30T12:27:17Z</time>
      </trkpt>
      <trkpt lat="47.94613" lon="-2.41204">
        <ele>30</ele>
        <time>2019-03-30T12:27:21Z</time>
      </trkpt>
      <trkpt lat="47.94617" lon="-2.41201">
        <ele>29</ele>
        <time>2019-03-30T12:27:25Z</time>
      </trkpt>
      <trkpt lat="47.94622" lon="-2.41198">
        <ele>29</ele>
        <time>2019-03-30T12:27:29Z</time>
      </trkpt>
      <trkpt lat="47.94627" lon="-2.41197">
        <ele>28</ele>
        <time>2019-03-30T12:27:33Z</time>
      </trkpt>
      <trkpt lat="47.94633" lon="-2.41197">
        <ele>28</ele>
        <time>2019-03-30T12:27:37Z</time>
      </trkpt>
      <trkpt lat="47.94638" lon="-2.41195">
        <ele>28</ele>
        <time>2019-03-30T12:27:41Z</time>
      </trkpt>
      <trkpt lat="47.94644" lon="-2.41194">
        <ele>28</ele>
        <time>2019-03-30T12:27:45Z</time>
      </trkpt>
      <trkpt lat="47.94649" lon="-2.41192">
        <ele>29</ele>
        <time>2019-03-30T12:27:49Z</time>
      </trkpt>
      <trkpt lat="47.94654" lon="-2.41189">
        <ele>29</ele>
        <time>2019-03-30T12:27:53Z</time>
      </trkpt>
      <trkpt lat="47.94659" lon="-2.41186">
        <ele>30</ele>
        <time>2019-03-30T12:27:57Z</time>
      </trkpt>
      <trkpt lat="47.94664" lon="-2.41183">
        <ele>30</ele>
        <time>2019-03-30T12:28:01Z</time>
      </trkpt>
      <trkpt lat="47.94668" lon="-2.41182">
        <ele>31</ele>
        <time>2019-03-30T12:28:05Z</time>
      </trkpt>
      <trkpt lat="47.94674" lon="-2.4118">
        <ele>31</ele>
        <time>2019-03-30T12:28:10Z</time>
      </trkpt>
      <trkpt lat="47.94679" lon="-2.4118">
        <ele>31</ele>
        <time>2019-03-30T12:28:15Z</time>
      </trkpt>
      <trkpt lat="47.94684" lon="-2.41179">
        <ele>31</ele>
        <time>2019-03-30T12:28:20Z</time>
      </trkpt>
      <trkpt lat="47.94689" lon="-2.4118">
        <ele>31</ele>
        <time>2019-03-30T12:28:24Z</time>
      </trkpt>
      <trkpt lat="47.94694" lon="-2.41179">
        <ele>32</ele>
        <time>2019-03-30T12:28:29Z</time>
      </trkpt>
      <trkpt lat="47.947" lon="-2.41178">
        <ele>32</ele>
        <time>2019-03-30T12:28:33Z</time>
      </trkpt>
      <trkpt lat="47.94706" lon="-2.41177">
        <ele>32</ele>
        <time>2019-03-30T12:28:37Z</time>
      </trkpt>
      <trkpt lat="47.9471" lon="-2.41175">
        <ele>31</ele>
        <time>2019-03-30T12:28:40Z</time>
      </trkpt>
      <trkpt lat="47.94715" lon="-2.41172">
        <ele>30</ele>
        <time>2019-03-30T12:28:43Z</time>
      </trkpt>
      <trkpt lat="47.9472" lon="-2.4117">
        <ele>29</ele>
        <time>2019-03-30T12:28:46Z</time>
      </trkpt>
      <trkpt lat="47.94724" lon="-2.41167">
        <ele>28</ele>
        <time>2019-03-30T12:28:49Z</time>
      </trkpt>
      <trkpt lat="47.94729" lon="-2.41165">
        <ele>28</ele>
        <time>2019-03-30T12:28:52Z</time>
      </trkpt>
      <trkpt lat="47.94734" lon="-2.41164">
        <ele>28</ele>
        <time>2019-03-30T12:28:56Z</time>
      </trkpt>
      <trkpt lat="47.94738" lon="-2.41161">
        <ele>27</ele>
        <time>2019-03-30T12:28:59Z</time>
      </trkpt>
      <trkpt lat="47.94743" lon="-2.41159">
        <ele>28</ele>
        <time>2019-03-30T12:29:03Z</time>
      </trkpt>
      <trkpt lat="47.94749" lon="-2.41157">
        <ele>28</ele>
        <time>2019-03-30T12:29:08Z</time>
      </trkpt>
      <trkpt lat="47.94753" lon="-2.41155">
        <ele>29</ele>
        <time>2019-03-30T12:29:12Z</time>
      </trkpt>
      <trkpt lat="47.94758" lon="-2.41153">
        <ele>29</ele>
        <time>2019-03-30T12:29:16Z</time>
      </trkpt>
      <trkpt lat="47.94763" lon="-2.4115">
        <ele>30</ele>
        <time>2019-03-30T12:29:20Z</time>
      </trkpt>
      <trkpt lat="47.94767" lon="-2.41145">
        <ele>30</ele>
        <time>2019-03-30T12:29:24Z</time>
      </trkpt>
      <trkpt lat="47.94771" lon="-2.41141">
        <ele>31</ele>
        <time>2019-03-30T12:29:28Z</time>
      </trkpt>
      <trkpt lat="47.94775" lon="-2.41135">
        <ele>30</ele>
        <time>2019-03-30T12:29:33Z</time>
      </trkpt>
      <trkpt lat="47.94778" lon="-2.41131">
        <ele>29</ele>
        <time>2019-03-30T12:29:37Z</time>
      </trkpt>
      <trkpt lat="47.94782" lon="-2.41127">
        <ele>29</ele>
        <time>2019-03-30T12:29:42Z</time>
      </trkpt>
      <trkpt lat="47.94786" lon="-2.41123">
        <ele>28</ele>
        <time>2019-03-30T12:29:46Z</time>
      </trkpt>
      <trkpt lat="47.94789" lon="-2.41118">
        <ele>28</ele>
        <time>2019-03-30T12:29:49Z</time>
      </trkpt>
      <trkpt lat="47.94793" lon="-2.41112">
        <ele>28</ele>
        <time>2019-03-30T12:29:53Z</time>
      </trkpt>
      <trkpt lat="47.94796" lon="-2.41107">
        <ele>29</ele>
        <time>2019-03-30T12:29:58Z</time>
      </trkpt>
      <trkpt lat="47.948" lon="-2.41101">
        <ele>29</ele>
        <time>2019-03-30T12:30:02Z</time>
      </trkpt>
      <trkpt lat="47.94802" lon="-2.41095">
        <ele>29</ele>
        <time>2019-03-30T12:30:05Z</time>
      </trkpt>
      <trkpt lat="47.94806" lon="-2.41089">
        <ele>29</ele>
        <time>2019-03-30T12:30:12Z</time>
      </trkpt>
      <trkpt lat="47.94809" lon="-2.41083">
        <ele>30</ele>
        <time>2019-03-30T12:30:16Z</time>
      </trkpt>
      <trkpt lat="47.94812" lon="-2.41076">
        <ele>30</ele>
        <time>2019-03-30T12:30:22Z</time>
      </trkpt>
      <trkpt lat="47.94815" lon="-2.41069">
        <ele>30</ele>
        <time>2019-03-30T12:30:26Z</time>
      </trkpt>
      <trkpt lat="47.94817" lon="-2.41063">
        <ele>29</ele>
        <time>2019-03-30T12:30:29Z</time>
      </trkpt>
      <trkpt lat="47.94821" lon="-2.41056">
        <ele>28</ele>
        <time>2019-03-30T12:30:33Z</time>
      </trkpt>
      <trkpt lat="47.94824" lon="-2.4105">
        <ele>27</ele>
        <time>2019-03-30T12:30:36Z</time>
      </trkpt>
      <trkpt lat="47.94827" lon="-2.41046">
        <ele>27</ele>
        <time>2019-03-30T12:30:39Z</time>
      </trkpt>
      <trkpt lat="47.94831" lon="-2.41042">
        <ele>27</ele>
        <time>2019-03-30T12:30:44Z</time>
      </trkpt>
      <trkpt lat="47.94836" lon="-2.41039">
        <ele>27</ele>
        <time>2019-03-30T12:30:48Z</time>
      </trkpt>
      <trkpt lat="47.9484" lon="-2.41036">
        <ele>29</ele>
        <time>2019-03-30T12:30:51Z</time>
      </trkpt>
      <trkpt lat="47.94844" lon="-2.4103">
        <ele>29</ele>
        <time>2019-03-30T12:30:54Z</time>
      </trkpt>
      <trkpt lat="47.94848" lon="-2.41026">
        <ele>29</ele>
        <time>2019-03-30T12:31:00Z</time>
      </trkpt>
      <trkpt lat="47.94852" lon="-2.41022">
        <ele>28</ele>
        <time>2019-03-30T12:31:04Z</time>
      </trkpt>
      <trkpt lat="47.94857" lon="-2.41018">
        <ele>28</ele>
        <time>2019-03-30T12:31:08Z</time>
      </trkpt>
      <trkpt lat="47.94861" lon="-2.41013">
        <ele>28</ele>
        <time>2019-03-30T12:31:12Z</time>
      </trkpt>
      <trkpt lat="47.94865" lon="-2.41008">
        <ele>28</ele>
        <time>2019-03-30T12:31:16Z</time>
      </trkpt>
      <trkpt lat="47.94869" lon="-2.41004">
        <ele>27</ele>
        <time>2019-03-30T12:31:19Z</time>
      </trkpt>
      <trkpt lat="47.94873" lon="-2.41">
        <ele>27</ele>
        <time>2019-03-30T12:31:23Z</time>
      </trkpt>
      <trkpt lat="47.94878" lon="-2.40997">
        <ele>27</ele>
        <time>2019-03-30T12:31:27Z</time>
      </trkpt>
      <trkpt lat="47.94882" lon="-2.40991">
        <ele>27</ele>
        <time>2019-03-30T12:31:31Z</time>
      </trkpt>
      <trkpt lat="47.94887" lon="-2.40988">
        <ele>27</ele>
        <time>2019-03-30T12:31:36Z</time>
      </trkpt>
      <trkpt lat="47.94892" lon="-2.4099">
        <ele>27</ele>
        <time>2019-03-30T12:31:40Z</time>
      </trkpt>
      <trkpt lat="47.94896" lon="-2.40984">
        <ele>27</ele>
        <time>2019-03-30T12:31:44Z</time>
      </trkpt>
      <trkpt lat="47.94899" lon="-2.40979">
        <ele>26</ele>
        <time>2019-03-30T12:31:47Z</time>
      </trkpt>
      <trkpt lat="47.94902" lon="-2.40972">
        <ele>26</ele>
        <time>2019-03-30T12:31:51Z</time>
      </trkpt>
      <trkpt lat="47.94905" lon="-2.40966">
        <ele>27</ele>
        <time>2019-03-30T12:31:55Z</time>
      </trkpt>
      <trkpt lat="47.94908" lon="-2.4096">
        <ele>27</ele>
        <time>2019-03-30T12:31:58Z</time>
      </trkpt>
      <trkpt lat="47.9491" lon="-2.40953">
        <ele>28</ele>
        <time>2019-03-30T12:32:02Z</time>
      </trkpt>
      <trkpt lat="47.94913" lon="-2.40948">
        <ele>28</ele>
        <time>2019-03-30T12:32:05Z</time>
      </trkpt>
      <trkpt lat="47.94915" lon="-2.40941">
        <ele>29</ele>
        <time>2019-03-30T12:32:08Z</time>
      </trkpt>
      <trkpt lat="47.94919" lon="-2.40939">
        <ele>29</ele>
        <time>2019-03-30T12:32:13Z</time>
      </trkpt>
      <trkpt lat="47.94923" lon="-2.40936">
        <ele>29</ele>
        <time>2019-03-30T12:32:17Z</time>
      </trkpt>
      <trkpt lat="47.94929" lon="-2.40934">
        <ele>29</ele>
        <time>2019-03-30T12:32:21Z</time>
      </trkpt>
      <trkpt lat="47.94935" lon="-2.40934">
        <ele>30</ele>
        <time>2019-03-30T12:32:24Z</time>
      </trkpt>
      <trkpt lat="47.9494" lon="-2.40933">
        <ele>31</ele>
        <time>2019-03-30T12:32:29Z</time>
      </trkpt>
      <trkpt lat="47.94946" lon="-2.40933">
        <ele>33</ele>
        <time>2019-03-30T12:32:34Z</time>
      </trkpt>
      <trkpt lat="47.94949" lon="-2.40928">
        <ele>33</ele>
        <time>2019-03-30T12:32:37Z</time>
      </trkpt>
      <trkpt lat="47.94954" lon="-2.40924">
        <ele>33</ele>
        <time>2019-03-30T12:32:41Z</time>
      </trkpt>
      <trkpt lat="47.94958" lon="-2.40921">
        <ele>33</ele>
        <time>2019-03-30T12:32:44Z</time>
      </trkpt>
      <trkpt lat="47.94962" lon="-2.40918">
        <ele>33</ele>
        <time>2019-03-30T12:32:48Z</time>
      </trkpt>
      <trkpt lat="47.94968" lon="-2.40917">
        <ele>32</ele>
        <time>2019-03-30T12:32:55Z</time>
      </trkpt>
      <trkpt lat="47.94973" lon="-2.40914">
        <ele>33</ele>
        <time>2019-03-30T12:32:59Z</time>
      </trkpt>
      <trkpt lat="47.94978" lon="-2.40911">
        <ele>35</ele>
        <time>2019-03-30T12:33:04Z</time>
      </trkpt>
      <trkpt lat="47.94984" lon="-2.40909">
        <ele>36</ele>
        <time>2019-03-30T12:33:07Z</time>
      </trkpt>
      <trkpt lat="47.94989" lon="-2.40909">
        <ele>37</ele>
        <time>2019-03-30T12:33:11Z</time>
      </trkpt>
      <trkpt lat="47.94994" lon="-2.40908">
        <ele>37</ele>
        <time>2019-03-30T12:33:14Z</time>
      </trkpt>
      <trkpt lat="47.94999" lon="-2.40904">
        <ele>37</ele>
        <time>2019-03-30T12:33:20Z</time>
      </trkpt>
      <trkpt lat="47.95004" lon="-2.40901">
        <ele>37</ele>
        <time>2019-03-30T12:33:23Z</time>
      </trkpt>
      <trkpt lat="47.95009" lon="-2.40896">
        <ele>38</ele>
        <time>2019-03-30T12:33:28Z</time>
      </trkpt>
      <trkpt lat="47.95013" lon="-2.40891">
        <ele>38</ele>
        <time>2019-03-30T12:33:30Z</time>
      </trkpt>
      <trkpt lat="47.95017" lon="-2.40886">
        <ele>37</ele>
        <time>2019-03-30T12:33:33Z</time>
      </trkpt>
      <trkpt lat="47.9502" lon="-2.40879">
        <ele>36</ele>
        <time>2019-03-30T12:33:37Z</time>
      </trkpt>
      <trkpt lat="47.95025" lon="-2.40878">
        <ele>34</ele>
        <time>2019-03-30T12:33:42Z</time>
      </trkpt>
      <trkpt lat="47.95029" lon="-2.40873">
        <ele>33</ele>
        <time>2019-03-30T12:33:47Z</time>
      </trkpt>
      <trkpt lat="47.95033" lon="-2.40872">
        <ele>32</ele>
        <time>2019-03-30T12:33:50Z</time>
      </trkpt>
      <trkpt lat="47.95038" lon="-2.40869">
        <ele>31</ele>
        <time>2019-03-30T12:33:55Z</time>
      </trkpt>
      <trkpt lat="47.95044" lon="-2.40865">
        <ele>31</ele>
        <time>2019-03-30T12:33:59Z</time>
      </trkpt>
      <trkpt lat="47.95049" lon="-2.4086">
        <ele>31</ele>
        <time>2019-03-30T12:34:02Z</time>
      </trkpt>
      <trkpt lat="47.95051" lon="-2.40854">
        <ele>31</ele>
        <time>2019-03-30T12:34:07Z</time>
      </trkpt>
      <trkpt lat="47.95055" lon="-2.40851">
        <ele>31</ele>
        <time>2019-03-30T12:34:10Z</time>
      </trkpt>
      <trkpt lat="47.95059" lon="-2.40846">
        <ele>31</ele>
        <time>2019-03-30T12:34:14Z</time>
      </trkpt>
      <trkpt lat="47.95063" lon="-2.4084">
        <ele>31</ele>
        <time>2019-03-30T12:34:17Z</time>
      </trkpt>
      <trkpt lat="47.95067" lon="-2.40836">
        <ele>31</ele>
        <time>2019-03-30T12:34:21Z</time>
      </trkpt>
      <trkpt lat="47.95072" lon="-2.40835">
        <ele>30</ele>
        <time>2019-03-30T12:34:28Z</time>
      </trkpt>
      <trkpt lat="47.95074" lon="-2.40828">
        <ele>28</ele>
        <time>2019-03-30T12:34:30Z</time>
      </trkpt>
      <trkpt lat="47.95075" lon="-2.4082">
        <ele>26</ele>
        <time>2019-03-30T12:34:32Z</time>
      </trkpt>
      <trkpt lat="47.95079" lon="-2.40815">
        <ele>25</ele>
        <time>2019-03-30T12:34:36Z</time>
      </trkpt>
      <trkpt lat="47.95084" lon="-2.40812">
        <ele>24</ele>
        <time>2019-03-30T12:34:40Z</time>
      </trkpt>
      <trkpt lat="47.95089" lon="-2.40815">
        <ele>26</ele>
        <time>2019-03-30T12:34:44Z</time>
      </trkpt>
      <trkpt lat="47.95095" lon="-2.40812">
        <ele>29</ele>
        <time>2019-03-30T12:34:47Z</time>
      </trkpt>
      <trkpt lat="47.951" lon="-2.4081">
        <ele>31</ele>
        <time>2019-03-30T12:34:50Z</time>
      </trkpt>
      <trkpt lat="47.95104" lon="-2.40807">
        <ele>32</ele>
        <time>2019-03-30T12:34:53Z</time>
      </trkpt>
      <trkpt lat="47.95109" lon="-2.40806">
        <ele>32</ele>
        <time>2019-03-30T12:34:57Z</time>
      </trkpt>
      <trkpt lat="47.95114" lon="-2.40804">
        <ele>31</ele>
        <time>2019-03-30T12:35:01Z</time>
      </trkpt>
      <trkpt lat="47.95119" lon="-2.40802">
        <ele>29</ele>
        <time>2019-03-30T12:35:04Z</time>
      </trkpt>
      <trkpt lat="47.95124" lon="-2.408">
        <ele>27</ele>
        <time>2019-03-30T12:35:09Z</time>
      </trkpt>
      <trkpt lat="47.95129" lon="-2.408">
        <ele>26</ele>
        <time>2019-03-30T12:35:12Z</time>
      </trkpt>
      <trkpt lat="47.95134" lon="-2.408">
        <ele>26</ele>
        <time>2019-03-30T12:35:16Z</time>
      </trkpt>
      <trkpt lat="47.95139" lon="-2.40798">
        <ele>26</ele>
        <time>2019-03-30T12:35:19Z</time>
      </trkpt>
      <trkpt lat="47.95144" lon="-2.40797">
        <ele>26</ele>
        <time>2019-03-30T12:35:24Z</time>
      </trkpt>
      <trkpt lat="47.95149" lon="-2.40797">
        <ele>25</ele>
        <time>2019-03-30T12:35:28Z</time>
      </trkpt>
      <trkpt lat="47.95153" lon="-2.40793">
        <ele>25</ele>
        <time>2019-03-30T12:35:32Z</time>
      </trkpt>
      <trkpt lat="47.95152" lon="-2.408">
        <ele>26</ele>
        <time>2019-03-30T12:35:37Z</time>
      </trkpt>
      <trkpt lat="47.95153" lon="-2.40808">
        <ele>27</ele>
        <time>2019-03-30T12:35:41Z</time>
      </trkpt>
      <trkpt lat="47.95155" lon="-2.40816">
        <ele>28</ele>
        <time>2019-03-30T12:35:45Z</time>
      </trkpt>
      <trkpt lat="47.95157" lon="-2.40823">
        <ele>29</ele>
        <time>2019-03-30T12:35:51Z</time>
      </trkpt>
      <trkpt lat="47.95157" lon="-2.40831">
        <ele>31</ele>
        <time>2019-03-30T12:35:55Z</time>
      </trkpt>
      <trkpt lat="47.95158" lon="-2.40838">
        <ele>31</ele>
        <time>2019-03-30T12:35:59Z</time>
      </trkpt>
      <trkpt lat="47.95161" lon="-2.40844">
        <ele>32</ele>
        <time>2019-03-30T12:36:03Z</time>
      </trkpt>
      <trkpt lat="47.95165" lon="-2.40849">
        <ele>33</ele>
        <time>2019-03-30T12:36:07Z</time>
      </trkpt>
      <trkpt lat="47.95168" lon="-2.40854">
        <ele>34</ele>
        <time>2019-03-30T12:36:12Z</time>
      </trkpt>
      <trkpt lat="47.95173" lon="-2.40858">
        <ele>34</ele>
        <time>2019-03-30T12:36:19Z</time>
      </trkpt>
      <trkpt lat="47.95178" lon="-2.40855">
        <ele>34</ele>
        <time>2019-03-30T12:36:23Z</time>
      </trkpt>
      <trkpt lat="47.95183" lon="-2.40855">
        <ele>34</ele>
        <time>2019-03-30T12:36:27Z</time>
      </trkpt>
      <trkpt lat="47.95179" lon="-2.4086">
        <ele>33</ele>
        <time>2019-03-30T12:36:32Z</time>
      </trkpt>
      <trkpt lat="47.95182" lon="-2.40868">
        <ele>31</ele>
        <time>2019-03-30T12:36:36Z</time>
      </trkpt>
      <trkpt lat="47.95185" lon="-2.40874">
        <ele>31</ele>
        <time>2019-03-30T12:36:39Z</time>
      </trkpt>
      <trkpt lat="47.95188" lon="-2.40879">
        <ele>30</ele>
        <time>2019-03-30T12:36:43Z</time>
      </trkpt>
      <trkpt lat="47.95193" lon="-2.40881">
        <ele>29</ele>
        <time>2019-03-30T12:36:48Z</time>
      </trkpt>
      <trkpt lat="47.95196" lon="-2.40889">
        <ele>28</ele>
        <time>2019-03-30T12:36:54Z</time>
      </trkpt>
      <trkpt lat="47.95201" lon="-2.40892">
        <ele>29</ele>
        <time>2019-03-30T12:36:57Z</time>
      </trkpt>
      <trkpt lat="47.95205" lon="-2.40895">
        <ele>28</ele>
        <time>2019-03-30T12:37:03Z</time>
      </trkpt>
      <trkpt lat="47.95211" lon="-2.40898">
        <ele>28</ele>
        <time>2019-03-30T12:37:08Z</time>
      </trkpt>
      <trkpt lat="47.95214" lon="-2.40903">
        <ele>28</ele>
        <time>2019-03-30T12:37:11Z</time>
      </trkpt>
      <trkpt lat="47.95218" lon="-2.40907">
        <ele>29</ele>
        <time>2019-03-30T12:37:16Z</time>
      </trkpt>
      <trkpt lat="47.95223" lon="-2.40912">
        <ele>28</ele>
        <time>2019-03-30T12:37:25Z</time>
      </trkpt>
      <trkpt lat="47.95227" lon="-2.40912">
        <ele>28</ele>
        <time>2019-03-30T12:37:27Z</time>
      </trkpt>
      <trkpt lat="47.95231" lon="-2.40918">
        <ele>30</ele>
        <time>2019-03-30T12:37:32Z</time>
      </trkpt>
      <trkpt lat="47.95234" lon="-2.40923">
        <ele>32</ele>
        <time>2019-03-30T12:37:46Z</time>
      </trkpt>
      <trkpt lat="47.95239" lon="-2.40925">
        <ele>33</ele>
        <time>2019-03-30T12:37:51Z</time>
      </trkpt>
      <trkpt lat="47.95243" lon="-2.40928">
        <ele>34</ele>
        <time>2019-03-30T12:37:56Z</time>
      </trkpt>
      <trkpt lat="47.95248" lon="-2.40932">
        <ele>35</ele>
        <time>2019-03-30T12:38:01Z</time>
      </trkpt>
      <trkpt lat="47.95253" lon="-2.40935">
        <ele>34</ele>
        <time>2019-03-30T12:38:04Z</time>
      </trkpt>
      <trkpt lat="47.95258" lon="-2.40935">
        <ele>33</ele>
        <time>2019-03-30T12:38:09Z</time>
      </trkpt>
      <trkpt lat="47.95263" lon="-2.40937">
        <ele>33</ele>
        <time>2019-03-30T12:38:14Z</time>
      </trkpt>
      <trkpt lat="47.95268" lon="-2.4094">
        <ele>32</ele>
        <time>2019-03-30T12:38:17Z</time>
      </trkpt>
      <trkpt lat="47.95273" lon="-2.40942">
        <ele>32</ele>
        <time>2019-03-30T12:38:22Z</time>
      </trkpt>
      <trkpt lat="47.95277" lon="-2.40945">
        <ele>31</ele>
        <time>2019-03-30T12:38:25Z</time>
      </trkpt>
      <trkpt lat="47.95282" lon="-2.40945">
        <ele>30</ele>
        <time>2019-03-30T12:38:29Z</time>
      </trkpt>
      <trkpt lat="47.95287" lon="-2.40947">
        <ele>30</ele>
        <time>2019-03-30T12:38:32Z</time>
      </trkpt>
      <trkpt lat="47.95293" lon="-2.40951">
        <ele>31</ele>
        <time>2019-03-30T12:38:36Z</time>
      </trkpt>
      <trkpt lat="47.95297" lon="-2.40952">
        <ele>32</ele>
        <time>2019-03-30T12:38:39Z</time>
      </trkpt>
      <trkpt lat="47.95302" lon="-2.4095">
        <ele>32</ele>
        <time>2019-03-30T12:38:44Z</time>
      </trkpt>
      <trkpt lat="47.95308" lon="-2.4095">
        <ele>32</ele>
        <time>2019-03-30T12:38:49Z</time>
      </trkpt>
      <trkpt lat="47.95312" lon="-2.4095">
        <ele>32</ele>
        <time>2019-03-30T12:38:52Z</time>
      </trkpt>
      <trkpt lat="47.95316" lon="-2.40952">
        <ele>31</ele>
        <time>2019-03-30T12:38:55Z</time>
      </trkpt>
      <trkpt lat="47.95321" lon="-2.4095">
        <ele>30</ele>
        <time>2019-03-30T12:38:59Z</time>
      </trkpt>
      <trkpt lat="47.95326" lon="-2.40953">
        <ele>31</ele>
        <time>2019-03-30T12:39:07Z</time>
      </trkpt>
      <trkpt lat="47.95329" lon="-2.4096">
        <ele>31</ele>
        <time>2019-03-30T12:39:11Z</time>
      </trkpt>
      <trkpt lat="47.95333" lon="-2.40964">
        <ele>31</ele>
        <time>2019-03-30T12:39:14Z</time>
      </trkpt>
      <trkpt lat="47.95338" lon="-2.40966">
        <ele>30</ele>
        <time>2019-03-30T12:39:19Z</time>
      </trkpt>
      <trkpt lat="47.95343" lon="-2.40969">
        <ele>31</ele>
        <time>2019-03-30T12:39:23Z</time>
      </trkpt>
      <trkpt lat="47.95348" lon="-2.40968">
        <ele>30</ele>
        <time>2019-03-30T12:39:26Z</time>
      </trkpt>
      <trkpt lat="47.95354" lon="-2.40967">
        <ele>30</ele>
        <time>2019-03-30T12:39:30Z</time>
      </trkpt>
      <trkpt lat="47.95358" lon="-2.40964">
        <ele>29</ele>
        <time>2019-03-30T12:39:34Z</time>
      </trkpt>
      <trkpt lat="47.95363" lon="-2.40963">
        <ele>29</ele>
        <time>2019-03-30T12:39:41Z</time>
      </trkpt>
      <trkpt lat="47.95369" lon="-2.40962">
        <ele>28</ele>
        <time>2019-03-30T12:39:47Z</time>
      </trkpt>
      <trkpt lat="47.95374" lon="-2.40964">
        <ele>28</ele>
        <time>2019-03-30T12:39:51Z</time>
      </trkpt>
      <trkpt lat="47.95379" lon="-2.40968">
        <ele>28</ele>
        <time>2019-03-30T12:39:55Z</time>
      </trkpt>
      <trkpt lat="47.95384" lon="-2.40968">
        <ele>28</ele>
        <time>2019-03-30T12:39:58Z</time>
      </trkpt>
      <trkpt lat="47.95389" lon="-2.40969">
        <ele>29</ele>
        <time>2019-03-30T12:40:02Z</time>
      </trkpt>
      <trkpt lat="47.95395" lon="-2.40969">
        <ele>29</ele>
        <time>2019-03-30T12:40:07Z</time>
      </trkpt>
      <trkpt lat="47.95399" lon="-2.40965">
        <ele>29</ele>
        <time>2019-03-30T12:40:10Z</time>
      </trkpt>
      <trkpt lat="47.95403" lon="-2.4096">
        <ele>28</ele>
        <time>2019-03-30T12:40:20Z</time>
      </trkpt>
      <trkpt lat="47.95408" lon="-2.40956">
        <ele>27</ele>
        <time>2019-03-30T12:40:23Z</time>
      </trkpt>
      <trkpt lat="47.95413" lon="-2.40952">
        <ele>27</ele>
        <time>2019-03-30T12:40:27Z</time>
      </trkpt>
      <trkpt lat="47.95416" lon="-2.40945">
        <ele>27</ele>
        <time>2019-03-30T12:40:30Z</time>
      </trkpt>
      <trkpt lat="47.95421" lon="-2.4094">
        <ele>27</ele>
        <time>2019-03-30T12:40:34Z</time>
      </trkpt>
      <trkpt lat="47.95425" lon="-2.40937">
        <ele>28</ele>
        <time>2019-03-30T12:40:38Z</time>
      </trkpt>
      <trkpt lat="47.95429" lon="-2.40933">
        <ele>29</ele>
        <time>2019-03-30T12:40:43Z</time>
      </trkpt>
      <trkpt lat="47.95433" lon="-2.40938">
        <ele>28</ele>
        <time>2019-03-30T12:40:48Z</time>
      </trkpt>
      <trkpt lat="47.95438" lon="-2.40935">
        <ele>27</ele>
        <time>2019-03-30T12:40:56Z</time>
      </trkpt>
      <trkpt lat="47.95442" lon="-2.4093">
        <ele>26</ele>
        <time>2019-03-30T12:41:02Z</time>
      </trkpt>
      <trkpt lat="47.95446" lon="-2.40925">
        <ele>25</ele>
        <time>2019-03-30T12:41:07Z</time>
      </trkpt>
      <trkpt lat="47.95449" lon="-2.40918">
        <ele>24</ele>
        <time>2019-03-30T12:41:10Z</time>
      </trkpt>
      <trkpt lat="47.95454" lon="-2.40915">
        <ele>24</ele>
        <time>2019-03-30T12:41:16Z</time>
      </trkpt>
      <trkpt lat="47.9546" lon="-2.40912">
        <ele>23</ele>
        <time>2019-03-30T12:41:23Z</time>
      </trkpt>
      <trkpt lat="47.95465" lon="-2.40911">
        <ele>22</ele>
        <time>2019-03-30T12:41:26Z</time>
      </trkpt>
      <trkpt lat="47.9547" lon="-2.40909">
        <ele>21</ele>
        <time>2019-03-30T12:41:29Z</time>
      </trkpt>
      <trkpt lat="47.95474" lon="-2.40906">
        <ele>21</ele>
        <time>2019-03-30T12:41:32Z</time>
      </trkpt>
      <trkpt lat="47.9548" lon="-2.40902">
        <ele>21</ele>
        <time>2019-03-30T12:41:35Z</time>
      </trkpt>
      <trkpt lat="47.95485" lon="-2.409">
        <ele>22</ele>
        <time>2019-03-30T12:41:39Z</time>
      </trkpt>
      <trkpt lat="47.95487" lon="-2.40897">
        <ele>24</ele>
        <time>2019-03-30T12:41:58Z</time>
      </trkpt>
      <trkpt lat="47.9549" lon="-2.40888">
        <ele>25</ele>
        <time>2019-03-30T12:42:03Z</time>
      </trkpt>
      <trkpt lat="47.95495" lon="-2.40886">
        <ele>24</ele>
        <time>2019-03-30T12:42:07Z</time>
      </trkpt>
      <trkpt lat="47.95499" lon="-2.40883">
        <ele>22</ele>
        <time>2019-03-30T12:42:11Z</time>
      </trkpt>
      <trkpt lat="47.95503" lon="-2.40879">
        <ele>20</ele>
        <time>2019-03-30T12:42:14Z</time>
      </trkpt>
      <trkpt lat="47.95506" lon="-2.40873">
        <ele>18</ele>
        <time>2019-03-30T12:42:17Z</time>
      </trkpt>
      <trkpt lat="47.95511" lon="-2.40872">
        <ele>17</ele>
        <time>2019-03-30T12:42:21Z</time>
      </trkpt>
      <trkpt lat="47.95514" lon="-2.40876">
        <ele>19</ele>
        <time>2019-03-30T12:42:25Z</time>
      </trkpt>
      <trkpt lat="47.95515" lon="-2.40883">
        <ele>21</ele>
        <time>2019-03-30T12:42:30Z</time>
      </trkpt>
      <trkpt lat="47.9552" lon="-2.40883">
        <ele>23</ele>
        <time>2019-03-30T12:42:47Z</time>
      </trkpt>
      <trkpt lat="47.95525" lon="-2.40881">
        <ele>26</ele>
        <time>2019-03-30T12:43:02Z</time>
      </trkpt>
      <trkpt lat="47.9553" lon="-2.40883">
        <ele>28</ele>
        <time>2019-03-30T12:43:08Z</time>
      </trkpt>
      <trkpt lat="47.95535" lon="-2.40882">
        <ele>28</ele>
        <time>2019-03-30T12:43:14Z</time>
      </trkpt>
      <trkpt lat="47.95539" lon="-2.40886">
        <ele>29</ele>
        <time>2019-03-30T12:43:21Z</time>
      </trkpt>
      <trkpt lat="47.95543" lon="-2.40883">
        <ele>30</ele>
        <time>2019-03-30T12:43:29Z</time>
      </trkpt>
      <trkpt lat="47.95547" lon="-2.40884">
        <ele>30</ele>
        <time>2019-03-30T12:43:36Z</time>
      </trkpt>
      <trkpt lat="47.95552" lon="-2.40885">
        <ele>31</ele>
        <time>2019-03-30T12:43:47Z</time>
      </trkpt>
      <trkpt lat="47.95557" lon="-2.40888">
        <ele>31</ele>
        <time>2019-03-30T12:43:53Z</time>
      </trkpt>
      <trkpt lat="47.95561" lon="-2.40889">
        <ele>31</ele>
        <time>2019-03-30T12:43:58Z</time>
      </trkpt>
      <trkpt lat="47.95567" lon="-2.40891">
        <ele>31</ele>
        <time>2019-03-30T12:44:02Z</time>
      </trkpt>
      <trkpt lat="47.95572" lon="-2.40893">
        <ele>30</ele>
        <time>2019-03-30T12:44:05Z</time>
      </trkpt>
      <trkpt lat="47.95578" lon="-2.40894">
        <ele>29</ele>
        <time>2019-03-30T12:44:08Z</time>
      </trkpt>
      <trkpt lat="47.95582" lon="-2.40898">
        <ele>28</ele>
        <time>2019-03-30T12:44:13Z</time>
      </trkpt>
      <trkpt lat="47.95587" lon="-2.40902">
        <ele>27</ele>
        <time>2019-03-30T12:44:18Z</time>
      </trkpt>
      <trkpt lat="47.95591" lon="-2.40904">
        <ele>25</ele>
        <time>2019-03-30T12:44:22Z</time>
      </trkpt>
      <trkpt lat="47.95597" lon="-2.40905">
        <ele>24</ele>
        <time>2019-03-30T12:44:27Z</time>
      </trkpt>
      <trkpt lat="47.95601" lon="-2.40909">
        <ele>23</ele>
        <time>2019-03-30T12:44:33Z</time>
      </trkpt>
      <trkpt lat="47.95605" lon="-2.40912">
        <ele>23</ele>
        <time>2019-03-30T12:44:38Z</time>
      </trkpt>
      <trkpt lat="47.9561" lon="-2.40913">
        <ele>23</ele>
        <time>2019-03-30T12:44:43Z</time>
      </trkpt>
      <trkpt lat="47.95615" lon="-2.40916">
        <ele>23</ele>
        <time>2019-03-30T12:44:48Z</time>
      </trkpt>
      <trkpt lat="47.95619" lon="-2.40922">
        <ele>23</ele>
        <time>2019-03-30T12:45:00Z</time>
      </trkpt>
      <trkpt lat="47.95625" lon="-2.4092">
        <ele>23</ele>
        <time>2019-03-30T12:45:04Z</time>
      </trkpt>
      <trkpt lat="47.95628" lon="-2.40915">
        <ele>22</ele>
        <time>2019-03-30T12:45:08Z</time>
      </trkpt>
      <trkpt lat="47.95633" lon="-2.40917">
        <ele>21</ele>
        <time>2019-03-30T12:45:21Z</time>
      </trkpt>
      <trkpt lat="47.95638" lon="-2.40917">
        <ele>21</ele>
        <time>2019-03-30T12:45:27Z</time>
      </trkpt>
      <trkpt lat="47.95643" lon="-2.40917">
        <ele>21</ele>
        <time>2019-03-30T12:45:33Z</time>
      </trkpt>
      <trkpt lat="47.95648" lon="-2.40914">
        <ele>21</ele>
        <time>2019-03-30T12:45:36Z</time>
      </trkpt>
      <trkpt lat="47.95653" lon="-2.40914">
        <ele>21</ele>
        <time>2019-03-30T12:45:40Z</time>
      </trkpt>
      <trkpt lat="47.95657" lon="-2.4091">
        <ele>21</ele>
        <time>2019-03-30T12:45:45Z</time>
      </trkpt>
      <trkpt lat="47.95663" lon="-2.40909">
        <ele>22</ele>
        <time>2019-03-30T12:45:50Z</time>
      </trkpt>
      <trkpt lat="47.95668" lon="-2.40908">
        <ele>23</ele>
        <time>2019-03-30T12:45:54Z</time>
      </trkpt>
      <trkpt lat="47.95672" lon="-2.40913">
        <ele>23</ele>
        <time>2019-03-30T12:46:00Z</time>
      </trkpt>
      <trkpt lat="47.95675" lon="-2.40916">
        <ele>23</ele>
        <time>2019-03-30T12:46:12Z</time>
      </trkpt>
      <trkpt lat="47.95681" lon="-2.40916">
        <ele>23</ele>
        <time>2019-03-30T12:46:22Z</time>
      </trkpt>
      <trkpt lat="47.95686" lon="-2.40917">
        <ele>21</ele>
        <time>2019-03-30T12:46:26Z</time>
      </trkpt>
      <trkpt lat="47.95689" lon="-2.4092">
        <ele>20</ele>
        <time>2019-03-30T12:46:30Z</time>
      </trkpt>
      <trkpt lat="47.95695" lon="-2.4092">
        <ele>19</ele>
        <time>2019-03-30T12:46:35Z</time>
      </trkpt>
      <trkpt lat="47.95699" lon="-2.4092">
        <ele>19</ele>
        <time>2019-03-30T12:46:39Z</time>
      </trkpt>
      <trkpt lat="47.95705" lon="-2.40918">
        <ele>19</ele>
        <time>2019-03-30T12:46:42Z</time>
      </trkpt>
      <trkpt lat="47.95709" lon="-2.40922">
        <ele>19</ele>
        <time>2019-03-30T12:46:47Z</time>
      </trkpt>
      <trkpt lat="47.95713" lon="-2.40927">
        <ele>20</ele>
        <time>2019-03-30T12:46:51Z</time>
      </trkpt>
      <trkpt lat="47.95717" lon="-2.40933">
        <ele>20</ele>
        <time>2019-03-30T12:46:55Z</time>
      </trkpt>
      <trkpt lat="47.95721" lon="-2.40936">
        <ele>20</ele>
        <time>2019-03-30T12:46:59Z</time>
      </trkpt>
      <trkpt lat="47.95726" lon="-2.40934">
        <ele>21</ele>
        <time>2019-03-30T12:47:16Z</time>
      </trkpt>
      <trkpt lat="47.95731" lon="-2.40933">
        <ele>22</ele>
        <time>2019-03-30T12:47:23Z</time>
      </trkpt>
      <trkpt lat="47.95736" lon="-2.40932">
        <ele>23</ele>
        <time>2019-03-30T12:47:28Z</time>
      </trkpt>
      <trkpt lat="47.95741" lon="-2.40934">
        <ele>24</ele>
        <time>2019-03-30T12:47:32Z</time>
      </trkpt>
      <trkpt lat="47.95746" lon="-2.40935">
        <ele>25</ele>
        <time>2019-03-30T12:47:36Z</time>
      </trkpt>
      <trkpt lat="47.9575" lon="-2.40939">
        <ele>25</ele>
        <time>2019-03-30T12:47:41Z</time>
      </trkpt>
      <trkpt lat="47.95755" lon="-2.40938">
        <ele>25</ele>
        <time>2019-03-30T12:47:45Z</time>
      </trkpt>
      <trkpt lat="47.9576" lon="-2.40938">
        <ele>25</ele>
        <time>2019-03-30T12:47:49Z</time>
      </trkpt>
      <trkpt lat="47.95764" lon="-2.40936">
        <ele>25</ele>
        <time>2019-03-30T12:47:52Z</time>
      </trkpt>
      <trkpt lat="47.95769" lon="-2.40934">
        <ele>24</ele>
        <time>2019-03-30T12:47:55Z</time>
      </trkpt>
      <trkpt lat="47.95774" lon="-2.40933">
        <ele>24</ele>
        <time>2019-03-30T12:47:59Z</time>
      </trkpt>
      <trkpt lat="47.95778" lon="-2.40936">
        <ele>23</ele>
        <time>2019-03-30T12:48:03Z</time>
      </trkpt>
      <trkpt lat="47.95782" lon="-2.4094">
        <ele>23</ele>
        <time>2019-03-30T12:48:08Z</time>
      </trkpt>
      <trkpt lat="47.95784" lon="-2.40947">
        <ele>23</ele>
        <time>2019-03-30T12:48:19Z</time>
      </trkpt>
      <trkpt lat="47.95787" lon="-2.40953">
        <ele>22</ele>
        <time>2019-03-30T12:48:24Z</time>
      </trkpt>
      <trkpt lat="47.9579" lon="-2.40959">
        <ele>23</ele>
        <time>2019-03-30T12:48:29Z</time>
      </trkpt>
      <trkpt lat="47.95795" lon="-2.4096">
        <ele>22</ele>
        <time>2019-03-30T12:48:33Z</time>
      </trkpt>
      <trkpt lat="47.958" lon="-2.4096">
        <ele>21</ele>
        <time>2019-03-30T12:48:37Z</time>
      </trkpt>
      <trkpt lat="47.95806" lon="-2.40959">
        <ele>21</ele>
        <time>2019-03-30T12:48:41Z</time>
      </trkpt>
      <trkpt lat="47.9581" lon="-2.40958">
        <ele>21</ele>
        <time>2019-03-30T12:48:45Z</time>
      </trkpt>
      <trkpt lat="47.95815" lon="-2.40956">
        <ele>20</ele>
        <time>2019-03-30T12:48:49Z</time>
      </trkpt>
      <trkpt lat="47.9582" lon="-2.40956">
        <ele>22</ele>
        <time>2019-03-30T12:49:11Z</time>
      </trkpt>
      <trkpt lat="47.95826" lon="-2.40956">
        <ele>24</ele>
        <time>2019-03-30T12:49:15Z</time>
      </trkpt>
      <trkpt lat="47.95831" lon="-2.40957">
        <ele>25</ele>
        <time>2019-03-30T12:49:18Z</time>
      </trkpt>
      <trkpt lat="47.95836" lon="-2.40956">
        <ele>26</ele>
        <time>2019-03-30T12:49:23Z</time>
      </trkpt>
      <trkpt lat="47.95841" lon="-2.40953">
        <ele>27</ele>
        <time>2019-03-30T12:49:26Z</time>
      </trkpt>
      <trkpt lat="47.95846" lon="-2.40953">
        <ele>27</ele>
        <time>2019-03-30T12:49:30Z</time>
      </trkpt>
      <trkpt lat="47.95852" lon="-2.40952">
        <ele>26</ele>
        <time>2019-03-30T12:49:34Z</time>
      </trkpt>
      <trkpt lat="47.95857" lon="-2.4095">
        <ele>24</ele>
        <time>2019-03-30T12:49:38Z</time>
      </trkpt>
      <trkpt lat="47.95861" lon="-2.40946">
        <ele>24</ele>
        <time>2019-03-30T12:49:42Z</time>
      </trkpt>
      <trkpt lat="47.95866" lon="-2.40944">
        <ele>22</ele>
        <time>2019-03-30T12:49:46Z</time>
      </trkpt>
      <trkpt lat="47.9587" lon="-2.4094">
        <ele>21</ele>
        <time>2019-03-30T12:49:50Z</time>
      </trkpt>
      <trkpt lat="47.95875" lon="-2.40942">
        <ele>20</ele>
        <time>2019-03-30T12:50:00Z</time>
      </trkpt>
      <trkpt lat="47.95879" lon="-2.40937">
        <ele>22</ele>
        <time>2019-03-30T12:50:03Z</time>
      </trkpt>
      <trkpt lat="47.95884" lon="-2.40934">
        <ele>22</ele>
        <time>2019-03-30T12:50:06Z</time>
      </trkpt>
      <trkpt lat="47.95885" lon="-2.40926">
        <ele>23</ele>
        <time>2019-03-30T12:50:11Z</time>
      </trkpt>
      <trkpt lat="47.95886" lon="-2.40919">
        <ele>24</ele>
        <time>2019-03-30T12:50:14Z</time>
      </trkpt>
      <trkpt lat="47.95886" lon="-2.4091">
        <ele>24</ele>
        <time>2019-03-30T12:50:17Z</time>
      </trkpt>
      <trkpt lat="47.95885" lon="-2.40902">
        <ele>25</ele>
        <time>2019-03-30T12:50:21Z</time>
      </trkpt>
      <trkpt lat="47.95881" lon="-2.40898">
        <ele>25</ele>
        <time>2019-03-30T12:50:24Z</time>
      </trkpt>
      <trkpt lat="47.95877" lon="-2.40892">
        <ele>25</ele>
        <time>2019-03-30T12:50:28Z</time>
      </trkpt>
      <trkpt lat="47.95872" lon="-2.40886">
        <ele>26</ele>
        <time>2019-03-30T12:50:32Z</time>
      </trkpt>
      <trkpt lat="47.95868" lon="-2.40884">
        <ele>26</ele>
        <time>2019-03-30T12:50:35Z</time>
      </trkpt>
      <trkpt lat="47.95863" lon="-2.40881">
        <ele>26</ele>
        <time>2019-03-30T12:50:39Z</time>
      </trkpt>
      <trkpt lat="47.95858" lon="-2.40877">
        <ele>27</ele>
        <time>2019-03-30T12:50:44Z</time>
      </trkpt>
      <trkpt lat="47.95858" lon="-2.40869">
        <ele>28</ele>
        <time>2019-03-30T12:50:48Z</time>
      </trkpt>
      <trkpt lat="47.95856" lon="-2.40863">
        <ele>29</ele>
        <time>2019-03-30T12:50:54Z</time>
      </trkpt>
      <trkpt lat="47.95853" lon="-2.40856">
        <ele>30</ele>
        <time>2019-03-30T12:50:57Z</time>
      </trkpt>
      <trkpt lat="47.9585" lon="-2.4085">
        <ele>32</ele>
        <time>2019-03-30T12:51:03Z</time>
      </trkpt>
      <trkpt lat="47.95847" lon="-2.40844">
        <ele>32</ele>
        <time>2019-03-30T12:51:07Z</time>
      </trkpt>
      <trkpt lat="47.95843" lon="-2.40837">
        <ele>32</ele>
        <time>2019-03-30T12:51:11Z</time>
      </trkpt>
      <trkpt lat="47.9584" lon="-2.40832">
        <ele>33</ele>
        <time>2019-03-30T12:51:15Z</time>
      </trkpt>
      <trkpt lat="47.95837" lon="-2.40825">
        <ele>33</ele>
        <time>2019-03-30T12:51:19Z</time>
      </trkpt>
      <trkpt lat="47.95834" lon="-2.40819">
        <ele>34</ele>
        <time>2019-03-30T12:51:24Z</time>
      </trkpt>
      <trkpt lat="47.95832" lon="-2.40813">
        <ele>34</ele>
        <time>2019-03-30T12:51:28Z</time>
      </trkpt>
      <trkpt lat="47.95829" lon="-2.40807">
        <ele>34</ele>
        <time>2019-03-30T12:51:33Z</time>
      </trkpt>
      <trkpt lat="47.95829" lon="-2.408">
        <ele>34</ele>
        <time>2019-03-30T12:51:42Z</time>
      </trkpt>
      <trkpt lat="47.95831" lon="-2.40793">
        <ele>33</ele>
        <time>2019-03-30T12:51:49Z</time>
      </trkpt>
      <trkpt lat="47.95827" lon="-2.40789">
        <ele>33</ele>
        <time>2019-03-30T12:51:53Z</time>
      </trkpt>
      <trkpt lat="47.95825" lon="-2.40782">
        <ele>33</ele>
        <time>2019-03-30T12:52:23Z</time>
      </trkpt>
      <trkpt lat="47.95826" lon="-2.40774">
        <ele>33</ele>
        <time>2019-03-30T12:52:27Z</time>
      </trkpt>
      <trkpt lat="47.95826" lon="-2.40767">
        <ele>33</ele>
        <time>2019-03-30T12:52:31Z</time>
      </trkpt>
      <trkpt lat="47.95826" lon="-2.40759">
        <ele>33</ele>
        <time>2019-03-30T12:52:36Z</time>
      </trkpt>
      <trkpt lat="47.95823" lon="-2.40752">
        <ele>34</ele>
        <time>2019-03-30T12:52:39Z</time>
      </trkpt>
      <trkpt lat="47.95823" lon="-2.40745">
        <ele>34</ele>
        <time>2019-03-30T12:52:43Z</time>
      </trkpt>
      <trkpt lat="47.95826" lon="-2.40739">
        <ele>34</ele>
        <time>2019-03-30T12:52:49Z</time>
      </trkpt>
      <trkpt lat="47.95825" lon="-2.40732">
        <ele>33</ele>
        <time>2019-03-30T12:52:54Z</time>
      </trkpt>
      <trkpt lat="47.95824" lon="-2.40725">
        <ele>32</ele>
        <time>2019-03-30T12:52:58Z</time>
      </trkpt>
      <trkpt lat="47.95823" lon="-2.40717">
        <ele>31</ele>
        <time>2019-03-30T12:53:02Z</time>
      </trkpt>
      <trkpt lat="47.95822" lon="-2.4071">
        <ele>29</ele>
        <time>2019-03-30T12:53:06Z</time>
      </trkpt>
      <trkpt lat="47.95824" lon="-2.40703">
        <ele>29</ele>
        <time>2019-03-30T12:53:10Z</time>
      </trkpt>
      <trkpt lat="47.95822" lon="-2.40696">
        <ele>29</ele>
        <time>2019-03-30T12:53:13Z</time>
      </trkpt>
      <trkpt lat="47.95821" lon="-2.40688">
        <ele>28</ele>
        <time>2019-03-30T12:53:17Z</time>
      </trkpt>
      <trkpt lat="47.9582" lon="-2.4068">
        <ele>28</ele>
        <time>2019-03-30T12:53:21Z</time>
      </trkpt>
      <trkpt lat="47.95818" lon="-2.40673">
        <ele>28</ele>
        <time>2019-03-30T12:53:26Z</time>
      </trkpt>
      <trkpt lat="47.95817" lon="-2.40665">
        <ele>28</ele>
        <time>2019-03-30T12:53:31Z</time>
      </trkpt>
      <trkpt lat="47.9582" lon="-2.4066">
        <ele>29</ele>
        <time>2019-03-30T12:53:35Z</time>
      </trkpt>
      <trkpt lat="47.95819" lon="-2.40652">
        <ele>28</ele>
        <time>2019-03-30T12:53:41Z</time>
      </trkpt>
      <trkpt lat="47.95817" lon="-2.40645">
        <ele>28</ele>
        <time>2019-03-30T12:53:44Z</time>
      </trkpt>
      <trkpt lat="47.95816" lon="-2.40638">
        <ele>29</ele>
        <time>2019-03-30T12:53:48Z</time>
      </trkpt>
      <trkpt lat="47.95816" lon="-2.40631">
        <ele>29</ele>
        <time>2019-03-30T12:53:51Z</time>
      </trkpt>
      <trkpt lat="47.95815" lon="-2.40624">
        <ele>30</ele>
        <time>2019-03-30T12:53:55Z</time>
      </trkpt>
      <trkpt lat="47.95813" lon="-2.40618">
        <ele>30</ele>
        <time>2019-03-30T12:53:58Z</time>
      </trkpt>
      <trkpt lat="47.95811" lon="-2.40611">
        <ele>31</ele>
        <time>2019-03-30T12:54:01Z</time>
      </trkpt>
      <trkpt lat="47.95811" lon="-2.40605">
        <ele>32</ele>
        <time>2019-03-30T12:54:05Z</time>
      </trkpt>
      <trkpt lat="47.95808" lon="-2.40599">
        <ele>33</ele>
        <time>2019-03-30T12:54:10Z</time>
      </trkpt>
      <trkpt lat="47.95807" lon="-2.40591">
        <ele>33</ele>
        <time>2019-03-30T12:54:15Z</time>
      </trkpt>
      <trkpt lat="47.95809" lon="-2.40584">
        <ele>33</ele>
        <time>2019-03-30T12:54:19Z</time>
      </trkpt>
      <trkpt lat="47.95812" lon="-2.40577">
        <ele>33</ele>
        <time>2019-03-30T12:54:23Z</time>
      </trkpt>
      <trkpt lat="47.95814" lon="-2.4057">
        <ele>32</ele>
        <time>2019-03-30T12:54:27Z</time>
      </trkpt>
      <trkpt lat="47.95815" lon="-2.40564">
        <ele>31</ele>
        <time>2019-03-30T12:54:31Z</time>
      </trkpt>
      <trkpt lat="47.95813" lon="-2.40559">
        <ele>31</ele>
        <time>2019-03-30T12:54:38Z</time>
      </trkpt>
      <trkpt lat="47.95815" lon="-2.40551">
        <ele>31</ele>
        <time>2019-03-30T12:54:53Z</time>
      </trkpt>
      <trkpt lat="47.95813" lon="-2.40544">
        <ele>32</ele>
        <time>2019-03-30T12:54:57Z</time>
      </trkpt>
      <trkpt lat="47.95813" lon="-2.40537">
        <ele>33</ele>
        <time>2019-03-30T12:55:02Z</time>
      </trkpt>
      <trkpt lat="47.95809" lon="-2.40532">
        <ele>33</ele>
        <time>2019-03-30T12:55:06Z</time>
      </trkpt>
      <trkpt lat="47.95805" lon="-2.40535">
        <ele>32</ele>
        <time>2019-03-30T12:55:16Z</time>
      </trkpt>
      <trkpt lat="47.95801" lon="-2.4053">
        <ele>32</ele>
        <time>2019-03-30T12:55:21Z</time>
      </trkpt>
      <trkpt lat="47.95798" lon="-2.40526">
        <ele>32</ele>
        <time>2019-03-30T12:55:31Z</time>
      </trkpt>
      <trkpt lat="47.95797" lon="-2.40519">
        <ele>33</ele>
        <time>2019-03-30T12:55:42Z</time>
      </trkpt>
      <trkpt lat="47.95802" lon="-2.40515">
        <ele>32</ele>
        <time>2019-03-30T12:55:55Z</time>
      </trkpt>
      <trkpt lat="47.95807" lon="-2.40514">
        <ele>31</ele>
        <time>2019-03-30T12:56:05Z</time>
      </trkpt>
      <trkpt lat="47.9581" lon="-2.40509">
        <ele>31</ele>
        <time>2019-03-30T12:56:15Z</time>
      </trkpt>
      <trkpt lat="47.95814" lon="-2.40506">
        <ele>30</ele>
        <time>2019-03-30T12:56:18Z</time>
      </trkpt>
      <trkpt lat="47.95819" lon="-2.40503">
        <ele>28</ele>
        <time>2019-03-30T12:56:20Z</time>
      </trkpt>
      <trkpt lat="47.95824" lon="-2.405">
        <ele>29</ele>
        <time>2019-03-30T12:56:22Z</time>
      </trkpt>
      <trkpt lat="47.95826" lon="-2.40492">
        <ele>29</ele>
        <time>2019-03-30T12:56:26Z</time>
      </trkpt>
      <trkpt lat="47.95829" lon="-2.40487">
        <ele>29</ele>
        <time>2019-03-30T12:56:33Z</time>
      </trkpt>
      <trkpt lat="47.95831" lon="-2.40481">
        <ele>29</ele>
        <time>2019-03-30T12:56:40Z</time>
      </trkpt>
      <trkpt lat="47.95836" lon="-2.4048">
        <ele>29</ele>
        <time>2019-03-30T12:56:44Z</time>
      </trkpt>
      <trkpt lat="47.95841" lon="-2.40474">
        <ele>29</ele>
        <time>2019-03-30T12:56:51Z</time>
      </trkpt>
      <trkpt lat="47.95844" lon="-2.40469">
        <ele>28</ele>
        <time>2019-03-30T12:56:55Z</time>
      </trkpt>
      <trkpt lat="47.95846" lon="-2.40462">
        <ele>27</ele>
        <time>2019-03-30T12:57:00Z</time>
      </trkpt>
      <trkpt lat="47.9585" lon="-2.40459">
        <ele>27</ele>
        <time>2019-03-30T12:57:04Z</time>
      </trkpt>
      <trkpt lat="47.95856" lon="-2.40458">
        <ele>27</ele>
        <time>2019-03-30T12:57:09Z</time>
      </trkpt>
      <trkpt lat="47.9586" lon="-2.40457">
        <ele>27</ele>
        <time>2019-03-30T12:57:13Z</time>
      </trkpt>
      <trkpt lat="47.95865" lon="-2.40457">
        <ele>27</ele>
        <time>2019-03-30T12:57:18Z</time>
      </trkpt>
      <trkpt lat="47.9587" lon="-2.40458">
        <ele>27</ele>
        <time>2019-03-30T12:57:21Z</time>
      </trkpt>
      <trkpt lat="47.95875" lon="-2.40455">
        <ele>27</ele>
        <time>2019-03-30T12:57:24Z</time>
      </trkpt>
      <trkpt lat="47.95881" lon="-2.40455">
        <ele>27</ele>
        <time>2019-03-30T12:57:27Z</time>
      </trkpt>
      <trkpt lat="47.95886" lon="-2.40453">
        <ele>26</ele>
        <time>2019-03-30T12:57:46Z</time>
      </trkpt>
      <trkpt lat="47.95889" lon="-2.40448">
        <ele>25</ele>
        <time>2019-03-30T12:57:50Z</time>
      </trkpt>
      <trkpt lat="47.95891" lon="-2.40441">
        <ele>26</ele>
        <time>2019-03-30T12:57:57Z</time>
      </trkpt>
      <trkpt lat="47.95892" lon="-2.40433">
        <ele>25</ele>
        <time>2019-03-30T12:58:07Z</time>
      </trkpt>
      <trkpt lat="47.95892" lon="-2.40426">
        <ele>25</ele>
        <time>2019-03-30T12:58:11Z</time>
      </trkpt>
      <trkpt lat="47.9589" lon="-2.40419">
        <ele>25</ele>
        <time>2019-03-30T12:58:18Z</time>
      </trkpt>
      <trkpt lat="47.95892" lon="-2.40412">
        <ele>26</ele>
        <time>2019-03-30T12:58:27Z</time>
      </trkpt>
      <trkpt lat="47.95897" lon="-2.40411">
        <ele>25</ele>
        <time>2019-03-30T12:58:32Z</time>
      </trkpt>
      <trkpt lat="47.959" lon="-2.40405">
        <ele>26</ele>
        <time>2019-03-30T12:58:40Z</time>
      </trkpt>
      <trkpt lat="47.95905" lon="-2.40405">
        <ele>27</ele>
        <time>2019-03-30T12:58:43Z</time>
      </trkpt>
      <trkpt lat="47.95909" lon="-2.40404">
        <ele>27</ele>
        <time>2019-03-30T12:58:46Z</time>
      </trkpt>
      <trkpt lat="47.95915" lon="-2.40403">
        <ele>28</ele>
        <time>2019-03-30T12:58:49Z</time>
      </trkpt>
      <trkpt lat="47.95919" lon="-2.40403">
        <ele>28</ele>
        <time>2019-03-30T12:58:53Z</time>
      </trkpt>
      <trkpt lat="47.95924" lon="-2.40399">
        <ele>27</ele>
        <time>2019-03-30T12:58:56Z</time>
      </trkpt>
      <trkpt lat="47.95927" lon="-2.40394">
        <ele>26</ele>
        <time>2019-03-30T12:59:00Z</time>
      </trkpt>
      <trkpt lat="47.95932" lon="-2.40392">
        <ele>27</ele>
        <time>2019-03-30T12:59:03Z</time>
      </trkpt>
      <trkpt lat="47.95936" lon="-2.40389">
        <ele>27</ele>
        <time>2019-03-30T12:59:06Z</time>
      </trkpt>
      <trkpt lat="47.95942" lon="-2.40385">
        <ele>27</ele>
        <time>2019-03-30T12:59:10Z</time>
      </trkpt>
      <trkpt lat="47.95947" lon="-2.40383">
        <ele>26</ele>
        <time>2019-03-30T12:59:14Z</time>
      </trkpt>
      <trkpt lat="47.95951" lon="-2.4038">
        <ele>27</ele>
        <time>2019-03-30T12:59:17Z</time>
      </trkpt>
      <trkpt lat="47.95956" lon="-2.40381">
        <ele>27</ele>
        <time>2019-03-30T12:59:21Z</time>
      </trkpt>
      <trkpt lat="47.95961" lon="-2.40376">
        <ele>27</ele>
        <time>2019-03-30T12:59:25Z</time>
      </trkpt>
      <trkpt lat="47.95966" lon="-2.40375">
        <ele>27</ele>
        <time>2019-03-30T12:59:31Z</time>
      </trkpt>
      <trkpt lat="47.9597" lon="-2.40375">
        <ele>28</ele>
        <time>2019-03-30T12:59:38Z</time>
      </trkpt>
      <trkpt lat="47.95974" lon="-2.40372">
        <ele>28</ele>
        <time>2019-03-30T12:59:41Z</time>
      </trkpt>
      <trkpt lat="47.95979" lon="-2.40367">
        <ele>28</ele>
        <time>2019-03-30T12:59:44Z</time>
      </trkpt>
      <trkpt lat="47.95984" lon="-2.40365">
        <ele>29</ele>
        <time>2019-03-30T12:59:48Z</time>
      </trkpt>
      <trkpt lat="47.9599" lon="-2.40364">
        <ele>30</ele>
        <time>2019-03-30T12:59:52Z</time>
      </trkpt>
      <trkpt lat="47.95994" lon="-2.40362">
        <ele>30</ele>
        <time>2019-03-30T12:59:55Z</time>
      </trkpt>
      <trkpt lat="47.95999" lon="-2.40357">
        <ele>30</ele>
        <time>2019-03-30T12:59:58Z</time>
      </trkpt>
      <trkpt lat="47.96003" lon="-2.40353">
        <ele>30</ele>
        <time>2019-03-30T13:00:01Z</time>
      </trkpt>
      <trkpt lat="47.96008" lon="-2.4035">
        <ele>31</ele>
        <time>2019-03-30T13:00:12Z</time>
      </trkpt>
      <trkpt lat="47.96012" lon="-2.40346">
        <ele>32</ele>
        <time>2019-03-30T13:00:18Z</time>
      </trkpt>
      <trkpt lat="47.96015" lon="-2.4034">
        <ele>34</ele>
        <time>2019-03-30T13:00:22Z</time>
      </trkpt>
      <trkpt lat="47.96021" lon="-2.40338">
        <ele>36</ele>
        <time>2019-03-30T13:00:26Z</time>
      </trkpt>
      <trkpt lat="47.96025" lon="-2.40335">
        <ele>37</ele>
        <time>2019-03-30T13:00:31Z</time>
      </trkpt>
      <trkpt lat="47.96028" lon="-2.40329">
        <ele>38</ele>
        <time>2019-03-30T13:00:36Z</time>
      </trkpt>
      <trkpt lat="47.96033" lon="-2.40327">
        <ele>39</ele>
        <time>2019-03-30T13:00:41Z</time>
      </trkpt>
      <trkpt lat="47.96038" lon="-2.40324">
        <ele>40</ele>
        <time>2019-03-30T13:00:46Z</time>
      </trkpt>
      <trkpt lat="47.96042" lon="-2.4032">
        <ele>40</ele>
        <time>2019-03-30T13:00:50Z</time>
      </trkpt>
      <trkpt lat="47.96047" lon="-2.40318">
        <ele>40</ele>
        <time>2019-03-30T13:00:53Z</time>
      </trkpt>
      <trkpt lat="47.96052" lon="-2.40316">
        <ele>40</ele>
        <time>2019-03-30T13:00:56Z</time>
      </trkpt>
      <trkpt lat="47.96057" lon="-2.40315">
        <ele>40</ele>
        <time>2019-03-30T13:01:02Z</time>
      </trkpt>
      <trkpt lat="47.96062" lon="-2.40313">
        <ele>40</ele>
        <time>2019-03-30T13:01:07Z</time>
      </trkpt>
      <trkpt lat="47.96066" lon="-2.40309">
        <ele>40</ele>
        <time>2019-03-30T13:01:11Z</time>
      </trkpt>
      <trkpt lat="47.96071" lon="-2.40306">
        <ele>40</ele>
        <time>2019-03-30T13:01:15Z</time>
      </trkpt>
      <trkpt lat="47.96075" lon="-2.40303">
        <ele>40</ele>
        <time>2019-03-30T13:01:19Z</time>
      </trkpt>
      <trkpt lat="47.9608" lon="-2.40299">
        <ele>40</ele>
        <time>2019-03-30T13:01:23Z</time>
      </trkpt>
      <trkpt lat="47.96084" lon="-2.40295">
        <ele>39</ele>
        <time>2019-03-30T13:01:29Z</time>
      </trkpt>
      <trkpt lat="47.9609" lon="-2.40291">
        <ele>38</ele>
        <time>2019-03-30T13:01:33Z</time>
      </trkpt>
      <trkpt lat="47.96093" lon="-2.40286">
        <ele>37</ele>
        <time>2019-03-30T13:01:37Z</time>
      </trkpt>
      <trkpt lat="47.96098" lon="-2.40282">
        <ele>36</ele>
        <time>2019-03-30T13:01:41Z</time>
      </trkpt>
      <trkpt lat="47.96103" lon="-2.4028">
        <ele>36</ele>
        <time>2019-03-30T13:01:44Z</time>
      </trkpt>
      <trkpt lat="47.96108" lon="-2.40276">
        <ele>37</ele>
        <time>2019-03-30T13:01:48Z</time>
      </trkpt>
      <trkpt lat="47.96113" lon="-2.40272">
        <ele>39</ele>
        <time>2019-03-30T13:01:52Z</time>
      </trkpt>
      <trkpt lat="47.96117" lon="-2.40269">
        <ele>39</ele>
        <time>2019-03-30T13:01:56Z</time>
      </trkpt>
      <trkpt lat="47.96122" lon="-2.40265">
        <ele>40</ele>
        <time>2019-03-30T13:02:00Z</time>
      </trkpt>
      <trkpt lat="47.96126" lon="-2.40261">
        <ele>40</ele>
        <time>2019-03-30T13:02:04Z</time>
      </trkpt>
      <trkpt lat="47.96131" lon="-2.40257">
        <ele>40</ele>
        <time>2019-03-30T13:02:07Z</time>
      </trkpt>
      <trkpt lat="47.96135" lon="-2.40253">
        <ele>39</ele>
        <time>2019-03-30T13:02:10Z</time>
      </trkpt>
      <trkpt lat="47.96138" lon="-2.40249">
        <ele>39</ele>
        <time>2019-03-30T13:02:15Z</time>
      </trkpt>
      <trkpt lat="47.96141" lon="-2.40242">
        <ele>39</ele>
        <time>2019-03-30T13:02:19Z</time>
      </trkpt>
      <trkpt lat="47.96146" lon="-2.40237">
        <ele>40</ele>
        <time>2019-03-30T13:02:22Z</time>
      </trkpt>
      <trkpt lat="47.9615" lon="-2.40233">
        <ele>41</ele>
        <time>2019-03-30T13:02:25Z</time>
      </trkpt>
      <trkpt lat="47.96154" lon="-2.40227">
        <ele>41</ele>
        <time>2019-03-30T13:02:29Z</time>
      </trkpt>
      <trkpt lat="47.96158" lon="-2.40222">
        <ele>42</ele>
        <time>2019-03-30T13:02:33Z</time>
      </trkpt>
      <trkpt lat="47.96162" lon="-2.40217">
        <ele>43</ele>
        <time>2019-03-30T13:02:38Z</time>
      </trkpt>
      <trkpt lat="47.96167" lon="-2.40215">
        <ele>44</ele>
        <time>2019-03-30T13:02:42Z</time>
      </trkpt>
      <trkpt lat="47.96172" lon="-2.40209">
        <ele>44</ele>
        <time>2019-03-30T13:02:45Z</time>
      </trkpt>
      <trkpt lat="47.96176" lon="-2.40204">
        <ele>43</ele>
        <time>2019-03-30T13:02:48Z</time>
      </trkpt>
      <trkpt lat="47.9618" lon="-2.402">
        <ele>42</ele>
        <time>2019-03-30T13:02:50Z</time>
      </trkpt>
      <trkpt lat="47.96184" lon="-2.40194">
        <ele>41</ele>
        <time>2019-03-30T13:02:53Z</time>
      </trkpt>
      <trkpt lat="47.96188" lon="-2.4019">
        <ele>40</ele>
        <time>2019-03-30T13:02:56Z</time>
      </trkpt>
      <trkpt lat="47.96191" lon="-2.40183">
        <ele>38</ele>
        <time>2019-03-30T13:03:00Z</time>
      </trkpt>
      <trkpt lat="47.96195" lon="-2.40178">
        <ele>38</ele>
        <time>2019-03-30T13:03:03Z</time>
      </trkpt>
      <trkpt lat="47.96199" lon="-2.40173">
        <ele>37</ele>
        <time>2019-03-30T13:03:06Z</time>
      </trkpt>
      <trkpt lat="47.96203" lon="-2.40169">
        <ele>36</ele>
        <time>2019-03-30T13:03:08Z</time>
      </trkpt>
      <trkpt lat="47.96207" lon="-2.40163">
        <ele>36</ele>
        <time>2019-03-30T13:03:15Z</time>
      </trkpt>
      <trkpt lat="47.9621" lon="-2.40157">
        <ele>36</ele>
        <time>2019-03-30T13:03:18Z</time>
      </trkpt>
      <trkpt lat="47.96213" lon="-2.40152">
        <ele>35</ele>
        <time>2019-03-30T13:03:21Z</time>
      </trkpt>
      <trkpt lat="47.96217" lon="-2.40147">
        <ele>34</ele>
        <time>2019-03-30T13:03:26Z</time>
      </trkpt>
      <trkpt lat="47.96222" lon="-2.40146">
        <ele>34</ele>
        <time>2019-03-30T13:03:31Z</time>
      </trkpt>
      <trkpt lat="47.96225" lon="-2.40139">
        <ele>33</ele>
        <time>2019-03-30T13:03:35Z</time>
      </trkpt>
      <trkpt lat="47.96228" lon="-2.40133">
        <ele>33</ele>
        <time>2019-03-30T13:03:39Z</time>
      </trkpt>
      <trkpt lat="47.96231" lon="-2.40127">
        <ele>34</ele>
        <time>2019-03-30T13:03:42Z</time>
      </trkpt>
      <trkpt lat="47.96234" lon="-2.4012">
        <ele>34</ele>
        <time>2019-03-30T13:03:45Z</time>
      </trkpt>
      <trkpt lat="47.96236" lon="-2.40113">
        <ele>35</ele>
        <time>2019-03-30T13:03:49Z</time>
      </trkpt>
      <trkpt lat="47.96239" lon="-2.40106">
        <ele>35</ele>
        <time>2019-03-30T13:03:52Z</time>
      </trkpt>
      <trkpt lat="47.96242" lon="-2.40101">
        <ele>36</ele>
        <time>2019-03-30T13:03:55Z</time>
      </trkpt>
      <trkpt lat="47.96247" lon="-2.40094">
        <ele>36</ele>
        <time>2019-03-30T13:03:59Z</time>
      </trkpt>
      <trkpt lat="47.96249" lon="-2.40089">
        <ele>37</ele>
        <time>2019-03-30T13:04:02Z</time>
      </trkpt>
      <trkpt lat="47.96252" lon="-2.40082">
        <ele>37</ele>
        <time>2019-03-30T13:04:05Z</time>
      </trkpt>
      <trkpt lat="47.96256" lon="-2.40076">
        <ele>37</ele>
        <time>2019-03-30T13:04:08Z</time>
      </trkpt>
      <trkpt lat="47.96257" lon="-2.40068">
        <ele>36</ele>
        <time>2019-03-30T13:04:12Z</time>
      </trkpt>
      <trkpt lat="47.96263" lon="-2.40057">
        <ele>36</ele>
        <time>2019-03-30T13:04:17Z</time>
      </trkpt>
      <trkpt lat="47.96267" lon="-2.40052">
        <ele>35</ele>
        <time>2019-03-30T13:04:20Z</time>
      </trkpt>
      <trkpt lat="47.9627" lon="-2.40044">
        <ele>35</ele>
        <time>2019-03-30T13:04:24Z</time>
      </trkpt>
      <trkpt lat="47.96273" lon="-2.40038">
        <ele>35</ele>
        <time>2019-03-30T13:04:27Z</time>
      </trkpt>
      <trkpt lat="47.96277" lon="-2.40032">
        <ele>36</ele>
        <time>2019-03-30T13:04:30Z</time>
      </trkpt>
      <trkpt lat="47.96281" lon="-2.40027">
        <ele>37</ele>
        <time>2019-03-30T13:04:33Z</time>
      </trkpt>
      <trkpt lat="47.96284" lon="-2.4002">
        <ele>38</ele>
        <time>2019-03-30T13:04:37Z</time>
      </trkpt>
      <trkpt lat="47.96287" lon="-2.40012">
        <ele>39</ele>
        <time>2019-03-30T13:04:41Z</time>
      </trkpt>
      <trkpt lat="47.96291" lon="-2.40005">
        <ele>40</ele>
        <time>2019-03-30T13:04:44Z</time>
      </trkpt>
      <trkpt lat="47.96295" lon="-2.4">
        <ele>41</ele>
        <time>2019-03-30T13:04:47Z</time>
      </trkpt>
      <trkpt lat="47.96298" lon="-2.39993">
        <ele>41</ele>
        <time>2019-03-30T13:04:50Z</time>
      </trkpt>
      <trkpt lat="47.96301" lon="-2.39987">
        <ele>42</ele>
        <time>2019-03-30T13:04:54Z</time>
      </trkpt>
      <trkpt lat="47.96302" lon="-2.3998">
        <ele>43</ele>
        <time>2019-03-30T13:04:58Z</time>
      </trkpt>
      <trkpt lat="47.96304" lon="-2.39973">
        <ele>43</ele>
        <time>2019-03-30T13:05:03Z</time>
      </trkpt>
      <trkpt lat="47.96306" lon="-2.39964">
        <ele>44</ele>
        <time>2019-03-30T13:05:08Z</time>
      </trkpt>
      <trkpt lat="47.96308" lon="-2.39957">
        <ele>44</ele>
        <time>2019-03-30T13:05:11Z</time>
      </trkpt>
      <trkpt lat="47.9631" lon="-2.3995">
        <ele>44</ele>
        <time>2019-03-30T13:05:15Z</time>
      </trkpt>
      <trkpt lat="47.9631" lon="-2.39942">
        <ele>43</ele>
        <time>2019-03-30T13:05:18Z</time>
      </trkpt>
      <trkpt lat="47.96312" lon="-2.39935">
        <ele>43</ele>
        <time>2019-03-30T13:05:21Z</time>
      </trkpt>
      <trkpt lat="47.96314" lon="-2.39928">
        <ele>41</ele>
        <time>2019-03-30T13:05:25Z</time>
      </trkpt>
      <trkpt lat="47.96315" lon="-2.39922">
        <ele>40</ele>
        <time>2019-03-30T13:05:28Z</time>
      </trkpt>
      <trkpt lat="47.96316" lon="-2.39914">
        <ele>39</ele>
        <time>2019-03-30T13:05:31Z</time>
      </trkpt>
      <trkpt lat="47.96316" lon="-2.39906">
        <ele>39</ele>
        <time>2019-03-30T13:05:35Z</time>
      </trkpt>
      <trkpt lat="47.96318" lon="-2.39898">
        <ele>38</ele>
        <time>2019-03-30T13:05:39Z</time>
      </trkpt>
      <trkpt lat="47.96319" lon="-2.39891">
        <ele>38</ele>
        <time>2019-03-30T13:05:43Z</time>
      </trkpt>
      <trkpt lat="47.96321" lon="-2.39885">
        <ele>37</ele>
        <time>2019-03-30T13:05:48Z</time>
      </trkpt>
      <trkpt lat="47.96322" lon="-2.39878">
        <ele>37</ele>
        <time>2019-03-30T13:05:51Z</time>
      </trkpt>
      <trkpt lat="47.96325" lon="-2.39869">
        <ele>36</ele>
        <time>2019-03-30T13:05:54Z</time>
      </trkpt>
      <trkpt lat="47.96326" lon="-2.39862">
        <ele>35</ele>
        <time>2019-03-30T13:05:57Z</time>
      </trkpt>
      <trkpt lat="47.9633" lon="-2.39857">
        <ele>34</ele>
        <time>2019-03-30T13:06:01Z</time>
      </trkpt>
      <trkpt lat="47.96333" lon="-2.39851">
        <ele>33</ele>
        <time>2019-03-30T13:06:05Z</time>
      </trkpt>
      <trkpt lat="47.96331" lon="-2.39845">
        <ele>31</ele>
        <time>2019-03-30T13:06:07Z</time>
      </trkpt>
      <trkpt lat="47.9633" lon="-2.39837">
        <ele>31</ele>
        <time>2019-03-30T13:06:10Z</time>
      </trkpt>
      <trkpt lat="47.96331" lon="-2.39829">
        <ele>31</ele>
        <time>2019-03-30T13:06:13Z</time>
      </trkpt>
      <trkpt lat="47.96333" lon="-2.39822">
        <ele>31</ele>
        <time>2019-03-30T13:06:16Z</time>
      </trkpt>
      <trkpt lat="47.96333" lon="-2.39815">
        <ele>32</ele>
        <time>2019-03-30T13:06:19Z</time>
      </trkpt>
      <trkpt lat="47.96334" lon="-2.39808">
        <ele>32</ele>
        <time>2019-03-30T13:06:22Z</time>
      </trkpt>
      <trkpt lat="47.96337" lon="-2.39803">
        <ele>32</ele>
        <time>2019-03-30T13:06:25Z</time>
      </trkpt>
      <trkpt lat="47.96339" lon="-2.39795">
        <ele>31</ele>
        <time>2019-03-30T13:06:29Z</time>
      </trkpt>
      <trkpt lat="47.96341" lon="-2.39785">
        <ele>31</ele>
        <time>2019-03-30T13:06:33Z</time>
      </trkpt>
      <trkpt lat="47.96342" lon="-2.39778">
        <ele>29</ele>
        <time>2019-03-30T13:06:36Z</time>
      </trkpt>
      <trkpt lat="47.96344" lon="-2.39771">
        <ele>28</ele>
        <time>2019-03-30T13:06:41Z</time>
      </trkpt>
      <trkpt lat="47.96345" lon="-2.39763">
        <ele>28</ele>
        <time>2019-03-30T13:06:45Z</time>
      </trkpt>
      <trkpt lat="47.96346" lon="-2.39754">
        <ele>28</ele>
        <time>2019-03-30T13:06:48Z</time>
      </trkpt>
      <trkpt lat="47.96347" lon="-2.39747">
        <ele>28</ele>
        <time>2019-03-30T13:06:52Z</time>
      </trkpt>
      <trkpt lat="47.96347" lon="-2.39738">
        <ele>29</ele>
        <time>2019-03-30T13:06:56Z</time>
      </trkpt>
      <trkpt lat="47.9635" lon="-2.39731">
        <ele>30</ele>
        <time>2019-03-30T13:07:01Z</time>
      </trkpt>
      <trkpt lat="47.96349" lon="-2.39724">
        <ele>30</ele>
        <time>2019-03-30T13:07:04Z</time>
      </trkpt>
      <trkpt lat="47.96348" lon="-2.39715">
        <ele>31</ele>
        <time>2019-03-30T13:07:08Z</time>
      </trkpt>
      <trkpt lat="47.96348" lon="-2.39708">
        <ele>30</ele>
        <time>2019-03-30T13:07:11Z</time>
      </trkpt>
      <trkpt lat="47.96347" lon="-2.39699">
        <ele>29</ele>
        <time>2019-03-30T13:07:15Z</time>
      </trkpt>
      <trkpt lat="47.96347" lon="-2.39692">
        <ele>29</ele>
        <time>2019-03-30T13:07:19Z</time>
      </trkpt>
      <trkpt lat="47.96347" lon="-2.39684">
        <ele>29</ele>
        <time>2019-03-30T13:07:22Z</time>
      </trkpt>
      <trkpt lat="47.96349" lon="-2.39675">
        <ele>29</ele>
        <time>2019-03-30T13:07:25Z</time>
      </trkpt>
      <trkpt lat="47.96349" lon="-2.39668">
        <ele>30</ele>
        <time>2019-03-30T13:07:28Z</time>
      </trkpt>
      <trkpt lat="47.96351" lon="-2.3966">
        <ele>32</ele>
        <time>2019-03-30T13:07:31Z</time>
      </trkpt>
      <trkpt lat="47.96352" lon="-2.39652">
        <ele>32</ele>
        <time>2019-03-30T13:07:35Z</time>
      </trkpt>
      <trkpt lat="47.96353" lon="-2.39645">
        <ele>32</ele>
        <time>2019-03-30T13:07:40Z</time>
      </trkpt>
      <trkpt lat="47.96354" lon="-2.39638">
        <ele>32</ele>
        <time>2019-03-30T13:07:43Z</time>
      </trkpt>
      <trkpt lat="47.96354" lon="-2.39632">
        <ele>31</ele>
        <time>2019-03-30T13:07:46Z</time>
      </trkpt>
      <trkpt lat="47.96352" lon="-2.39624">
        <ele>29</ele>
        <time>2019-03-30T13:07:50Z</time>
      </trkpt>
      <trkpt lat="47.96355" lon="-2.39618">
        <ele>27</ele>
        <time>2019-03-30T13:07:55Z</time>
      </trkpt>
      <trkpt lat="47.96355" lon="-2.39611">
        <ele>26</ele>
        <time>2019-03-30T13:07:59Z</time>
      </trkpt>
      <trkpt lat="47.96355" lon="-2.39604">
        <ele>25</ele>
        <time>2019-03-30T13:08:02Z</time>
      </trkpt>
      <trkpt lat="47.96356" lon="-2.39597">
        <ele>26</ele>
        <time>2019-03-30T13:08:05Z</time>
      </trkpt>
      <trkpt lat="47.96357" lon="-2.3959">
        <ele>26</ele>
        <time>2019-03-30T13:08:08Z</time>
      </trkpt>
      <trkpt lat="47.96357" lon="-2.39583">
        <ele>26</ele>
        <time>2019-03-30T13:08:11Z</time>
      </trkpt>
      <trkpt lat="47.96359" lon="-2.39576">
        <ele>26</ele>
        <time>2019-03-30T13:08:14Z</time>
      </trkpt>
      <trkpt lat="47.9636" lon="-2.39569">
        <ele>25</ele>
        <time>2019-03-30T13:08:17Z</time>
      </trkpt>
      <trkpt lat="47.9636" lon="-2.39562">
        <ele>23</ele>
        <time>2019-03-30T13:08:20Z</time>
      </trkpt>
      <trkpt lat="47.96359" lon="-2.39554">
        <ele>23</ele>
        <time>2019-03-30T13:08:23Z</time>
      </trkpt>
      <trkpt lat="47.9636" lon="-2.39547">
        <ele>22</ele>
        <time>2019-03-30T13:08:26Z</time>
      </trkpt>
      <trkpt lat="47.96363" lon="-2.39541">
        <ele>23</ele>
        <time>2019-03-30T13:08:29Z</time>
      </trkpt>
      <trkpt lat="47.96366" lon="-2.39534">
        <ele>24</ele>
        <time>2019-03-30T13:08:33Z</time>
      </trkpt>
      <trkpt lat="47.96365" lon="-2.39526">
        <ele>24</ele>
        <time>2019-03-30T13:08:37Z</time>
      </trkpt>
      <trkpt lat="47.96366" lon="-2.39517">
        <ele>24</ele>
        <time>2019-03-30T13:08:41Z</time>
      </trkpt>
      <trkpt lat="47.96367" lon="-2.3951">
        <ele>24</ele>
        <time>2019-03-30T13:08:45Z</time>
      </trkpt>
      <trkpt lat="47.96368" lon="-2.39503">
        <ele>23</ele>
        <time>2019-03-30T13:08:48Z</time>
      </trkpt>
      <trkpt lat="47.96368" lon="-2.39496">
        <ele>23</ele>
        <time>2019-03-30T13:08:52Z</time>
      </trkpt>
      <trkpt lat="47.9637" lon="-2.39487">
        <ele>23</ele>
        <time>2019-03-30T13:08:56Z</time>
      </trkpt>
      <trkpt lat="47.96372" lon="-2.3948">
        <ele>23</ele>
        <time>2019-03-30T13:09:00Z</time>
      </trkpt>
      <trkpt lat="47.96371" lon="-2.39472">
        <ele>23</ele>
        <time>2019-03-30T13:09:05Z</time>
      </trkpt>
      <trkpt lat="47.96372" lon="-2.39464">
        <ele>23</ele>
        <time>2019-03-30T13:09:09Z</time>
      </trkpt>
      <trkpt lat="47.96375" lon="-2.39457">
        <ele>22</ele>
        <time>2019-03-30T13:09:14Z</time>
      </trkpt>
      <trkpt lat="47.96375" lon="-2.39448">
        <ele>22</ele>
        <time>2019-03-30T13:09:17Z</time>
      </trkpt>
      <trkpt lat="47.96377" lon="-2.39442">
        <ele>20</ele>
        <time>2019-03-30T13:09:20Z</time>
      </trkpt>
      <trkpt lat="47.96377" lon="-2.39434">
        <ele>21</ele>
        <time>2019-03-30T13:09:24Z</time>
      </trkpt>
      <trkpt lat="47.96378" lon="-2.39427">
        <ele>21</ele>
        <time>2019-03-30T13:09:27Z</time>
      </trkpt>
      <trkpt lat="47.9638" lon="-2.39421">
        <ele>22</ele>
        <time>2019-03-30T13:09:30Z</time>
      </trkpt>
      <trkpt lat="47.96381" lon="-2.39413">
        <ele>22</ele>
        <time>2019-03-30T13:09:34Z</time>
      </trkpt>
      <trkpt lat="47.96383" lon="-2.39404">
        <ele>23</ele>
        <time>2019-03-30T13:09:38Z</time>
      </trkpt>
      <trkpt lat="47.96384" lon="-2.39397">
        <ele>23</ele>
        <time>2019-03-30T13:09:41Z</time>
      </trkpt>
      <trkpt lat="47.96385" lon="-2.39389">
        <ele>23</ele>
        <time>2019-03-30T13:09:45Z</time>
      </trkpt>
      <trkpt lat="47.96386" lon="-2.3938">
        <ele>23</ele>
        <time>2019-03-30T13:09:49Z</time>
      </trkpt>
      <trkpt lat="47.96385" lon="-2.39373">
        <ele>23</ele>
        <time>2019-03-30T13:09:53Z</time>
      </trkpt>
      <trkpt lat="47.96384" lon="-2.39366">
        <ele>23</ele>
        <time>2019-03-30T13:09:57Z</time>
      </trkpt>
      <trkpt lat="47.96385" lon="-2.39358">
        <ele>24</ele>
        <time>2019-03-30T13:10:01Z</time>
      </trkpt>
      <trkpt lat="47.96385" lon="-2.3935">
        <ele>25</ele>
        <time>2019-03-30T13:10:04Z</time>
      </trkpt>
      <trkpt lat="47.96386" lon="-2.39341">
        <ele>27</ele>
        <time>2019-03-30T13:10:08Z</time>
      </trkpt>
      <trkpt lat="47.96389" lon="-2.39335">
        <ele>30</ele>
        <time>2019-03-30T13:10:11Z</time>
      </trkpt>
      <trkpt lat="47.96393" lon="-2.39331">
        <ele>32</ele>
        <time>2019-03-30T13:10:15Z</time>
      </trkpt>
      <trkpt lat="47.96397" lon="-2.39326">
        <ele>33</ele>
        <time>2019-03-30T13:10:19Z</time>
      </trkpt>
      <trkpt lat="47.964" lon="-2.39321">
        <ele>34</ele>
        <time>2019-03-30T13:10:24Z</time>
      </trkpt>
      <trkpt lat="47.96402" lon="-2.39313">
        <ele>34</ele>
        <time>2019-03-30T13:10:28Z</time>
      </trkpt>
      <trkpt lat="47.96406" lon="-2.39306">
        <ele>35</ele>
        <time>2019-03-30T13:10:31Z</time>
      </trkpt>
      <trkpt lat="47.96409" lon="-2.39301">
        <ele>36</ele>
        <time>2019-03-30T13:10:35Z</time>
      </trkpt>
      <trkpt lat="47.9641" lon="-2.39293">
        <ele>37</ele>
        <time>2019-03-30T13:10:39Z</time>
      </trkpt>
      <trkpt lat="47.96412" lon="-2.39285">
        <ele>37</ele>
        <time>2019-03-30T13:10:43Z</time>
      </trkpt>
      <trkpt lat="47.96414" lon="-2.39277">
        <ele>38</ele>
        <time>2019-03-30T13:10:47Z</time>
      </trkpt>
      <trkpt lat="47.96417" lon="-2.39271">
        <ele>37</ele>
        <time>2019-03-30T13:10:50Z</time>
      </trkpt>
      <trkpt lat="47.96421" lon="-2.39265">
        <ele>37</ele>
        <time>2019-03-30T13:10:54Z</time>
      </trkpt>
      <trkpt lat="47.96421" lon="-2.39258">
        <ele>36</ele>
        <time>2019-03-30T13:10:58Z</time>
      </trkpt>
      <trkpt lat="47.96423" lon="-2.39252">
        <ele>37</ele>
        <time>2019-03-30T13:11:01Z</time>
      </trkpt>
      <trkpt lat="47.96425" lon="-2.39245">
        <ele>37</ele>
        <time>2019-03-30T13:11:05Z</time>
      </trkpt>
      <trkpt lat="47.96426" lon="-2.39238">
        <ele>37</ele>
        <time>2019-03-30T13:11:09Z</time>
      </trkpt>
      <trkpt lat="47.96429" lon="-2.39232">
        <ele>37</ele>
        <time>2019-03-30T13:11:12Z</time>
      </trkpt>
      <trkpt lat="47.96432" lon="-2.39225">
        <ele>36</ele>
        <time>2019-03-30T13:11:17Z</time>
      </trkpt>
      <trkpt lat="47.96434" lon="-2.39218">
        <ele>36</ele>
        <time>2019-03-30T13:11:21Z</time>
      </trkpt>
      <trkpt lat="47.96437" lon="-2.3921">
        <ele>37</ele>
        <time>2019-03-30T13:11:24Z</time>
      </trkpt>
      <trkpt lat="47.96438" lon="-2.39203">
        <ele>36</ele>
        <time>2019-03-30T13:11:28Z</time>
      </trkpt>
      <trkpt lat="47.96439" lon="-2.39197">
        <ele>36</ele>
        <time>2019-03-30T13:11:31Z</time>
      </trkpt>
      <trkpt lat="47.96441" lon="-2.39188">
        <ele>36</ele>
        <time>2019-03-30T13:11:35Z</time>
      </trkpt>
      <trkpt lat="47.96444" lon="-2.39181">
        <ele>36</ele>
        <time>2019-03-30T13:11:39Z</time>
      </trkpt>
      <trkpt lat="47.96444" lon="-2.39174">
        <ele>36</ele>
        <time>2019-03-30T13:11:43Z</time>
      </trkpt>
      <trkpt lat="47.96446" lon="-2.39168">
        <ele>36</ele>
        <time>2019-03-30T13:11:46Z</time>
      </trkpt>
      <trkpt lat="47.96449" lon="-2.39162">
        <ele>36</ele>
        <time>2019-03-30T13:11:50Z</time>
      </trkpt>
      <trkpt lat="47.96452" lon="-2.39156">
        <ele>35</ele>
        <time>2019-03-30T13:11:54Z</time>
      </trkpt>
      <trkpt lat="47.96454" lon="-2.39149">
        <ele>33</ele>
        <time>2019-03-30T13:11:58Z</time>
      </trkpt>
      <trkpt lat="47.96456" lon="-2.39143">
        <ele>32</ele>
        <time>2019-03-30T13:12:01Z</time>
      </trkpt>
      <trkpt lat="47.96459" lon="-2.39138">
        <ele>31</ele>
        <time>2019-03-30T13:12:05Z</time>
      </trkpt>
      <trkpt lat="47.96463" lon="-2.39132">
        <ele>30</ele>
        <time>2019-03-30T13:12:09Z</time>
      </trkpt>
      <trkpt lat="47.96465" lon="-2.39126">
        <ele>29</ele>
        <time>2019-03-30T13:12:13Z</time>
      </trkpt>
      <trkpt lat="47.96468" lon="-2.3912">
        <ele>29</ele>
        <time>2019-03-30T13:12:18Z</time>
      </trkpt>
      <trkpt lat="47.96473" lon="-2.39115">
        <ele>29</ele>
        <time>2019-03-30T13:12:21Z</time>
      </trkpt>
      <trkpt lat="47.96476" lon="-2.3911">
        <ele>29</ele>
        <time>2019-03-30T13:12:24Z</time>
      </trkpt>
      <trkpt lat="47.9648" lon="-2.39105">
        <ele>29</ele>
        <time>2019-03-30T13:12:27Z</time>
      </trkpt>
      <trkpt lat="47.96483" lon="-2.391">
        <ele>30</ele>
        <time>2019-03-30T13:12:30Z</time>
      </trkpt>
      <trkpt lat="47.96487" lon="-2.39095">
        <ele>30</ele>
        <time>2019-03-30T13:12:33Z</time>
      </trkpt>
      <trkpt lat="47.9649" lon="-2.39089">
        <ele>30</ele>
        <time>2019-03-30T13:12:38Z</time>
      </trkpt>
      <trkpt lat="47.96495" lon="-2.39083">
        <ele>30</ele>
        <time>2019-03-30T13:12:41Z</time>
      </trkpt>
      <trkpt lat="47.96499" lon="-2.3908">
        <ele>30</ele>
        <time>2019-03-30T13:12:43Z</time>
      </trkpt>
      <trkpt lat="47.96502" lon="-2.39074">
        <ele>30</ele>
        <time>2019-03-30T13:12:50Z</time>
      </trkpt>
      <trkpt lat="47.96505" lon="-2.39067">
        <ele>29</ele>
        <time>2019-03-30T13:12:54Z</time>
      </trkpt>
      <trkpt lat="47.96507" lon="-2.39061">
        <ele>28</ele>
        <time>2019-03-30T13:12:58Z</time>
      </trkpt>
      <trkpt lat="47.96511" lon="-2.39055">
        <ele>28</ele>
        <time>2019-03-30T13:13:01Z</time>
      </trkpt>
      <trkpt lat="47.96515" lon="-2.39049">
        <ele>28</ele>
        <time>2019-03-30T13:13:04Z</time>
      </trkpt>
      <trkpt lat="47.96519" lon="-2.39044">
        <ele>28</ele>
        <time>2019-03-30T13:13:07Z</time>
      </trkpt>
      <trkpt lat="47.96523" lon="-2.3904">
        <ele>28</ele>
        <time>2019-03-30T13:13:11Z</time>
      </trkpt>
      <trkpt lat="47.96528" lon="-2.39036">
        <ele>28</ele>
        <time>2019-03-30T13:13:14Z</time>
      </trkpt>
      <trkpt lat="47.96532" lon="-2.39032">
        <ele>28</ele>
        <time>2019-03-30T13:13:18Z</time>
      </trkpt>
      <trkpt lat="47.96537" lon="-2.39027">
        <ele>29</ele>
        <time>2019-03-30T13:13:22Z</time>
      </trkpt>
      <trkpt lat="47.96541" lon="-2.39021">
        <ele>30</ele>
        <time>2019-03-30T13:13:26Z</time>
      </trkpt>
      <trkpt lat="47.96545" lon="-2.39016">
        <ele>31</ele>
        <time>2019-03-30T13:13:30Z</time>
      </trkpt>
      <trkpt lat="47.9655" lon="-2.3901">
        <ele>31</ele>
        <time>2019-03-30T13:13:34Z</time>
      </trkpt>
      <trkpt lat="47.96555" lon="-2.39005">
        <ele>31</ele>
        <time>2019-03-30T13:13:38Z</time>
      </trkpt>
      <trkpt lat="47.96558" lon="-2.39001">
        <ele>32</ele>
        <time>2019-03-30T13:13:41Z</time>
      </trkpt>
      <trkpt lat="47.96562" lon="-2.38996">
        <ele>32</ele>
        <time>2019-03-30T13:13:45Z</time>
      </trkpt>
      <trkpt lat="47.96565" lon="-2.3899">
        <ele>32</ele>
        <time>2019-03-30T13:13:50Z</time>
      </trkpt>
      <trkpt lat="47.96569" lon="-2.38986">
        <ele>32</ele>
        <time>2019-03-30T13:13:53Z</time>
      </trkpt>
      <trkpt lat="47.96574" lon="-2.38984">
        <ele>33</ele>
        <time>2019-03-30T13:13:56Z</time>
      </trkpt>
      <trkpt lat="47.9658" lon="-2.38981">
        <ele>33</ele>
        <time>2019-03-30T13:14:00Z</time>
      </trkpt>
      <trkpt lat="47.96584" lon="-2.38977">
        <ele>34</ele>
        <time>2019-03-30T13:14:04Z</time>
      </trkpt>
      <trkpt lat="47.96588" lon="-2.38973">
        <ele>34</ele>
        <time>2019-03-30T13:14:08Z</time>
      </trkpt>
      <trkpt lat="47.96592" lon="-2.38968">
        <ele>34</ele>
        <time>2019-03-30T13:14:12Z</time>
      </trkpt>
      <trkpt lat="47.96595" lon="-2.38964">
        <ele>33</ele>
        <time>2019-03-30T13:14:16Z</time>
      </trkpt>
      <trkpt lat="47.966" lon="-2.38961">
        <ele>33</ele>
        <time>2019-03-30T13:14:20Z</time>
      </trkpt>
      <trkpt lat="47.96605" lon="-2.38954">
        <ele>32</ele>
        <time>2019-03-30T13:14:24Z</time>
      </trkpt>
      <trkpt lat="47.9661" lon="-2.3895">
        <ele>31</ele>
        <time>2019-03-30T13:14:27Z</time>
      </trkpt>
      <trkpt lat="47.96615" lon="-2.38948">
        <ele>31</ele>
        <time>2019-03-30T13:14:30Z</time>
      </trkpt>
      <trkpt lat="47.9662" lon="-2.38945">
        <ele>30</ele>
        <time>2019-03-30T13:14:34Z</time>
      </trkpt>
      <trkpt lat="47.96626" lon="-2.38943">
        <ele>28</ele>
        <time>2019-03-30T13:14:37Z</time>
      </trkpt>
      <trkpt lat="47.9663" lon="-2.38939">
        <ele>27</ele>
        <time>2019-03-30T13:14:41Z</time>
      </trkpt>
      <trkpt lat="47.96634" lon="-2.38934">
        <ele>26</ele>
        <time>2019-03-30T13:14:45Z</time>
      </trkpt>
      <trkpt lat="47.96639" lon="-2.38931">
        <ele>25</ele>
        <time>2019-03-30T13:14:48Z</time>
      </trkpt>
      <trkpt lat="47.96644" lon="-2.38928">
        <ele>25</ele>
        <time>2019-03-30T13:14:53Z</time>
      </trkpt>
      <trkpt lat="47.96648" lon="-2.38927">
        <ele>25</ele>
        <time>2019-03-30T13:14:57Z</time>
      </trkpt>
      <trkpt lat="47.96653" lon="-2.38922">
        <ele>24</ele>
        <time>2019-03-30T13:15:00Z</time>
      </trkpt>
      <trkpt lat="47.96656" lon="-2.38918">
        <ele>23</ele>
        <time>2019-03-30T13:15:03Z</time>
      </trkpt>
      <trkpt lat="47.9666" lon="-2.38915">
        <ele>23</ele>
        <time>2019-03-30T13:15:06Z</time>
      </trkpt>
      <trkpt lat="47.96665" lon="-2.38911">
        <ele>23</ele>
        <time>2019-03-30T13:15:09Z</time>
      </trkpt>
      <trkpt lat="47.9667" lon="-2.38908">
        <ele>23</ele>
        <time>2019-03-30T13:15:13Z</time>
      </trkpt>
      <trkpt lat="47.96675" lon="-2.38906">
        <ele>24</ele>
        <time>2019-03-30T13:15:16Z</time>
      </trkpt>
      <trkpt lat="47.9668" lon="-2.38907">
        <ele>25</ele>
        <time>2019-03-30T13:15:23Z</time>
      </trkpt>
      <trkpt lat="47.9668" lon="-2.38904">
        <ele>27</ele>
        <time>2019-03-30T13:15:55Z</time>
      </trkpt>
      <trkpt lat="47.96699" lon="-2.38886">
        <ele>27</ele>
        <time>2019-03-30T13:16:32Z</time>
      </trkpt>
      <trkpt lat="47.96703" lon="-2.38887">
        <ele>28</ele>
        <time>2019-03-30T13:16:35Z</time>
      </trkpt>
      <trkpt lat="47.96708" lon="-2.38885">
        <ele>28</ele>
        <time>2019-03-30T13:16:40Z</time>
      </trkpt>
      <trkpt lat="47.96713" lon="-2.38885">
        <ele>29</ele>
        <time>2019-03-30T13:16:46Z</time>
      </trkpt>
      <trkpt lat="47.96718" lon="-2.3888">
        <ele>28</ele>
        <time>2019-03-30T13:16:50Z</time>
      </trkpt>
      <trkpt lat="47.96722" lon="-2.38877">
        <ele>28</ele>
        <time>2019-03-30T13:16:53Z</time>
      </trkpt>
      <trkpt lat="47.96727" lon="-2.38874">
        <ele>28</ele>
        <time>2019-03-30T13:16:55Z</time>
      </trkpt>
      <trkpt lat="47.96731" lon="-2.38871">
        <ele>27</ele>
        <time>2019-03-30T13:16:59Z</time>
      </trkpt>
      <trkpt lat="47.96736" lon="-2.38869">
        <ele>26</ele>
        <time>2019-03-30T13:17:03Z</time>
      </trkpt>
      <trkpt lat="47.96741" lon="-2.38865">
        <ele>25</ele>
        <time>2019-03-30T13:17:10Z</time>
      </trkpt>
      <trkpt lat="47.96745" lon="-2.38859">
        <ele>25</ele>
        <time>2019-03-30T13:17:13Z</time>
      </trkpt>
      <trkpt lat="47.96748" lon="-2.38855">
        <ele>25</ele>
        <time>2019-03-30T13:17:15Z</time>
      </trkpt>
      <trkpt lat="47.96754" lon="-2.38856">
        <ele>26</ele>
        <time>2019-03-30T13:17:20Z</time>
      </trkpt>
      <trkpt lat="47.9676" lon="-2.38855">
        <ele>27</ele>
        <time>2019-03-30T13:17:24Z</time>
      </trkpt>
      <trkpt lat="47.96766" lon="-2.3885">
        <ele>27</ele>
        <time>2019-03-30T13:17:27Z</time>
      </trkpt>
      <trkpt lat="47.96771" lon="-2.38848">
        <ele>28</ele>
        <time>2019-03-30T13:17:30Z</time>
      </trkpt>
      <trkpt lat="47.96775" lon="-2.38844">
        <ele>28</ele>
        <time>2019-03-30T13:17:33Z</time>
      </trkpt>
      <trkpt lat="47.9678" lon="-2.38841">
        <ele>27</ele>
        <time>2019-03-30T13:17:37Z</time>
      </trkpt>
      <trkpt lat="47.96785" lon="-2.38841">
        <ele>26</ele>
        <time>2019-03-30T13:17:42Z</time>
      </trkpt>
      <trkpt lat="47.9679" lon="-2.38839">
        <ele>26</ele>
        <time>2019-03-30T13:17:45Z</time>
      </trkpt>
      <trkpt lat="47.96794" lon="-2.38837">
        <ele>25</ele>
        <time>2019-03-30T13:17:49Z</time>
      </trkpt>
      <trkpt lat="47.96798" lon="-2.38832">
        <ele>25</ele>
        <time>2019-03-30T13:17:52Z</time>
      </trkpt>
      <trkpt lat="47.96801" lon="-2.38827">
        <ele>26</ele>
        <time>2019-03-30T13:17:56Z</time>
      </trkpt>
      <trkpt lat="47.96806" lon="-2.38826">
        <ele>26</ele>
        <time>2019-03-30T13:18:00Z</time>
      </trkpt>
      <trkpt lat="47.96811" lon="-2.38824">
        <ele>27</ele>
        <time>2019-03-30T13:18:04Z</time>
      </trkpt>
      <trkpt lat="47.96815" lon="-2.3882">
        <ele>28</ele>
        <time>2019-03-30T13:18:07Z</time>
      </trkpt>
      <trkpt lat="47.9682" lon="-2.38818">
        <ele>28</ele>
        <time>2019-03-30T13:18:13Z</time>
      </trkpt>
      <trkpt lat="47.96824" lon="-2.38816">
        <ele>29</ele>
        <time>2019-03-30T13:18:16Z</time>
      </trkpt>
      <trkpt lat="47.9683" lon="-2.38811">
        <ele>28</ele>
        <time>2019-03-30T13:18:19Z</time>
      </trkpt>
      <trkpt lat="47.96835" lon="-2.38807">
        <ele>28</ele>
        <time>2019-03-30T13:18:23Z</time>
      </trkpt>
      <trkpt lat="47.96838" lon="-2.38802">
        <ele>29</ele>
        <time>2019-03-30T13:18:26Z</time>
      </trkpt>
      <trkpt lat="47.96842" lon="-2.38797">
        <ele>29</ele>
        <time>2019-03-30T13:18:29Z</time>
      </trkpt>
      <trkpt lat="47.96846" lon="-2.38792">
        <ele>29</ele>
        <time>2019-03-30T13:18:32Z</time>
      </trkpt>
      <trkpt lat="47.96852" lon="-2.3879">
        <ele>29</ele>
        <time>2019-03-30T13:18:35Z</time>
      </trkpt>
      <trkpt lat="47.96857" lon="-2.38786">
        <ele>29</ele>
        <time>2019-03-30T13:18:40Z</time>
      </trkpt>
      <trkpt lat="47.96864" lon="-2.38787">
        <ele>28</ele>
        <time>2019-03-30T13:18:43Z</time>
      </trkpt>
      <trkpt lat="47.9687" lon="-2.38783">
        <ele>27</ele>
        <time>2019-03-30T13:18:46Z</time>
      </trkpt>
      <trkpt lat="47.96875" lon="-2.3878">
        <ele>27</ele>
        <time>2019-03-30T13:18:50Z</time>
      </trkpt>
      <trkpt lat="47.9688" lon="-2.38777">
        <ele>27</ele>
        <time>2019-03-30T13:18:55Z</time>
      </trkpt>
      <trkpt lat="47.96884" lon="-2.38773">
        <ele>27</ele>
        <time>2019-03-30T13:18:59Z</time>
      </trkpt>
      <trkpt lat="47.96887" lon="-2.38769">
        <ele>27</ele>
        <time>2019-03-30T13:19:06Z</time>
      </trkpt>
      <trkpt lat="47.96893" lon="-2.38765">
        <ele>28</ele>
        <time>2019-03-30T13:19:10Z</time>
      </trkpt>
      <trkpt lat="47.96896" lon="-2.3876">
        <ele>27</ele>
        <time>2019-03-30T13:19:14Z</time>
      </trkpt>
      <trkpt lat="47.96901" lon="-2.38759">
        <ele>25</ele>
        <time>2019-03-30T13:19:18Z</time>
      </trkpt>
      <trkpt lat="47.96906" lon="-2.38754">
        <ele>24</ele>
        <time>2019-03-30T13:19:21Z</time>
      </trkpt>
      <trkpt lat="47.96911" lon="-2.38751">
        <ele>22</ele>
        <time>2019-03-30T13:19:24Z</time>
      </trkpt>
      <trkpt lat="47.96916" lon="-2.38748">
        <ele>21</ele>
        <time>2019-03-30T13:19:28Z</time>
      </trkpt>
      <trkpt lat="47.96922" lon="-2.38745">
        <ele>21</ele>
        <time>2019-03-30T13:19:32Z</time>
      </trkpt>
      <trkpt lat="47.96927" lon="-2.38743">
        <ele>21</ele>
        <time>2019-03-30T13:19:35Z</time>
      </trkpt>
      <trkpt lat="47.96931" lon="-2.38739">
        <ele>22</ele>
        <time>2019-03-30T13:19:37Z</time>
      </trkpt>
      <trkpt lat="47.96935" lon="-2.38735">
        <ele>22</ele>
        <time>2019-03-30T13:19:40Z</time>
      </trkpt>
      <trkpt lat="47.9694" lon="-2.38733">
        <ele>23</ele>
        <time>2019-03-30T13:19:45Z</time>
      </trkpt>
      <trkpt lat="47.96945" lon="-2.3873">
        <ele>24</ele>
        <time>2019-03-30T13:19:48Z</time>
      </trkpt>
      <trkpt lat="47.9695" lon="-2.38727">
        <ele>24</ele>
        <time>2019-03-30T13:19:52Z</time>
      </trkpt>
      <trkpt lat="47.96955" lon="-2.38722">
        <ele>25</ele>
        <time>2019-03-30T13:19:56Z</time>
      </trkpt>
      <trkpt lat="47.9696" lon="-2.38717">
        <ele>25</ele>
        <time>2019-03-30T13:19:59Z</time>
      </trkpt>
      <trkpt lat="47.96964" lon="-2.38712">
        <ele>25</ele>
        <time>2019-03-30T13:20:04Z</time>
      </trkpt>
      <trkpt lat="47.9697" lon="-2.38709">
        <ele>25</ele>
        <time>2019-03-30T13:20:08Z</time>
      </trkpt>
      <trkpt lat="47.96976" lon="-2.38706">
        <ele>24</ele>
        <time>2019-03-30T13:20:11Z</time>
      </trkpt>
      <trkpt lat="47.96981" lon="-2.38703">
        <ele>24</ele>
        <time>2019-03-30T13:20:16Z</time>
      </trkpt>
      <trkpt lat="47.96986" lon="-2.38702">
        <ele>24</ele>
        <time>2019-03-30T13:20:20Z</time>
      </trkpt>
      <trkpt lat="47.96991" lon="-2.38698">
        <ele>24</ele>
        <time>2019-03-30T13:20:23Z</time>
      </trkpt>
      <trkpt lat="47.96995" lon="-2.38697">
        <ele>25</ele>
        <time>2019-03-30T13:20:27Z</time>
      </trkpt>
      <trkpt lat="47.97" lon="-2.38695">
        <ele>26</ele>
        <time>2019-03-30T13:20:31Z</time>
      </trkpt>
      <trkpt lat="47.97004" lon="-2.38692">
        <ele>27</ele>
        <time>2019-03-30T13:20:34Z</time>
      </trkpt>
      <trkpt lat="47.97009" lon="-2.38688">
        <ele>27</ele>
        <time>2019-03-30T13:20:37Z</time>
      </trkpt>
      <trkpt lat="47.97014" lon="-2.38686">
        <ele>27</ele>
        <time>2019-03-30T13:20:41Z</time>
      </trkpt>
      <trkpt lat="47.9702" lon="-2.38686">
        <ele>27</ele>
        <time>2019-03-30T13:20:47Z</time>
      </trkpt>
      <trkpt lat="47.97026" lon="-2.38686">
        <ele>27</ele>
        <time>2019-03-30T13:20:51Z</time>
      </trkpt>
      <trkpt lat="47.97029" lon="-2.3868">
        <ele>27</ele>
        <time>2019-03-30T13:20:55Z</time>
      </trkpt>
      <trkpt lat="47.97033" lon="-2.38678">
        <ele>27</ele>
        <time>2019-03-30T13:20:58Z</time>
      </trkpt>
      <trkpt lat="47.97039" lon="-2.38677">
        <ele>27</ele>
        <time>2019-03-30T13:21:02Z</time>
      </trkpt>
      <trkpt lat="47.97043" lon="-2.38675">
        <ele>27</ele>
        <time>2019-03-30T13:21:06Z</time>
      </trkpt>
      <trkpt lat="47.97047" lon="-2.38673">
        <ele>27</ele>
        <time>2019-03-30T13:21:09Z</time>
      </trkpt>
      <trkpt lat="47.97049" lon="-2.38666">
        <ele>26</ele>
        <time>2019-03-30T13:21:17Z</time>
      </trkpt>
      <trkpt lat="47.97054" lon="-2.38664">
        <ele>25</ele>
        <time>2019-03-30T13:21:37Z</time>
      </trkpt>
      <trkpt lat="47.97059" lon="-2.38662">
        <ele>24</ele>
        <time>2019-03-30T13:21:44Z</time>
      </trkpt>
      <trkpt lat="47.97063" lon="-2.38661">
        <ele>24</ele>
        <time>2019-03-30T13:21:48Z</time>
      </trkpt>
      <trkpt lat="47.97068" lon="-2.38658">
        <ele>23</ele>
        <time>2019-03-30T13:21:52Z</time>
      </trkpt>
      <trkpt lat="47.97073" lon="-2.38658">
        <ele>23</ele>
        <time>2019-03-30T13:21:57Z</time>
      </trkpt>
      <trkpt lat="47.97078" lon="-2.38658">
        <ele>23</ele>
        <time>2019-03-30T13:22:02Z</time>
      </trkpt>
      <trkpt lat="47.97083" lon="-2.38654">
        <ele>23</ele>
        <time>2019-03-30T13:22:06Z</time>
      </trkpt>
      <trkpt lat="47.97088" lon="-2.38654">
        <ele>23</ele>
        <time>2019-03-30T13:22:09Z</time>
      </trkpt>
      <trkpt lat="47.97094" lon="-2.38655">
        <ele>23</ele>
        <time>2019-03-30T13:22:13Z</time>
      </trkpt>
      <trkpt lat="47.971" lon="-2.38654">
        <ele>23</ele>
        <time>2019-03-30T13:22:17Z</time>
      </trkpt>
      <trkpt lat="47.97104" lon="-2.38653">
        <ele>23</ele>
        <time>2019-03-30T13:22:20Z</time>
      </trkpt>
      <trkpt lat="47.97109" lon="-2.38654">
        <ele>23</ele>
        <time>2019-03-30T13:22:24Z</time>
      </trkpt>
      <trkpt lat="47.97115" lon="-2.38654">
        <ele>23</ele>
        <time>2019-03-30T13:22:28Z</time>
      </trkpt>
      <trkpt lat="47.97119" lon="-2.38652">
        <ele>23</ele>
        <time>2019-03-30T13:22:32Z</time>
      </trkpt>
      <trkpt lat="47.97125" lon="-2.38648">
        <ele>23</ele>
        <time>2019-03-30T13:22:36Z</time>
      </trkpt>
      <trkpt lat="47.97131" lon="-2.38646">
        <ele>23</ele>
        <time>2019-03-30T13:22:39Z</time>
      </trkpt>
      <trkpt lat="47.97135" lon="-2.38647">
        <ele>24</ele>
        <time>2019-03-30T13:22:44Z</time>
      </trkpt>
      <trkpt lat="47.97141" lon="-2.38646">
        <ele>25</ele>
        <time>2019-03-30T13:22:48Z</time>
      </trkpt>
      <trkpt lat="47.97146" lon="-2.38644">
        <ele>26</ele>
        <time>2019-03-30T13:22:51Z</time>
      </trkpt>
      <trkpt lat="47.97151" lon="-2.38644">
        <ele>26</ele>
        <time>2019-03-30T13:22:55Z</time>
      </trkpt>
      <trkpt lat="47.97155" lon="-2.38644">
        <ele>26</ele>
        <time>2019-03-30T13:22:58Z</time>
      </trkpt>
      <trkpt lat="47.97162" lon="-2.38642">
        <ele>26</ele>
        <time>2019-03-30T13:23:01Z</time>
      </trkpt>
      <trkpt lat="47.97167" lon="-2.38641">
        <ele>26</ele>
        <time>2019-03-30T13:23:05Z</time>
      </trkpt>
      <trkpt lat="47.97172" lon="-2.38639">
        <ele>26</ele>
        <time>2019-03-30T13:23:09Z</time>
      </trkpt>
      <trkpt lat="47.97177" lon="-2.38639">
        <ele>26</ele>
        <time>2019-03-30T13:23:12Z</time>
      </trkpt>
      <trkpt lat="47.97182" lon="-2.38638">
        <ele>26</ele>
        <time>2019-03-30T13:23:15Z</time>
      </trkpt>
      <trkpt lat="47.97186" lon="-2.38642">
        <ele>27</ele>
        <time>2019-03-30T13:23:19Z</time>
      </trkpt>
      <trkpt lat="47.97191" lon="-2.38645">
        <ele>28</ele>
        <time>2019-03-30T13:23:23Z</time>
      </trkpt>
      <trkpt lat="47.97196" lon="-2.38646">
        <ele>29</ele>
        <time>2019-03-30T13:23:28Z</time>
      </trkpt>
      <trkpt lat="47.97202" lon="-2.38646">
        <ele>30</ele>
        <time>2019-03-30T13:23:32Z</time>
      </trkpt>
      <trkpt lat="47.97208" lon="-2.38643">
        <ele>31</ele>
        <time>2019-03-30T13:23:35Z</time>
      </trkpt>
      <trkpt lat="47.97213" lon="-2.38645">
        <ele>31</ele>
        <time>2019-03-30T13:23:40Z</time>
      </trkpt>
      <trkpt lat="47.97218" lon="-2.38643">
        <ele>31</ele>
        <time>2019-03-30T13:23:43Z</time>
      </trkpt>
      <trkpt lat="47.97223" lon="-2.38641">
        <ele>30</ele>
        <time>2019-03-30T13:23:46Z</time>
      </trkpt>
      <trkpt lat="47.97228" lon="-2.3864">
        <ele>29</ele>
        <time>2019-03-30T13:23:51Z</time>
      </trkpt>
      <trkpt lat="47.97234" lon="-2.3864">
        <ele>29</ele>
        <time>2019-03-30T13:23:56Z</time>
      </trkpt>
      <trkpt lat="47.97238" lon="-2.38639">
        <ele>29</ele>
        <time>2019-03-30T13:24:00Z</time>
      </trkpt>
      <trkpt lat="47.97244" lon="-2.38635">
        <ele>29</ele>
        <time>2019-03-30T13:24:04Z</time>
      </trkpt>
      <trkpt lat="47.9725" lon="-2.38633">
        <ele>29</ele>
        <time>2019-03-30T13:24:07Z</time>
      </trkpt>
      <trkpt lat="47.97255" lon="-2.38633">
        <ele>29</ele>
        <time>2019-03-30T13:24:10Z</time>
      </trkpt>
      <trkpt lat="47.97259" lon="-2.38636">
        <ele>28</ele>
        <time>2019-03-30T13:24:14Z</time>
      </trkpt>
      <trkpt lat="47.97265" lon="-2.38637">
        <ele>28</ele>
        <time>2019-03-30T13:24:17Z</time>
      </trkpt>
      <trkpt lat="47.97269" lon="-2.38637">
        <ele>28</ele>
        <time>2019-03-30T13:24:20Z</time>
      </trkpt>
      <trkpt lat="47.97274" lon="-2.38638">
        <ele>28</ele>
        <time>2019-03-30T13:24:24Z</time>
      </trkpt>
      <trkpt lat="47.97279" lon="-2.38638">
        <ele>28</ele>
        <time>2019-03-30T13:24:28Z</time>
      </trkpt>
      <trkpt lat="47.97284" lon="-2.38636">
        <ele>28</ele>
        <time>2019-03-30T13:24:31Z</time>
      </trkpt>
      <trkpt lat="47.97289" lon="-2.38634">
        <ele>28</ele>
        <time>2019-03-30T13:24:34Z</time>
      </trkpt>
      <trkpt lat="47.973" lon="-2.3863">
        <ele>27</ele>
        <time>2019-03-30T13:24:42Z</time>
      </trkpt>
      <trkpt lat="47.97305" lon="-2.38629">
        <ele>27</ele>
        <time>2019-03-30T13:24:45Z</time>
      </trkpt>
      <trkpt lat="47.9731" lon="-2.38628">
        <ele>27</ele>
        <time>2019-03-30T13:24:48Z</time>
      </trkpt>
      <trkpt lat="47.97316" lon="-2.38625">
        <ele>27</ele>
        <time>2019-03-30T13:24:52Z</time>
      </trkpt>
      <trkpt lat="47.97322" lon="-2.38624">
        <ele>26</ele>
        <time>2019-03-30T13:24:56Z</time>
      </trkpt>
      <trkpt lat="47.97327" lon="-2.38628">
        <ele>26</ele>
        <time>2019-03-30T13:25:01Z</time>
      </trkpt>
      <trkpt lat="47.97332" lon="-2.38629">
        <ele>26</ele>
        <time>2019-03-30T13:25:05Z</time>
      </trkpt>
      <trkpt lat="47.97336" lon="-2.38632">
        <ele>27</ele>
        <time>2019-03-30T13:25:10Z</time>
      </trkpt>
      <trkpt lat="47.97342" lon="-2.38634">
        <ele>27</ele>
        <time>2019-03-30T13:25:16Z</time>
      </trkpt>
      <trkpt lat="47.97347" lon="-2.38631">
        <ele>27</ele>
        <time>2019-03-30T13:25:20Z</time>
      </trkpt>
      <trkpt lat="47.97352" lon="-2.38629">
        <ele>27</ele>
        <time>2019-03-30T13:25:23Z</time>
      </trkpt>
      <trkpt lat="47.97358" lon="-2.38626">
        <ele>26</ele>
        <time>2019-03-30T13:25:26Z</time>
      </trkpt>
      <trkpt lat="47.97362" lon="-2.38623">
        <ele>25</ele>
        <time>2019-03-30T13:25:29Z</time>
      </trkpt>
      <trkpt lat="47.97368" lon="-2.38624">
        <ele>25</ele>
        <time>2019-03-30T13:25:33Z</time>
      </trkpt>
      <trkpt lat="47.97373" lon="-2.38624">
        <ele>25</ele>
        <time>2019-03-30T13:25:37Z</time>
      </trkpt>
      <trkpt lat="47.97379" lon="-2.38626">
        <ele>24</ele>
        <time>2019-03-30T13:25:42Z</time>
      </trkpt>
      <trkpt lat="47.97384" lon="-2.38627">
        <ele>24</ele>
        <time>2019-03-30T13:25:46Z</time>
      </trkpt>
      <trkpt lat="47.97389" lon="-2.38626">
        <ele>24</ele>
        <time>2019-03-30T13:25:48Z</time>
      </trkpt>
      <trkpt lat="47.97393" lon="-2.38622">
        <ele>24</ele>
        <time>2019-03-30T13:25:50Z</time>
      </trkpt>
      <trkpt lat="47.97398" lon="-2.38619">
        <ele>23</ele>
        <time>2019-03-30T13:25:53Z</time>
      </trkpt>
      <trkpt lat="47.97402" lon="-2.38619">
        <ele>23</ele>
        <time>2019-03-30T13:25:57Z</time>
      </trkpt>
      <trkpt lat="47.97408" lon="-2.38618">
        <ele>22</ele>
        <time>2019-03-30T13:26:00Z</time>
      </trkpt>
      <trkpt lat="47.97413" lon="-2.38619">
        <ele>22</ele>
        <time>2019-03-30T13:26:05Z</time>
      </trkpt>
      <trkpt lat="47.97418" lon="-2.3862">
        <ele>22</ele>
        <time>2019-03-30T13:26:09Z</time>
      </trkpt>
      <trkpt lat="47.97423" lon="-2.3862">
        <ele>22</ele>
        <time>2019-03-30T13:26:14Z</time>
      </trkpt>
      <trkpt lat="47.97429" lon="-2.38621">
        <ele>23</ele>
        <time>2019-03-30T13:26:18Z</time>
      </trkpt>
      <trkpt lat="47.97433" lon="-2.38618">
        <ele>23</ele>
        <time>2019-03-30T13:26:20Z</time>
      </trkpt>
      <trkpt lat="47.97438" lon="-2.38617">
        <ele>23</ele>
        <time>2019-03-30T13:26:23Z</time>
      </trkpt>
      <trkpt lat="47.97443" lon="-2.38619">
        <ele>23</ele>
        <time>2019-03-30T13:26:28Z</time>
      </trkpt>
      <trkpt lat="47.97448" lon="-2.38616">
        <ele>24</ele>
        <time>2019-03-30T13:26:31Z</time>
      </trkpt>
      <trkpt lat="47.97453" lon="-2.38613">
        <ele>24</ele>
        <time>2019-03-30T13:26:34Z</time>
      </trkpt>
      <trkpt lat="47.97459" lon="-2.38617">
        <ele>25</ele>
        <time>2019-03-30T13:26:41Z</time>
      </trkpt>
      <trkpt lat="47.97464" lon="-2.38617">
        <ele>26</ele>
        <time>2019-03-30T13:26:44Z</time>
      </trkpt>
      <trkpt lat="47.9747" lon="-2.38616">
        <ele>26</ele>
        <time>2019-03-30T13:26:47Z</time>
      </trkpt>
      <trkpt lat="47.97476" lon="-2.38619">
        <ele>27</ele>
        <time>2019-03-30T13:26:53Z</time>
      </trkpt>
      <trkpt lat="47.97481" lon="-2.38618">
        <ele>27</ele>
        <time>2019-03-30T13:26:56Z</time>
      </trkpt>
      <trkpt lat="47.97486" lon="-2.38617">
        <ele>27</ele>
        <time>2019-03-30T13:26:59Z</time>
      </trkpt>
      <trkpt lat="47.97492" lon="-2.38616">
        <ele>28</ele>
        <time>2019-03-30T13:27:03Z</time>
      </trkpt>
      <trkpt lat="47.97497" lon="-2.38614">
        <ele>28</ele>
        <time>2019-03-30T13:27:06Z</time>
      </trkpt>
      <trkpt lat="47.97502" lon="-2.38616">
        <ele>29</ele>
        <time>2019-03-30T13:27:10Z</time>
      </trkpt>
      <trkpt lat="47.97504" lon="-2.38623">
        <ele>30</ele>
        <time>2019-03-30T13:27:14Z</time>
      </trkpt>
      <trkpt lat="47.97508" lon="-2.38624">
        <ele>30</ele>
        <time>2019-03-30T13:27:17Z</time>
      </trkpt>
      <trkpt lat="47.97514" lon="-2.3862">
        <ele>29</ele>
        <time>2019-03-30T13:27:20Z</time>
      </trkpt>
      <trkpt lat="47.97519" lon="-2.38618">
        <ele>28</ele>
        <time>2019-03-30T13:27:24Z</time>
      </trkpt>
      <trkpt lat="47.97524" lon="-2.38618">
        <ele>27</ele>
        <time>2019-03-30T13:27:27Z</time>
      </trkpt>
      <trkpt lat="47.97529" lon="-2.38619">
        <ele>26</ele>
        <time>2019-03-30T13:27:30Z</time>
      </trkpt>
      <trkpt lat="47.97534" lon="-2.38619">
        <ele>26</ele>
        <time>2019-03-30T13:27:34Z</time>
      </trkpt>
      <trkpt lat="47.97539" lon="-2.3862">
        <ele>26</ele>
        <time>2019-03-30T13:27:38Z</time>
      </trkpt>
      <trkpt lat="47.97545" lon="-2.38617">
        <ele>27</ele>
        <time>2019-03-30T13:27:41Z</time>
      </trkpt>
      <trkpt lat="47.9755" lon="-2.38614">
        <ele>27</ele>
        <time>2019-03-30T13:27:44Z</time>
      </trkpt>
      <trkpt lat="47.97556" lon="-2.38613">
        <ele>27</ele>
        <time>2019-03-30T13:27:51Z</time>
      </trkpt>
      <trkpt lat="47.97561" lon="-2.3861">
        <ele>27</ele>
        <time>2019-03-30T13:27:54Z</time>
      </trkpt>
      <trkpt lat="47.97566" lon="-2.38608">
        <ele>27</ele>
        <time>2019-03-30T13:27:58Z</time>
      </trkpt>
      <trkpt lat="47.97571" lon="-2.38606">
        <ele>26</ele>
        <time>2019-03-30T13:28:02Z</time>
      </trkpt>
      <trkpt lat="47.97576" lon="-2.38607">
        <ele>26</ele>
        <time>2019-03-30T13:28:06Z</time>
      </trkpt>
      <trkpt lat="47.97583" lon="-2.38607">
        <ele>26</ele>
        <time>2019-03-30T13:28:09Z</time>
      </trkpt>
      <trkpt lat="47.97588" lon="-2.38608">
        <ele>26</ele>
        <time>2019-03-30T13:28:14Z</time>
      </trkpt>
      <trkpt lat="47.97593" lon="-2.38609">
        <ele>26</ele>
        <time>2019-03-30T13:28:17Z</time>
      </trkpt>
      <trkpt lat="47.97598" lon="-2.38608">
        <ele>27</ele>
        <time>2019-03-30T13:28:20Z</time>
      </trkpt>
      <trkpt lat="47.97604" lon="-2.38608">
        <ele>28</ele>
        <time>2019-03-30T13:28:24Z</time>
      </trkpt>
      <trkpt lat="47.97608" lon="-2.38609">
        <ele>28</ele>
        <time>2019-03-30T13:28:27Z</time>
      </trkpt>
      <trkpt lat="47.97613" lon="-2.38609">
        <ele>29</ele>
        <time>2019-03-30T13:28:30Z</time>
      </trkpt>
      <trkpt lat="47.97618" lon="-2.38612">
        <ele>29</ele>
        <time>2019-03-30T13:28:33Z</time>
      </trkpt>
      <trkpt lat="47.97623" lon="-2.38613">
        <ele>28</ele>
        <time>2019-03-30T13:28:38Z</time>
      </trkpt>
      <trkpt lat="47.97628" lon="-2.38611">
        <ele>27</ele>
        <time>2019-03-30T13:28:42Z</time>
      </trkpt>
      <trkpt lat="47.97633" lon="-2.3861">
        <ele>26</ele>
        <time>2019-03-30T13:28:46Z</time>
      </trkpt>
      <trkpt lat="47.97638" lon="-2.3861">
        <ele>25</ele>
        <time>2019-03-30T13:28:51Z</time>
      </trkpt>
      <trkpt lat="47.97643" lon="-2.38609">
        <ele>25</ele>
        <time>2019-03-30T13:28:55Z</time>
      </trkpt>
      <trkpt lat="47.97649" lon="-2.3861">
        <ele>24</ele>
        <time>2019-03-30T13:29:00Z</time>
      </trkpt>
      <trkpt lat="47.97653" lon="-2.38609">
        <ele>24</ele>
        <time>2019-03-30T13:29:04Z</time>
      </trkpt>
      <trkpt lat="47.97659" lon="-2.38608">
        <ele>24</ele>
        <time>2019-03-30T13:29:08Z</time>
      </trkpt>
      <trkpt lat="47.97664" lon="-2.38606">
        <ele>22</ele>
        <time>2019-03-30T13:29:13Z</time>
      </trkpt>
      <trkpt lat="47.97669" lon="-2.38602">
        <ele>20</ele>
        <time>2019-03-30T13:29:16Z</time>
      </trkpt>
      <trkpt lat="47.97674" lon="-2.38602">
        <ele>18</ele>
        <time>2019-03-30T13:29:18Z</time>
      </trkpt>
      <trkpt lat="47.9768" lon="-2.38601">
        <ele>19</ele>
        <time>2019-03-30T13:29:21Z</time>
      </trkpt>
      <trkpt lat="47.97685" lon="-2.38601">
        <ele>17</ele>
        <time>2019-03-30T13:29:25Z</time>
      </trkpt>
      <trkpt lat="47.9769" lon="-2.38602">
        <ele>16</ele>
        <time>2019-03-30T13:29:29Z</time>
      </trkpt>
      <trkpt lat="47.97694" lon="-2.38604">
        <ele>16</ele>
        <time>2019-03-30T13:29:33Z</time>
      </trkpt>
      <trkpt lat="47.97699" lon="-2.38607">
        <ele>17</ele>
        <time>2019-03-30T13:29:37Z</time>
      </trkpt>
      <trkpt lat="47.97705" lon="-2.38606">
        <ele>17</ele>
        <time>2019-03-30T13:29:40Z</time>
      </trkpt>
      <trkpt lat="47.97709" lon="-2.38603">
        <ele>17</ele>
        <time>2019-03-30T13:29:44Z</time>
      </trkpt>
      <trkpt lat="47.97714" lon="-2.38603">
        <ele>19</ele>
        <time>2019-03-30T13:29:48Z</time>
      </trkpt>
      <trkpt lat="47.97719" lon="-2.38603">
        <ele>21</ele>
        <time>2019-03-30T13:29:51Z</time>
      </trkpt>
      <trkpt lat="47.97725" lon="-2.38603">
        <ele>24</ele>
        <time>2019-03-30T13:29:54Z</time>
      </trkpt>
      <trkpt lat="47.9773" lon="-2.38603">
        <ele>26</ele>
        <time>2019-03-30T13:29:58Z</time>
      </trkpt>
      <trkpt lat="47.97735" lon="-2.38602">
        <ele>27</ele>
        <time>2019-03-30T13:30:01Z</time>
      </trkpt>
      <trkpt lat="47.9774" lon="-2.38602">
        <ele>29</ele>
        <time>2019-03-30T13:30:12Z</time>
      </trkpt>
      <trkpt lat="47.97745" lon="-2.38601">
        <ele>30</ele>
        <time>2019-03-30T13:30:16Z</time>
      </trkpt>
      <trkpt lat="47.9775" lon="-2.386">
        <ele>31</ele>
        <time>2019-03-30T13:30:20Z</time>
      </trkpt>
      <trkpt lat="47.97755" lon="-2.38598">
        <ele>31</ele>
        <time>2019-03-30T13:30:23Z</time>
      </trkpt>
      <trkpt lat="47.9776" lon="-2.38597">
        <ele>32</ele>
        <time>2019-03-30T13:30:28Z</time>
      </trkpt>
      <trkpt lat="47.97765" lon="-2.38596">
        <ele>34</ele>
        <time>2019-03-30T13:30:34Z</time>
      </trkpt>
      <trkpt lat="47.9777" lon="-2.38595">
        <ele>34</ele>
        <time>2019-03-30T13:30:41Z</time>
      </trkpt>
      <trkpt lat="47.97775" lon="-2.38594">
        <ele>34</ele>
        <time>2019-03-30T13:30:46Z</time>
      </trkpt>
      <trkpt lat="47.97781" lon="-2.38592">
        <ele>34</ele>
        <time>2019-03-30T13:30:49Z</time>
      </trkpt>
      <trkpt lat="47.97787" lon="-2.38591">
        <ele>33</ele>
        <time>2019-03-30T13:30:53Z</time>
      </trkpt>
      <trkpt lat="47.97792" lon="-2.3859">
        <ele>32</ele>
        <time>2019-03-30T13:30:57Z</time>
      </trkpt>
      <trkpt lat="47.97799" lon="-2.38588">
        <ele>31</ele>
        <time>2019-03-30T13:31:01Z</time>
      </trkpt>
      <trkpt lat="47.97802" lon="-2.38584">
        <ele>30</ele>
        <time>2019-03-30T13:31:04Z</time>
      </trkpt>
      <trkpt lat="47.97809" lon="-2.38581">
        <ele>29</ele>
        <time>2019-03-30T13:31:07Z</time>
      </trkpt>
      <trkpt lat="47.97814" lon="-2.38577">
        <ele>29</ele>
        <time>2019-03-30T13:31:11Z</time>
      </trkpt>
      <trkpt lat="47.9782" lon="-2.38575">
        <ele>28</ele>
        <time>2019-03-30T13:31:16Z</time>
      </trkpt>
      <trkpt lat="47.97825" lon="-2.38573">
        <ele>28</ele>
        <time>2019-03-30T13:31:19Z</time>
      </trkpt>
      <trkpt lat="47.9783" lon="-2.38572">
        <ele>28</ele>
        <time>2019-03-30T13:31:24Z</time>
      </trkpt>
      <trkpt lat="47.97835" lon="-2.3857">
        <ele>29</ele>
        <time>2019-03-30T13:31:27Z</time>
      </trkpt>
      <trkpt lat="47.97839" lon="-2.38565">
        <ele>28</ele>
        <time>2019-03-30T13:31:31Z</time>
      </trkpt>
      <trkpt lat="47.97844" lon="-2.38562">
        <ele>28</ele>
        <time>2019-03-30T13:31:34Z</time>
      </trkpt>
      <trkpt lat="47.97849" lon="-2.38559">
        <ele>28</ele>
        <time>2019-03-30T13:31:37Z</time>
      </trkpt>
      <trkpt lat="47.97855" lon="-2.38558">
        <ele>28</ele>
        <time>2019-03-30T13:31:41Z</time>
      </trkpt>
      <trkpt lat="47.97859" lon="-2.38556">
        <ele>29</ele>
        <time>2019-03-30T13:31:44Z</time>
      </trkpt>
      <trkpt lat="47.97864" lon="-2.38552">
        <ele>30</ele>
        <time>2019-03-30T13:31:48Z</time>
      </trkpt>
      <trkpt lat="47.97868" lon="-2.38549">
        <ele>31</ele>
        <time>2019-03-30T13:31:52Z</time>
      </trkpt>
      <trkpt lat="47.97873" lon="-2.38546">
        <ele>31</ele>
        <time>2019-03-30T13:31:55Z</time>
      </trkpt>
      <trkpt lat="47.97878" lon="-2.38538">
        <ele>31</ele>
        <time>2019-03-30T13:31:58Z</time>
      </trkpt>
      <trkpt lat="47.97884" lon="-2.38536">
        <ele>30</ele>
        <time>2019-03-30T13:32:02Z</time>
      </trkpt>
      <trkpt lat="47.97889" lon="-2.38533">
        <ele>30</ele>
        <time>2019-03-30T13:32:05Z</time>
      </trkpt>
      <trkpt lat="47.97894" lon="-2.3853">
        <ele>29</ele>
        <time>2019-03-30T13:32:09Z</time>
      </trkpt>
      <trkpt lat="47.97898" lon="-2.38527">
        <ele>29</ele>
        <time>2019-03-30T13:32:13Z</time>
      </trkpt>
      <trkpt lat="47.97902" lon="-2.38523">
        <ele>29</ele>
        <time>2019-03-30T13:32:17Z</time>
      </trkpt>
      <trkpt lat="47.97906" lon="-2.3852">
        <ele>29</ele>
        <time>2019-03-30T13:32:21Z</time>
      </trkpt>
      <trkpt lat="47.9791" lon="-2.38517">
        <ele>29</ele>
        <time>2019-03-30T13:32:24Z</time>
      </trkpt>
      <trkpt lat="47.97915" lon="-2.38512">
        <ele>30</ele>
        <time>2019-03-30T13:32:28Z</time>
      </trkpt>
      <trkpt lat="47.97918" lon="-2.38507">
        <ele>30</ele>
        <time>2019-03-30T13:32:33Z</time>
      </trkpt>
      <trkpt lat="47.97922" lon="-2.38502">
        <ele>30</ele>
        <time>2019-03-30T13:32:36Z</time>
      </trkpt>
      <trkpt lat="47.97926" lon="-2.38499">
        <ele>30</ele>
        <time>2019-03-30T13:32:39Z</time>
      </trkpt>
      <trkpt lat="47.97931" lon="-2.38498">
        <ele>29</ele>
        <time>2019-03-30T13:32:43Z</time>
      </trkpt>
      <trkpt lat="47.97935" lon="-2.38494">
        <ele>30</ele>
        <time>2019-03-30T13:32:47Z</time>
      </trkpt>
      <trkpt lat="47.9794" lon="-2.38491">
        <ele>30</ele>
        <time>2019-03-30T13:32:51Z</time>
      </trkpt>
      <trkpt lat="47.97944" lon="-2.38488">
        <ele>29</ele>
        <time>2019-03-30T13:32:56Z</time>
      </trkpt>
      <trkpt lat="47.9795" lon="-2.38484">
        <ele>30</ele>
        <time>2019-03-30T13:33:03Z</time>
      </trkpt>
      <trkpt lat="47.97955" lon="-2.38481">
        <ele>30</ele>
        <time>2019-03-30T13:33:07Z</time>
      </trkpt>
      <trkpt lat="47.97959" lon="-2.38478">
        <ele>30</ele>
        <time>2019-03-30T13:33:10Z</time>
      </trkpt>
      <trkpt lat="47.97963" lon="-2.38471">
        <ele>31</ele>
        <time>2019-03-30T13:33:14Z</time>
      </trkpt>
      <trkpt lat="47.97967" lon="-2.38466">
        <ele>32</ele>
        <time>2019-03-30T13:33:17Z</time>
      </trkpt>
      <trkpt lat="47.97972" lon="-2.38462">
        <ele>34</ele>
        <time>2019-03-30T13:33:20Z</time>
      </trkpt>
      <trkpt lat="47.97976" lon="-2.38458">
        <ele>35</ele>
        <time>2019-03-30T13:33:23Z</time>
      </trkpt>
      <trkpt lat="47.9798" lon="-2.38454">
        <ele>36</ele>
        <time>2019-03-30T13:33:26Z</time>
      </trkpt>
      <trkpt lat="47.97984" lon="-2.3845">
        <ele>37</ele>
        <time>2019-03-30T13:33:29Z</time>
      </trkpt>
      <trkpt lat="47.97988" lon="-2.38446">
        <ele>37</ele>
        <time>2019-03-30T13:33:32Z</time>
      </trkpt>
      <trkpt lat="47.97992" lon="-2.38442">
        <ele>38</ele>
        <time>2019-03-30T13:33:35Z</time>
      </trkpt>
      <trkpt lat="47.97997" lon="-2.38438">
        <ele>39</ele>
        <time>2019-03-30T13:33:40Z</time>
      </trkpt>
      <trkpt lat="47.98" lon="-2.38434">
        <ele>39</ele>
        <time>2019-03-30T13:33:43Z</time>
      </trkpt>
      <trkpt lat="47.98004" lon="-2.3843">
        <ele>40</ele>
        <time>2019-03-30T13:33:46Z</time>
      </trkpt>
      <trkpt lat="47.98008" lon="-2.38423">
        <ele>40</ele>
        <time>2019-03-30T13:33:50Z</time>
      </trkpt>
      <trkpt lat="47.98013" lon="-2.38419">
        <ele>40</ele>
        <time>2019-03-30T13:33:54Z</time>
      </trkpt>
      <trkpt lat="47.98017" lon="-2.38414">
        <ele>40</ele>
        <time>2019-03-30T13:33:58Z</time>
      </trkpt>
      <trkpt lat="47.9802" lon="-2.38408">
        <ele>39</ele>
        <time>2019-03-30T13:34:03Z</time>
      </trkpt>
      <trkpt lat="47.98023" lon="-2.38401">
        <ele>38</ele>
        <time>2019-03-30T13:34:06Z</time>
      </trkpt>
      <trkpt lat="47.98028" lon="-2.38397">
        <ele>37</ele>
        <time>2019-03-30T13:34:10Z</time>
      </trkpt>
      <trkpt lat="47.98032" lon="-2.38395">
        <ele>36</ele>
        <time>2019-03-30T13:34:13Z</time>
      </trkpt>
      <trkpt lat="47.98034" lon="-2.38389">
        <ele>35</ele>
        <time>2019-03-30T13:34:16Z</time>
      </trkpt>
      <trkpt lat="47.98037" lon="-2.38384">
        <ele>34</ele>
        <time>2019-03-30T13:34:19Z</time>
      </trkpt>
      <trkpt lat="47.98043" lon="-2.38381">
        <ele>33</ele>
        <time>2019-03-30T13:34:22Z</time>
      </trkpt>
      <trkpt lat="47.98048" lon="-2.38377">
        <ele>33</ele>
        <time>2019-03-30T13:34:26Z</time>
      </trkpt>
      <trkpt lat="47.98051" lon="-2.38372">
        <ele>32</ele>
        <time>2019-03-30T13:34:29Z</time>
      </trkpt>
      <trkpt lat="47.98056" lon="-2.38368">
        <ele>32</ele>
        <time>2019-03-30T13:34:32Z</time>
      </trkpt>
      <trkpt lat="47.9806" lon="-2.38365">
        <ele>33</ele>
        <time>2019-03-30T13:34:37Z</time>
      </trkpt>
      <trkpt lat="47.98065" lon="-2.38361">
        <ele>33</ele>
        <time>2019-03-30T13:34:42Z</time>
      </trkpt>
      <trkpt lat="47.98069" lon="-2.38358">
        <ele>33</ele>
        <time>2019-03-30T13:34:46Z</time>
      </trkpt>
      <trkpt lat="47.98074" lon="-2.38355">
        <ele>33</ele>
        <time>2019-03-30T13:34:50Z</time>
      </trkpt>
      <trkpt lat="47.98079" lon="-2.38353">
        <ele>33</ele>
        <time>2019-03-30T13:34:55Z</time>
      </trkpt>
      <trkpt lat="47.98084" lon="-2.38348">
        <ele>33</ele>
        <time>2019-03-30T13:34:58Z</time>
      </trkpt>
      <trkpt lat="47.98089" lon="-2.38346">
        <ele>33</ele>
        <time>2019-03-30T13:35:02Z</time>
      </trkpt>
      <trkpt lat="47.98093" lon="-2.38342">
        <ele>32</ele>
        <time>2019-03-30T13:35:05Z</time>
      </trkpt>
      <trkpt lat="47.98098" lon="-2.38337">
        <ele>31</ele>
        <time>2019-03-30T13:35:08Z</time>
      </trkpt>
      <trkpt lat="47.98103" lon="-2.38334">
        <ele>31</ele>
        <time>2019-03-30T13:35:13Z</time>
      </trkpt>
      <trkpt lat="47.98108" lon="-2.3833">
        <ele>31</ele>
        <time>2019-03-30T13:35:18Z</time>
      </trkpt>
      <trkpt lat="47.98113" lon="-2.38325">
        <ele>31</ele>
        <time>2019-03-30T13:35:22Z</time>
      </trkpt>
      <trkpt lat="47.98117" lon="-2.3832">
        <ele>31</ele>
        <time>2019-03-30T13:35:26Z</time>
      </trkpt>
      <trkpt lat="47.98121" lon="-2.38316">
        <ele>31</ele>
        <time>2019-03-30T13:35:29Z</time>
      </trkpt>
      <trkpt lat="47.98125" lon="-2.38311">
        <ele>30</ele>
        <time>2019-03-30T13:35:32Z</time>
      </trkpt>
      <trkpt lat="47.98128" lon="-2.38305">
        <ele>29</ele>
        <time>2019-03-30T13:35:36Z</time>
      </trkpt>
      <trkpt lat="47.98133" lon="-2.38302">
        <ele>27</ele>
        <time>2019-03-30T13:35:40Z</time>
      </trkpt>
      <trkpt lat="47.98138" lon="-2.38298">
        <ele>27</ele>
        <time>2019-03-30T13:35:44Z</time>
      </trkpt>
      <trkpt lat="47.98141" lon="-2.38293">
        <ele>26</ele>
        <time>2019-03-30T13:35:47Z</time>
      </trkpt>
      <trkpt lat="47.98145" lon="-2.38287">
        <ele>26</ele>
        <time>2019-03-30T13:35:51Z</time>
      </trkpt>
      <trkpt lat="47.9815" lon="-2.38283">
        <ele>27</ele>
        <time>2019-03-30T13:35:55Z</time>
      </trkpt>
      <trkpt lat="47.98153" lon="-2.38278">
        <ele>28</ele>
        <time>2019-03-30T13:36:01Z</time>
      </trkpt>
      <trkpt lat="47.98157" lon="-2.38274">
        <ele>28</ele>
        <time>2019-03-30T13:36:04Z</time>
      </trkpt>
      <trkpt lat="47.98162" lon="-2.3827">
        <ele>30</ele>
        <time>2019-03-30T13:36:08Z</time>
      </trkpt>
      <trkpt lat="47.98167" lon="-2.38267">
        <ele>31</ele>
        <time>2019-03-30T13:36:12Z</time>
      </trkpt>
      <trkpt lat="47.98173" lon="-2.38264">
        <ele>31</ele>
        <time>2019-03-30T13:36:16Z</time>
      </trkpt>
      <trkpt lat="47.98177" lon="-2.38261">
        <ele>31</ele>
        <time>2019-03-30T13:36:19Z</time>
      </trkpt>
      <trkpt lat="47.98181" lon="-2.38258">
        <ele>31</ele>
        <time>2019-03-30T13:36:22Z</time>
      </trkpt>
      <trkpt lat="47.98185" lon="-2.38254">
        <ele>30</ele>
        <time>2019-03-30T13:36:26Z</time>
      </trkpt>
      <trkpt lat="47.98189" lon="-2.38249">
        <ele>28</ele>
        <time>2019-03-30T13:36:30Z</time>
      </trkpt>
      <trkpt lat="47.98193" lon="-2.38245">
        <ele>28</ele>
        <time>2019-03-30T13:36:34Z</time>
      </trkpt>
      <trkpt lat="47.98199" lon="-2.3824">
        <ele>28</ele>
        <time>2019-03-30T13:36:38Z</time>
      </trkpt>
      <trkpt lat="47.98203" lon="-2.38237">
        <ele>27</ele>
        <time>2019-03-30T13:36:42Z</time>
      </trkpt>
      <trkpt lat="47.98206" lon="-2.38243">
        <ele>27</ele>
        <time>2019-03-30T13:36:50Z</time>
      </trkpt>
      <trkpt lat="47.98208" lon="-2.38246">
        <ele>28</ele>
        <time>2019-03-30T13:37:06Z</time>
      </trkpt>
      <trkpt lat="47.98207" lon="-2.38245">
        <ele>28</ele>
        <time>2019-03-30T13:37:08Z</time>
      </trkpt>
      <trkpt lat="47.98208" lon="-2.3825">
        <ele>28</ele>
        <time>2019-03-30T13:37:36Z</time>
      </trkpt>
      <trkpt lat="47.98207" lon="-2.3825">
        <ele>28</ele>
        <time>2019-03-30T13:37:38Z</time>
      </trkpt>
      <trkpt lat="47.98204" lon="-2.38258">
        <ele>28</ele>
        <time>2019-03-30T13:37:42Z</time>
      </trkpt>
      <trkpt lat="47.98201" lon="-2.38265">
        <ele>27</ele>
        <time>2019-03-30T13:37:46Z</time>
      </trkpt>
      <trkpt lat="47.98201" lon="-2.38273">
        <ele>26</ele>
        <time>2019-03-30T13:37:51Z</time>
      </trkpt>
      <trkpt lat="47.982" lon="-2.3828">
        <ele>25</ele>
        <time>2019-03-30T13:37:56Z</time>
      </trkpt>
      <trkpt lat="47.982" lon="-2.38288">
        <ele>25</ele>
        <time>2019-03-30T13:38:01Z</time>
      </trkpt>
      <trkpt lat="47.98193" lon="-2.38315">
        <ele>22</ele>
        <time>2019-03-30T13:38:19Z</time>
      </trkpt>
      <trkpt lat="47.9819" lon="-2.38321">
        <ele>22</ele>
        <time>2019-03-30T13:38:22Z</time>
      </trkpt>
      <trkpt lat="47.98188" lon="-2.38327">
        <ele>24</ele>
        <time>2019-03-30T13:38:26Z</time>
      </trkpt>
      <trkpt lat="47.98189" lon="-2.38334">
        <ele>25</ele>
        <time>2019-03-30T13:38:31Z</time>
      </trkpt>
      <trkpt lat="47.98188" lon="-2.38343">
        <ele>26</ele>
        <time>2019-03-30T13:38:36Z</time>
      </trkpt>
      <trkpt lat="47.9819" lon="-2.3835">
        <ele>27</ele>
        <time>2019-03-30T13:38:41Z</time>
      </trkpt>
      <trkpt lat="47.98189" lon="-2.38357">
        <ele>27</ele>
        <time>2019-03-30T13:38:44Z</time>
      </trkpt>
      <trkpt lat="47.98192" lon="-2.38363">
        <ele>26</ele>
        <time>2019-03-30T13:39:03Z</time>
      </trkpt>
      <trkpt lat="47.98196" lon="-2.38367">
        <ele>25</ele>
        <time>2019-03-30T13:39:17Z</time>
      </trkpt>
      <trkpt lat="47.98193" lon="-2.38359">
        <ele>26</ele>
        <time>2019-03-30T13:39:24Z</time>
      </trkpt>
      <trkpt lat="47.98192" lon="-2.38352">
        <ele>26</ele>
        <time>2019-03-30T13:39:28Z</time>
      </trkpt>
      <trkpt lat="47.98196" lon="-2.38358">
        <ele>27</ele>
        <time>2019-03-30T13:39:39Z</time>
      </trkpt>
      <trkpt lat="47.98202" lon="-2.38358">
        <ele>27</ele>
        <time>2019-03-30T13:39:47Z</time>
      </trkpt>
      <trkpt lat="47.98207" lon="-2.3836">
        <ele>27</ele>
        <time>2019-03-30T13:39:52Z</time>
      </trkpt>
      <trkpt lat="47.9821" lon="-2.38367">
        <ele>26</ele>
        <time>2019-03-30T13:39:56Z</time>
      </trkpt>
      <trkpt lat="47.98213" lon="-2.38372">
        <ele>25</ele>
        <time>2019-03-30T13:40:01Z</time>
      </trkpt>
      <trkpt lat="47.98215" lon="-2.38378">
        <ele>25</ele>
        <time>2019-03-30T13:40:19Z</time>
      </trkpt>
      <trkpt lat="47.98217" lon="-2.38386">
        <ele>26</ele>
        <time>2019-03-30T13:40:24Z</time>
      </trkpt>
      <trkpt lat="47.98214" lon="-2.384">
        <ele>26</ele>
        <time>2019-03-30T13:40:40Z</time>
      </trkpt>
      <trkpt lat="47.98213" lon="-2.38407">
        <ele>26</ele>
        <time>2019-03-30T13:40:44Z</time>
      </trkpt>
      <trkpt lat="47.98212" lon="-2.38414">
        <ele>26</ele>
        <time>2019-03-30T13:40:49Z</time>
      </trkpt>
      <trkpt lat="47.98212" lon="-2.38422">
        <ele>25</ele>
        <time>2019-03-30T13:40:53Z</time>
      </trkpt>
      <trkpt lat="47.9821" lon="-2.38429">
        <ele>25</ele>
        <time>2019-03-30T13:40:57Z</time>
      </trkpt>
      <trkpt lat="47.98209" lon="-2.38437">
        <ele>24</ele>
        <time>2019-03-30T13:41:03Z</time>
      </trkpt>
      <trkpt lat="47.98209" lon="-2.38445">
        <ele>23</ele>
        <time>2019-03-30T13:41:07Z</time>
      </trkpt>
      <trkpt lat="47.98209" lon="-2.38453">
        <ele>22</ele>
        <time>2019-03-30T13:41:12Z</time>
      </trkpt>
      <trkpt lat="47.98209" lon="-2.38461">
        <ele>21</ele>
        <time>2019-03-30T13:41:17Z</time>
      </trkpt>
      <trkpt lat="47.98208" lon="-2.38468">
        <ele>20</ele>
        <time>2019-03-30T13:41:20Z</time>
      </trkpt>
      <trkpt lat="47.98207" lon="-2.38476">
        <ele>19</ele>
        <time>2019-03-30T13:41:23Z</time>
      </trkpt>
      <trkpt lat="47.98204" lon="-2.38483">
        <ele>19</ele>
        <time>2019-03-30T13:41:27Z</time>
      </trkpt>
      <trkpt lat="47.98203" lon="-2.38491">
        <ele>19</ele>
        <time>2019-03-30T13:41:31Z</time>
      </trkpt>
      <trkpt lat="47.98205" lon="-2.38497">
        <ele>21</ele>
        <time>2019-03-30T13:41:38Z</time>
      </trkpt>
      <trkpt lat="47.98205" lon="-2.38505">
        <ele>21</ele>
        <time>2019-03-30T13:41:42Z</time>
      </trkpt>
      <trkpt lat="47.98207" lon="-2.38512">
        <ele>22</ele>
        <time>2019-03-30T13:41:45Z</time>
      </trkpt>
      <trkpt lat="47.98209" lon="-2.38519">
        <ele>23</ele>
        <time>2019-03-30T13:41:48Z</time>
      </trkpt>
      <trkpt lat="47.98211" lon="-2.38526">
        <ele>23</ele>
        <time>2019-03-30T13:41:51Z</time>
      </trkpt>
      <trkpt lat="47.98215" lon="-2.38532">
        <ele>24</ele>
        <time>2019-03-30T13:41:55Z</time>
      </trkpt>
      <trkpt lat="47.98219" lon="-2.38537">
        <ele>25</ele>
        <time>2019-03-30T13:41:59Z</time>
      </trkpt>
      <trkpt lat="47.98224" lon="-2.38538">
        <ele>26</ele>
        <time>2019-03-30T13:42:03Z</time>
      </trkpt>
      <trkpt lat="47.98229" lon="-2.38537">
        <ele>28</ele>
        <time>2019-03-30T13:42:07Z</time>
      </trkpt>
      <trkpt lat="47.98231" lon="-2.38531">
        <ele>29</ele>
        <time>2019-03-30T13:42:21Z</time>
      </trkpt>
      <trkpt lat="47.98235" lon="-2.38525">
        <ele>29</ele>
        <time>2019-03-30T13:42:25Z</time>
      </trkpt>
      <trkpt lat="47.98238" lon="-2.38519">
        <ele>30</ele>
        <time>2019-03-30T13:42:29Z</time>
      </trkpt>
      <trkpt lat="47.98242" lon="-2.38513">
        <ele>30</ele>
        <time>2019-03-30T13:42:33Z</time>
      </trkpt>
      <trkpt lat="47.98246" lon="-2.38509">
        <ele>30</ele>
        <time>2019-03-30T13:42:37Z</time>
      </trkpt>
      <trkpt lat="47.98249" lon="-2.38503">
        <ele>30</ele>
        <time>2019-03-30T13:42:42Z</time>
      </trkpt>
      <trkpt lat="47.98251" lon="-2.38497">
        <ele>30</ele>
        <time>2019-03-30T13:42:46Z</time>
      </trkpt>
      <trkpt lat="47.98254" lon="-2.38491">
        <ele>29</ele>
        <time>2019-03-30T13:42:51Z</time>
      </trkpt>
      <trkpt lat="47.98257" lon="-2.38486">
        <ele>28</ele>
        <time>2019-03-30T13:42:55Z</time>
      </trkpt>
      <trkpt lat="47.98261" lon="-2.38481">
        <ele>28</ele>
        <time>2019-03-30T13:42:58Z</time>
      </trkpt>
      <trkpt lat="47.98265" lon="-2.38477">
        <ele>28</ele>
        <time>2019-03-30T13:43:01Z</time>
      </trkpt>
      <trkpt lat="47.9827" lon="-2.38472">
        <ele>28</ele>
        <time>2019-03-30T13:43:05Z</time>
      </trkpt>
      <trkpt lat="47.98274" lon="-2.38468">
        <ele>29</ele>
        <time>2019-03-30T13:43:08Z</time>
      </trkpt>
      <trkpt lat="47.98276" lon="-2.3846">
        <ele>29</ele>
        <time>2019-03-30T13:43:13Z</time>
      </trkpt>
      <trkpt lat="47.98278" lon="-2.38454">
        <ele>30</ele>
        <time>2019-03-30T13:43:17Z</time>
      </trkpt>
      <trkpt lat="47.98282" lon="-2.38448">
        <ele>30</ele>
        <time>2019-03-30T13:43:23Z</time>
      </trkpt>
      <trkpt lat="47.98285" lon="-2.3844">
        <ele>29</ele>
        <time>2019-03-30T13:43:27Z</time>
      </trkpt>
      <trkpt lat="47.98288" lon="-2.38436">
        <ele>30</ele>
        <time>2019-03-30T13:43:30Z</time>
      </trkpt>
      <trkpt lat="47.98292" lon="-2.38429">
        <ele>29</ele>
        <time>2019-03-30T13:43:37Z</time>
      </trkpt>
      <trkpt lat="47.98296" lon="-2.38426">
        <ele>29</ele>
        <time>2019-03-30T13:43:40Z</time>
      </trkpt>
      <trkpt lat="47.98301" lon="-2.38422">
        <ele>29</ele>
        <time>2019-03-30T13:43:44Z</time>
      </trkpt>
      <trkpt lat="47.98304" lon="-2.38414">
        <ele>29</ele>
        <time>2019-03-30T13:43:48Z</time>
      </trkpt>
      <trkpt lat="47.98307" lon="-2.38408">
        <ele>29</ele>
        <time>2019-03-30T13:43:52Z</time>
      </trkpt>
      <trkpt lat="47.9831" lon="-2.38402">
        <ele>29</ele>
        <time>2019-03-30T13:43:56Z</time>
      </trkpt>
      <trkpt lat="47.98314" lon="-2.38397">
        <ele>29</ele>
        <time>2019-03-30T13:44:01Z</time>
      </trkpt>
      <trkpt lat="47.98317" lon="-2.38391">
        <ele>29</ele>
        <time>2019-03-30T13:44:05Z</time>
      </trkpt>
      <trkpt lat="47.98321" lon="-2.38387">
        <ele>30</ele>
        <time>2019-03-30T13:44:09Z</time>
      </trkpt>
      <trkpt lat="47.98325" lon="-2.38382">
        <ele>30</ele>
        <time>2019-03-30T13:44:13Z</time>
      </trkpt>
      <trkpt lat="47.98329" lon="-2.38377">
        <ele>30</ele>
        <time>2019-03-30T13:44:18Z</time>
      </trkpt>
      <trkpt lat="47.98332" lon="-2.38372">
        <ele>30</ele>
        <time>2019-03-30T13:44:22Z</time>
      </trkpt>
      <trkpt lat="47.98336" lon="-2.38366">
        <ele>30</ele>
        <time>2019-03-30T13:44:27Z</time>
      </trkpt>
      <trkpt lat="47.98338" lon="-2.3836">
        <ele>29</ele>
        <time>2019-03-30T13:44:31Z</time>
      </trkpt>
      <trkpt lat="47.98341" lon="-2.38353">
        <ele>29</ele>
        <time>2019-03-30T13:44:36Z</time>
      </trkpt>
      <trkpt lat="47.98345" lon="-2.38346">
        <ele>28</ele>
        <time>2019-03-30T13:44:40Z</time>
      </trkpt>
      <trkpt lat="47.98346" lon="-2.38338">
        <ele>28</ele>
        <time>2019-03-30T13:44:44Z</time>
      </trkpt>
      <trkpt lat="47.98346" lon="-2.3833">
        <ele>27</ele>
        <time>2019-03-30T13:44:48Z</time>
      </trkpt>
      <trkpt lat="47.98348" lon="-2.38323">
        <ele>26</ele>
        <time>2019-03-30T13:44:51Z</time>
      </trkpt>
      <trkpt lat="47.98348" lon="-2.38316">
        <ele>25</ele>
        <time>2019-03-30T13:44:54Z</time>
      </trkpt>
      <trkpt lat="47.98348" lon="-2.38309">
        <ele>26</ele>
        <time>2019-03-30T13:44:58Z</time>
      </trkpt>
      <trkpt lat="47.98349" lon="-2.38301">
        <ele>26</ele>
        <time>2019-03-30T13:45:02Z</time>
      </trkpt>
      <trkpt lat="47.9835" lon="-2.38293">
        <ele>26</ele>
        <time>2019-03-30T13:45:06Z</time>
      </trkpt>
      <trkpt lat="47.98351" lon="-2.38286">
        <ele>27</ele>
        <time>2019-03-30T13:45:10Z</time>
      </trkpt>
      <trkpt lat="47.98354" lon="-2.38278">
        <ele>28</ele>
        <time>2019-03-30T13:45:15Z</time>
      </trkpt>
      <trkpt lat="47.98355" lon="-2.38271">
        <ele>29</ele>
        <time>2019-03-30T13:45:19Z</time>
      </trkpt>
      <trkpt lat="47.98357" lon="-2.38264">
        <ele>30</ele>
        <time>2019-03-30T13:45:23Z</time>
      </trkpt>
      <trkpt lat="47.98355" lon="-2.38256">
        <ele>30</ele>
        <time>2019-03-30T13:45:28Z</time>
      </trkpt>
      <trkpt lat="47.98355" lon="-2.38249">
        <ele>31</ele>
        <time>2019-03-30T13:45:32Z</time>
      </trkpt>
      <trkpt lat="47.98352" lon="-2.38242">
        <ele>31</ele>
        <time>2019-03-30T13:45:36Z</time>
      </trkpt>
      <trkpt lat="47.98349" lon="-2.38235">
        <ele>30</ele>
        <time>2019-03-30T13:45:39Z</time>
      </trkpt>
      <trkpt lat="47.98347" lon="-2.38229">
        <ele>30</ele>
        <time>2019-03-30T13:45:42Z</time>
      </trkpt>
      <trkpt lat="47.98345" lon="-2.38221">
        <ele>30</ele>
        <time>2019-03-30T13:45:46Z</time>
      </trkpt>
      <trkpt lat="47.98342" lon="-2.38214">
        <ele>31</ele>
        <time>2019-03-30T13:45:50Z</time>
      </trkpt>
      <trkpt lat="47.9834" lon="-2.38208">
        <ele>32</ele>
        <time>2019-03-30T13:45:54Z</time>
      </trkpt>
      <trkpt lat="47.98337" lon="-2.38201">
        <ele>33</ele>
        <time>2019-03-30T13:45:58Z</time>
      </trkpt>
      <trkpt lat="47.98336" lon="-2.38194">
        <ele>34</ele>
        <time>2019-03-30T13:46:02Z</time>
      </trkpt>
      <trkpt lat="47.98335" lon="-2.38187">
        <ele>34</ele>
        <time>2019-03-30T13:46:06Z</time>
      </trkpt>
      <trkpt lat="47.98331" lon="-2.38182">
        <ele>34</ele>
        <time>2019-03-30T13:46:10Z</time>
      </trkpt>
      <trkpt lat="47.98325" lon="-2.38182">
        <ele>35</ele>
        <time>2019-03-30T13:46:14Z</time>
      </trkpt>
      <trkpt lat="47.9832" lon="-2.38184">
        <ele>35</ele>
        <time>2019-03-30T13:46:18Z</time>
      </trkpt>
      <trkpt lat="47.98324" lon="-2.38183">
        <ele>33</ele>
        <time>2019-03-30T13:46:45Z</time>
      </trkpt>
      <trkpt lat="47.9836" lon="-2.38174">
        <ele>32</ele>
        <time>2019-03-30T13:47:06Z</time>
      </trkpt>
      <trkpt lat="47.9836" lon="-2.38167">
        <ele>30</ele>
        <time>2019-03-30T13:47:09Z</time>
      </trkpt>
      <trkpt lat="47.98362" lon="-2.38162">
        <ele>29</ele>
        <time>2019-03-30T13:47:13Z</time>
      </trkpt>
      <trkpt lat="47.98366" lon="-2.38156">
        <ele>28</ele>
        <time>2019-03-30T13:47:17Z</time>
      </trkpt>
      <trkpt lat="47.9837" lon="-2.38152">
        <ele>29</ele>
        <time>2019-03-30T13:47:21Z</time>
      </trkpt>
      <trkpt lat="47.98372" lon="-2.38146">
        <ele>28</ele>
        <time>2019-03-30T13:47:25Z</time>
      </trkpt>
      <trkpt lat="47.98375" lon="-2.3814">
        <ele>28</ele>
        <time>2019-03-30T13:47:30Z</time>
      </trkpt>
      <trkpt lat="47.9838" lon="-2.38135">
        <ele>26</ele>
        <time>2019-03-30T13:47:35Z</time>
      </trkpt>
      <trkpt lat="47.98385" lon="-2.38132">
        <ele>25</ele>
        <time>2019-03-30T13:47:39Z</time>
      </trkpt>
      <trkpt lat="47.98389" lon="-2.3813">
        <ele>24</ele>
        <time>2019-03-30T13:47:43Z</time>
      </trkpt>
      <trkpt lat="47.98394" lon="-2.38127">
        <ele>24</ele>
        <time>2019-03-30T13:47:47Z</time>
      </trkpt>
      <trkpt lat="47.98399" lon="-2.38123">
        <ele>23</ele>
        <time>2019-03-30T13:47:50Z</time>
      </trkpt>
      <trkpt lat="47.98402" lon="-2.3812">
        <ele>23</ele>
        <time>2019-03-30T13:47:53Z</time>
      </trkpt>
      <trkpt lat="47.98408" lon="-2.38116">
        <ele>23</ele>
        <time>2019-03-30T13:47:57Z</time>
      </trkpt>
      <trkpt lat="47.98412" lon="-2.38111">
        <ele>23</ele>
        <time>2019-03-30T13:48:01Z</time>
      </trkpt>
      <trkpt lat="47.98415" lon="-2.38107">
        <ele>23</ele>
        <time>2019-03-30T13:48:05Z</time>
      </trkpt>
      <trkpt lat="47.9842" lon="-2.38104">
        <ele>22</ele>
        <time>2019-03-30T13:48:11Z</time>
      </trkpt>
      <trkpt lat="47.98424" lon="-2.38098">
        <ele>22</ele>
        <time>2019-03-30T13:48:15Z</time>
      </trkpt>
      <trkpt lat="47.98428" lon="-2.38094">
        <ele>22</ele>
        <time>2019-03-30T13:48:18Z</time>
      </trkpt>
      <trkpt lat="47.98434" lon="-2.3809">
        <ele>22</ele>
        <time>2019-03-30T13:48:21Z</time>
      </trkpt>
      <trkpt lat="47.98438" lon="-2.38088">
        <ele>22</ele>
        <time>2019-03-30T13:48:27Z</time>
      </trkpt>
      <trkpt lat="47.98444" lon="-2.38086">
        <ele>23</ele>
        <time>2019-03-30T13:48:31Z</time>
      </trkpt>
      <trkpt lat="47.98449" lon="-2.38081">
        <ele>23</ele>
        <time>2019-03-30T13:48:36Z</time>
      </trkpt>
      <trkpt lat="47.98453" lon="-2.38078">
        <ele>23</ele>
        <time>2019-03-30T13:48:39Z</time>
      </trkpt>
      <trkpt lat="47.98458" lon="-2.38075">
        <ele>24</ele>
        <time>2019-03-30T13:48:43Z</time>
      </trkpt>
      <trkpt lat="47.98463" lon="-2.38072">
        <ele>25</ele>
        <time>2019-03-30T13:48:49Z</time>
      </trkpt>
      <trkpt lat="47.98468" lon="-2.3807">
        <ele>25</ele>
        <time>2019-03-30T13:48:52Z</time>
      </trkpt>
      <trkpt lat="47.98473" lon="-2.38071">
        <ele>27</ele>
        <time>2019-03-30T13:48:56Z</time>
      </trkpt>
      <trkpt lat="47.98479" lon="-2.3807">
        <ele>28</ele>
        <time>2019-03-30T13:48:59Z</time>
      </trkpt>
      <trkpt lat="47.98484" lon="-2.38067">
        <ele>29</ele>
        <time>2019-03-30T13:49:05Z</time>
      </trkpt>
      <trkpt lat="47.98489" lon="-2.38066">
        <ele>29</ele>
        <time>2019-03-30T13:49:09Z</time>
      </trkpt>
      <trkpt lat="47.98492" lon="-2.38061">
        <ele>29</ele>
        <time>2019-03-30T13:49:13Z</time>
      </trkpt>
      <trkpt lat="47.98497" lon="-2.38059">
        <ele>29</ele>
        <time>2019-03-30T13:49:18Z</time>
      </trkpt>
      <trkpt lat="47.98502" lon="-2.38059">
        <ele>28</ele>
        <time>2019-03-30T13:49:24Z</time>
      </trkpt>
      <trkpt lat="47.98506" lon="-2.38065">
        <ele>28</ele>
        <time>2019-03-30T13:49:28Z</time>
      </trkpt>
      <trkpt lat="47.98511" lon="-2.38069">
        <ele>29</ele>
        <time>2019-03-30T13:49:32Z</time>
      </trkpt>
      <trkpt lat="47.98516" lon="-2.38074">
        <ele>30</ele>
        <time>2019-03-30T13:49:36Z</time>
      </trkpt>
      <trkpt lat="47.9852" lon="-2.3808">
        <ele>31</ele>
        <time>2019-03-30T13:49:40Z</time>
      </trkpt>
      <trkpt lat="47.98524" lon="-2.38084">
        <ele>32</ele>
        <time>2019-03-30T13:49:45Z</time>
      </trkpt>
      <trkpt lat="47.98529" lon="-2.38087">
        <ele>31</ele>
        <time>2019-03-30T13:49:50Z</time>
      </trkpt>
      <trkpt lat="47.98534" lon="-2.3809">
        <ele>31</ele>
        <time>2019-03-30T13:49:54Z</time>
      </trkpt>
      <trkpt lat="47.98539" lon="-2.38094">
        <ele>30</ele>
        <time>2019-03-30T13:49:58Z</time>
      </trkpt>
      <trkpt lat="47.98544" lon="-2.38094">
        <ele>28</ele>
        <time>2019-03-30T13:50:02Z</time>
      </trkpt>
      <trkpt lat="47.98549" lon="-2.38091">
        <ele>27</ele>
        <time>2019-03-30T13:50:06Z</time>
      </trkpt>
      <trkpt lat="47.98552" lon="-2.38086">
        <ele>26</ele>
        <time>2019-03-30T13:50:10Z</time>
      </trkpt>
      <trkpt lat="47.98551" lon="-2.38079">
        <ele>26</ele>
        <time>2019-03-30T13:50:15Z</time>
      </trkpt>
      <trkpt lat="47.98557" lon="-2.3808">
        <ele>25</ele>
        <time>2019-03-30T13:50:38Z</time>
      </trkpt>
      <trkpt lat="47.98561" lon="-2.38077">
        <ele>25</ele>
        <time>2019-03-30T13:50:41Z</time>
      </trkpt>
      <trkpt lat="47.98566" lon="-2.38074">
        <ele>27</ele>
        <time>2019-03-30T13:50:55Z</time>
      </trkpt>
      <trkpt lat="47.98571" lon="-2.38072">
        <ele>28</ele>
        <time>2019-03-30T13:50:58Z</time>
      </trkpt>
      <trkpt lat="47.98576" lon="-2.38071">
        <ele>30</ele>
        <time>2019-03-30T13:51:02Z</time>
      </trkpt>
      <trkpt lat="47.98582" lon="-2.38071">
        <ele>31</ele>
        <time>2019-03-30T13:51:06Z</time>
      </trkpt>
      <trkpt lat="47.98587" lon="-2.3807">
        <ele>33</ele>
        <time>2019-03-30T13:51:11Z</time>
      </trkpt>
      <trkpt lat="47.98591" lon="-2.38069">
        <ele>32</ele>
        <time>2019-03-30T13:51:16Z</time>
      </trkpt>
      <trkpt lat="47.98596" lon="-2.3807">
        <ele>31</ele>
        <time>2019-03-30T13:51:20Z</time>
      </trkpt>
      <trkpt lat="47.98601" lon="-2.3807">
        <ele>30</ele>
        <time>2019-03-30T13:51:25Z</time>
      </trkpt>
      <trkpt lat="47.98601" lon="-2.38067">
        <ele>29</ele>
        <time>2019-03-30T13:51:40Z</time>
      </trkpt>
      <trkpt lat="47.98601" lon="-2.38067">
        <ele>28</ele>
        <time>2019-03-30T13:51:42Z</time>
      </trkpt>
      <trkpt lat="47.98605" lon="-2.38071">
        <ele>28</ele>
        <time>2019-03-30T13:52:00Z</time>
      </trkpt>
      <trkpt lat="47.98609" lon="-2.38076">
        <ele>29</ele>
        <time>2019-03-30T13:52:04Z</time>
      </trkpt>
      <trkpt lat="47.98611" lon="-2.38082">
        <ele>29</ele>
        <time>2019-03-30T13:52:08Z</time>
      </trkpt>
      <trkpt lat="47.98614" lon="-2.38088">
        <ele>30</ele>
        <time>2019-03-30T13:52:12Z</time>
      </trkpt>
      <trkpt lat="47.98615" lon="-2.38095">
        <ele>30</ele>
        <time>2019-03-30T13:52:17Z</time>
      </trkpt>
      <trkpt lat="47.98616" lon="-2.38102">
        <ele>31</ele>
        <time>2019-03-30T13:52:21Z</time>
      </trkpt>
      <trkpt lat="47.98619" lon="-2.38108">
        <ele>31</ele>
        <time>2019-03-30T13:52:25Z</time>
      </trkpt>
      <trkpt lat="47.98621" lon="-2.38114">
        <ele>32</ele>
        <time>2019-03-30T13:52:36Z</time>
      </trkpt>
      <trkpt lat="47.98624" lon="-2.3812">
        <ele>34</ele>
        <time>2019-03-30T13:52:42Z</time>
      </trkpt>
      <trkpt lat="47.98628" lon="-2.38126">
        <ele>35</ele>
        <time>2019-03-30T13:52:47Z</time>
      </trkpt>
      <trkpt lat="47.9863" lon="-2.38132">
        <ele>35</ele>
        <time>2019-03-30T13:52:50Z</time>
      </trkpt>
      <trkpt lat="47.98632" lon="-2.38139">
        <ele>36</ele>
        <time>2019-03-30T13:52:54Z</time>
      </trkpt>
      <trkpt lat="47.98634" lon="-2.38146">
        <ele>36</ele>
        <time>2019-03-30T13:52:58Z</time>
      </trkpt>
      <trkpt lat="47.98636" lon="-2.38154">
        <ele>36</ele>
        <time>2019-03-30T13:53:03Z</time>
      </trkpt>
      <trkpt lat="47.98638" lon="-2.3816">
        <ele>38</ele>
        <time>2019-03-30T13:53:07Z</time>
      </trkpt>
      <trkpt lat="47.98642" lon="-2.38167">
        <ele>39</ele>
        <time>2019-03-30T13:53:12Z</time>
      </trkpt>
      <trkpt lat="47.98645" lon="-2.38174">
        <ele>40</ele>
        <time>2019-03-30T13:53:16Z</time>
      </trkpt>
      <trkpt lat="47.98646" lon="-2.38181">
        <ele>41</ele>
        <time>2019-03-30T13:53:20Z</time>
      </trkpt>
      <trkpt lat="47.98648" lon="-2.38188">
        <ele>42</ele>
        <time>2019-03-30T13:53:24Z</time>
      </trkpt>
      <trkpt lat="47.98651" lon="-2.38194">
        <ele>42</ele>
        <time>2019-03-30T13:53:28Z</time>
      </trkpt>
      <trkpt lat="47.98654" lon="-2.382">
        <ele>42</ele>
        <time>2019-03-30T13:53:32Z</time>
      </trkpt>
      <trkpt lat="47.98655" lon="-2.38207">
        <ele>41</ele>
        <time>2019-03-30T13:53:36Z</time>
      </trkpt>
      <trkpt lat="47.98656" lon="-2.38214">
        <ele>40</ele>
        <time>2019-03-30T13:53:40Z</time>
      </trkpt>
      <trkpt lat="47.98657" lon="-2.38221">
        <ele>38</ele>
        <time>2019-03-30T13:53:44Z</time>
      </trkpt>
      <trkpt lat="47.98657" lon="-2.38229">
        <ele>37</ele>
        <time>2019-03-30T13:53:49Z</time>
      </trkpt>
      <trkpt lat="47.98659" lon="-2.38235">
        <ele>36</ele>
        <time>2019-03-30T13:53:53Z</time>
      </trkpt>
      <trkpt lat="47.98663" lon="-2.38238">
        <ele>35</ele>
        <time>2019-03-30T13:53:56Z</time>
      </trkpt>
      <trkpt lat="47.98668" lon="-2.38242">
        <ele>35</ele>
        <time>2019-03-30T13:54:00Z</time>
      </trkpt>
      <trkpt lat="47.98673" lon="-2.38246">
        <ele>35</ele>
        <time>2019-03-30T13:54:04Z</time>
      </trkpt>
      <trkpt lat="47.98677" lon="-2.38249">
        <ele>36</ele>
        <time>2019-03-30T13:54:08Z</time>
      </trkpt>
      <trkpt lat="47.9868" lon="-2.38256">
        <ele>36</ele>
        <time>2019-03-30T13:54:12Z</time>
      </trkpt>
      <trkpt lat="47.98683" lon="-2.38262">
        <ele>37</ele>
        <time>2019-03-30T13:54:15Z</time>
      </trkpt>
      <trkpt lat="47.98684" lon="-2.38269">
        <ele>38</ele>
        <time>2019-03-30T13:54:20Z</time>
      </trkpt>
      <trkpt lat="47.98685" lon="-2.38275">
        <ele>39</ele>
        <time>2019-03-30T13:54:24Z</time>
      </trkpt>
      <trkpt lat="47.98687" lon="-2.38283">
        <ele>40</ele>
        <time>2019-03-30T13:54:28Z</time>
      </trkpt>
      <trkpt lat="47.9869" lon="-2.3829">
        <ele>41</ele>
        <time>2019-03-30T13:54:31Z</time>
      </trkpt>
      <trkpt lat="47.98691" lon="-2.38298">
        <ele>41</ele>
        <time>2019-03-30T13:54:36Z</time>
      </trkpt>
      <trkpt lat="47.98692" lon="-2.38305">
        <ele>40</ele>
        <time>2019-03-30T13:54:41Z</time>
      </trkpt>
      <trkpt lat="47.98695" lon="-2.38311">
        <ele>41</ele>
        <time>2019-03-30T13:54:49Z</time>
      </trkpt>
      <trkpt lat="47.98699" lon="-2.38317">
        <ele>41</ele>
        <time>2019-03-30T13:54:53Z</time>
      </trkpt>
      <trkpt lat="47.98704" lon="-2.38321">
        <ele>41</ele>
        <time>2019-03-30T13:54:57Z</time>
      </trkpt>
      <trkpt lat="47.98705" lon="-2.38327">
        <ele>41</ele>
        <time>2019-03-30T13:55:01Z</time>
      </trkpt>
      <trkpt lat="47.98708" lon="-2.38334">
        <ele>43</ele>
        <time>2019-03-30T13:55:05Z</time>
      </trkpt>
      <trkpt lat="47.98713" lon="-2.38339">
        <ele>43</ele>
        <time>2019-03-30T13:55:09Z</time>
      </trkpt>
      <trkpt lat="47.98715" lon="-2.38345">
        <ele>44</ele>
        <time>2019-03-30T13:55:13Z</time>
      </trkpt>
      <trkpt lat="47.98717" lon="-2.38351">
        <ele>44</ele>
        <time>2019-03-30T13:55:16Z</time>
      </trkpt>
      <trkpt lat="47.9872" lon="-2.38357">
        <ele>43</ele>
        <time>2019-03-30T13:55:21Z</time>
      </trkpt>
      <trkpt lat="47.98722" lon="-2.38363">
        <ele>42</ele>
        <time>2019-03-30T13:55:28Z</time>
      </trkpt>
      <trkpt lat="47.98724" lon="-2.38369">
        <ele>41</ele>
        <time>2019-03-30T13:55:31Z</time>
      </trkpt>
      <trkpt lat="47.98727" lon="-2.38374">
        <ele>41</ele>
        <time>2019-03-30T13:55:36Z</time>
      </trkpt>
      <trkpt lat="47.98731" lon="-2.38381">
        <ele>41</ele>
        <time>2019-03-30T13:55:40Z</time>
      </trkpt>
      <trkpt lat="47.98734" lon="-2.38387">
        <ele>41</ele>
        <time>2019-03-30T13:55:45Z</time>
      </trkpt>
      <trkpt lat="47.98735" lon="-2.38394">
        <ele>41</ele>
        <time>2019-03-30T13:55:49Z</time>
      </trkpt>
      <trkpt lat="47.98737" lon="-2.384">
        <ele>41</ele>
        <time>2019-03-30T13:55:52Z</time>
      </trkpt>
      <trkpt lat="47.98736" lon="-2.38409">
        <ele>41</ele>
        <time>2019-03-30T13:55:57Z</time>
      </trkpt>
      <trkpt lat="47.98734" lon="-2.38416">
        <ele>40</ele>
        <time>2019-03-30T13:56:01Z</time>
      </trkpt>
      <trkpt lat="47.98731" lon="-2.38421">
        <ele>40</ele>
        <time>2019-03-30T13:56:05Z</time>
      </trkpt>
      <trkpt lat="47.98726" lon="-2.38425">
        <ele>40</ele>
        <time>2019-03-30T13:56:10Z</time>
      </trkpt>
      <trkpt lat="47.98722" lon="-2.3843">
        <ele>40</ele>
        <time>2019-03-30T13:56:15Z</time>
      </trkpt>
      <trkpt lat="47.98718" lon="-2.38434">
        <ele>40</ele>
        <time>2019-03-30T13:56:19Z</time>
      </trkpt>
      <trkpt lat="47.98713" lon="-2.38438">
        <ele>41</ele>
        <time>2019-03-30T13:56:24Z</time>
      </trkpt>
      <trkpt lat="47.98708" lon="-2.38441">
        <ele>42</ele>
        <time>2019-03-30T13:56:29Z</time>
      </trkpt>
      <trkpt lat="47.98705" lon="-2.38445">
        <ele>42</ele>
        <time>2019-03-30T13:56:33Z</time>
      </trkpt>
      <trkpt lat="47.98699" lon="-2.38448">
        <ele>43</ele>
        <time>2019-03-30T13:56:37Z</time>
      </trkpt>
      <trkpt lat="47.98695" lon="-2.38453">
        <ele>44</ele>
        <time>2019-03-30T13:56:41Z</time>
      </trkpt>
      <trkpt lat="47.98691" lon="-2.38459">
        <ele>45</ele>
        <time>2019-03-30T13:56:49Z</time>
      </trkpt>
      <trkpt lat="47.98687" lon="-2.38463">
        <ele>46</ele>
        <time>2019-03-30T13:56:52Z</time>
      </trkpt>
      <trkpt lat="47.98683" lon="-2.38467">
        <ele>47</ele>
        <time>2019-03-30T13:56:56Z</time>
      </trkpt>
      <trkpt lat="47.98679" lon="-2.38471">
        <ele>47</ele>
        <time>2019-03-30T13:57:00Z</time>
      </trkpt>
      <trkpt lat="47.98674" lon="-2.38476">
        <ele>46</ele>
        <time>2019-03-30T13:57:04Z</time>
      </trkpt>
      <trkpt lat="47.98669" lon="-2.38479">
        <ele>46</ele>
        <time>2019-03-30T13:57:08Z</time>
      </trkpt>
      <trkpt lat="47.98665" lon="-2.38485">
        <ele>46</ele>
        <time>2019-03-30T13:57:12Z</time>
      </trkpt>
      <trkpt lat="47.98661" lon="-2.38488">
        <ele>46</ele>
        <time>2019-03-30T13:57:15Z</time>
      </trkpt>
      <trkpt lat="47.98656" lon="-2.38492">
        <ele>45</ele>
        <time>2019-03-30T13:57:19Z</time>
      </trkpt>
      <trkpt lat="47.98652" lon="-2.38498">
        <ele>45</ele>
        <time>2019-03-30T13:57:23Z</time>
      </trkpt>
      <trkpt lat="47.98647" lon="-2.38503">
        <ele>44</ele>
        <time>2019-03-30T13:57:27Z</time>
      </trkpt>
      <trkpt lat="47.98643" lon="-2.38507">
        <ele>44</ele>
        <time>2019-03-30T13:57:30Z</time>
      </trkpt>
      <trkpt lat="47.98639" lon="-2.38512">
        <ele>43</ele>
        <time>2019-03-30T13:57:34Z</time>
      </trkpt>
      <trkpt lat="47.98634" lon="-2.38516">
        <ele>43</ele>
        <time>2019-03-30T13:57:38Z</time>
      </trkpt>
      <trkpt lat="47.9863" lon="-2.3852">
        <ele>43</ele>
        <time>2019-03-30T13:57:41Z</time>
      </trkpt>
      <trkpt lat="47.98626" lon="-2.38526">
        <ele>43</ele>
        <time>2019-03-30T13:57:45Z</time>
      </trkpt>
      <trkpt lat="47.98622" lon="-2.3853">
        <ele>42</ele>
        <time>2019-03-30T13:57:49Z</time>
      </trkpt>
      <trkpt lat="47.98618" lon="-2.38535">
        <ele>42</ele>
        <time>2019-03-30T13:57:53Z</time>
      </trkpt>
      <trkpt lat="47.98613" lon="-2.38539">
        <ele>42</ele>
        <time>2019-03-30T13:57:58Z</time>
      </trkpt>
      <trkpt lat="47.98609" lon="-2.38543">
        <ele>41</ele>
        <time>2019-03-30T13:58:03Z</time>
      </trkpt>
      <trkpt lat="47.98605" lon="-2.38547">
        <ele>41</ele>
        <time>2019-03-30T13:58:07Z</time>
      </trkpt>
      <trkpt lat="47.98601" lon="-2.38551">
        <ele>40</ele>
        <time>2019-03-30T13:58:10Z</time>
      </trkpt>
      <trkpt lat="47.98597" lon="-2.38556">
        <ele>40</ele>
        <time>2019-03-30T13:58:14Z</time>
      </trkpt>
      <trkpt lat="47.98593" lon="-2.3856">
        <ele>40</ele>
        <time>2019-03-30T13:58:17Z</time>
      </trkpt>
      <trkpt lat="47.98588" lon="-2.38564">
        <ele>40</ele>
        <time>2019-03-30T13:58:20Z</time>
      </trkpt>
      <trkpt lat="47.98583" lon="-2.38567">
        <ele>40</ele>
        <time>2019-03-30T13:58:23Z</time>
      </trkpt>
      <trkpt lat="47.98579" lon="-2.38571">
        <ele>39</ele>
        <time>2019-03-30T13:58:27Z</time>
      </trkpt>
      <trkpt lat="47.98575" lon="-2.38574">
        <ele>38</ele>
        <time>2019-03-30T13:58:30Z</time>
      </trkpt>
      <trkpt lat="47.9857" lon="-2.38577">
        <ele>37</ele>
        <time>2019-03-30T13:58:34Z</time>
      </trkpt>
      <trkpt lat="47.98567" lon="-2.38584">
        <ele>36</ele>
        <time>2019-03-30T13:58:37Z</time>
      </trkpt>
      <trkpt lat="47.98563" lon="-2.38589">
        <ele>36</ele>
        <time>2019-03-30T13:58:41Z</time>
      </trkpt>
      <trkpt lat="47.98558" lon="-2.38592">
        <ele>35</ele>
        <time>2019-03-30T13:58:46Z</time>
      </trkpt>
      <trkpt lat="47.98544" lon="-2.38602">
        <ele>34</ele>
        <time>2019-03-30T13:58:59Z</time>
      </trkpt>
      <trkpt lat="47.98538" lon="-2.38604">
        <ele>35</ele>
        <time>2019-03-30T13:59:03Z</time>
      </trkpt>
      <trkpt lat="47.98533" lon="-2.38603">
        <ele>36</ele>
        <time>2019-03-30T13:59:07Z</time>
      </trkpt>
      <trkpt lat="47.98529" lon="-2.38603">
        <ele>36</ele>
        <time>2019-03-30T13:59:10Z</time>
      </trkpt>
      <trkpt lat="47.98523" lon="-2.38605">
        <ele>38</ele>
        <time>2019-03-30T13:59:14Z</time>
      </trkpt>
      <trkpt lat="47.98518" lon="-2.38606">
        <ele>39</ele>
        <time>2019-03-30T13:59:18Z</time>
      </trkpt>
      <trkpt lat="47.98513" lon="-2.38606">
        <ele>40</ele>
        <time>2019-03-30T13:59:22Z</time>
      </trkpt>
      <trkpt lat="47.98507" lon="-2.38609">
        <ele>40</ele>
        <time>2019-03-30T13:59:26Z</time>
      </trkpt>
      <trkpt lat="47.98502" lon="-2.38614">
        <ele>40</ele>
        <time>2019-03-30T13:59:30Z</time>
      </trkpt>
      <trkpt lat="47.98497" lon="-2.38614">
        <ele>41</ele>
        <time>2019-03-30T13:59:34Z</time>
      </trkpt>
      <trkpt lat="47.98493" lon="-2.38614">
        <ele>41</ele>
        <time>2019-03-30T13:59:38Z</time>
      </trkpt>
      <trkpt lat="47.98488" lon="-2.38617">
        <ele>43</ele>
        <time>2019-03-30T13:59:42Z</time>
      </trkpt>
      <trkpt lat="47.98483" lon="-2.38617">
        <ele>44</ele>
        <time>2019-03-30T13:59:46Z</time>
      </trkpt>
      <trkpt lat="47.98479" lon="-2.3862">
        <ele>45</ele>
        <time>2019-03-30T13:59:49Z</time>
      </trkpt>
      <trkpt lat="47.98475" lon="-2.38624">
        <ele>44</ele>
        <time>2019-03-30T13:59:53Z</time>
      </trkpt>
      <trkpt lat="47.9847" lon="-2.38627">
        <ele>43</ele>
        <time>2019-03-30T13:59:58Z</time>
      </trkpt>
      <trkpt lat="47.98466" lon="-2.38628">
        <ele>41</ele>
        <time>2019-03-30T14:00:03Z</time>
      </trkpt>
      <trkpt lat="47.98462" lon="-2.38631">
        <ele>39</ele>
        <time>2019-03-30T14:00:06Z</time>
      </trkpt>
      <trkpt lat="47.98456" lon="-2.38634">
        <ele>39</ele>
        <time>2019-03-30T14:00:10Z</time>
      </trkpt>
      <trkpt lat="47.98451" lon="-2.38636">
        <ele>38</ele>
        <time>2019-03-30T14:00:14Z</time>
      </trkpt>
      <trkpt lat="47.98446" lon="-2.38637">
        <ele>39</ele>
        <time>2019-03-30T14:00:18Z</time>
      </trkpt>
      <trkpt lat="47.9844" lon="-2.38638">
        <ele>40</ele>
        <time>2019-03-30T14:00:22Z</time>
      </trkpt>
      <trkpt lat="47.98435" lon="-2.38639">
        <ele>40</ele>
        <time>2019-03-30T14:00:26Z</time>
      </trkpt>
      <trkpt lat="47.98431" lon="-2.38642">
        <ele>40</ele>
        <time>2019-03-30T14:00:29Z</time>
      </trkpt>
      <trkpt lat="47.98427" lon="-2.38646">
        <ele>41</ele>
        <time>2019-03-30T14:00:32Z</time>
      </trkpt>
      <trkpt lat="47.98422" lon="-2.38648">
        <ele>42</ele>
        <time>2019-03-30T14:00:36Z</time>
      </trkpt>
      <trkpt lat="47.98417" lon="-2.38649">
        <ele>42</ele>
        <time>2019-03-30T14:00:41Z</time>
      </trkpt>
      <trkpt lat="47.98411" lon="-2.38649">
        <ele>42</ele>
        <time>2019-03-30T14:00:45Z</time>
      </trkpt>
      <trkpt lat="47.98406" lon="-2.3865">
        <ele>43</ele>
        <time>2019-03-30T14:00:48Z</time>
      </trkpt>
      <trkpt lat="47.98402" lon="-2.38654">
        <ele>43</ele>
        <time>2019-03-30T14:00:52Z</time>
      </trkpt>
      <trkpt lat="47.98397" lon="-2.3866">
        <ele>43</ele>
        <time>2019-03-30T14:00:56Z</time>
      </trkpt>
      <trkpt lat="47.98393" lon="-2.38662">
        <ele>43</ele>
        <time>2019-03-30T14:01:01Z</time>
      </trkpt>
      <trkpt lat="47.98388" lon="-2.38665">
        <ele>42</ele>
        <time>2019-03-30T14:01:05Z</time>
      </trkpt>
      <trkpt lat="47.98385" lon="-2.3867">
        <ele>41</ele>
        <time>2019-03-30T14:01:09Z</time>
      </trkpt>
      <trkpt lat="47.9838" lon="-2.38674">
        <ele>40</ele>
        <time>2019-03-30T14:01:13Z</time>
      </trkpt>
      <trkpt lat="47.98377" lon="-2.38679">
        <ele>39</ele>
        <time>2019-03-30T14:01:16Z</time>
      </trkpt>
      <trkpt lat="47.98371" lon="-2.38683">
        <ele>39</ele>
        <time>2019-03-30T14:01:20Z</time>
      </trkpt>
      <trkpt lat="47.98366" lon="-2.38687">
        <ele>38</ele>
        <time>2019-03-30T14:01:24Z</time>
      </trkpt>
      <trkpt lat="47.98362" lon="-2.38692">
        <ele>36</ele>
        <time>2019-03-30T14:01:27Z</time>
      </trkpt>
      <trkpt lat="47.98358" lon="-2.38696">
        <ele>34</ele>
        <time>2019-03-30T14:01:33Z</time>
      </trkpt>
      <trkpt lat="47.98354" lon="-2.38701">
        <ele>32</ele>
        <time>2019-03-30T14:01:37Z</time>
      </trkpt>
      <trkpt lat="47.9835" lon="-2.38703">
        <ele>30</ele>
        <time>2019-03-30T14:01:40Z</time>
      </trkpt>
      <trkpt lat="47.98345" lon="-2.38706">
        <ele>30</ele>
        <time>2019-03-30T14:01:44Z</time>
      </trkpt>
      <trkpt lat="47.9834" lon="-2.38711">
        <ele>30</ele>
        <time>2019-03-30T14:01:48Z</time>
      </trkpt>
      <trkpt lat="47.98335" lon="-2.38714">
        <ele>31</ele>
        <time>2019-03-30T14:01:52Z</time>
      </trkpt>
      <trkpt lat="47.98331" lon="-2.38718">
        <ele>32</ele>
        <time>2019-03-30T14:01:56Z</time>
      </trkpt>
      <trkpt lat="47.98327" lon="-2.38722">
        <ele>32</ele>
        <time>2019-03-30T14:01:59Z</time>
      </trkpt>
      <trkpt lat="47.98322" lon="-2.38726">
        <ele>31</ele>
        <time>2019-03-30T14:02:03Z</time>
      </trkpt>
      <trkpt lat="47.98318" lon="-2.38731">
        <ele>31</ele>
        <time>2019-03-30T14:02:07Z</time>
      </trkpt>
      <trkpt lat="47.98314" lon="-2.38733">
        <ele>30</ele>
        <time>2019-03-30T14:02:11Z</time>
      </trkpt>
      <trkpt lat="47.98309" lon="-2.38738">
        <ele>29</ele>
        <time>2019-03-30T14:02:15Z</time>
      </trkpt>
      <trkpt lat="47.98303" lon="-2.38741">
        <ele>29</ele>
        <time>2019-03-30T14:02:19Z</time>
      </trkpt>
      <trkpt lat="47.98299" lon="-2.38744">
        <ele>29</ele>
        <time>2019-03-30T14:02:23Z</time>
      </trkpt>
      <trkpt lat="47.98294" lon="-2.38746">
        <ele>30</ele>
        <time>2019-03-30T14:02:27Z</time>
      </trkpt>
      <trkpt lat="47.98289" lon="-2.38748">
        <ele>31</ele>
        <time>2019-03-30T14:02:31Z</time>
      </trkpt>
      <trkpt lat="47.98286" lon="-2.38754">
        <ele>31</ele>
        <time>2019-03-30T14:02:34Z</time>
      </trkpt>
      <trkpt lat="47.98281" lon="-2.38757">
        <ele>31</ele>
        <time>2019-03-30T14:02:38Z</time>
      </trkpt>
      <trkpt lat="47.98277" lon="-2.3876">
        <ele>32</ele>
        <time>2019-03-30T14:02:42Z</time>
      </trkpt>
      <trkpt lat="47.98272" lon="-2.38765">
        <ele>32</ele>
        <time>2019-03-30T14:02:45Z</time>
      </trkpt>
      <trkpt lat="47.98267" lon="-2.38771">
        <ele>33</ele>
        <time>2019-03-30T14:02:50Z</time>
      </trkpt>
      <trkpt lat="47.98264" lon="-2.38777">
        <ele>33</ele>
        <time>2019-03-30T14:02:55Z</time>
      </trkpt>
      <trkpt lat="47.9826" lon="-2.38783">
        <ele>34</ele>
        <time>2019-03-30T14:02:59Z</time>
      </trkpt>
      <trkpt lat="47.98256" lon="-2.38788">
        <ele>33</ele>
        <time>2019-03-30T14:03:04Z</time>
      </trkpt>
      <trkpt lat="47.98253" lon="-2.38794">
        <ele>32</ele>
        <time>2019-03-30T14:03:07Z</time>
      </trkpt>
      <trkpt lat="47.98249" lon="-2.38798">
        <ele>32</ele>
        <time>2019-03-30T14:03:11Z</time>
      </trkpt>
      <trkpt lat="47.98244" lon="-2.38803">
        <ele>31</ele>
        <time>2019-03-30T14:03:15Z</time>
      </trkpt>
      <trkpt lat="47.9824" lon="-2.38807">
        <ele>29</ele>
        <time>2019-03-30T14:03:18Z</time>
      </trkpt>
      <trkpt lat="47.98235" lon="-2.38811">
        <ele>29</ele>
        <time>2019-03-30T14:03:23Z</time>
      </trkpt>
      <trkpt lat="47.98232" lon="-2.38815">
        <ele>28</ele>
        <time>2019-03-30T14:03:26Z</time>
      </trkpt>
      <trkpt lat="47.98228" lon="-2.3882">
        <ele>28</ele>
        <time>2019-03-30T14:03:30Z</time>
      </trkpt>
      <trkpt lat="47.98224" lon="-2.38824">
        <ele>28</ele>
        <time>2019-03-30T14:03:34Z</time>
      </trkpt>
      <trkpt lat="47.9822" lon="-2.38831">
        <ele>29</ele>
        <time>2019-03-30T14:03:38Z</time>
      </trkpt>
      <trkpt lat="47.98217" lon="-2.38835">
        <ele>29</ele>
        <time>2019-03-30T14:03:41Z</time>
      </trkpt>
      <trkpt lat="47.98214" lon="-2.3884">
        <ele>28</ele>
        <time>2019-03-30T14:03:46Z</time>
      </trkpt>
      <trkpt lat="47.98209" lon="-2.38841">
        <ele>28</ele>
        <time>2019-03-30T14:03:50Z</time>
      </trkpt>
      <trkpt lat="47.98206" lon="-2.38848">
        <ele>27</ele>
        <time>2019-03-30T14:03:54Z</time>
      </trkpt>
      <trkpt lat="47.98202" lon="-2.38854">
        <ele>26</ele>
        <time>2019-03-30T14:03:58Z</time>
      </trkpt>
      <trkpt lat="47.982" lon="-2.38859">
        <ele>26</ele>
        <time>2019-03-30T14:04:02Z</time>
      </trkpt>
      <trkpt lat="47.98197" lon="-2.38865">
        <ele>26</ele>
        <time>2019-03-30T14:04:11Z</time>
      </trkpt>
      <trkpt lat="47.98193" lon="-2.38871">
        <ele>25</ele>
        <time>2019-03-30T14:04:17Z</time>
      </trkpt>
      <trkpt lat="47.98189" lon="-2.38875">
        <ele>26</ele>
        <time>2019-03-30T14:04:22Z</time>
      </trkpt>
      <trkpt lat="47.98184" lon="-2.3888">
        <ele>26</ele>
        <time>2019-03-30T14:04:27Z</time>
      </trkpt>
      <trkpt lat="47.9818" lon="-2.38885">
        <ele>26</ele>
        <time>2019-03-30T14:04:31Z</time>
      </trkpt>
      <trkpt lat="47.98175" lon="-2.38887">
        <ele>25</ele>
        <time>2019-03-30T14:04:36Z</time>
      </trkpt>
      <trkpt lat="47.9817" lon="-2.38891">
        <ele>25</ele>
        <time>2019-03-30T14:04:39Z</time>
      </trkpt>
      <trkpt lat="47.98164" lon="-2.38894">
        <ele>23</ele>
        <time>2019-03-30T14:04:43Z</time>
      </trkpt>
      <trkpt lat="47.98159" lon="-2.38897">
        <ele>22</ele>
        <time>2019-03-30T14:04:45Z</time>
      </trkpt>
      <trkpt lat="47.98154" lon="-2.38902">
        <ele>21</ele>
        <time>2019-03-30T14:04:48Z</time>
      </trkpt>
      <trkpt lat="47.9815" lon="-2.38907">
        <ele>20</ele>
        <time>2019-03-30T14:04:52Z</time>
      </trkpt>
      <trkpt lat="47.98145" lon="-2.38906">
        <ele>21</ele>
        <time>2019-03-30T14:04:57Z</time>
      </trkpt>
      <trkpt lat="47.98139" lon="-2.38906">
        <ele>21</ele>
        <time>2019-03-30T14:05:00Z</time>
      </trkpt>
      <trkpt lat="47.98134" lon="-2.38905">
        <ele>21</ele>
        <time>2019-03-30T14:05:04Z</time>
      </trkpt>
      <trkpt lat="47.98128" lon="-2.38905">
        <ele>20</ele>
        <time>2019-03-30T14:05:08Z</time>
      </trkpt>
      <trkpt lat="47.98123" lon="-2.38908">
        <ele>19</ele>
        <time>2019-03-30T14:05:24Z</time>
      </trkpt>
      <trkpt lat="47.98121" lon="-2.38913">
        <ele>17</ele>
        <time>2019-03-30T14:05:27Z</time>
      </trkpt>
      <trkpt lat="47.98118" lon="-2.3892">
        <ele>16</ele>
        <time>2019-03-30T14:05:30Z</time>
      </trkpt>
      <trkpt lat="47.98115" lon="-2.38924">
        <ele>16</ele>
        <time>2019-03-30T14:05:33Z</time>
      </trkpt>
      <trkpt lat="47.9811" lon="-2.38929">
        <ele>16</ele>
        <time>2019-03-30T14:05:37Z</time>
      </trkpt>
      <trkpt lat="47.98106" lon="-2.38932">
        <ele>16</ele>
        <time>2019-03-30T14:05:41Z</time>
      </trkpt>
      <trkpt lat="47.981" lon="-2.38935">
        <ele>16</ele>
        <time>2019-03-30T14:05:45Z</time>
      </trkpt>
      <trkpt lat="47.98096" lon="-2.38938">
        <ele>17</ele>
        <time>2019-03-30T14:05:48Z</time>
      </trkpt>
      <trkpt lat="47.98092" lon="-2.38941">
        <ele>18</ele>
        <time>2019-03-30T14:05:52Z</time>
      </trkpt>
      <trkpt lat="47.98087" lon="-2.38939">
        <ele>19</ele>
        <time>2019-03-30T14:05:55Z</time>
      </trkpt>
      <trkpt lat="47.98081" lon="-2.3894">
        <ele>20</ele>
        <time>2019-03-30T14:05:59Z</time>
      </trkpt>
      <trkpt lat="47.98078" lon="-2.38945">
        <ele>21</ele>
        <time>2019-03-30T14:06:02Z</time>
      </trkpt>
      <trkpt lat="47.98074" lon="-2.38952">
        <ele>22</ele>
        <time>2019-03-30T14:06:06Z</time>
      </trkpt>
      <trkpt lat="47.98071" lon="-2.38957">
        <ele>23</ele>
        <time>2019-03-30T14:06:10Z</time>
      </trkpt>
      <trkpt lat="47.98067" lon="-2.38962">
        <ele>24</ele>
        <time>2019-03-30T14:06:14Z</time>
      </trkpt>
      <trkpt lat="47.98063" lon="-2.38966">
        <ele>24</ele>
        <time>2019-03-30T14:06:18Z</time>
      </trkpt>
      <trkpt lat="47.98059" lon="-2.3897">
        <ele>24</ele>
        <time>2019-03-30T14:06:22Z</time>
      </trkpt>
      <trkpt lat="47.98054" lon="-2.38973">
        <ele>25</ele>
        <time>2019-03-30T14:06:26Z</time>
      </trkpt>
      <trkpt lat="47.98049" lon="-2.38974">
        <ele>25</ele>
        <time>2019-03-30T14:06:30Z</time>
      </trkpt>
      <trkpt lat="47.98044" lon="-2.38975">
        <ele>25</ele>
        <time>2019-03-30T14:06:34Z</time>
      </trkpt>
      <trkpt lat="47.98039" lon="-2.38978">
        <ele>25</ele>
        <time>2019-03-30T14:06:38Z</time>
      </trkpt>
      <trkpt lat="47.98034" lon="-2.38979">
        <ele>26</ele>
        <time>2019-03-30T14:06:42Z</time>
      </trkpt>
      <trkpt lat="47.9803" lon="-2.38981">
        <ele>26</ele>
        <time>2019-03-30T14:06:46Z</time>
      </trkpt>
      <trkpt lat="47.98027" lon="-2.38986">
        <ele>27</ele>
        <time>2019-03-30T14:06:49Z</time>
      </trkpt>
      <trkpt lat="47.98022" lon="-2.38989">
        <ele>26</ele>
        <time>2019-03-30T14:06:53Z</time>
      </trkpt>
      <trkpt lat="47.98018" lon="-2.38997">
        <ele>26</ele>
        <time>2019-03-30T14:06:58Z</time>
      </trkpt>
      <trkpt lat="47.98018" lon="-2.39006">
        <ele>26</ele>
        <time>2019-03-30T14:07:02Z</time>
      </trkpt>
      <trkpt lat="47.98017" lon="-2.39014">
        <ele>26</ele>
        <time>2019-03-30T14:07:14Z</time>
      </trkpt>
      <trkpt lat="47.98015" lon="-2.3902">
        <ele>26</ele>
        <time>2019-03-30T14:07:18Z</time>
      </trkpt>
      <trkpt lat="47.98013" lon="-2.39028">
        <ele>27</ele>
        <time>2019-03-30T14:07:23Z</time>
      </trkpt>
      <trkpt lat="47.98012" lon="-2.39036">
        <ele>28</ele>
        <time>2019-03-30T14:07:27Z</time>
      </trkpt>
      <trkpt lat="47.98013" lon="-2.39043">
        <ele>29</ele>
        <time>2019-03-30T14:07:31Z</time>
      </trkpt>
      <trkpt lat="47.9801" lon="-2.39051">
        <ele>30</ele>
        <time>2019-03-30T14:07:35Z</time>
      </trkpt>
      <trkpt lat="47.98009" lon="-2.39058">
        <ele>31</ele>
        <time>2019-03-30T14:07:41Z</time>
      </trkpt>
      <trkpt lat="47.98007" lon="-2.39066">
        <ele>31</ele>
        <time>2019-03-30T14:07:45Z</time>
      </trkpt>
      <trkpt lat="47.98006" lon="-2.39072">
        <ele>31</ele>
        <time>2019-03-30T14:07:49Z</time>
      </trkpt>
      <trkpt lat="47.98006" lon="-2.3908">
        <ele>31</ele>
        <time>2019-03-30T14:07:53Z</time>
      </trkpt>
      <trkpt lat="47.98007" lon="-2.39088">
        <ele>31</ele>
        <time>2019-03-30T14:07:57Z</time>
      </trkpt>
      <trkpt lat="47.98005" lon="-2.39096">
        <ele>31</ele>
        <time>2019-03-30T14:08:01Z</time>
      </trkpt>
      <trkpt lat="47.98002" lon="-2.39103">
        <ele>31</ele>
        <time>2019-03-30T14:08:05Z</time>
      </trkpt>
      <trkpt lat="47.97999" lon="-2.39108">
        <ele>31</ele>
        <time>2019-03-30T14:08:09Z</time>
      </trkpt>
      <trkpt lat="47.97998" lon="-2.39115">
        <ele>31</ele>
        <time>2019-03-30T14:08:18Z</time>
      </trkpt>
      <trkpt lat="47.97997" lon="-2.39122">
        <ele>30</ele>
        <time>2019-03-30T14:08:23Z</time>
      </trkpt>
      <trkpt lat="47.97994" lon="-2.39129">
        <ele>30</ele>
        <time>2019-03-30T14:08:27Z</time>
      </trkpt>
      <trkpt lat="47.9799" lon="-2.39134">
        <ele>31</ele>
        <time>2019-03-30T14:08:31Z</time>
      </trkpt>
      <trkpt lat="47.97987" lon="-2.39142">
        <ele>31</ele>
        <time>2019-03-30T14:08:36Z</time>
      </trkpt>
      <trkpt lat="47.97984" lon="-2.39149">
        <ele>31</ele>
        <time>2019-03-30T14:08:40Z</time>
      </trkpt>
      <trkpt lat="47.97981" lon="-2.39154">
        <ele>32</ele>
        <time>2019-03-30T14:08:44Z</time>
      </trkpt>
      <trkpt lat="47.97978" lon="-2.3916">
        <ele>34</ele>
        <time>2019-03-30T14:08:48Z</time>
      </trkpt>
      <trkpt lat="47.9798" lon="-2.39166">
        <ele>35</ele>
        <time>2019-03-30T14:08:52Z</time>
      </trkpt>
      <trkpt lat="47.97984" lon="-2.39173">
        <ele>36</ele>
        <time>2019-03-30T14:08:56Z</time>
      </trkpt>
      <trkpt lat="47.97986" lon="-2.39179">
        <ele>36</ele>
        <time>2019-03-30T14:08:59Z</time>
      </trkpt>
      <trkpt lat="47.97986" lon="-2.39186">
        <ele>36</ele>
        <time>2019-03-30T14:09:02Z</time>
      </trkpt>
      <trkpt lat="47.97986" lon="-2.39192">
        <ele>35</ele>
        <time>2019-03-30T14:09:05Z</time>
      </trkpt>
      <trkpt lat="47.97983" lon="-2.39199">
        <ele>34</ele>
        <time>2019-03-30T14:09:09Z</time>
      </trkpt>
      <trkpt lat="47.97983" lon="-2.39206">
        <ele>34</ele>
        <time>2019-03-30T14:09:14Z</time>
      </trkpt>
      <trkpt lat="47.97983" lon="-2.39214">
        <ele>34</ele>
        <time>2019-03-30T14:09:19Z</time>
      </trkpt>
      <trkpt lat="47.97982" lon="-2.39222">
        <ele>34</ele>
        <time>2019-03-30T14:09:23Z</time>
      </trkpt>
      <trkpt lat="47.97987" lon="-2.39225">
        <ele>33</ele>
        <time>2019-03-30T14:09:44Z</time>
      </trkpt>
      <trkpt lat="47.97982" lon="-2.39229">
        <ele>32</ele>
        <time>2019-03-30T14:09:51Z</time>
      </trkpt>
      <trkpt lat="47.97977" lon="-2.39234">
        <ele>31</ele>
        <time>2019-03-30T14:09:55Z</time>
      </trkpt>
      <trkpt lat="47.97975" lon="-2.39241">
        <ele>30</ele>
        <time>2019-03-30T14:09:59Z</time>
      </trkpt>
      <trkpt lat="47.97973" lon="-2.39248">
        <ele>29</ele>
        <time>2019-03-30T14:10:02Z</time>
      </trkpt>
      <trkpt lat="47.97973" lon="-2.39256">
        <ele>29</ele>
        <time>2019-03-30T14:10:05Z</time>
      </trkpt>
      <trkpt lat="47.97972" lon="-2.39262">
        <ele>29</ele>
        <time>2019-03-30T14:10:08Z</time>
      </trkpt>
      <trkpt lat="47.97968" lon="-2.39269">
        <ele>29</ele>
        <time>2019-03-30T14:10:12Z</time>
      </trkpt>
      <trkpt lat="47.97966" lon="-2.39276">
        <ele>29</ele>
        <time>2019-03-30T14:10:16Z</time>
      </trkpt>
      <trkpt lat="47.97963" lon="-2.39282">
        <ele>30</ele>
        <time>2019-03-30T14:10:20Z</time>
      </trkpt>
      <trkpt lat="47.97959" lon="-2.39288">
        <ele>31</ele>
        <time>2019-03-30T14:10:25Z</time>
      </trkpt>
      <trkpt lat="47.97955" lon="-2.39293">
        <ele>31</ele>
        <time>2019-03-30T14:10:29Z</time>
      </trkpt>
      <trkpt lat="47.97953" lon="-2.39299">
        <ele>30</ele>
        <time>2019-03-30T14:10:35Z</time>
      </trkpt>
      <trkpt lat="47.9795" lon="-2.39306">
        <ele>29</ele>
        <time>2019-03-30T14:10:39Z</time>
      </trkpt>
      <trkpt lat="47.97946" lon="-2.3931">
        <ele>28</ele>
        <time>2019-03-30T14:10:42Z</time>
      </trkpt>
      <trkpt lat="47.97941" lon="-2.39314">
        <ele>28</ele>
        <time>2019-03-30T14:10:46Z</time>
      </trkpt>
      <trkpt lat="47.97937" lon="-2.39318">
        <ele>27</ele>
        <time>2019-03-30T14:10:50Z</time>
      </trkpt>
      <trkpt lat="47.97934" lon="-2.39324">
        <ele>27</ele>
        <time>2019-03-30T14:10:54Z</time>
      </trkpt>
      <trkpt lat="47.9793" lon="-2.3933">
        <ele>26</ele>
        <time>2019-03-30T14:10:58Z</time>
      </trkpt>
      <trkpt lat="47.97926" lon="-2.39335">
        <ele>26</ele>
        <time>2019-03-30T14:11:02Z</time>
      </trkpt>
      <trkpt lat="47.97922" lon="-2.3934">
        <ele>26</ele>
        <time>2019-03-30T14:11:06Z</time>
      </trkpt>
      <trkpt lat="47.97918" lon="-2.39345">
        <ele>26</ele>
        <time>2019-03-30T14:11:11Z</time>
      </trkpt>
      <trkpt lat="47.97913" lon="-2.39347">
        <ele>26</ele>
        <time>2019-03-30T14:11:15Z</time>
      </trkpt>
      <trkpt lat="47.97908" lon="-2.39346">
        <ele>26</ele>
        <time>2019-03-30T14:11:19Z</time>
      </trkpt>
      <trkpt lat="47.97903" lon="-2.39346">
        <ele>27</ele>
        <time>2019-03-30T14:11:22Z</time>
      </trkpt>
      <trkpt lat="47.97899" lon="-2.39346">
        <ele>28</ele>
        <time>2019-03-30T14:11:25Z</time>
      </trkpt>
      <trkpt lat="47.97893" lon="-2.39345">
        <ele>29</ele>
        <time>2019-03-30T14:11:29Z</time>
      </trkpt>
      <trkpt lat="47.97889" lon="-2.39345">
        <ele>30</ele>
        <time>2019-03-30T14:11:33Z</time>
      </trkpt>
      <trkpt lat="47.97884" lon="-2.39347">
        <ele>30</ele>
        <time>2019-03-30T14:11:36Z</time>
      </trkpt>
      <trkpt lat="47.97879" lon="-2.39347">
        <ele>30</ele>
        <time>2019-03-30T14:11:44Z</time>
      </trkpt>
      <trkpt lat="47.97874" lon="-2.39347">
        <ele>31</ele>
        <time>2019-03-30T14:11:49Z</time>
      </trkpt>
      <trkpt lat="47.97869" lon="-2.39344">
        <ele>31</ele>
        <time>2019-03-30T14:11:53Z</time>
      </trkpt>
      <trkpt lat="47.97864" lon="-2.39343">
        <ele>31</ele>
        <time>2019-03-30T14:11:56Z</time>
      </trkpt>
      <trkpt lat="47.9786" lon="-2.39342">
        <ele>31</ele>
        <time>2019-03-30T14:11:59Z</time>
      </trkpt>
      <trkpt lat="47.97854" lon="-2.39341">
        <ele>31</ele>
        <time>2019-03-30T14:12:03Z</time>
      </trkpt>
      <trkpt lat="47.9785" lon="-2.39339">
        <ele>30</ele>
        <time>2019-03-30T14:12:07Z</time>
      </trkpt>
      <trkpt lat="47.97845" lon="-2.39336">
        <ele>29</ele>
        <time>2019-03-30T14:12:11Z</time>
      </trkpt>
      <trkpt lat="47.97839" lon="-2.39335">
        <ele>29</ele>
        <time>2019-03-30T14:12:14Z</time>
      </trkpt>
      <trkpt lat="47.97835" lon="-2.39334">
        <ele>30</ele>
        <time>2019-03-30T14:12:17Z</time>
      </trkpt>
      <trkpt lat="47.9783" lon="-2.39334">
        <ele>30</ele>
        <time>2019-03-30T14:12:21Z</time>
      </trkpt>
      <trkpt lat="47.97826" lon="-2.39335">
        <ele>31</ele>
        <time>2019-03-30T14:12:26Z</time>
      </trkpt>
      <trkpt lat="47.97821" lon="-2.39334">
        <ele>31</ele>
        <time>2019-03-30T14:12:36Z</time>
      </trkpt>
      <trkpt lat="47.97816" lon="-2.39333">
        <ele>32</ele>
        <time>2019-03-30T14:12:39Z</time>
      </trkpt>
      <trkpt lat="47.97811" lon="-2.39333">
        <ele>32</ele>
        <time>2019-03-30T14:12:43Z</time>
      </trkpt>
      <trkpt lat="47.97807" lon="-2.39329">
        <ele>31</ele>
        <time>2019-03-30T14:12:48Z</time>
      </trkpt>
      <trkpt lat="47.97803" lon="-2.39326">
        <ele>31</ele>
        <time>2019-03-30T14:12:52Z</time>
      </trkpt>
      <trkpt lat="47.978" lon="-2.3932">
        <ele>31</ele>
        <time>2019-03-30T14:12:56Z</time>
      </trkpt>
      <trkpt lat="47.97794" lon="-2.39317">
        <ele>31</ele>
        <time>2019-03-30T14:13:09Z</time>
      </trkpt>
      <trkpt lat="47.9779" lon="-2.39314">
        <ele>30</ele>
        <time>2019-03-30T14:13:12Z</time>
      </trkpt>
      <trkpt lat="47.97786" lon="-2.39308">
        <ele>30</ele>
        <time>2019-03-30T14:13:16Z</time>
      </trkpt>
      <trkpt lat="47.97782" lon="-2.39305">
        <ele>30</ele>
        <time>2019-03-30T14:13:19Z</time>
      </trkpt>
      <trkpt lat="47.97777" lon="-2.39302">
        <ele>30</ele>
        <time>2019-03-30T14:13:25Z</time>
      </trkpt>
      <trkpt lat="47.97773" lon="-2.393">
        <ele>31</ele>
        <time>2019-03-30T14:13:29Z</time>
      </trkpt>
      <trkpt lat="47.97768" lon="-2.39297">
        <ele>31</ele>
        <time>2019-03-30T14:13:33Z</time>
      </trkpt>
      <trkpt lat="47.97763" lon="-2.39295">
        <ele>31</ele>
        <time>2019-03-30T14:13:36Z</time>
      </trkpt>
      <trkpt lat="47.97759" lon="-2.39293">
        <ele>31</ele>
        <time>2019-03-30T14:13:39Z</time>
      </trkpt>
      <trkpt lat="47.97754" lon="-2.39291">
        <ele>32</ele>
        <time>2019-03-30T14:13:42Z</time>
      </trkpt>
      <trkpt lat="47.97749" lon="-2.39291">
        <ele>32</ele>
        <time>2019-03-30T14:13:45Z</time>
      </trkpt>
      <trkpt lat="47.97744" lon="-2.39291">
        <ele>33</ele>
        <time>2019-03-30T14:13:49Z</time>
      </trkpt>
      <trkpt lat="47.97739" lon="-2.39292">
        <ele>34</ele>
        <time>2019-03-30T14:13:53Z</time>
      </trkpt>
      <trkpt lat="47.97733" lon="-2.39291">
        <ele>34</ele>
        <time>2019-03-30T14:13:57Z</time>
      </trkpt>
      <trkpt lat="47.97727" lon="-2.39287">
        <ele>34</ele>
        <time>2019-03-30T14:14:01Z</time>
      </trkpt>
      <trkpt lat="47.97723" lon="-2.39286">
        <ele>34</ele>
        <time>2019-03-30T14:14:04Z</time>
      </trkpt>
      <trkpt lat="47.97718" lon="-2.39291">
        <ele>32</ele>
        <time>2019-03-30T14:14:11Z</time>
      </trkpt>
      <trkpt lat="47.97714" lon="-2.39293">
        <ele>32</ele>
        <time>2019-03-30T14:14:27Z</time>
      </trkpt>
      <trkpt lat="47.97709" lon="-2.39289">
        <ele>31</ele>
        <time>2019-03-30T14:14:31Z</time>
      </trkpt>
      <trkpt lat="47.97704" lon="-2.39282">
        <ele>30</ele>
        <time>2019-03-30T14:14:37Z</time>
      </trkpt>
      <trkpt lat="47.97701" lon="-2.39278">
        <ele>30</ele>
        <time>2019-03-30T14:14:41Z</time>
      </trkpt>
      <trkpt lat="47.97696" lon="-2.39275">
        <ele>30</ele>
        <time>2019-03-30T14:14:45Z</time>
      </trkpt>
      <trkpt lat="47.97692" lon="-2.3927">
        <ele>29</ele>
        <time>2019-03-30T14:14:51Z</time>
      </trkpt>
      <trkpt lat="47.97686" lon="-2.39268">
        <ele>28</ele>
        <time>2019-03-30T14:14:54Z</time>
      </trkpt>
      <trkpt lat="47.9768" lon="-2.39265">
        <ele>28</ele>
        <time>2019-03-30T14:14:57Z</time>
      </trkpt>
      <trkpt lat="47.97676" lon="-2.39262">
        <ele>27</ele>
        <time>2019-03-30T14:15:01Z</time>
      </trkpt>
      <trkpt lat="47.97672" lon="-2.39259">
        <ele>26</ele>
        <time>2019-03-30T14:15:05Z</time>
      </trkpt>
      <trkpt lat="47.97667" lon="-2.39255">
        <ele>26</ele>
        <time>2019-03-30T14:15:09Z</time>
      </trkpt>
      <trkpt lat="47.97663" lon="-2.39251">
        <ele>26</ele>
        <time>2019-03-30T14:15:13Z</time>
      </trkpt>
      <trkpt lat="47.97656" lon="-2.39245">
        <ele>26</ele>
        <time>2019-03-30T14:15:16Z</time>
      </trkpt>
      <trkpt lat="47.97652" lon="-2.39242">
        <ele>25</ele>
        <time>2019-03-30T14:15:19Z</time>
      </trkpt>
      <trkpt lat="47.97648" lon="-2.39238">
        <ele>26</ele>
        <time>2019-03-30T14:15:32Z</time>
      </trkpt>
      <trkpt lat="47.97643" lon="-2.39236">
        <ele>27</ele>
        <time>2019-03-30T14:15:37Z</time>
      </trkpt>
      <trkpt lat="47.97638" lon="-2.39235">
        <ele>27</ele>
        <time>2019-03-30T14:15:44Z</time>
      </trkpt>
      <trkpt lat="47.97633" lon="-2.39233">
        <ele>28</ele>
        <time>2019-03-30T14:15:48Z</time>
      </trkpt>
      <trkpt lat="47.97627" lon="-2.39229">
        <ele>29</ele>
        <time>2019-03-30T14:15:53Z</time>
      </trkpt>
      <trkpt lat="47.97623" lon="-2.39225">
        <ele>28</ele>
        <time>2019-03-30T14:15:55Z</time>
      </trkpt>
      <trkpt lat="47.97619" lon="-2.3922">
        <ele>28</ele>
        <time>2019-03-30T14:15:57Z</time>
      </trkpt>
      <trkpt lat="47.97615" lon="-2.39216">
        <ele>29</ele>
        <time>2019-03-30T14:16:00Z</time>
      </trkpt>
      <trkpt lat="47.9761" lon="-2.39215">
        <ele>30</ele>
        <time>2019-03-30T14:16:04Z</time>
      </trkpt>
      <trkpt lat="47.97607" lon="-2.3921">
        <ele>31</ele>
        <time>2019-03-30T14:16:07Z</time>
      </trkpt>
      <trkpt lat="47.97603" lon="-2.39205">
        <ele>32</ele>
        <time>2019-03-30T14:16:10Z</time>
      </trkpt>
      <trkpt lat="47.97598" lon="-2.39204">
        <ele>32</ele>
        <time>2019-03-30T14:16:16Z</time>
      </trkpt>
      <trkpt lat="47.97593" lon="-2.39203">
        <ele>31</ele>
        <time>2019-03-30T14:16:19Z</time>
      </trkpt>
      <trkpt lat="47.97588" lon="-2.39202">
        <ele>30</ele>
        <time>2019-03-30T14:16:29Z</time>
      </trkpt>
      <trkpt lat="47.97584" lon="-2.39196">
        <ele>29</ele>
        <time>2019-03-30T14:16:33Z</time>
      </trkpt>
      <trkpt lat="47.9758" lon="-2.3919">
        <ele>28</ele>
        <time>2019-03-30T14:16:38Z</time>
      </trkpt>
      <trkpt lat="47.97578" lon="-2.39185">
        <ele>27</ele>
        <time>2019-03-30T14:16:42Z</time>
      </trkpt>
      <trkpt lat="47.97574" lon="-2.39178">
        <ele>26</ele>
        <time>2019-03-30T14:16:48Z</time>
      </trkpt>
      <trkpt lat="47.97569" lon="-2.39171">
        <ele>26</ele>
        <time>2019-03-30T14:16:51Z</time>
      </trkpt>
      <trkpt lat="47.97566" lon="-2.39166">
        <ele>25</ele>
        <time>2019-03-30T14:16:54Z</time>
      </trkpt>
      <trkpt lat="47.97561" lon="-2.39161">
        <ele>24</ele>
        <time>2019-03-30T14:16:59Z</time>
      </trkpt>
      <trkpt lat="47.97557" lon="-2.39156">
        <ele>23</ele>
        <time>2019-03-30T14:17:04Z</time>
      </trkpt>
      <trkpt lat="47.97556" lon="-2.39148">
        <ele>23</ele>
        <time>2019-03-30T14:17:09Z</time>
      </trkpt>
      <trkpt lat="47.97552" lon="-2.39145">
        <ele>24</ele>
        <time>2019-03-30T14:17:12Z</time>
      </trkpt>
      <trkpt lat="47.97547" lon="-2.39141">
        <ele>25</ele>
        <time>2019-03-30T14:17:16Z</time>
      </trkpt>
      <trkpt lat="47.97542" lon="-2.39137">
        <ele>27</ele>
        <time>2019-03-30T14:17:21Z</time>
      </trkpt>
      <trkpt lat="47.97539" lon="-2.39131">
        <ele>29</ele>
        <time>2019-03-30T14:17:25Z</time>
      </trkpt>
      <trkpt lat="47.97534" lon="-2.39128">
        <ele>30</ele>
        <time>2019-03-30T14:17:29Z</time>
      </trkpt>
      <trkpt lat="47.97529" lon="-2.39125">
        <ele>30</ele>
        <time>2019-03-30T14:17:34Z</time>
      </trkpt>
      <trkpt lat="47.97523" lon="-2.39122">
        <ele>30</ele>
        <time>2019-03-30T14:17:37Z</time>
      </trkpt>
      <trkpt lat="47.97516" lon="-2.39121">
        <ele>29</ele>
        <time>2019-03-30T14:17:39Z</time>
      </trkpt>
      <trkpt lat="47.9751" lon="-2.39117">
        <ele>28</ele>
        <time>2019-03-30T14:17:41Z</time>
      </trkpt>
      <trkpt lat="47.97505" lon="-2.39114">
        <ele>29</ele>
        <time>2019-03-30T14:17:45Z</time>
      </trkpt>
      <trkpt lat="47.975" lon="-2.39112">
        <ele>30</ele>
        <time>2019-03-30T14:17:48Z</time>
      </trkpt>
      <trkpt lat="47.97495" lon="-2.39112">
        <ele>30</ele>
        <time>2019-03-30T14:17:58Z</time>
      </trkpt>
      <trkpt lat="47.97489" lon="-2.3911">
        <ele>30</ele>
        <time>2019-03-30T14:18:03Z</time>
      </trkpt>
      <trkpt lat="47.97484" lon="-2.39109">
        <ele>30</ele>
        <time>2019-03-30T14:18:06Z</time>
      </trkpt>
      <trkpt lat="47.9748" lon="-2.39104">
        <ele>30</ele>
        <time>2019-03-30T14:18:12Z</time>
      </trkpt>
      <trkpt lat="47.97475" lon="-2.39102">
        <ele>30</ele>
        <time>2019-03-30T14:18:18Z</time>
      </trkpt>
      <trkpt lat="47.97471" lon="-2.39099">
        <ele>30</ele>
        <time>2019-03-30T14:18:22Z</time>
      </trkpt>
      <trkpt lat="47.97466" lon="-2.39097">
        <ele>31</ele>
        <time>2019-03-30T14:18:26Z</time>
      </trkpt>
      <trkpt lat="47.97461" lon="-2.39099">
        <ele>31</ele>
        <time>2019-03-30T14:18:37Z</time>
      </trkpt>
      <trkpt lat="47.97456" lon="-2.39097">
        <ele>32</ele>
        <time>2019-03-30T14:18:47Z</time>
      </trkpt>
      <trkpt lat="47.97451" lon="-2.39094">
        <ele>33</ele>
        <time>2019-03-30T14:18:51Z</time>
      </trkpt>
      <trkpt lat="47.97445" lon="-2.39093">
        <ele>32</ele>
        <time>2019-03-30T14:18:56Z</time>
      </trkpt>
      <trkpt lat="47.9744" lon="-2.3909">
        <ele>32</ele>
        <time>2019-03-30T14:18:59Z</time>
      </trkpt>
      <trkpt lat="47.97435" lon="-2.39089">
        <ele>33</ele>
        <time>2019-03-30T14:19:02Z</time>
      </trkpt>
      <trkpt lat="47.9743" lon="-2.39086">
        <ele>32</ele>
        <time>2019-03-30T14:19:07Z</time>
      </trkpt>
      <trkpt lat="47.97426" lon="-2.39084">
        <ele>31</ele>
        <time>2019-03-30T14:19:11Z</time>
      </trkpt>
      <trkpt lat="47.97421" lon="-2.3908">
        <ele>31</ele>
        <time>2019-03-30T14:19:19Z</time>
      </trkpt>
      <trkpt lat="47.97416" lon="-2.39078">
        <ele>31</ele>
        <time>2019-03-30T14:19:24Z</time>
      </trkpt>
      <trkpt lat="47.97411" lon="-2.39079">
        <ele>31</ele>
        <time>2019-03-30T14:19:32Z</time>
      </trkpt>
      <trkpt lat="47.97406" lon="-2.39076">
        <ele>30</ele>
        <time>2019-03-30T14:19:35Z</time>
      </trkpt>
      <trkpt lat="47.97401" lon="-2.39074">
        <ele>29</ele>
        <time>2019-03-30T14:19:40Z</time>
      </trkpt>
      <trkpt lat="47.97397" lon="-2.39072">
        <ele>27</ele>
        <time>2019-03-30T14:19:45Z</time>
      </trkpt>
      <trkpt lat="47.97391" lon="-2.39072">
        <ele>26</ele>
        <time>2019-03-30T14:19:49Z</time>
      </trkpt>
      <trkpt lat="47.97385" lon="-2.39075">
        <ele>25</ele>
        <time>2019-03-30T14:19:52Z</time>
      </trkpt>
      <trkpt lat="47.9738" lon="-2.39075">
        <ele>23</ele>
        <time>2019-03-30T14:19:56Z</time>
      </trkpt>
      <trkpt lat="47.97376" lon="-2.39072">
        <ele>22</ele>
        <time>2019-03-30T14:19:59Z</time>
      </trkpt>
      <trkpt lat="47.97372" lon="-2.39069">
        <ele>21</ele>
        <time>2019-03-30T14:20:02Z</time>
      </trkpt>
      <trkpt lat="47.97368" lon="-2.39066">
        <ele>21</ele>
        <time>2019-03-30T14:20:06Z</time>
      </trkpt>
      <trkpt lat="47.97362" lon="-2.39065">
        <ele>20</ele>
        <time>2019-03-30T14:20:09Z</time>
      </trkpt>
      <trkpt lat="47.97357" lon="-2.39064">
        <ele>20</ele>
        <time>2019-03-30T14:20:14Z</time>
      </trkpt>
      <trkpt lat="47.97352" lon="-2.39061">
        <ele>20</ele>
        <time>2019-03-30T14:20:18Z</time>
      </trkpt>
      <trkpt lat="47.97347" lon="-2.39061">
        <ele>21</ele>
        <time>2019-03-30T14:20:23Z</time>
      </trkpt>
      <trkpt lat="47.97342" lon="-2.3906">
        <ele>22</ele>
        <time>2019-03-30T14:20:30Z</time>
      </trkpt>
      <trkpt lat="47.97337" lon="-2.39059">
        <ele>24</ele>
        <time>2019-03-30T14:20:34Z</time>
      </trkpt>
      <trkpt lat="47.97333" lon="-2.39058">
        <ele>25</ele>
        <time>2019-03-30T14:20:39Z</time>
      </trkpt>
      <trkpt lat="47.97328" lon="-2.39054">
        <ele>26</ele>
        <time>2019-03-30T14:20:44Z</time>
      </trkpt>
      <trkpt lat="47.97322" lon="-2.39051">
        <ele>25</ele>
        <time>2019-03-30T14:20:48Z</time>
      </trkpt>
      <trkpt lat="47.97318" lon="-2.39053">
        <ele>25</ele>
        <time>2019-03-30T14:20:52Z</time>
      </trkpt>
      <trkpt lat="47.97312" lon="-2.3905">
        <ele>25</ele>
        <time>2019-03-30T14:20:56Z</time>
      </trkpt>
      <trkpt lat="47.97306" lon="-2.39048">
        <ele>24</ele>
        <time>2019-03-30T14:20:59Z</time>
      </trkpt>
      <trkpt lat="47.97302" lon="-2.39047">
        <ele>24</ele>
        <time>2019-03-30T14:21:01Z</time>
      </trkpt>
      <trkpt lat="47.97297" lon="-2.39046">
        <ele>24</ele>
        <time>2019-03-30T14:21:04Z</time>
      </trkpt>
      <trkpt lat="47.97292" lon="-2.39045">
        <ele>24</ele>
        <time>2019-03-30T14:21:08Z</time>
      </trkpt>
      <trkpt lat="47.97287" lon="-2.39041">
        <ele>24</ele>
        <time>2019-03-30T14:21:20Z</time>
      </trkpt>
      <trkpt lat="47.97282" lon="-2.39041">
        <ele>24</ele>
        <time>2019-03-30T14:21:23Z</time>
      </trkpt>
      <trkpt lat="47.97278" lon="-2.39041">
        <ele>24</ele>
        <time>2019-03-30T14:21:26Z</time>
      </trkpt>
      <trkpt lat="47.97273" lon="-2.39038">
        <ele>24</ele>
        <time>2019-03-30T14:21:32Z</time>
      </trkpt>
      <trkpt lat="47.97268" lon="-2.3904">
        <ele>24</ele>
        <time>2019-03-30T14:21:35Z</time>
      </trkpt>
      <trkpt lat="47.97262" lon="-2.39042">
        <ele>22</ele>
        <time>2019-03-30T14:21:38Z</time>
      </trkpt>
      <trkpt lat="47.97258" lon="-2.3904">
        <ele>22</ele>
        <time>2019-03-30T14:21:42Z</time>
      </trkpt>
      <trkpt lat="47.97252" lon="-2.39037">
        <ele>22</ele>
        <time>2019-03-30T14:21:46Z</time>
      </trkpt>
      <trkpt lat="47.97248" lon="-2.39035">
        <ele>21</ele>
        <time>2019-03-30T14:21:50Z</time>
      </trkpt>
      <trkpt lat="47.97244" lon="-2.3904">
        <ele>20</ele>
        <time>2019-03-30T14:21:54Z</time>
      </trkpt>
      <trkpt lat="47.97239" lon="-2.39042">
        <ele>20</ele>
        <time>2019-03-30T14:21:59Z</time>
      </trkpt>
      <trkpt lat="47.97234" lon="-2.39044">
        <ele>20</ele>
        <time>2019-03-30T14:22:05Z</time>
      </trkpt>
      <trkpt lat="47.97229" lon="-2.39047">
        <ele>19</ele>
        <time>2019-03-30T14:22:09Z</time>
      </trkpt>
      <trkpt lat="47.97224" lon="-2.39047">
        <ele>19</ele>
        <time>2019-03-30T14:22:12Z</time>
      </trkpt>
      <trkpt lat="47.9722" lon="-2.39046">
        <ele>21</ele>
        <time>2019-03-30T14:22:15Z</time>
      </trkpt>
      <trkpt lat="47.97214" lon="-2.39046">
        <ele>22</ele>
        <time>2019-03-30T14:22:19Z</time>
      </trkpt>
      <trkpt lat="47.97209" lon="-2.39045">
        <ele>23</ele>
        <time>2019-03-30T14:22:28Z</time>
      </trkpt>
      <trkpt lat="47.97203" lon="-2.39044">
        <ele>24</ele>
        <time>2019-03-30T14:22:31Z</time>
      </trkpt>
      <trkpt lat="47.97199" lon="-2.39045">
        <ele>25</ele>
        <time>2019-03-30T14:22:34Z</time>
      </trkpt>
      <trkpt lat="47.97193" lon="-2.39045">
        <ele>25</ele>
        <time>2019-03-30T14:22:37Z</time>
      </trkpt>
      <trkpt lat="47.97189" lon="-2.39046">
        <ele>26</ele>
        <time>2019-03-30T14:22:40Z</time>
      </trkpt>
      <trkpt lat="47.97183" lon="-2.39047">
        <ele>25</ele>
        <time>2019-03-30T14:22:45Z</time>
      </trkpt>
      <trkpt lat="47.97178" lon="-2.39047">
        <ele>25</ele>
        <time>2019-03-30T14:22:48Z</time>
      </trkpt>
      <trkpt lat="47.97172" lon="-2.39045">
        <ele>24</ele>
        <time>2019-03-30T14:22:53Z</time>
      </trkpt>
      <trkpt lat="47.97167" lon="-2.3905">
        <ele>23</ele>
        <time>2019-03-30T14:22:57Z</time>
      </trkpt>
      <trkpt lat="47.97163" lon="-2.39053">
        <ele>22</ele>
        <time>2019-03-30T14:23:02Z</time>
      </trkpt>
      <trkpt lat="47.97158" lon="-2.39054">
        <ele>21</ele>
        <time>2019-03-30T14:23:06Z</time>
      </trkpt>
      <trkpt lat="47.97153" lon="-2.39053">
        <ele>20</ele>
        <time>2019-03-30T14:23:10Z</time>
      </trkpt>
      <trkpt lat="47.97149" lon="-2.39052">
        <ele>20</ele>
        <time>2019-03-30T14:23:13Z</time>
      </trkpt>
      <trkpt lat="47.97143" lon="-2.39049">
        <ele>22</ele>
        <time>2019-03-30T14:23:17Z</time>
      </trkpt>
      <trkpt lat="47.97138" lon="-2.39047">
        <ele>24</ele>
        <time>2019-03-30T14:23:20Z</time>
      </trkpt>
      <trkpt lat="47.97131" lon="-2.39048">
        <ele>26</ele>
        <time>2019-03-30T14:23:24Z</time>
      </trkpt>
      <trkpt lat="47.97126" lon="-2.39049">
        <ele>27</ele>
        <time>2019-03-30T14:23:32Z</time>
      </trkpt>
      <trkpt lat="47.97121" lon="-2.39049">
        <ele>29</ele>
        <time>2019-03-30T14:23:36Z</time>
      </trkpt>
      <trkpt lat="47.97115" lon="-2.39049">
        <ele>29</ele>
        <time>2019-03-30T14:23:41Z</time>
      </trkpt>
      <trkpt lat="47.9711" lon="-2.39048">
        <ele>28</ele>
        <time>2019-03-30T14:23:45Z</time>
      </trkpt>
      <trkpt lat="47.97105" lon="-2.39047">
        <ele>29</ele>
        <time>2019-03-30T14:23:50Z</time>
      </trkpt>
      <trkpt lat="47.97101" lon="-2.39047">
        <ele>30</ele>
        <time>2019-03-30T14:23:53Z</time>
      </trkpt>
      <trkpt lat="47.97098" lon="-2.39053">
        <ele>31</ele>
        <time>2019-03-30T14:23:57Z</time>
      </trkpt>
      <trkpt lat="47.97094" lon="-2.39057">
        <ele>31</ele>
        <time>2019-03-30T14:24:02Z</time>
      </trkpt>
      <trkpt lat="47.97091" lon="-2.39063">
        <ele>31</ele>
        <time>2019-03-30T14:24:06Z</time>
      </trkpt>
      <trkpt lat="47.97086" lon="-2.39067">
        <ele>30</ele>
        <time>2019-03-30T14:24:10Z</time>
      </trkpt>
      <trkpt lat="47.97082" lon="-2.39072">
        <ele>29</ele>
        <time>2019-03-30T14:24:14Z</time>
      </trkpt>
      <trkpt lat="47.9708" lon="-2.39078">
        <ele>28</ele>
        <time>2019-03-30T14:24:22Z</time>
      </trkpt>
      <trkpt lat="47.97076" lon="-2.39082">
        <ele>28</ele>
        <time>2019-03-30T14:24:25Z</time>
      </trkpt>
      <trkpt lat="47.97071" lon="-2.39086">
        <ele>27</ele>
        <time>2019-03-30T14:24:30Z</time>
      </trkpt>
      <trkpt lat="47.97067" lon="-2.39089">
        <ele>26</ele>
        <time>2019-03-30T14:24:34Z</time>
      </trkpt>
      <trkpt lat="47.97063" lon="-2.39094">
        <ele>26</ele>
        <time>2019-03-30T14:24:38Z</time>
      </trkpt>
      <trkpt lat="47.97059" lon="-2.39096">
        <ele>25</ele>
        <time>2019-03-30T14:24:44Z</time>
      </trkpt>
      <trkpt lat="47.97054" lon="-2.39097">
        <ele>25</ele>
        <time>2019-03-30T14:24:47Z</time>
      </trkpt>
      <trkpt lat="47.97051" lon="-2.39101">
        <ele>25</ele>
        <time>2019-03-30T14:24:50Z</time>
      </trkpt>
      <trkpt lat="47.97046" lon="-2.39106">
        <ele>26</ele>
        <time>2019-03-30T14:24:53Z</time>
      </trkpt>
      <trkpt lat="47.97041" lon="-2.39109">
        <ele>26</ele>
        <time>2019-03-30T14:24:58Z</time>
      </trkpt>
      <trkpt lat="47.97036" lon="-2.39113">
        <ele>27</ele>
        <time>2019-03-30T14:25:02Z</time>
      </trkpt>
      <trkpt lat="47.97032" lon="-2.39118">
        <ele>27</ele>
        <time>2019-03-30T14:25:07Z</time>
      </trkpt>
      <trkpt lat="47.97028" lon="-2.39118">
        <ele>29</ele>
        <time>2019-03-30T14:25:11Z</time>
      </trkpt>
      <trkpt lat="47.97022" lon="-2.39119">
        <ele>29</ele>
        <time>2019-03-30T14:25:14Z</time>
      </trkpt>
      <trkpt lat="47.97017" lon="-2.39121">
        <ele>30</ele>
        <time>2019-03-30T14:25:17Z</time>
      </trkpt>
      <trkpt lat="47.97012" lon="-2.39124">
        <ele>30</ele>
        <time>2019-03-30T14:25:21Z</time>
      </trkpt>
      <trkpt lat="47.97007" lon="-2.39127">
        <ele>31</ele>
        <time>2019-03-30T14:25:25Z</time>
      </trkpt>
      <trkpt lat="47.97002" lon="-2.39128">
        <ele>31</ele>
        <time>2019-03-30T14:25:29Z</time>
      </trkpt>
      <trkpt lat="47.96998" lon="-2.39131">
        <ele>30</ele>
        <time>2019-03-30T14:25:35Z</time>
      </trkpt>
      <trkpt lat="47.96993" lon="-2.39134">
        <ele>31</ele>
        <time>2019-03-30T14:25:40Z</time>
      </trkpt>
      <trkpt lat="47.96988" lon="-2.39136">
        <ele>31</ele>
        <time>2019-03-30T14:25:45Z</time>
      </trkpt>
      <trkpt lat="47.96984" lon="-2.39138">
        <ele>31</ele>
        <time>2019-03-30T14:25:51Z</time>
      </trkpt>
      <trkpt lat="47.96979" lon="-2.39142">
        <ele>31</ele>
        <time>2019-03-30T14:25:56Z</time>
      </trkpt>
      <trkpt lat="47.96974" lon="-2.39145">
        <ele>31</ele>
        <time>2019-03-30T14:25:59Z</time>
      </trkpt>
      <trkpt lat="47.96969" lon="-2.39147">
        <ele>31</ele>
        <time>2019-03-30T14:26:02Z</time>
      </trkpt>
      <trkpt lat="47.96965" lon="-2.39152">
        <ele>31</ele>
        <time>2019-03-30T14:26:06Z</time>
      </trkpt>
      <trkpt lat="47.96962" lon="-2.39157">
        <ele>30</ele>
        <time>2019-03-30T14:26:10Z</time>
      </trkpt>
      <trkpt lat="47.96956" lon="-2.39158">
        <ele>30</ele>
        <time>2019-03-30T14:26:14Z</time>
      </trkpt>
      <trkpt lat="47.96952" lon="-2.39158">
        <ele>30</ele>
        <time>2019-03-30T14:26:18Z</time>
      </trkpt>
      <trkpt lat="47.96947" lon="-2.3916">
        <ele>29</ele>
        <time>2019-03-30T14:26:22Z</time>
      </trkpt>
      <trkpt lat="47.96942" lon="-2.39161">
        <ele>30</ele>
        <time>2019-03-30T14:26:25Z</time>
      </trkpt>
      <trkpt lat="47.96938" lon="-2.39163">
        <ele>30</ele>
        <time>2019-03-30T14:26:28Z</time>
      </trkpt>
      <trkpt lat="47.96934" lon="-2.39168">
        <ele>31</ele>
        <time>2019-03-30T14:26:32Z</time>
      </trkpt>
      <trkpt lat="47.9693" lon="-2.39173">
        <ele>31</ele>
        <time>2019-03-30T14:26:36Z</time>
      </trkpt>
      <trkpt lat="47.96925" lon="-2.39178">
        <ele>31</ele>
        <time>2019-03-30T14:26:40Z</time>
      </trkpt>
      <trkpt lat="47.96922" lon="-2.39183">
        <ele>31</ele>
        <time>2019-03-30T14:26:50Z</time>
      </trkpt>
      <trkpt lat="47.96918" lon="-2.39188">
        <ele>31</ele>
        <time>2019-03-30T14:26:56Z</time>
      </trkpt>
      <trkpt lat="47.96913" lon="-2.39193">
        <ele>31</ele>
        <time>2019-03-30T14:27:02Z</time>
      </trkpt>
      <trkpt lat="47.96909" lon="-2.39197">
        <ele>31</ele>
        <time>2019-03-30T14:27:05Z</time>
      </trkpt>
      <trkpt lat="47.96906" lon="-2.39203">
        <ele>32</ele>
        <time>2019-03-30T14:27:08Z</time>
      </trkpt>
      <trkpt lat="47.96903" lon="-2.39208">
        <ele>31</ele>
        <time>2019-03-30T14:27:12Z</time>
      </trkpt>
      <trkpt lat="47.96898" lon="-2.39213">
        <ele>31</ele>
        <time>2019-03-30T14:27:16Z</time>
      </trkpt>
      <trkpt lat="47.96894" lon="-2.39219">
        <ele>30</ele>
        <time>2019-03-30T14:27:22Z</time>
      </trkpt>
      <trkpt lat="47.9689" lon="-2.39223">
        <ele>30</ele>
        <time>2019-03-30T14:27:26Z</time>
      </trkpt>
      <trkpt lat="47.96885" lon="-2.39227">
        <ele>29</ele>
        <time>2019-03-30T14:27:31Z</time>
      </trkpt>
      <trkpt lat="47.96881" lon="-2.39231">
        <ele>29</ele>
        <time>2019-03-30T14:27:35Z</time>
      </trkpt>
      <trkpt lat="47.96877" lon="-2.39237">
        <ele>29</ele>
        <time>2019-03-30T14:27:39Z</time>
      </trkpt>
      <trkpt lat="47.96873" lon="-2.39241">
        <ele>29</ele>
        <time>2019-03-30T14:27:42Z</time>
      </trkpt>
      <trkpt lat="47.96868" lon="-2.39244">
        <ele>29</ele>
        <time>2019-03-30T14:27:46Z</time>
      </trkpt>
      <trkpt lat="47.96865" lon="-2.39249">
        <ele>29</ele>
        <time>2019-03-30T14:27:51Z</time>
      </trkpt>
      <trkpt lat="47.96861" lon="-2.39256">
        <ele>30</ele>
        <time>2019-03-30T14:27:55Z</time>
      </trkpt>
      <trkpt lat="47.96858" lon="-2.39261">
        <ele>30</ele>
        <time>2019-03-30T14:27:58Z</time>
      </trkpt>
      <trkpt lat="47.96855" lon="-2.39267">
        <ele>30</ele>
        <time>2019-03-30T14:28:01Z</time>
      </trkpt>
      <trkpt lat="47.9685" lon="-2.39272">
        <ele>29</ele>
        <time>2019-03-30T14:28:05Z</time>
      </trkpt>
      <trkpt lat="47.96847" lon="-2.39278">
        <ele>29</ele>
        <time>2019-03-30T14:28:08Z</time>
      </trkpt>
      <trkpt lat="47.96843" lon="-2.39283">
        <ele>30</ele>
        <time>2019-03-30T14:28:12Z</time>
      </trkpt>
      <trkpt lat="47.96839" lon="-2.39289">
        <ele>31</ele>
        <time>2019-03-30T14:28:16Z</time>
      </trkpt>
      <trkpt lat="47.96835" lon="-2.39294">
        <ele>32</ele>
        <time>2019-03-30T14:28:20Z</time>
      </trkpt>
      <trkpt lat="47.96832" lon="-2.39299">
        <ele>33</ele>
        <time>2019-03-30T14:28:26Z</time>
      </trkpt>
      <trkpt lat="47.96829" lon="-2.39305">
        <ele>34</ele>
        <time>2019-03-30T14:28:30Z</time>
      </trkpt>
      <trkpt lat="47.96825" lon="-2.39311">
        <ele>34</ele>
        <time>2019-03-30T14:28:34Z</time>
      </trkpt>
      <trkpt lat="47.96821" lon="-2.39316">
        <ele>34</ele>
        <time>2019-03-30T14:28:37Z</time>
      </trkpt>
      <trkpt lat="47.96819" lon="-2.39323">
        <ele>35</ele>
        <time>2019-03-30T14:28:42Z</time>
      </trkpt>
      <trkpt lat="47.96818" lon="-2.3933">
        <ele>35</ele>
        <time>2019-03-30T14:28:48Z</time>
      </trkpt>
      <trkpt lat="47.96814" lon="-2.39335">
        <ele>34</ele>
        <time>2019-03-30T14:28:52Z</time>
      </trkpt>
      <trkpt lat="47.96809" lon="-2.39341">
        <ele>33</ele>
        <time>2019-03-30T14:28:57Z</time>
      </trkpt>
      <trkpt lat="47.96805" lon="-2.39345">
        <ele>33</ele>
        <time>2019-03-30T14:29:01Z</time>
      </trkpt>
      <trkpt lat="47.96801" lon="-2.39349">
        <ele>33</ele>
        <time>2019-03-30T14:29:05Z</time>
      </trkpt>
      <trkpt lat="47.96798" lon="-2.39356">
        <ele>33</ele>
        <time>2019-03-30T14:29:09Z</time>
      </trkpt>
      <trkpt lat="47.96795" lon="-2.39362">
        <ele>33</ele>
        <time>2019-03-30T14:29:13Z</time>
      </trkpt>
      <trkpt lat="47.96793" lon="-2.39369">
        <ele>34</ele>
        <time>2019-03-30T14:29:21Z</time>
      </trkpt>
      <trkpt lat="47.96792" lon="-2.39376">
        <ele>33</ele>
        <time>2019-03-30T14:29:25Z</time>
      </trkpt>
      <trkpt lat="47.9679" lon="-2.39382">
        <ele>33</ele>
        <time>2019-03-30T14:29:28Z</time>
      </trkpt>
      <trkpt lat="47.96787" lon="-2.39391">
        <ele>32</ele>
        <time>2019-03-30T14:29:31Z</time>
      </trkpt>
      <trkpt lat="47.96784" lon="-2.394">
        <ele>31</ele>
        <time>2019-03-30T14:29:34Z</time>
      </trkpt>
      <trkpt lat="47.9678" lon="-2.39406">
        <ele>30</ele>
        <time>2019-03-30T14:29:37Z</time>
      </trkpt>
      <trkpt lat="47.96777" lon="-2.39412">
        <ele>29</ele>
        <time>2019-03-30T14:29:43Z</time>
      </trkpt>
      <trkpt lat="47.96774" lon="-2.39417">
        <ele>28</ele>
        <time>2019-03-30T14:29:45Z</time>
      </trkpt>
      <trkpt lat="47.9677" lon="-2.39421">
        <ele>28</ele>
        <time>2019-03-30T14:29:48Z</time>
      </trkpt>
      <trkpt lat="47.96767" lon="-2.39428">
        <ele>28</ele>
        <time>2019-03-30T14:29:54Z</time>
      </trkpt>
      <trkpt lat="47.96765" lon="-2.39435">
        <ele>29</ele>
        <time>2019-03-30T14:29:59Z</time>
      </trkpt>
      <trkpt lat="47.96761" lon="-2.39438">
        <ele>30</ele>
        <time>2019-03-30T14:30:02Z</time>
      </trkpt>
      <trkpt lat="47.96758" lon="-2.39446">
        <ele>30</ele>
        <time>2019-03-30T14:30:06Z</time>
      </trkpt>
      <trkpt lat="47.96755" lon="-2.39452">
        <ele>30</ele>
        <time>2019-03-30T14:30:10Z</time>
      </trkpt>
      <trkpt lat="47.96751" lon="-2.39459">
        <ele>31</ele>
        <time>2019-03-30T14:30:14Z</time>
      </trkpt>
      <trkpt lat="47.96748" lon="-2.39465">
        <ele>31</ele>
        <time>2019-03-30T14:30:19Z</time>
      </trkpt>
      <trkpt lat="47.96749" lon="-2.39473">
        <ele>30</ele>
        <time>2019-03-30T14:30:35Z</time>
      </trkpt>
      <trkpt lat="47.96748" lon="-2.39481">
        <ele>31</ele>
        <time>2019-03-30T14:30:39Z</time>
      </trkpt>
      <trkpt lat="47.96746" lon="-2.39489">
        <ele>31</ele>
        <time>2019-03-30T14:30:43Z</time>
      </trkpt>
      <trkpt lat="47.96744" lon="-2.39496">
        <ele>31</ele>
        <time>2019-03-30T14:30:47Z</time>
      </trkpt>
      <trkpt lat="47.96742" lon="-2.39503">
        <ele>31</ele>
        <time>2019-03-30T14:30:51Z</time>
      </trkpt>
      <trkpt lat="47.96738" lon="-2.39507">
        <ele>31</ele>
        <time>2019-03-30T14:30:56Z</time>
      </trkpt>
      <trkpt lat="47.96735" lon="-2.39512">
        <ele>32</ele>
        <time>2019-03-30T14:31:02Z</time>
      </trkpt>
      <trkpt lat="47.96734" lon="-2.39519">
        <ele>32</ele>
        <time>2019-03-30T14:31:11Z</time>
      </trkpt>
      <trkpt lat="47.96732" lon="-2.39525">
        <ele>31</ele>
        <time>2019-03-30T14:31:16Z</time>
      </trkpt>
      <trkpt lat="47.96727" lon="-2.39528">
        <ele>31</ele>
        <time>2019-03-30T14:31:20Z</time>
      </trkpt>
      <trkpt lat="47.96723" lon="-2.39533">
        <ele>31</ele>
        <time>2019-03-30T14:31:24Z</time>
      </trkpt>
      <trkpt lat="47.96719" lon="-2.39537">
        <ele>30</ele>
        <time>2019-03-30T14:31:28Z</time>
      </trkpt>
      <trkpt lat="47.96716" lon="-2.39543">
        <ele>30</ele>
        <time>2019-03-30T14:31:31Z</time>
      </trkpt>
      <trkpt lat="47.96713" lon="-2.3955">
        <ele>31</ele>
        <time>2019-03-30T14:31:35Z</time>
      </trkpt>
      <trkpt lat="47.96711" lon="-2.39556">
        <ele>31</ele>
        <time>2019-03-30T14:31:39Z</time>
      </trkpt>
      <trkpt lat="47.96708" lon="-2.39562">
        <ele>31</ele>
        <time>2019-03-30T14:31:44Z</time>
      </trkpt>
      <trkpt lat="47.96704" lon="-2.39569">
        <ele>31</ele>
        <time>2019-03-30T14:31:48Z</time>
      </trkpt>
      <trkpt lat="47.967" lon="-2.39572">
        <ele>31</ele>
        <time>2019-03-30T14:31:52Z</time>
      </trkpt>
      <trkpt lat="47.96697" lon="-2.39577">
        <ele>31</ele>
        <time>2019-03-30T14:31:56Z</time>
      </trkpt>
      <trkpt lat="47.96692" lon="-2.39581">
        <ele>32</ele>
        <time>2019-03-30T14:32:10Z</time>
      </trkpt>
      <trkpt lat="47.96687" lon="-2.39584">
        <ele>33</ele>
        <time>2019-03-30T14:32:15Z</time>
      </trkpt>
      <trkpt lat="47.96684" lon="-2.39589">
        <ele>34</ele>
        <time>2019-03-30T14:32:18Z</time>
      </trkpt>
      <trkpt lat="47.96681" lon="-2.39595">
        <ele>35</ele>
        <time>2019-03-30T14:32:21Z</time>
      </trkpt>
      <trkpt lat="47.96678" lon="-2.39602">
        <ele>35</ele>
        <time>2019-03-30T14:32:25Z</time>
      </trkpt>
      <trkpt lat="47.96675" lon="-2.39609">
        <ele>35</ele>
        <time>2019-03-30T14:32:29Z</time>
      </trkpt>
      <trkpt lat="47.96672" lon="-2.39616">
        <ele>34</ele>
        <time>2019-03-30T14:32:32Z</time>
      </trkpt>
      <trkpt lat="47.96669" lon="-2.39621">
        <ele>33</ele>
        <time>2019-03-30T14:32:36Z</time>
      </trkpt>
      <trkpt lat="47.96666" lon="-2.39628">
        <ele>32</ele>
        <time>2019-03-30T14:32:40Z</time>
      </trkpt>
      <trkpt lat="47.96664" lon="-2.39634">
        <ele>33</ele>
        <time>2019-03-30T14:32:45Z</time>
      </trkpt>
      <trkpt lat="47.9666" lon="-2.39641">
        <ele>33</ele>
        <time>2019-03-30T14:32:49Z</time>
      </trkpt>
      <trkpt lat="47.96657" lon="-2.39647">
        <ele>34</ele>
        <time>2019-03-30T14:32:52Z</time>
      </trkpt>
      <trkpt lat="47.96655" lon="-2.39653">
        <ele>34</ele>
        <time>2019-03-30T14:32:55Z</time>
      </trkpt>
      <trkpt lat="47.96653" lon="-2.3966">
        <ele>34</ele>
        <time>2019-03-30T14:32:58Z</time>
      </trkpt>
      <trkpt lat="47.96652" lon="-2.39668">
        <ele>34</ele>
        <time>2019-03-30T14:33:02Z</time>
      </trkpt>
      <trkpt lat="47.96651" lon="-2.39675">
        <ele>34</ele>
        <time>2019-03-30T14:33:06Z</time>
      </trkpt>
      <trkpt lat="47.96647" lon="-2.39681">
        <ele>34</ele>
        <time>2019-03-30T14:33:12Z</time>
      </trkpt>
      <trkpt lat="47.96644" lon="-2.39686">
        <ele>34</ele>
        <time>2019-03-30T14:33:17Z</time>
      </trkpt>
      <trkpt lat="47.96643" lon="-2.39694">
        <ele>35</ele>
        <time>2019-03-30T14:33:25Z</time>
      </trkpt>
      <trkpt lat="47.96642" lon="-2.39701">
        <ele>36</ele>
        <time>2019-03-30T14:33:28Z</time>
      </trkpt>
      <trkpt lat="47.96639" lon="-2.39708">
        <ele>37</ele>
        <time>2019-03-30T14:33:31Z</time>
      </trkpt>
      <trkpt lat="47.96637" lon="-2.39715">
        <ele>37</ele>
        <time>2019-03-30T14:33:34Z</time>
      </trkpt>
      <trkpt lat="47.96637" lon="-2.39722">
        <ele>36</ele>
        <time>2019-03-30T14:33:37Z</time>
      </trkpt>
      <trkpt lat="47.96637" lon="-2.39729">
        <ele>36</ele>
        <time>2019-03-30T14:33:40Z</time>
      </trkpt>
      <trkpt lat="47.96637" lon="-2.39736">
        <ele>35</ele>
        <time>2019-03-30T14:33:43Z</time>
      </trkpt>
      <trkpt lat="47.96634" lon="-2.39743">
        <ele>35</ele>
        <time>2019-03-30T14:33:47Z</time>
      </trkpt>
      <trkpt lat="47.96631" lon="-2.3975">
        <ele>36</ele>
        <time>2019-03-30T14:33:51Z</time>
      </trkpt>
      <trkpt lat="47.96628" lon="-2.39757">
        <ele>36</ele>
        <time>2019-03-30T14:33:54Z</time>
      </trkpt>
      <trkpt lat="47.96628" lon="-2.39764">
        <ele>36</ele>
        <time>2019-03-30T14:33:58Z</time>
      </trkpt>
      <trkpt lat="47.96626" lon="-2.39771">
        <ele>37</ele>
        <time>2019-03-30T14:34:02Z</time>
      </trkpt>
      <trkpt lat="47.96624" lon="-2.39778">
        <ele>38</ele>
        <time>2019-03-30T14:34:06Z</time>
      </trkpt>
      <trkpt lat="47.96623" lon="-2.39784">
        <ele>39</ele>
        <time>2019-03-30T14:34:09Z</time>
      </trkpt>
      <trkpt lat="47.9662" lon="-2.39791">
        <ele>39</ele>
        <time>2019-03-30T14:34:13Z</time>
      </trkpt>
      <trkpt lat="47.96617" lon="-2.39797">
        <ele>40</ele>
        <time>2019-03-30T14:34:17Z</time>
      </trkpt>
      <trkpt lat="47.96617" lon="-2.39806">
        <ele>40</ele>
        <time>2019-03-30T14:34:21Z</time>
      </trkpt>
      <trkpt lat="47.96618" lon="-2.39813">
        <ele>40</ele>
        <time>2019-03-30T14:34:24Z</time>
      </trkpt>
      <trkpt lat="47.96619" lon="-2.39821">
        <ele>39</ele>
        <time>2019-03-30T14:34:28Z</time>
      </trkpt>
      <trkpt lat="47.96618" lon="-2.39828">
        <ele>39</ele>
        <time>2019-03-30T14:34:36Z</time>
      </trkpt>
      <trkpt lat="47.96616" lon="-2.39834">
        <ele>38</ele>
        <time>2019-03-30T14:34:42Z</time>
      </trkpt>
      <trkpt lat="47.96615" lon="-2.39841">
        <ele>36</ele>
        <time>2019-03-30T14:35:19Z</time>
      </trkpt>
      <trkpt lat="47.96615" lon="-2.3985">
        <ele>35</ele>
        <time>2019-03-30T14:35:23Z</time>
      </trkpt>
      <trkpt lat="47.96615" lon="-2.39857">
        <ele>33</ele>
        <time>2019-03-30T14:35:27Z</time>
      </trkpt>
      <trkpt lat="47.96614" lon="-2.39865">
        <ele>31</ele>
        <time>2019-03-30T14:35:32Z</time>
      </trkpt>
      <trkpt lat="47.96615" lon="-2.39873">
        <ele>28</ele>
        <time>2019-03-30T14:35:37Z</time>
      </trkpt>
      <trkpt lat="47.96618" lon="-2.3988">
        <ele>27</ele>
        <time>2019-03-30T14:35:41Z</time>
      </trkpt>
      <trkpt lat="47.9662" lon="-2.39887">
        <ele>27</ele>
        <time>2019-03-30T14:35:44Z</time>
      </trkpt>
      <trkpt lat="47.96622" lon="-2.39895">
        <ele>26</ele>
        <time>2019-03-30T14:35:48Z</time>
      </trkpt>
      <trkpt lat="47.96625" lon="-2.399">
        <ele>26</ele>
        <time>2019-03-30T14:35:51Z</time>
      </trkpt>
      <trkpt lat="47.96627" lon="-2.39906">
        <ele>26</ele>
        <time>2019-03-30T14:35:55Z</time>
      </trkpt>
      <trkpt lat="47.96628" lon="-2.39913">
        <ele>27</ele>
        <time>2019-03-30T14:36:01Z</time>
      </trkpt>
      <trkpt lat="47.96626" lon="-2.39921">
        <ele>27</ele>
        <time>2019-03-30T14:36:06Z</time>
      </trkpt>
      <trkpt lat="47.96623" lon="-2.39928">
        <ele>27</ele>
        <time>2019-03-30T14:36:10Z</time>
      </trkpt>
      <trkpt lat="47.96619" lon="-2.39935">
        <ele>28</ele>
        <time>2019-03-30T14:36:14Z</time>
      </trkpt>
      <trkpt lat="47.96616" lon="-2.39941">
        <ele>30</ele>
        <time>2019-03-30T14:36:17Z</time>
      </trkpt>
      <trkpt lat="47.96617" lon="-2.3995">
        <ele>31</ele>
        <time>2019-03-30T14:36:20Z</time>
      </trkpt>
      <trkpt lat="47.96619" lon="-2.39957">
        <ele>33</ele>
        <time>2019-03-30T14:36:23Z</time>
      </trkpt>
      <trkpt lat="47.96621" lon="-2.39963">
        <ele>35</ele>
        <time>2019-03-30T14:36:25Z</time>
      </trkpt>
      <trkpt lat="47.96625" lon="-2.39971">
        <ele>36</ele>
        <time>2019-03-30T14:36:28Z</time>
      </trkpt>
      <trkpt lat="47.96626" lon="-2.39978">
        <ele>37</ele>
        <time>2019-03-30T14:36:32Z</time>
      </trkpt>
      <trkpt lat="47.96629" lon="-2.39984">
        <ele>38</ele>
        <time>2019-03-30T14:36:35Z</time>
      </trkpt>
      <trkpt lat="47.96626" lon="-2.39992">
        <ele>38</ele>
        <time>2019-03-30T14:36:42Z</time>
      </trkpt>
      <trkpt lat="47.96624" lon="-2.39998">
        <ele>37</ele>
        <time>2019-03-30T14:36:48Z</time>
      </trkpt>
      <trkpt lat="47.96623" lon="-2.40006">
        <ele>37</ele>
        <time>2019-03-30T14:36:52Z</time>
      </trkpt>
      <trkpt lat="47.96623" lon="-2.40013">
        <ele>37</ele>
        <time>2019-03-30T14:36:56Z</time>
      </trkpt>
      <trkpt lat="47.96621" lon="-2.40021">
        <ele>36</ele>
        <time>2019-03-30T14:36:59Z</time>
      </trkpt>
      <trkpt lat="47.96619" lon="-2.40027">
        <ele>35</ele>
        <time>2019-03-30T14:37:03Z</time>
      </trkpt>
      <trkpt lat="47.96617" lon="-2.40034">
        <ele>35</ele>
        <time>2019-03-30T14:37:07Z</time>
      </trkpt>
      <trkpt lat="47.96616" lon="-2.40041">
        <ele>34</ele>
        <time>2019-03-30T14:37:10Z</time>
      </trkpt>
      <trkpt lat="47.96614" lon="-2.40047">
        <ele>34</ele>
        <time>2019-03-30T14:37:14Z</time>
      </trkpt>
      <trkpt lat="47.96614" lon="-2.40054">
        <ele>34</ele>
        <time>2019-03-30T14:37:18Z</time>
      </trkpt>
      <trkpt lat="47.96614" lon="-2.40062">
        <ele>35</ele>
        <time>2019-03-30T14:37:24Z</time>
      </trkpt>
      <trkpt lat="47.96613" lon="-2.4007">
        <ele>35</ele>
        <time>2019-03-30T14:37:28Z</time>
      </trkpt>
      <trkpt lat="47.96613" lon="-2.40078">
        <ele>36</ele>
        <time>2019-03-30T14:37:32Z</time>
      </trkpt>
      <trkpt lat="47.9661" lon="-2.40083">
        <ele>35</ele>
        <time>2019-03-30T14:37:36Z</time>
      </trkpt>
      <trkpt lat="47.96609" lon="-2.40091">
        <ele>33</ele>
        <time>2019-03-30T14:37:42Z</time>
      </trkpt>
      <trkpt lat="47.96608" lon="-2.401">
        <ele>32</ele>
        <time>2019-03-30T14:37:47Z</time>
      </trkpt>
      <trkpt lat="47.96606" lon="-2.40106">
        <ele>32</ele>
        <time>2019-03-30T14:37:51Z</time>
      </trkpt>
      <trkpt lat="47.96603" lon="-2.40112">
        <ele>32</ele>
        <time>2019-03-30T14:37:54Z</time>
      </trkpt>
      <trkpt lat="47.96602" lon="-2.40118">
        <ele>32</ele>
        <time>2019-03-30T14:37:57Z</time>
      </trkpt>
      <trkpt lat="47.96602" lon="-2.40126">
        <ele>34</ele>
        <time>2019-03-30T14:38:00Z</time>
      </trkpt>
      <trkpt lat="47.96602" lon="-2.40133">
        <ele>34</ele>
        <time>2019-03-30T14:38:04Z</time>
      </trkpt>
      <trkpt lat="47.96604" lon="-2.4014">
        <ele>34</ele>
        <time>2019-03-30T14:38:09Z</time>
      </trkpt>
      <trkpt lat="47.96606" lon="-2.40147">
        <ele>33</ele>
        <time>2019-03-30T14:38:13Z</time>
      </trkpt>
      <trkpt lat="47.96605" lon="-2.40154">
        <ele>33</ele>
        <time>2019-03-30T14:38:17Z</time>
      </trkpt>
      <trkpt lat="47.966" lon="-2.40159">
        <ele>32</ele>
        <time>2019-03-30T14:38:22Z</time>
      </trkpt>
      <trkpt lat="47.96595" lon="-2.40156">
        <ele>32</ele>
        <time>2019-03-30T14:38:25Z</time>
      </trkpt>
      <trkpt lat="47.96591" lon="-2.40159">
        <ele>31</ele>
        <time>2019-03-30T14:38:30Z</time>
      </trkpt>
      <trkpt lat="47.96587" lon="-2.40165">
        <ele>31</ele>
        <time>2019-03-30T14:38:34Z</time>
      </trkpt>
      <trkpt lat="47.96586" lon="-2.40172">
        <ele>31</ele>
        <time>2019-03-30T14:38:38Z</time>
      </trkpt>
      <trkpt lat="47.96584" lon="-2.4018">
        <ele>31</ele>
        <time>2019-03-30T14:38:42Z</time>
      </trkpt>
      <trkpt lat="47.96581" lon="-2.40185">
        <ele>30</ele>
        <time>2019-03-30T14:38:45Z</time>
      </trkpt>
      <trkpt lat="47.96579" lon="-2.40192">
        <ele>29</ele>
        <time>2019-03-30T14:38:48Z</time>
      </trkpt>
      <trkpt lat="47.96579" lon="-2.402">
        <ele>29</ele>
        <time>2019-03-30T14:38:51Z</time>
      </trkpt>
      <trkpt lat="47.96579" lon="-2.40208">
        <ele>29</ele>
        <time>2019-03-30T14:38:54Z</time>
      </trkpt>
      <trkpt lat="47.96579" lon="-2.40216">
        <ele>29</ele>
        <time>2019-03-30T14:38:58Z</time>
      </trkpt>
      <trkpt lat="47.96579" lon="-2.40223">
        <ele>31</ele>
        <time>2019-03-30T14:39:03Z</time>
      </trkpt>
      <trkpt lat="47.96575" lon="-2.40227">
        <ele>33</ele>
        <time>2019-03-30T14:39:07Z</time>
      </trkpt>
      <trkpt lat="47.96575" lon="-2.40234">
        <ele>34</ele>
        <time>2019-03-30T14:39:11Z</time>
      </trkpt>
      <trkpt lat="47.96577" lon="-2.4024">
        <ele>35</ele>
        <time>2019-03-30T14:39:14Z</time>
      </trkpt>
      <trkpt lat="47.96581" lon="-2.40247">
        <ele>36</ele>
        <time>2019-03-30T14:39:17Z</time>
      </trkpt>
      <trkpt lat="47.96584" lon="-2.40253">
        <ele>37</ele>
        <time>2019-03-30T14:39:21Z</time>
      </trkpt>
      <trkpt lat="47.96585" lon="-2.40261">
        <ele>36</ele>
        <time>2019-03-30T14:39:25Z</time>
      </trkpt>
      <trkpt lat="47.96582" lon="-2.40267">
        <ele>36</ele>
        <time>2019-03-30T14:39:32Z</time>
      </trkpt>
      <trkpt lat="47.96583" lon="-2.40274">
        <ele>36</ele>
        <time>2019-03-30T14:39:39Z</time>
      </trkpt>
      <trkpt lat="47.96582" lon="-2.40281">
        <ele>35</ele>
        <time>2019-03-30T14:39:42Z</time>
      </trkpt>
      <trkpt lat="47.96585" lon="-2.40288">
        <ele>34</ele>
        <time>2019-03-30T14:39:46Z</time>
      </trkpt>
      <trkpt lat="47.96585" lon="-2.40296">
        <ele>34</ele>
        <time>2019-03-30T14:39:52Z</time>
      </trkpt>
      <trkpt lat="47.96578" lon="-2.40298">
        <ele>34</ele>
        <time>2019-03-30T14:40:00Z</time>
      </trkpt>
      <trkpt lat="47.96573" lon="-2.40297">
        <ele>33</ele>
        <time>2019-03-30T14:40:02Z</time>
      </trkpt>
      <trkpt lat="47.96568" lon="-2.40294">
        <ele>33</ele>
        <time>2019-03-30T14:40:06Z</time>
      </trkpt>
      <trkpt lat="47.96564" lon="-2.40299">
        <ele>32</ele>
        <time>2019-03-30T14:40:13Z</time>
      </trkpt>
      <trkpt lat="47.96562" lon="-2.40306">
        <ele>32</ele>
        <time>2019-03-30T14:40:18Z</time>
      </trkpt>
      <trkpt lat="47.96558" lon="-2.40311">
        <ele>30</ele>
        <time>2019-03-30T14:40:23Z</time>
      </trkpt>
      <trkpt lat="47.96556" lon="-2.40317">
        <ele>29</ele>
        <time>2019-03-30T14:40:27Z</time>
      </trkpt>
      <trkpt lat="47.96555" lon="-2.40324">
        <ele>28</ele>
        <time>2019-03-30T14:40:32Z</time>
      </trkpt>
      <trkpt lat="47.96555" lon="-2.40331">
        <ele>26</ele>
        <time>2019-03-30T14:40:37Z</time>
      </trkpt>
      <trkpt lat="47.9656" lon="-2.40335">
        <ele>24</ele>
        <time>2019-03-30T14:40:42Z</time>
      </trkpt>
      <trkpt lat="47.9656" lon="-2.40342">
        <ele>25</ele>
        <time>2019-03-30T14:40:46Z</time>
      </trkpt>
      <trkpt lat="47.96558" lon="-2.4035">
        <ele>26</ele>
        <time>2019-03-30T14:40:49Z</time>
      </trkpt>
      <trkpt lat="47.96555" lon="-2.40355">
        <ele>27</ele>
        <time>2019-03-30T14:40:52Z</time>
      </trkpt>
      <trkpt lat="47.96557" lon="-2.40362">
        <ele>29</ele>
        <time>2019-03-30T14:40:56Z</time>
      </trkpt>
      <trkpt lat="47.96558" lon="-2.40369">
        <ele>30</ele>
        <time>2019-03-30T14:41:00Z</time>
      </trkpt>
      <trkpt lat="47.96558" lon="-2.40378">
        <ele>31</ele>
        <time>2019-03-30T14:41:04Z</time>
      </trkpt>
      <trkpt lat="47.96558" lon="-2.40385">
        <ele>31</ele>
        <time>2019-03-30T14:41:08Z</time>
      </trkpt>
      <trkpt lat="47.96557" lon="-2.40394">
        <ele>32</ele>
        <time>2019-03-30T14:41:18Z</time>
      </trkpt>
      <trkpt lat="47.96557" lon="-2.40402">
        <ele>31</ele>
        <time>2019-03-30T14:41:22Z</time>
      </trkpt>
      <trkpt lat="47.96559" lon="-2.40409">
        <ele>31</ele>
        <time>2019-03-30T14:41:25Z</time>
      </trkpt>
      <trkpt lat="47.96562" lon="-2.40414">
        <ele>30</ele>
        <time>2019-03-30T14:41:28Z</time>
      </trkpt>
      <trkpt lat="47.96565" lon="-2.4042">
        <ele>29</ele>
        <time>2019-03-30T14:41:31Z</time>
      </trkpt>
      <trkpt lat="47.96562" lon="-2.40426">
        <ele>28</ele>
        <time>2019-03-30T14:41:35Z</time>
      </trkpt>
      <trkpt lat="47.96563" lon="-2.40434">
        <ele>27</ele>
        <time>2019-03-30T14:41:39Z</time>
      </trkpt>
      <trkpt lat="47.96566" lon="-2.40441">
        <ele>27</ele>
        <time>2019-03-30T14:41:42Z</time>
      </trkpt>
      <trkpt lat="47.96569" lon="-2.40447">
        <ele>27</ele>
        <time>2019-03-30T14:41:45Z</time>
      </trkpt>
      <trkpt lat="47.96572" lon="-2.40453">
        <ele>26</ele>
        <time>2019-03-30T14:41:50Z</time>
      </trkpt>
      <trkpt lat="47.96572" lon="-2.40459">
        <ele>26</ele>
        <time>2019-03-30T14:41:58Z</time>
      </trkpt>
      <trkpt lat="47.96574" lon="-2.40466">
        <ele>26</ele>
        <time>2019-03-30T14:42:01Z</time>
      </trkpt>
      <trkpt lat="47.96577" lon="-2.40474">
        <ele>26</ele>
        <time>2019-03-30T14:42:05Z</time>
      </trkpt>
      <trkpt lat="47.96581" lon="-2.40477">
        <ele>26</ele>
        <time>2019-03-30T14:42:08Z</time>
      </trkpt>
      <trkpt lat="47.96587" lon="-2.4048">
        <ele>27</ele>
        <time>2019-03-30T14:42:11Z</time>
      </trkpt>
      <trkpt lat="47.96592" lon="-2.40482">
        <ele>28</ele>
        <time>2019-03-30T14:42:14Z</time>
      </trkpt>
      <trkpt lat="47.96596" lon="-2.40483">
        <ele>29</ele>
        <time>2019-03-30T14:42:17Z</time>
      </trkpt>
      <trkpt lat="47.96601" lon="-2.40487">
        <ele>30</ele>
        <time>2019-03-30T14:42:21Z</time>
      </trkpt>
      <trkpt lat="47.96606" lon="-2.40491">
        <ele>31</ele>
        <time>2019-03-30T14:42:24Z</time>
      </trkpt>
      <trkpt lat="47.96611" lon="-2.40493">
        <ele>32</ele>
        <time>2019-03-30T14:42:27Z</time>
      </trkpt>
      <trkpt lat="47.96616" lon="-2.40492">
        <ele>33</ele>
        <time>2019-03-30T14:42:30Z</time>
      </trkpt>
      <trkpt lat="47.96621" lon="-2.40493">
        <ele>34</ele>
        <time>2019-03-30T14:42:33Z</time>
      </trkpt>
      <trkpt lat="47.96626" lon="-2.40494">
        <ele>35</ele>
        <time>2019-03-30T14:42:36Z</time>
      </trkpt>
      <trkpt lat="47.96631" lon="-2.40496">
        <ele>35</ele>
        <time>2019-03-30T14:42:40Z</time>
      </trkpt>
      <trkpt lat="47.96635" lon="-2.40501">
        <ele>36</ele>
        <time>2019-03-30T14:42:43Z</time>
      </trkpt>
      <trkpt lat="47.9664" lon="-2.40503">
        <ele>36</ele>
        <time>2019-03-30T14:42:47Z</time>
      </trkpt>
      <trkpt lat="47.96645" lon="-2.40502">
        <ele>36</ele>
        <time>2019-03-30T14:42:50Z</time>
      </trkpt>
      <trkpt lat="47.9665" lon="-2.40501">
        <ele>36</ele>
        <time>2019-03-30T14:42:55Z</time>
      </trkpt>
      <trkpt lat="47.96655" lon="-2.40499">
        <ele>36</ele>
        <time>2019-03-30T14:42:59Z</time>
      </trkpt>
      <trkpt lat="47.9666" lon="-2.40499">
        <ele>35</ele>
        <time>2019-03-30T14:43:02Z</time>
      </trkpt>
      <trkpt lat="47.96664" lon="-2.40496">
        <ele>35</ele>
        <time>2019-03-30T14:43:15Z</time>
      </trkpt>
      <trkpt lat="47.96669" lon="-2.40497">
        <ele>35</ele>
        <time>2019-03-30T14:43:19Z</time>
      </trkpt>
      <trkpt lat="47.96674" lon="-2.40496">
        <ele>34</ele>
        <time>2019-03-30T14:43:22Z</time>
      </trkpt>
      <trkpt lat="47.96679" lon="-2.40499">
        <ele>35</ele>
        <time>2019-03-30T14:43:27Z</time>
      </trkpt>
      <trkpt lat="47.96684" lon="-2.40499">
        <ele>35</ele>
        <time>2019-03-30T14:43:30Z</time>
      </trkpt>
      <trkpt lat="47.96689" lon="-2.40496">
        <ele>35</ele>
        <time>2019-03-30T14:43:34Z</time>
      </trkpt>
      <trkpt lat="47.96693" lon="-2.40493">
        <ele>36</ele>
        <time>2019-03-30T14:43:37Z</time>
      </trkpt>
      <trkpt lat="47.96698" lon="-2.4049">
        <ele>36</ele>
        <time>2019-03-30T14:43:44Z</time>
      </trkpt>
      <trkpt lat="47.96703" lon="-2.40487">
        <ele>37</ele>
        <time>2019-03-30T14:43:49Z</time>
      </trkpt>
      <trkpt lat="47.96709" lon="-2.40488">
        <ele>36</ele>
        <time>2019-03-30T14:43:53Z</time>
      </trkpt>
      <trkpt lat="47.96713" lon="-2.4049">
        <ele>37</ele>
        <time>2019-03-30T14:43:55Z</time>
      </trkpt>
      <trkpt lat="47.96719" lon="-2.40491">
        <ele>37</ele>
        <time>2019-03-30T14:43:58Z</time>
      </trkpt>
      <trkpt lat="47.96725" lon="-2.40492">
        <ele>38</ele>
        <time>2019-03-30T14:44:03Z</time>
      </trkpt>
      <trkpt lat="47.9673" lon="-2.4049">
        <ele>37</ele>
        <time>2019-03-30T14:44:06Z</time>
      </trkpt>
      <trkpt lat="47.96734" lon="-2.40489">
        <ele>38</ele>
        <time>2019-03-30T14:44:09Z</time>
      </trkpt>
      <trkpt lat="47.96738" lon="-2.40488">
        <ele>38</ele>
        <time>2019-03-30T14:44:14Z</time>
      </trkpt>
      <trkpt lat="47.96743" lon="-2.40487">
        <ele>39</ele>
        <time>2019-03-30T14:44:18Z</time>
      </trkpt>
      <trkpt lat="47.96749" lon="-2.40487">
        <ele>39</ele>
        <time>2019-03-30T14:44:23Z</time>
      </trkpt>
      <trkpt lat="47.96754" lon="-2.40486">
        <ele>41</ele>
        <time>2019-03-30T14:44:27Z</time>
      </trkpt>
      <trkpt lat="47.96758" lon="-2.40486">
        <ele>41</ele>
        <time>2019-03-30T14:44:31Z</time>
      </trkpt>
      <trkpt lat="47.96764" lon="-2.40486">
        <ele>41</ele>
        <time>2019-03-30T14:44:35Z</time>
      </trkpt>
      <trkpt lat="47.96769" lon="-2.40487">
        <ele>42</ele>
        <time>2019-03-30T14:44:39Z</time>
      </trkpt>
      <trkpt lat="47.96773" lon="-2.40488">
        <ele>42</ele>
        <time>2019-03-30T14:44:43Z</time>
      </trkpt>
      <trkpt lat="47.96778" lon="-2.40489">
        <ele>42</ele>
        <time>2019-03-30T14:44:47Z</time>
      </trkpt>
      <trkpt lat="47.96784" lon="-2.4049">
        <ele>43</ele>
        <time>2019-03-30T14:44:51Z</time>
      </trkpt>
      <trkpt lat="47.96789" lon="-2.40491">
        <ele>43</ele>
        <time>2019-03-30T14:44:54Z</time>
      </trkpt>
      <trkpt lat="47.96792" lon="-2.40498">
        <ele>44</ele>
        <time>2019-03-30T14:44:58Z</time>
      </trkpt>
      <trkpt lat="47.96796" lon="-2.405">
        <ele>44</ele>
        <time>2019-03-30T14:45:02Z</time>
      </trkpt>
      <trkpt lat="47.96802" lon="-2.40501">
        <ele>44</ele>
        <time>2019-03-30T14:45:06Z</time>
      </trkpt>
      <trkpt lat="47.96809" lon="-2.40499">
        <ele>45</ele>
        <time>2019-03-30T14:45:09Z</time>
      </trkpt>
      <trkpt lat="47.96814" lon="-2.405">
        <ele>44</ele>
        <time>2019-03-30T14:45:12Z</time>
      </trkpt>
      <trkpt lat="47.96819" lon="-2.40501">
        <ele>44</ele>
        <time>2019-03-30T14:45:15Z</time>
      </trkpt>
      <trkpt lat="47.96824" lon="-2.40501">
        <ele>43</ele>
        <time>2019-03-30T14:45:18Z</time>
      </trkpt>
      <trkpt lat="47.96829" lon="-2.40503">
        <ele>43</ele>
        <time>2019-03-30T14:45:23Z</time>
      </trkpt>
      <trkpt lat="47.96834" lon="-2.40502">
        <ele>41</ele>
        <time>2019-03-30T14:45:29Z</time>
      </trkpt>
      <trkpt lat="47.96838" lon="-2.40505">
        <ele>39</ele>
        <time>2019-03-30T14:45:34Z</time>
      </trkpt>
      <trkpt lat="47.96843" lon="-2.40509">
        <ele>38</ele>
        <time>2019-03-30T14:45:38Z</time>
      </trkpt>
      <trkpt lat="47.96848" lon="-2.40512">
        <ele>36</ele>
        <time>2019-03-30T14:45:43Z</time>
      </trkpt>
      <trkpt lat="47.96853" lon="-2.40513">
        <ele>35</ele>
        <time>2019-03-30T14:45:47Z</time>
      </trkpt>
      <trkpt lat="47.96857" lon="-2.40517">
        <ele>37</ele>
        <time>2019-03-30T14:45:50Z</time>
      </trkpt>
      <trkpt lat="47.96861" lon="-2.4052">
        <ele>38</ele>
        <time>2019-03-30T14:45:53Z</time>
      </trkpt>
      <trkpt lat="47.96858" lon="-2.40526">
        <ele>38</ele>
        <time>2019-03-30T14:46:09Z</time>
      </trkpt>
      <trkpt lat="47.96856" lon="-2.40531">
        <ele>38</ele>
        <time>2019-03-30T14:46:14Z</time>
      </trkpt>
      <trkpt lat="47.96854" lon="-2.40538">
        <ele>37</ele>
        <time>2019-03-30T14:46:18Z</time>
      </trkpt>
      <trkpt lat="47.96853" lon="-2.40545">
        <ele>36</ele>
        <time>2019-03-30T14:46:23Z</time>
      </trkpt>
      <trkpt lat="47.9685" lon="-2.4055">
        <ele>34</ele>
        <time>2019-03-30T14:46:31Z</time>
      </trkpt>
      <trkpt lat="47.96846" lon="-2.40555">
        <ele>33</ele>
        <time>2019-03-30T14:46:37Z</time>
      </trkpt>
      <trkpt lat="47.96844" lon="-2.40562">
        <ele>32</ele>
        <time>2019-03-30T14:46:42Z</time>
      </trkpt>
      <trkpt lat="47.96841" lon="-2.40568">
        <ele>32</ele>
        <time>2019-03-30T14:46:46Z</time>
      </trkpt>
      <trkpt lat="47.96838" lon="-2.40575">
        <ele>31</ele>
        <time>2019-03-30T14:46:50Z</time>
      </trkpt>
      <trkpt lat="47.96835" lon="-2.40581">
        <ele>30</ele>
        <time>2019-03-30T14:46:53Z</time>
      </trkpt>
      <trkpt lat="47.96833" lon="-2.40587">
        <ele>30</ele>
        <time>2019-03-30T14:46:56Z</time>
      </trkpt>
      <trkpt lat="47.96833" lon="-2.40594">
        <ele>30</ele>
        <time>2019-03-30T14:47:00Z</time>
      </trkpt>
      <trkpt lat="47.9683" lon="-2.40599">
        <ele>31</ele>
        <time>2019-03-30T14:47:05Z</time>
      </trkpt>
      <trkpt lat="47.96828" lon="-2.40606">
        <ele>31</ele>
        <time>2019-03-30T14:47:17Z</time>
      </trkpt>
      <trkpt lat="47.96822" lon="-2.40608">
        <ele>32</ele>
        <time>2019-03-30T14:47:21Z</time>
      </trkpt>
      <trkpt lat="47.96818" lon="-2.40609">
        <ele>32</ele>
        <time>2019-03-30T14:47:24Z</time>
      </trkpt>
      <trkpt lat="47.96813" lon="-2.4061">
        <ele>32</ele>
        <time>2019-03-30T14:47:28Z</time>
      </trkpt>
      <trkpt lat="47.96807" lon="-2.4061">
        <ele>32</ele>
        <time>2019-03-30T14:47:36Z</time>
      </trkpt>
      <trkpt lat="47.96803" lon="-2.40609">
        <ele>31</ele>
        <time>2019-03-30T14:47:40Z</time>
      </trkpt>
      <trkpt lat="47.96798" lon="-2.40604">
        <ele>31</ele>
        <time>2019-03-30T14:47:45Z</time>
      </trkpt>
      <trkpt lat="47.96794" lon="-2.406">
        <ele>31</ele>
        <time>2019-03-30T14:47:50Z</time>
      </trkpt>
      <trkpt lat="47.9679" lon="-2.40597">
        <ele>32</ele>
        <time>2019-03-30T14:47:55Z</time>
      </trkpt>
      <trkpt lat="47.96783" lon="-2.40596">
        <ele>32</ele>
        <time>2019-03-30T14:47:59Z</time>
      </trkpt>
      <trkpt lat="47.96778" lon="-2.40597">
        <ele>33</ele>
        <time>2019-03-30T14:48:02Z</time>
      </trkpt>
      <trkpt lat="47.96773" lon="-2.40599">
        <ele>32</ele>
        <time>2019-03-30T14:48:06Z</time>
      </trkpt>
      <trkpt lat="47.96769" lon="-2.40601">
        <ele>32</ele>
        <time>2019-03-30T14:48:11Z</time>
      </trkpt>
      <trkpt lat="47.96765" lon="-2.40596">
        <ele>31</ele>
        <time>2019-03-30T14:48:16Z</time>
      </trkpt>
      <trkpt lat="47.9676" lon="-2.40594">
        <ele>30</ele>
        <time>2019-03-30T14:48:18Z</time>
      </trkpt>
      <trkpt lat="47.96756" lon="-2.40595">
        <ele>29</ele>
        <time>2019-03-30T14:48:21Z</time>
      </trkpt>
      <trkpt lat="47.96752" lon="-2.40601">
        <ele>28</ele>
        <time>2019-03-30T14:48:26Z</time>
      </trkpt>
      <trkpt lat="47.96747" lon="-2.40606">
        <ele>28</ele>
        <time>2019-03-30T14:48:29Z</time>
      </trkpt>
      <trkpt lat="47.96743" lon="-2.4061">
        <ele>29</ele>
        <time>2019-03-30T14:48:34Z</time>
      </trkpt>
      <trkpt lat="47.96738" lon="-2.40612">
        <ele>30</ele>
        <time>2019-03-30T14:48:37Z</time>
      </trkpt>
      <trkpt lat="47.96734" lon="-2.40615">
        <ele>30</ele>
        <time>2019-03-30T14:48:42Z</time>
      </trkpt>
      <trkpt lat="47.9673" lon="-2.40619">
        <ele>31</ele>
        <time>2019-03-30T14:48:46Z</time>
      </trkpt>
      <trkpt lat="47.96724" lon="-2.40618">
        <ele>30</ele>
        <time>2019-03-30T14:48:50Z</time>
      </trkpt>
      <trkpt lat="47.9672" lon="-2.40615">
        <ele>29</ele>
        <time>2019-03-30T14:48:55Z</time>
      </trkpt>
      <trkpt lat="47.96717" lon="-2.4062">
        <ele>28</ele>
        <time>2019-03-30T14:49:02Z</time>
      </trkpt>
      <trkpt lat="47.96714" lon="-2.40625">
        <ele>27</ele>
        <time>2019-03-30T14:49:06Z</time>
      </trkpt>
      <trkpt lat="47.9671" lon="-2.4063">
        <ele>26</ele>
        <time>2019-03-30T14:49:10Z</time>
      </trkpt>
      <trkpt lat="47.96706" lon="-2.40632">
        <ele>26</ele>
        <time>2019-03-30T14:49:13Z</time>
      </trkpt>
      <trkpt lat="47.967" lon="-2.40632">
        <ele>25</ele>
        <time>2019-03-30T14:49:17Z</time>
      </trkpt>
      <trkpt lat="47.96693" lon="-2.40629">
        <ele>25</ele>
        <time>2019-03-30T14:49:20Z</time>
      </trkpt>
      <trkpt lat="47.96689" lon="-2.40629">
        <ele>25</ele>
        <time>2019-03-30T14:49:22Z</time>
      </trkpt>
      <trkpt lat="47.96684" lon="-2.40633">
        <ele>25</ele>
        <time>2019-03-30T14:49:25Z</time>
      </trkpt>
      <trkpt lat="47.96679" lon="-2.40637">
        <ele>25</ele>
        <time>2019-03-30T14:49:29Z</time>
      </trkpt>
      <trkpt lat="47.96676" lon="-2.40643">
        <ele>25</ele>
        <time>2019-03-30T14:49:33Z</time>
      </trkpt>
      <trkpt lat="47.96672" lon="-2.40646">
        <ele>25</ele>
        <time>2019-03-30T14:49:42Z</time>
      </trkpt>
      <trkpt lat="47.96669" lon="-2.40652">
        <ele>25</ele>
        <time>2019-03-30T14:49:49Z</time>
      </trkpt>
      <trkpt lat="47.96664" lon="-2.40654">
        <ele>25</ele>
        <time>2019-03-30T14:49:56Z</time>
      </trkpt>
      <trkpt lat="47.96659" lon="-2.40656">
        <ele>26</ele>
        <time>2019-03-30T14:50:04Z</time>
      </trkpt>
      <trkpt lat="47.96659" lon="-2.40664">
        <ele>27</ele>
        <time>2019-03-30T14:50:10Z</time>
      </trkpt>
      <trkpt lat="47.96655" lon="-2.40669">
        <ele>28</ele>
        <time>2019-03-30T14:50:20Z</time>
      </trkpt>
      <trkpt lat="47.96652" lon="-2.40674">
        <ele>28</ele>
        <time>2019-03-30T14:50:25Z</time>
      </trkpt>
      <trkpt lat="47.96648" lon="-2.40679">
        <ele>28</ele>
        <time>2019-03-30T14:50:30Z</time>
      </trkpt>
      <trkpt lat="47.96644" lon="-2.40686">
        <ele>29</ele>
        <time>2019-03-30T14:50:34Z</time>
      </trkpt>
      <trkpt lat="47.96638" lon="-2.40689">
        <ele>29</ele>
        <time>2019-03-30T14:50:37Z</time>
      </trkpt>
      <trkpt lat="47.96634" lon="-2.40692">
        <ele>30</ele>
        <time>2019-03-30T14:50:40Z</time>
      </trkpt>
      <trkpt lat="47.9663" lon="-2.40697">
        <ele>30</ele>
        <time>2019-03-30T14:50:44Z</time>
      </trkpt>
      <trkpt lat="47.96626" lon="-2.40701">
        <ele>30</ele>
        <time>2019-03-30T14:50:48Z</time>
      </trkpt>
      <trkpt lat="47.96622" lon="-2.40707">
        <ele>31</ele>
        <time>2019-03-30T14:50:52Z</time>
      </trkpt>
      <trkpt lat="47.96618" lon="-2.40712">
        <ele>31</ele>
        <time>2019-03-30T14:50:55Z</time>
      </trkpt>
      <trkpt lat="47.96615" lon="-2.40717">
        <ele>31</ele>
        <time>2019-03-30T14:50:58Z</time>
      </trkpt>
      <trkpt lat="47.96611" lon="-2.40723">
        <ele>32</ele>
        <time>2019-03-30T14:51:03Z</time>
      </trkpt>
      <trkpt lat="47.96607" lon="-2.40727">
        <ele>32</ele>
        <time>2019-03-30T14:51:07Z</time>
      </trkpt>
      <trkpt lat="47.96602" lon="-2.40729">
        <ele>31</ele>
        <time>2019-03-30T14:51:15Z</time>
      </trkpt>
      <trkpt lat="47.96598" lon="-2.40734">
        <ele>31</ele>
        <time>2019-03-30T14:51:18Z</time>
      </trkpt>
      <trkpt lat="47.96594" lon="-2.40738">
        <ele>30</ele>
        <time>2019-03-30T14:51:21Z</time>
      </trkpt>
      <trkpt lat="47.9659" lon="-2.40741">
        <ele>30</ele>
        <time>2019-03-30T14:51:24Z</time>
      </trkpt>
      <trkpt lat="47.96585" lon="-2.40747">
        <ele>29</ele>
        <time>2019-03-30T14:51:28Z</time>
      </trkpt>
      <trkpt lat="47.9658" lon="-2.40751">
        <ele>28</ele>
        <time>2019-03-30T14:51:32Z</time>
      </trkpt>
      <trkpt lat="47.96577" lon="-2.40756">
        <ele>27</ele>
        <time>2019-03-30T14:51:35Z</time>
      </trkpt>
      <trkpt lat="47.96573" lon="-2.40761">
        <ele>26</ele>
        <time>2019-03-30T14:51:39Z</time>
      </trkpt>
      <trkpt lat="47.96569" lon="-2.40766">
        <ele>25</ele>
        <time>2019-03-30T14:51:43Z</time>
      </trkpt>
      <trkpt lat="47.96565" lon="-2.40771">
        <ele>24</ele>
        <time>2019-03-30T14:51:47Z</time>
      </trkpt>
      <trkpt lat="47.96561" lon="-2.40775">
        <ele>23</ele>
        <time>2019-03-30T14:51:51Z</time>
      </trkpt>
      <trkpt lat="47.96557" lon="-2.4078">
        <ele>23</ele>
        <time>2019-03-30T14:51:54Z</time>
      </trkpt>
      <trkpt lat="47.96553" lon="-2.40783">
        <ele>23</ele>
        <time>2019-03-30T14:51:58Z</time>
      </trkpt>
      <trkpt lat="47.96548" lon="-2.40787">
        <ele>23</ele>
        <time>2019-03-30T14:52:02Z</time>
      </trkpt>
      <trkpt lat="47.96543" lon="-2.40791">
        <ele>24</ele>
        <time>2019-03-30T14:52:06Z</time>
      </trkpt>
      <trkpt lat="47.96539" lon="-2.40795">
        <ele>25</ele>
        <time>2019-03-30T14:52:10Z</time>
      </trkpt>
      <trkpt lat="47.96534" lon="-2.40798">
        <ele>26</ele>
        <time>2019-03-30T14:52:14Z</time>
      </trkpt>
      <trkpt lat="47.9653" lon="-2.40803">
        <ele>27</ele>
        <time>2019-03-30T14:52:19Z</time>
      </trkpt>
      <trkpt lat="47.96529" lon="-2.4081">
        <ele>28</ele>
        <time>2019-03-30T14:52:28Z</time>
      </trkpt>
      <trkpt lat="47.96525" lon="-2.40813">
        <ele>29</ele>
        <time>2019-03-30T14:52:31Z</time>
      </trkpt>
      <trkpt lat="47.9652" lon="-2.40817">
        <ele>29</ele>
        <time>2019-03-30T14:52:35Z</time>
      </trkpt>
      <trkpt lat="47.96515" lon="-2.40821">
        <ele>28</ele>
        <time>2019-03-30T14:52:38Z</time>
      </trkpt>
      <trkpt lat="47.96512" lon="-2.40825">
        <ele>28</ele>
        <time>2019-03-30T14:52:41Z</time>
      </trkpt>
      <trkpt lat="47.96508" lon="-2.40831">
        <ele>27</ele>
        <time>2019-03-30T14:52:45Z</time>
      </trkpt>
      <trkpt lat="47.96505" lon="-2.40836">
        <ele>26</ele>
        <time>2019-03-30T14:52:49Z</time>
      </trkpt>
      <trkpt lat="47.96503" lon="-2.40842">
        <ele>26</ele>
        <time>2019-03-30T14:52:53Z</time>
      </trkpt>
      <trkpt lat="47.965" lon="-2.4085">
        <ele>26</ele>
        <time>2019-03-30T14:52:57Z</time>
      </trkpt>
      <trkpt lat="47.96497" lon="-2.40856">
        <ele>25</ele>
        <time>2019-03-30T14:53:01Z</time>
      </trkpt>
      <trkpt lat="47.96495" lon="-2.40863">
        <ele>24</ele>
        <time>2019-03-30T14:53:05Z</time>
      </trkpt>
      <trkpt lat="47.96492" lon="-2.40869">
        <ele>23</ele>
        <time>2019-03-30T14:53:09Z</time>
      </trkpt>
      <trkpt lat="47.96492" lon="-2.40876">
        <ele>22</ele>
        <time>2019-03-30T14:53:13Z</time>
      </trkpt>
      <trkpt lat="47.96489" lon="-2.40882">
        <ele>22</ele>
        <time>2019-03-30T14:53:17Z</time>
      </trkpt>
      <trkpt lat="47.96484" lon="-2.40886">
        <ele>22</ele>
        <time>2019-03-30T14:53:21Z</time>
      </trkpt>
      <trkpt lat="47.96479" lon="-2.40889">
        <ele>22</ele>
        <time>2019-03-30T14:53:24Z</time>
      </trkpt>
      <trkpt lat="47.96474" lon="-2.40891">
        <ele>24</ele>
        <time>2019-03-30T14:53:28Z</time>
      </trkpt>
      <trkpt lat="47.96469" lon="-2.40894">
        <ele>25</ele>
        <time>2019-03-30T14:53:32Z</time>
      </trkpt>
      <trkpt lat="47.96471" lon="-2.40902">
        <ele>25</ele>
        <time>2019-03-30T14:53:36Z</time>
      </trkpt>
      <trkpt lat="47.96471" lon="-2.4091">
        <ele>24</ele>
        <time>2019-03-30T14:53:47Z</time>
      </trkpt>
      <trkpt lat="47.96466" lon="-2.40915">
        <ele>24</ele>
        <time>2019-03-30T14:53:50Z</time>
      </trkpt>
      <trkpt lat="47.96463" lon="-2.40919">
        <ele>24</ele>
        <time>2019-03-30T14:53:53Z</time>
      </trkpt>
      <trkpt lat="47.96462" lon="-2.40926">
        <ele>24</ele>
        <time>2019-03-30T14:53:56Z</time>
      </trkpt>
      <trkpt lat="47.96464" lon="-2.40933">
        <ele>24</ele>
        <time>2019-03-30T14:53:59Z</time>
      </trkpt>
      <trkpt lat="47.96465" lon="-2.4094">
        <ele>25</ele>
        <time>2019-03-30T14:54:02Z</time>
      </trkpt>
      <trkpt lat="47.96465" lon="-2.40947">
        <ele>24</ele>
        <time>2019-03-30T14:54:06Z</time>
      </trkpt>
      <trkpt lat="47.96464" lon="-2.40954">
        <ele>22</ele>
        <time>2019-03-30T14:54:10Z</time>
      </trkpt>
      <trkpt lat="47.96463" lon="-2.4096">
        <ele>21</ele>
        <time>2019-03-30T14:54:15Z</time>
      </trkpt>
      <trkpt lat="47.96461" lon="-2.40967">
        <ele>19</ele>
        <time>2019-03-30T14:54:18Z</time>
      </trkpt>
      <trkpt lat="47.96456" lon="-2.40972">
        <ele>17</ele>
        <time>2019-03-30T14:54:22Z</time>
      </trkpt>
      <trkpt lat="47.96453" lon="-2.40977">
        <ele>17</ele>
        <time>2019-03-30T14:54:25Z</time>
      </trkpt>
      <trkpt lat="47.9645" lon="-2.40983">
        <ele>16</ele>
        <time>2019-03-30T14:54:31Z</time>
      </trkpt>
      <trkpt lat="47.96448" lon="-2.4099">
        <ele>16</ele>
        <time>2019-03-30T14:54:35Z</time>
      </trkpt>
      <trkpt lat="47.96444" lon="-2.40997">
        <ele>17</ele>
        <time>2019-03-30T14:54:39Z</time>
      </trkpt>
      <trkpt lat="47.96441" lon="-2.41004">
        <ele>18</ele>
        <time>2019-03-30T14:54:42Z</time>
      </trkpt>
      <trkpt lat="47.96437" lon="-2.41007">
        <ele>19</ele>
        <time>2019-03-30T14:54:44Z</time>
      </trkpt>
      <trkpt lat="47.96432" lon="-2.41009">
        <ele>19</ele>
        <time>2019-03-30T14:54:48Z</time>
      </trkpt>
      <trkpt lat="47.96431" lon="-2.41016">
        <ele>21</ele>
        <time>2019-03-30T14:54:55Z</time>
      </trkpt>
      <trkpt lat="47.96427" lon="-2.41021">
        <ele>21</ele>
        <time>2019-03-30T14:55:01Z</time>
      </trkpt>
      <trkpt lat="47.96423" lon="-2.41026">
        <ele>22</ele>
        <time>2019-03-30T14:55:05Z</time>
      </trkpt>
      <trkpt lat="47.96418" lon="-2.4103">
        <ele>22</ele>
        <time>2019-03-30T14:55:10Z</time>
      </trkpt>
      <trkpt lat="47.96413" lon="-2.41033">
        <ele>22</ele>
        <time>2019-03-30T14:55:15Z</time>
      </trkpt>
      <trkpt lat="47.96411" lon="-2.41041">
        <ele>22</ele>
        <time>2019-03-30T14:55:20Z</time>
      </trkpt>
      <trkpt lat="47.96409" lon="-2.41048">
        <ele>22</ele>
        <time>2019-03-30T14:55:24Z</time>
      </trkpt>
      <trkpt lat="47.96405" lon="-2.41053">
        <ele>22</ele>
        <time>2019-03-30T14:55:28Z</time>
      </trkpt>
      <trkpt lat="47.96402" lon="-2.41058">
        <ele>21</ele>
        <time>2019-03-30T14:55:32Z</time>
      </trkpt>
      <trkpt lat="47.96399" lon="-2.41063">
        <ele>21</ele>
        <time>2019-03-30T14:55:35Z</time>
      </trkpt>
      <trkpt lat="47.96396" lon="-2.41069">
        <ele>21</ele>
        <time>2019-03-30T14:55:38Z</time>
      </trkpt>
      <trkpt lat="47.96391" lon="-2.41074">
        <ele>21</ele>
        <time>2019-03-30T14:55:42Z</time>
      </trkpt>
      <trkpt lat="47.96388" lon="-2.4108">
        <ele>21</ele>
        <time>2019-03-30T14:55:46Z</time>
      </trkpt>
      <trkpt lat="47.96385" lon="-2.41085">
        <ele>20</ele>
        <time>2019-03-30T14:55:50Z</time>
      </trkpt>
      <trkpt lat="47.96381" lon="-2.4109">
        <ele>21</ele>
        <time>2019-03-30T14:55:54Z</time>
      </trkpt>
      <trkpt lat="47.96378" lon="-2.41098">
        <ele>21</ele>
        <time>2019-03-30T14:55:57Z</time>
      </trkpt>
      <trkpt lat="47.96377" lon="-2.41105">
        <ele>20</ele>
        <time>2019-03-30T14:56:02Z</time>
      </trkpt>
      <trkpt lat="47.96373" lon="-2.4111">
        <ele>20</ele>
        <time>2019-03-30T14:56:07Z</time>
      </trkpt>
      <trkpt lat="47.96373" lon="-2.41118">
        <ele>20</ele>
        <time>2019-03-30T14:56:12Z</time>
      </trkpt>
      <trkpt lat="47.9637" lon="-2.41124">
        <ele>21</ele>
        <time>2019-03-30T14:56:15Z</time>
      </trkpt>
      <trkpt lat="47.96366" lon="-2.41132">
        <ele>21</ele>
        <time>2019-03-30T14:56:19Z</time>
      </trkpt>
      <trkpt lat="47.96366" lon="-2.41139">
        <ele>21</ele>
        <time>2019-03-30T14:56:22Z</time>
      </trkpt>
      <trkpt lat="47.96365" lon="-2.41146">
        <ele>22</ele>
        <time>2019-03-30T14:56:25Z</time>
      </trkpt>
      <trkpt lat="47.96365" lon="-2.41153">
        <ele>22</ele>
        <time>2019-03-30T14:56:28Z</time>
      </trkpt>
      <trkpt lat="47.96363" lon="-2.4116">
        <ele>22</ele>
        <time>2019-03-30T14:56:32Z</time>
      </trkpt>
      <trkpt lat="47.9636" lon="-2.41166">
        <ele>23</ele>
        <time>2019-03-30T14:56:36Z</time>
      </trkpt>
      <trkpt lat="47.96357" lon="-2.41173">
        <ele>23</ele>
        <time>2019-03-30T14:56:49Z</time>
      </trkpt>
      <trkpt lat="47.96354" lon="-2.41178">
        <ele>24</ele>
        <time>2019-03-30T14:56:53Z</time>
      </trkpt>
      <trkpt lat="47.96351" lon="-2.41185">
        <ele>24</ele>
        <time>2019-03-30T14:56:57Z</time>
      </trkpt>
      <trkpt lat="47.9635" lon="-2.41191">
        <ele>24</ele>
        <time>2019-03-30T14:57:01Z</time>
      </trkpt>
      <trkpt lat="47.96348" lon="-2.41197">
        <ele>24</ele>
        <time>2019-03-30T14:57:05Z</time>
      </trkpt>
      <trkpt lat="47.96345" lon="-2.41204">
        <ele>24</ele>
        <time>2019-03-30T14:57:09Z</time>
      </trkpt>
      <trkpt lat="47.96341" lon="-2.41211">
        <ele>24</ele>
        <time>2019-03-30T14:57:13Z</time>
      </trkpt>
      <trkpt lat="47.96339" lon="-2.41218">
        <ele>24</ele>
        <time>2019-03-30T14:57:17Z</time>
      </trkpt>
      <trkpt lat="47.96337" lon="-2.41225">
        <ele>24</ele>
        <time>2019-03-30T14:57:21Z</time>
      </trkpt>
      <trkpt lat="47.96336" lon="-2.41232">
        <ele>24</ele>
        <time>2019-03-30T14:57:24Z</time>
      </trkpt>
      <trkpt lat="47.96337" lon="-2.41239">
        <ele>24</ele>
        <time>2019-03-30T14:57:28Z</time>
      </trkpt>
      <trkpt lat="47.96336" lon="-2.41247">
        <ele>25</ele>
        <time>2019-03-30T14:57:32Z</time>
      </trkpt>
      <trkpt lat="47.96335" lon="-2.41255">
        <ele>25</ele>
        <time>2019-03-30T14:57:36Z</time>
      </trkpt>
      <trkpt lat="47.96333" lon="-2.41262">
        <ele>26</ele>
        <time>2019-03-30T14:57:40Z</time>
      </trkpt>
      <trkpt lat="47.96331" lon="-2.4127">
        <ele>26</ele>
        <time>2019-03-30T14:57:44Z</time>
      </trkpt>
      <trkpt lat="47.9633" lon="-2.41277">
        <ele>26</ele>
        <time>2019-03-30T14:57:47Z</time>
      </trkpt>
      <trkpt lat="47.96329" lon="-2.41285">
        <ele>25</ele>
        <time>2019-03-30T14:57:52Z</time>
      </trkpt>
      <trkpt lat="47.96328" lon="-2.41293">
        <ele>24</ele>
        <time>2019-03-30T14:57:56Z</time>
      </trkpt>
      <trkpt lat="47.96325" lon="-2.413">
        <ele>24</ele>
        <time>2019-03-30T14:58:00Z</time>
      </trkpt>
      <trkpt lat="47.96323" lon="-2.41306">
        <ele>24</ele>
        <time>2019-03-30T14:58:03Z</time>
      </trkpt>
      <trkpt lat="47.96323" lon="-2.41314">
        <ele>24</ele>
        <time>2019-03-30T14:58:07Z</time>
      </trkpt>
      <trkpt lat="47.96322" lon="-2.41321">
        <ele>24</ele>
        <time>2019-03-30T14:58:10Z</time>
      </trkpt>
      <trkpt lat="47.96322" lon="-2.41328">
        <ele>25</ele>
        <time>2019-03-30T14:58:14Z</time>
      </trkpt>
      <trkpt lat="47.96322" lon="-2.41335">
        <ele>25</ele>
        <time>2019-03-30T14:58:18Z</time>
      </trkpt>
      <trkpt lat="47.9632" lon="-2.41342">
        <ele>26</ele>
        <time>2019-03-30T14:58:25Z</time>
      </trkpt>
      <trkpt lat="47.96317" lon="-2.41348">
        <ele>25</ele>
        <time>2019-03-30T14:58:31Z</time>
      </trkpt>
      <trkpt lat="47.9632" lon="-2.41355">
        <ele>25</ele>
        <time>2019-03-30T14:58:37Z</time>
      </trkpt>
      <trkpt lat="47.96317" lon="-2.41361">
        <ele>26</ele>
        <time>2019-03-30T14:58:51Z</time>
      </trkpt>
      <trkpt lat="47.96322" lon="-2.41366">
        <ele>28</ele>
        <time>2019-03-30T14:58:56Z</time>
      </trkpt>
      <trkpt lat="47.96325" lon="-2.41372">
        <ele>29</ele>
        <time>2019-03-30T14:58:59Z</time>
      </trkpt>
      <trkpt lat="47.9633" lon="-2.41375">
        <ele>31</ele>
        <time>2019-03-30T14:59:02Z</time>
      </trkpt>
      <trkpt lat="47.96335" lon="-2.41378">
        <ele>32</ele>
        <time>2019-03-30T14:59:05Z</time>
      </trkpt>
      <trkpt lat="47.96339" lon="-2.41381">
        <ele>32</ele>
        <time>2019-03-30T14:59:09Z</time>
      </trkpt>
      <trkpt lat="47.96344" lon="-2.41387">
        <ele>32</ele>
        <time>2019-03-30T14:59:14Z</time>
      </trkpt>
      <trkpt lat="47.96347" lon="-2.41391">
        <ele>32</ele>
        <time>2019-03-30T14:59:17Z</time>
      </trkpt>
      <trkpt lat="47.96351" lon="-2.41398">
        <ele>33</ele>
        <time>2019-03-30T14:59:22Z</time>
      </trkpt>
      <trkpt lat="47.96348" lon="-2.41404">
        <ele>33</ele>
        <time>2019-03-30T14:59:31Z</time>
      </trkpt>
      <trkpt lat="47.96343" lon="-2.41404">
        <ele>33</ele>
        <time>2019-03-30T14:59:34Z</time>
      </trkpt>
      <trkpt lat="47.96337" lon="-2.41404">
        <ele>33</ele>
        <time>2019-03-30T14:59:38Z</time>
      </trkpt>
      <trkpt lat="47.96331" lon="-2.41403">
        <ele>32</ele>
        <time>2019-03-30T14:59:43Z</time>
      </trkpt>
      <trkpt lat="47.96326" lon="-2.41403">
        <ele>31</ele>
        <time>2019-03-30T14:59:53Z</time>
      </trkpt>
      <trkpt lat="47.96321" lon="-2.41404">
        <ele>31</ele>
        <time>2019-03-30T14:59:56Z</time>
      </trkpt>
      <trkpt lat="47.96316" lon="-2.41406">
        <ele>31</ele>
        <time>2019-03-30T15:00:00Z</time>
      </trkpt>
      <trkpt lat="47.96311" lon="-2.41408">
        <ele>31</ele>
        <time>2019-03-30T15:00:04Z</time>
      </trkpt>
      <trkpt lat="47.96306" lon="-2.4141">
        <ele>30</ele>
        <time>2019-03-30T15:00:10Z</time>
      </trkpt>
      <trkpt lat="47.96302" lon="-2.41415">
        <ele>29</ele>
        <time>2019-03-30T15:00:19Z</time>
      </trkpt>
      <trkpt lat="47.96296" lon="-2.41417">
        <ele>28</ele>
        <time>2019-03-30T15:00:22Z</time>
      </trkpt>
      <trkpt lat="47.96291" lon="-2.41419">
        <ele>27</ele>
        <time>2019-03-30T15:00:25Z</time>
      </trkpt>
      <trkpt lat="47.96286" lon="-2.41422">
        <ele>27</ele>
        <time>2019-03-30T15:00:28Z</time>
      </trkpt>
      <trkpt lat="47.9628" lon="-2.41423">
        <ele>27</ele>
        <time>2019-03-30T15:00:33Z</time>
      </trkpt>
      <trkpt lat="47.96276" lon="-2.41426">
        <ele>27</ele>
        <time>2019-03-30T15:00:36Z</time>
      </trkpt>
      <trkpt lat="47.96271" lon="-2.41429">
        <ele>28</ele>
        <time>2019-03-30T15:00:39Z</time>
      </trkpt>
      <trkpt lat="47.96266" lon="-2.41432">
        <ele>28</ele>
        <time>2019-03-30T15:00:42Z</time>
      </trkpt>
      <trkpt lat="47.96261" lon="-2.41433">
        <ele>29</ele>
        <time>2019-03-30T15:00:45Z</time>
      </trkpt>
      <trkpt lat="47.96256" lon="-2.41435">
        <ele>28</ele>
        <time>2019-03-30T15:00:48Z</time>
      </trkpt>
      <trkpt lat="47.96252" lon="-2.41439">
        <ele>28</ele>
        <time>2019-03-30T15:00:51Z</time>
      </trkpt>
      <trkpt lat="47.96247" lon="-2.41442">
        <ele>27</ele>
        <time>2019-03-30T15:00:55Z</time>
      </trkpt>
      <trkpt lat="47.96244" lon="-2.41447">
        <ele>27</ele>
        <time>2019-03-30T15:00:58Z</time>
      </trkpt>
      <trkpt lat="47.96238" lon="-2.4145">
        <ele>27</ele>
        <time>2019-03-30T15:01:02Z</time>
      </trkpt>
      <trkpt lat="47.96233" lon="-2.41452">
        <ele>26</ele>
        <time>2019-03-30T15:01:05Z</time>
      </trkpt>
      <trkpt lat="47.9623" lon="-2.41458">
        <ele>26</ele>
        <time>2019-03-30T15:01:10Z</time>
      </trkpt>
      <trkpt lat="47.96227" lon="-2.41463">
        <ele>26</ele>
        <time>2019-03-30T15:01:14Z</time>
      </trkpt>
      <trkpt lat="47.96222" lon="-2.41467">
        <ele>26</ele>
        <time>2019-03-30T15:01:18Z</time>
      </trkpt>
      <trkpt lat="47.96218" lon="-2.41471">
        <ele>27</ele>
        <time>2019-03-30T15:01:22Z</time>
      </trkpt>
      <trkpt lat="47.96214" lon="-2.41476">
        <ele>27</ele>
        <time>2019-03-30T15:01:26Z</time>
      </trkpt>
      <trkpt lat="47.96209" lon="-2.4148">
        <ele>28</ele>
        <time>2019-03-30T15:01:29Z</time>
      </trkpt>
      <trkpt lat="47.96206" lon="-2.41484">
        <ele>28</ele>
        <time>2019-03-30T15:01:32Z</time>
      </trkpt>
      <trkpt lat="47.96201" lon="-2.41488">
        <ele>28</ele>
        <time>2019-03-30T15:01:36Z</time>
      </trkpt>
      <trkpt lat="47.96198" lon="-2.41493">
        <ele>28</ele>
        <time>2019-03-30T15:01:41Z</time>
      </trkpt>
      <trkpt lat="47.96195" lon="-2.41499">
        <ele>28</ele>
        <time>2019-03-30T15:01:45Z</time>
      </trkpt>
      <trkpt lat="47.96192" lon="-2.41506">
        <ele>28</ele>
        <time>2019-03-30T15:01:50Z</time>
      </trkpt>
      <trkpt lat="47.96189" lon="-2.41514">
        <ele>29</ele>
        <time>2019-03-30T15:01:54Z</time>
      </trkpt>
      <trkpt lat="47.96185" lon="-2.41521">
        <ele>29</ele>
        <time>2019-03-30T15:01:57Z</time>
      </trkpt>
      <trkpt lat="47.9618" lon="-2.41525">
        <ele>29</ele>
        <time>2019-03-30T15:02:01Z</time>
      </trkpt>
      <trkpt lat="47.96177" lon="-2.41531">
        <ele>29</ele>
        <time>2019-03-30T15:02:05Z</time>
      </trkpt>
      <trkpt lat="47.96174" lon="-2.41537">
        <ele>29</ele>
        <time>2019-03-30T15:02:09Z</time>
      </trkpt>
      <trkpt lat="47.9617" lon="-2.41541">
        <ele>29</ele>
        <time>2019-03-30T15:02:14Z</time>
      </trkpt>
      <trkpt lat="47.96165" lon="-2.41545">
        <ele>29</ele>
        <time>2019-03-30T15:02:18Z</time>
      </trkpt>
      <trkpt lat="47.96159" lon="-2.41547">
        <ele>29</ele>
        <time>2019-03-30T15:02:23Z</time>
      </trkpt>
      <trkpt lat="47.96157" lon="-2.41554">
        <ele>29</ele>
        <time>2019-03-30T15:02:27Z</time>
      </trkpt>
      <trkpt lat="47.96161" lon="-2.41551">
        <ele>28</ele>
        <time>2019-03-30T15:02:44Z</time>
      </trkpt>
      <trkpt lat="47.96157" lon="-2.41555">
        <ele>28</ele>
        <time>2019-03-30T15:03:27Z</time>
      </trkpt>
      <trkpt lat="47.96152" lon="-2.41562">
        <ele>28</ele>
        <time>2019-03-30T15:03:30Z</time>
      </trkpt>
      <trkpt lat="47.96149" lon="-2.41568">
        <ele>28</ele>
        <time>2019-03-30T15:03:35Z</time>
      </trkpt>
      <trkpt lat="47.96145" lon="-2.41572">
        <ele>29</ele>
        <time>2019-03-30T15:03:41Z</time>
      </trkpt>
      <trkpt lat="47.96141" lon="-2.41577">
        <ele>30</ele>
        <time>2019-03-30T15:03:44Z</time>
      </trkpt>
      <trkpt lat="47.96135" lon="-2.41579">
        <ele>32</ele>
        <time>2019-03-30T15:03:47Z</time>
      </trkpt>
      <trkpt lat="47.9613" lon="-2.4158">
        <ele>33</ele>
        <time>2019-03-30T15:03:50Z</time>
      </trkpt>
      <trkpt lat="47.96124" lon="-2.41584">
        <ele>35</ele>
        <time>2019-03-30T15:03:53Z</time>
      </trkpt>
      <trkpt lat="47.9612" lon="-2.41586">
        <ele>36</ele>
        <time>2019-03-30T15:03:56Z</time>
      </trkpt>
      <trkpt lat="47.96117" lon="-2.41591">
        <ele>36</ele>
        <time>2019-03-30T15:04:01Z</time>
      </trkpt>
      <trkpt lat="47.96111" lon="-2.41594">
        <ele>37</ele>
        <time>2019-03-30T15:04:04Z</time>
      </trkpt>
      <trkpt lat="47.96106" lon="-2.41598">
        <ele>36</ele>
        <time>2019-03-30T15:04:09Z</time>
      </trkpt>
      <trkpt lat="47.96102" lon="-2.41604">
        <ele>36</ele>
        <time>2019-03-30T15:04:15Z</time>
      </trkpt>
      <trkpt lat="47.96096" lon="-2.41608">
        <ele>36</ele>
        <time>2019-03-30T15:04:20Z</time>
      </trkpt>
      <trkpt lat="47.96091" lon="-2.41612">
        <ele>35</ele>
        <time>2019-03-30T15:04:24Z</time>
      </trkpt>
      <trkpt lat="47.96086" lon="-2.41613">
        <ele>34</ele>
        <time>2019-03-30T15:04:27Z</time>
      </trkpt>
      <trkpt lat="47.9608" lon="-2.41613">
        <ele>33</ele>
        <time>2019-03-30T15:04:30Z</time>
      </trkpt>
      <trkpt lat="47.96077" lon="-2.41618">
        <ele>33</ele>
        <time>2019-03-30T15:04:35Z</time>
      </trkpt>
      <trkpt lat="47.96074" lon="-2.41624">
        <ele>33</ele>
        <time>2019-03-30T15:04:40Z</time>
      </trkpt>
      <trkpt lat="47.96068" lon="-2.41625">
        <ele>33</ele>
        <time>2019-03-30T15:04:44Z</time>
      </trkpt>
      <trkpt lat="47.96063" lon="-2.4163">
        <ele>34</ele>
        <time>2019-03-30T15:04:47Z</time>
      </trkpt>
      <trkpt lat="47.96058" lon="-2.41632">
        <ele>34</ele>
        <time>2019-03-30T15:04:51Z</time>
      </trkpt>
      <trkpt lat="47.96054" lon="-2.41637">
        <ele>33</ele>
        <time>2019-03-30T15:04:55Z</time>
      </trkpt>
      <trkpt lat="47.96049" lon="-2.41639">
        <ele>32</ele>
        <time>2019-03-30T15:04:58Z</time>
      </trkpt>
      <trkpt lat="47.96045" lon="-2.41641">
        <ele>32</ele>
        <time>2019-03-30T15:05:02Z</time>
      </trkpt>
      <trkpt lat="47.96039" lon="-2.41645">
        <ele>31</ele>
        <time>2019-03-30T15:05:06Z</time>
      </trkpt>
      <trkpt lat="47.96035" lon="-2.41648">
        <ele>29</ele>
        <time>2019-03-30T15:05:10Z</time>
      </trkpt>
      <trkpt lat="47.9603" lon="-2.41652">
        <ele>30</ele>
        <time>2019-03-30T15:05:14Z</time>
      </trkpt>
      <trkpt lat="47.96027" lon="-2.41655">
        <ele>29</ele>
        <time>2019-03-30T15:05:18Z</time>
      </trkpt>
      <trkpt lat="47.96021" lon="-2.41658">
        <ele>28</ele>
        <time>2019-03-30T15:05:21Z</time>
      </trkpt>
      <trkpt lat="47.96016" lon="-2.41661">
        <ele>27</ele>
        <time>2019-03-30T15:05:24Z</time>
      </trkpt>
      <trkpt lat="47.96011" lon="-2.41665">
        <ele>27</ele>
        <time>2019-03-30T15:05:27Z</time>
      </trkpt>
      <trkpt lat="47.9601" lon="-2.41672">
        <ele>26</ele>
        <time>2019-03-30T15:05:33Z</time>
      </trkpt>
      <trkpt lat="47.96006" lon="-2.41675">
        <ele>26</ele>
        <time>2019-03-30T15:05:37Z</time>
      </trkpt>
      <trkpt lat="47.96" lon="-2.41677">
        <ele>26</ele>
        <time>2019-03-30T15:05:40Z</time>
      </trkpt>
      <trkpt lat="47.95995" lon="-2.41678">
        <ele>27</ele>
        <time>2019-03-30T15:05:43Z</time>
      </trkpt>
      <trkpt lat="47.95991" lon="-2.4168">
        <ele>27</ele>
        <time>2019-03-30T15:05:45Z</time>
      </trkpt>
      <trkpt lat="47.95986" lon="-2.41676">
        <ele>28</ele>
        <time>2019-03-30T15:06:01Z</time>
      </trkpt>
      <trkpt lat="47.95983" lon="-2.41669">
        <ele>28</ele>
        <time>2019-03-30T15:06:06Z</time>
      </trkpt>
      <trkpt lat="47.95978" lon="-2.41668">
        <ele>28</ele>
        <time>2019-03-30T15:06:10Z</time>
      </trkpt>
      <trkpt lat="47.95972" lon="-2.41668">
        <ele>27</ele>
        <time>2019-03-30T15:06:14Z</time>
      </trkpt>
      <trkpt lat="47.95968" lon="-2.41663">
        <ele>27</ele>
        <time>2019-03-30T15:06:20Z</time>
      </trkpt>
      <trkpt lat="47.95962" lon="-2.4166">
        <ele>27</ele>
        <time>2019-03-30T15:06:25Z</time>
      </trkpt>
      <trkpt lat="47.95957" lon="-2.41658">
        <ele>26</ele>
        <time>2019-03-30T15:06:33Z</time>
      </trkpt>
      <trkpt lat="47.95952" lon="-2.41655">
        <ele>26</ele>
        <time>2019-03-30T15:06:37Z</time>
      </trkpt>
      <trkpt lat="47.95947" lon="-2.41653">
        <ele>26</ele>
        <time>2019-03-30T15:06:41Z</time>
      </trkpt>
      <trkpt lat="47.95942" lon="-2.41654">
        <ele>26</ele>
        <time>2019-03-30T15:06:45Z</time>
      </trkpt>
      <trkpt lat="47.95937" lon="-2.41654">
        <ele>26</ele>
        <time>2019-03-30T15:06:49Z</time>
      </trkpt>
      <trkpt lat="47.95935" lon="-2.41653">
        <ele>26</ele>
        <time>2019-03-30T15:07:10Z</time>
      </trkpt>
      <trkpt lat="47.95933" lon="-2.41652">
        <ele>27</ele>
        <time>2019-03-30T15:07:12Z</time>
      </trkpt>
      <trkpt lat="47.95928" lon="-2.41654">
        <ele>28</ele>
        <time>2019-03-30T15:07:17Z</time>
      </trkpt>
      <trkpt lat="47.95924" lon="-2.4165">
        <ele>28</ele>
        <time>2019-03-30T15:07:21Z</time>
      </trkpt>
      <trkpt lat="47.95919" lon="-2.41647">
        <ele>30</ele>
        <time>2019-03-30T15:07:25Z</time>
      </trkpt>
      <trkpt lat="47.95914" lon="-2.41645">
        <ele>30</ele>
        <time>2019-03-30T15:07:29Z</time>
      </trkpt>
      <trkpt lat="47.9591" lon="-2.41641">
        <ele>30</ele>
        <time>2019-03-30T15:07:34Z</time>
      </trkpt>
      <trkpt lat="47.95906" lon="-2.41637">
        <ele>31</ele>
        <time>2019-03-30T15:07:40Z</time>
      </trkpt>
      <trkpt lat="47.95902" lon="-2.41634">
        <ele>31</ele>
        <time>2019-03-30T15:07:43Z</time>
      </trkpt>
      <trkpt lat="47.95898" lon="-2.41629">
        <ele>32</ele>
        <time>2019-03-30T15:07:48Z</time>
      </trkpt>
      <trkpt lat="47.95893" lon="-2.41629">
        <ele>34</ele>
        <time>2019-03-30T15:07:52Z</time>
      </trkpt>
      <trkpt lat="47.95887" lon="-2.41624">
        <ele>35</ele>
        <time>2019-03-30T15:08:01Z</time>
      </trkpt>
      <trkpt lat="47.95882" lon="-2.41621">
        <ele>35</ele>
        <time>2019-03-30T15:08:05Z</time>
      </trkpt>
      <trkpt lat="47.95876" lon="-2.41619">
        <ele>36</ele>
        <time>2019-03-30T15:08:08Z</time>
      </trkpt>
      <trkpt lat="47.95872" lon="-2.41616">
        <ele>35</ele>
        <time>2019-03-30T15:08:11Z</time>
      </trkpt>
      <trkpt lat="47.95867" lon="-2.41613">
        <ele>35</ele>
        <time>2019-03-30T15:08:17Z</time>
      </trkpt>
      <trkpt lat="47.95863" lon="-2.41611">
        <ele>34</ele>
        <time>2019-03-30T15:08:29Z</time>
      </trkpt>
      <trkpt lat="47.95858" lon="-2.41609">
        <ele>33</ele>
        <time>2019-03-30T15:08:32Z</time>
      </trkpt>
      <trkpt lat="47.95852" lon="-2.41609">
        <ele>32</ele>
        <time>2019-03-30T15:08:35Z</time>
      </trkpt>
      <trkpt lat="47.95847" lon="-2.41609">
        <ele>32</ele>
        <time>2019-03-30T15:08:38Z</time>
      </trkpt>
      <trkpt lat="47.95841" lon="-2.41609">
        <ele>31</ele>
        <time>2019-03-30T15:08:41Z</time>
      </trkpt>
      <trkpt lat="47.95836" lon="-2.41608">
        <ele>32</ele>
        <time>2019-03-30T15:08:43Z</time>
      </trkpt>
      <trkpt lat="47.95831" lon="-2.41608">
        <ele>32</ele>
        <time>2019-03-30T15:08:46Z</time>
      </trkpt>
      <trkpt lat="47.95826" lon="-2.41607">
        <ele>33</ele>
        <time>2019-03-30T15:08:56Z</time>
      </trkpt>
      <trkpt lat="47.95822" lon="-2.41603">
        <ele>34</ele>
        <time>2019-03-30T15:09:00Z</time>
      </trkpt>
      <trkpt lat="47.95816" lon="-2.41601">
        <ele>35</ele>
        <time>2019-03-30T15:09:03Z</time>
      </trkpt>
      <trkpt lat="47.95811" lon="-2.416">
        <ele>36</ele>
        <time>2019-03-30T15:09:06Z</time>
      </trkpt>
      <trkpt lat="47.95803" lon="-2.41599">
        <ele>36</ele>
        <time>2019-03-30T15:09:09Z</time>
      </trkpt>
      <trkpt lat="47.95799" lon="-2.41597">
        <ele>36</ele>
        <time>2019-03-30T15:09:13Z</time>
      </trkpt>
      <trkpt lat="47.95793" lon="-2.41596">
        <ele>36</ele>
        <time>2019-03-30T15:09:17Z</time>
      </trkpt>
      <trkpt lat="47.95789" lon="-2.41595">
        <ele>35</ele>
        <time>2019-03-30T15:09:20Z</time>
      </trkpt>
      <trkpt lat="47.95785" lon="-2.41592">
        <ele>35</ele>
        <time>2019-03-30T15:09:25Z</time>
      </trkpt>
      <trkpt lat="47.9578" lon="-2.4159">
        <ele>35</ele>
        <time>2019-03-30T15:09:37Z</time>
      </trkpt>
      <trkpt lat="47.95775" lon="-2.41589">
        <ele>34</ele>
        <time>2019-03-30T15:09:41Z</time>
      </trkpt>
      <trkpt lat="47.9577" lon="-2.41587">
        <ele>34</ele>
        <time>2019-03-30T15:09:44Z</time>
      </trkpt>
      <trkpt lat="47.95766" lon="-2.41583">
        <ele>33</ele>
        <time>2019-03-30T15:09:48Z</time>
      </trkpt>
      <trkpt lat="47.95762" lon="-2.41579">
        <ele>33</ele>
        <time>2019-03-30T15:09:51Z</time>
      </trkpt>
      <trkpt lat="47.95757" lon="-2.41575">
        <ele>33</ele>
        <time>2019-03-30T15:09:55Z</time>
      </trkpt>
      <trkpt lat="47.95752" lon="-2.41573">
        <ele>33</ele>
        <time>2019-03-30T15:09:58Z</time>
      </trkpt>
      <trkpt lat="47.95747" lon="-2.41571">
        <ele>34</ele>
        <time>2019-03-30T15:10:02Z</time>
      </trkpt>
      <trkpt lat="47.95742" lon="-2.41569">
        <ele>34</ele>
        <time>2019-03-30T15:10:07Z</time>
      </trkpt>
      <trkpt lat="47.95736" lon="-2.41566">
        <ele>35</ele>
        <time>2019-03-30T15:10:09Z</time>
      </trkpt>
      <trkpt lat="47.95731" lon="-2.41566">
        <ele>35</ele>
        <time>2019-03-30T15:10:12Z</time>
      </trkpt>
      <trkpt lat="47.95728" lon="-2.41572">
        <ele>35</ele>
        <time>2019-03-30T15:10:16Z</time>
      </trkpt>
      <trkpt lat="47.95723" lon="-2.41569">
        <ele>35</ele>
        <time>2019-03-30T15:10:29Z</time>
      </trkpt>
      <trkpt lat="47.95718" lon="-2.41567">
        <ele>36</ele>
        <time>2019-03-30T15:10:34Z</time>
      </trkpt>
      <trkpt lat="47.95712" lon="-2.41565">
        <ele>36</ele>
        <time>2019-03-30T15:10:38Z</time>
      </trkpt>
      <trkpt lat="47.95707" lon="-2.41562">
        <ele>36</ele>
        <time>2019-03-30T15:10:41Z</time>
      </trkpt>
      <trkpt lat="47.95702" lon="-2.41558">
        <ele>36</ele>
        <time>2019-03-30T15:10:44Z</time>
      </trkpt>
      <trkpt lat="47.95697" lon="-2.41557">
        <ele>36</ele>
        <time>2019-03-30T15:10:49Z</time>
      </trkpt>
      <trkpt lat="47.95692" lon="-2.41553">
        <ele>36</ele>
        <time>2019-03-30T15:10:54Z</time>
      </trkpt>
      <trkpt lat="47.95688" lon="-2.41547">
        <ele>36</ele>
        <time>2019-03-30T15:11:03Z</time>
      </trkpt>
      <trkpt lat="47.95684" lon="-2.41542">
        <ele>35</ele>
        <time>2019-03-30T15:11:09Z</time>
      </trkpt>
      <trkpt lat="47.9568" lon="-2.41538">
        <ele>34</ele>
        <time>2019-03-30T15:11:12Z</time>
      </trkpt>
      <trkpt lat="47.95675" lon="-2.41535">
        <ele>34</ele>
        <time>2019-03-30T15:11:14Z</time>
      </trkpt>
      <trkpt lat="47.9567" lon="-2.41532">
        <ele>34</ele>
        <time>2019-03-30T15:11:17Z</time>
      </trkpt>
      <trkpt lat="47.95665" lon="-2.41529">
        <ele>34</ele>
        <time>2019-03-30T15:11:20Z</time>
      </trkpt>
      <trkpt lat="47.95662" lon="-2.41523">
        <ele>35</ele>
        <time>2019-03-30T15:11:25Z</time>
      </trkpt>
      <trkpt lat="47.95658" lon="-2.4152">
        <ele>34</ele>
        <time>2019-03-30T15:11:28Z</time>
      </trkpt>
      <trkpt lat="47.95654" lon="-2.41515">
        <ele>33</ele>
        <time>2019-03-30T15:11:32Z</time>
      </trkpt>
      <trkpt lat="47.95651" lon="-2.4151">
        <ele>33</ele>
        <time>2019-03-30T15:11:35Z</time>
      </trkpt>
      <trkpt lat="47.95649" lon="-2.41503">
        <ele>33</ele>
        <time>2019-03-30T15:11:40Z</time>
      </trkpt>
      <trkpt lat="47.95645" lon="-2.41498">
        <ele>32</ele>
        <time>2019-03-30T15:11:46Z</time>
      </trkpt>
      <trkpt lat="47.95641" lon="-2.41494">
        <ele>33</ele>
        <time>2019-03-30T15:11:49Z</time>
      </trkpt>
      <trkpt lat="47.95639" lon="-2.41488">
        <ele>34</ele>
        <time>2019-03-30T15:11:53Z</time>
      </trkpt>
      <trkpt lat="47.95638" lon="-2.41481">
        <ele>34</ele>
        <time>2019-03-30T15:11:56Z</time>
      </trkpt>
      <trkpt lat="47.95634" lon="-2.41478">
        <ele>34</ele>
        <time>2019-03-30T15:12:01Z</time>
      </trkpt>
      <trkpt lat="47.95629" lon="-2.41479">
        <ele>33</ele>
        <time>2019-03-30T15:12:04Z</time>
      </trkpt>
      <trkpt lat="47.95623" lon="-2.41481">
        <ele>31</ele>
        <time>2019-03-30T15:12:07Z</time>
      </trkpt>
      <trkpt lat="47.95618" lon="-2.41484">
        <ele>29</ele>
        <time>2019-03-30T15:12:10Z</time>
      </trkpt>
      <trkpt lat="47.9562" lon="-2.4149">
        <ele>28</ele>
        <time>2019-03-30T15:12:16Z</time>
      </trkpt>
      <trkpt lat="47.95622" lon="-2.41497">
        <ele>27</ele>
        <time>2019-03-30T15:12:22Z</time>
      </trkpt>
      <trkpt lat="47.95618" lon="-2.41503">
        <ele>27</ele>
        <time>2019-03-30T15:12:25Z</time>
      </trkpt>
      <trkpt lat="47.95618" lon="-2.41511">
        <ele>28</ele>
        <time>2019-03-30T15:12:33Z</time>
      </trkpt>
      <trkpt lat="47.95617" lon="-2.4152">
        <ele>28</ele>
        <time>2019-03-30T15:12:37Z</time>
      </trkpt>
      <trkpt lat="47.95614" lon="-2.41526">
        <ele>29</ele>
        <time>2019-03-30T15:12:41Z</time>
      </trkpt>
      <trkpt lat="47.95615" lon="-2.41533">
        <ele>28</ele>
        <time>2019-03-30T15:12:44Z</time>
      </trkpt>
      <trkpt lat="47.9561" lon="-2.41537">
        <ele>29</ele>
        <time>2019-03-30T15:12:52Z</time>
      </trkpt>
      <trkpt lat="47.95606" lon="-2.41536">
        <ele>29</ele>
        <time>2019-03-30T15:12:57Z</time>
      </trkpt>
      <trkpt lat="47.95601" lon="-2.41535">
        <ele>29</ele>
        <time>2019-03-30T15:12:59Z</time>
      </trkpt>
      <trkpt lat="47.95595" lon="-2.41534">
        <ele>30</ele>
        <time>2019-03-30T15:13:02Z</time>
      </trkpt>
      <trkpt lat="47.95588" lon="-2.41532">
        <ele>32</ele>
        <time>2019-03-30T15:13:04Z</time>
      </trkpt>
      <trkpt lat="47.95584" lon="-2.41533">
        <ele>32</ele>
        <time>2019-03-30T15:13:06Z</time>
      </trkpt>
      <trkpt lat="47.95579" lon="-2.41534">
        <ele>32</ele>
        <time>2019-03-30T15:13:10Z</time>
      </trkpt>
      <trkpt lat="47.95575" lon="-2.41535">
        <ele>33</ele>
        <time>2019-03-30T15:13:17Z</time>
      </trkpt>
      <trkpt lat="47.95569" lon="-2.41535">
        <ele>32</ele>
        <time>2019-03-30T15:13:20Z</time>
      </trkpt>
      <trkpt lat="47.95564" lon="-2.41537">
        <ele>32</ele>
        <time>2019-03-30T15:13:23Z</time>
      </trkpt>
      <trkpt lat="47.95557" lon="-2.4154">
        <ele>31</ele>
        <time>2019-03-30T15:13:26Z</time>
      </trkpt>
      <trkpt lat="47.95552" lon="-2.4154">
        <ele>29</ele>
        <time>2019-03-30T15:13:29Z</time>
      </trkpt>
      <trkpt lat="47.95547" lon="-2.41542">
        <ele>28</ele>
        <time>2019-03-30T15:13:34Z</time>
      </trkpt>
      <trkpt lat="47.95543" lon="-2.41546">
        <ele>28</ele>
        <time>2019-03-30T15:13:38Z</time>
      </trkpt>
      <trkpt lat="47.95542" lon="-2.41555">
        <ele>29</ele>
        <time>2019-03-30T15:13:45Z</time>
      </trkpt>
      <trkpt lat="47.95542" lon="-2.41563">
        <ele>30</ele>
        <time>2019-03-30T15:13:51Z</time>
      </trkpt>
      <trkpt lat="47.95541" lon="-2.41571">
        <ele>32</ele>
        <time>2019-03-30T15:13:55Z</time>
      </trkpt>
      <trkpt lat="47.95535" lon="-2.41574">
        <ele>34</ele>
        <time>2019-03-30T15:13:57Z</time>
      </trkpt>
      <trkpt lat="47.95532" lon="-2.4158">
        <ele>35</ele>
        <time>2019-03-30T15:14:01Z</time>
      </trkpt>
      <trkpt lat="47.95533" lon="-2.41587">
        <ele>35</ele>
        <time>2019-03-30T15:14:06Z</time>
      </trkpt>
      <trkpt lat="47.95534" lon="-2.41594">
        <ele>34</ele>
        <time>2019-03-30T15:14:10Z</time>
      </trkpt>
      <trkpt lat="47.95533" lon="-2.41601">
        <ele>34</ele>
        <time>2019-03-30T15:14:13Z</time>
      </trkpt>
      <trkpt lat="47.95535" lon="-2.4161">
        <ele>33</ele>
        <time>2019-03-30T15:14:15Z</time>
      </trkpt>
      <trkpt lat="47.95535" lon="-2.41618">
        <ele>32</ele>
        <time>2019-03-30T15:14:19Z</time>
      </trkpt>
      <trkpt lat="47.95535" lon="-2.41625">
        <ele>32</ele>
        <time>2019-03-30T15:14:23Z</time>
      </trkpt>
      <trkpt lat="47.95535" lon="-2.41632">
        <ele>32</ele>
        <time>2019-03-30T15:14:27Z</time>
      </trkpt>
      <trkpt lat="47.95533" lon="-2.4164">
        <ele>32</ele>
        <time>2019-03-30T15:14:31Z</time>
      </trkpt>
      <trkpt lat="47.95529" lon="-2.41646">
        <ele>33</ele>
        <time>2019-03-30T15:14:35Z</time>
      </trkpt>
      <trkpt lat="47.95527" lon="-2.41652">
        <ele>34</ele>
        <time>2019-03-30T15:14:39Z</time>
      </trkpt>
      <trkpt lat="47.9553" lon="-2.41659">
        <ele>36</ele>
        <time>2019-03-30T15:14:44Z</time>
      </trkpt>
      <trkpt lat="47.95529" lon="-2.41667">
        <ele>37</ele>
        <time>2019-03-30T15:14:48Z</time>
      </trkpt>
      <trkpt lat="47.95527" lon="-2.41674">
        <ele>38</ele>
        <time>2019-03-30T15:14:52Z</time>
      </trkpt>
      <trkpt lat="47.95526" lon="-2.41681">
        <ele>39</ele>
        <time>2019-03-30T15:15:01Z</time>
      </trkpt>
      <trkpt lat="47.95525" lon="-2.41689">
        <ele>39</ele>
        <time>2019-03-30T15:15:05Z</time>
      </trkpt>
      <trkpt lat="47.95527" lon="-2.41696">
        <ele>39</ele>
        <time>2019-03-30T15:15:09Z</time>
      </trkpt>
      <trkpt lat="47.95528" lon="-2.41703">
        <ele>39</ele>
        <time>2019-03-30T15:15:12Z</time>
      </trkpt>
      <trkpt lat="47.95528" lon="-2.4171">
        <ele>38</ele>
        <time>2019-03-30T15:15:16Z</time>
      </trkpt>
      <trkpt lat="47.95528" lon="-2.41719">
        <ele>37</ele>
        <time>2019-03-30T15:15:20Z</time>
      </trkpt>
      <trkpt lat="47.95525" lon="-2.41725">
        <ele>37</ele>
        <time>2019-03-30T15:15:24Z</time>
      </trkpt>
      <trkpt lat="47.95522" lon="-2.41732">
        <ele>37</ele>
        <time>2019-03-30T15:15:27Z</time>
      </trkpt>
      <trkpt lat="47.9552" lon="-2.41739">
        <ele>39</ele>
        <time>2019-03-30T15:15:31Z</time>
      </trkpt>
      <trkpt lat="47.95518" lon="-2.41745">
        <ele>41</ele>
        <time>2019-03-30T15:15:35Z</time>
      </trkpt>
      <trkpt lat="47.95514" lon="-2.4175">
        <ele>43</ele>
        <time>2019-03-30T15:15:39Z</time>
      </trkpt>
      <trkpt lat="47.95512" lon="-2.41756">
        <ele>45</ele>
        <time>2019-03-30T15:15:42Z</time>
      </trkpt>
      <trkpt lat="47.95511" lon="-2.41763">
        <ele>46</ele>
        <time>2019-03-30T15:15:45Z</time>
      </trkpt>
      <trkpt lat="47.95512" lon="-2.4177">
        <ele>48</ele>
        <time>2019-03-30T15:15:47Z</time>
      </trkpt>
      <trkpt lat="47.95515" lon="-2.41775">
        <ele>48</ele>
        <time>2019-03-30T15:15:51Z</time>
      </trkpt>
      <trkpt lat="47.95516" lon="-2.41783">
        <ele>49</ele>
        <time>2019-03-30T15:15:55Z</time>
      </trkpt>
      <trkpt lat="47.95516" lon="-2.41791">
        <ele>49</ele>
        <time>2019-03-30T15:16:00Z</time>
      </trkpt>
      <trkpt lat="47.95516" lon="-2.41799">
        <ele>50</ele>
        <time>2019-03-30T15:16:04Z</time>
      </trkpt>
      <trkpt lat="47.95515" lon="-2.41807">
        <ele>50</ele>
        <time>2019-03-30T15:16:08Z</time>
      </trkpt>
      <trkpt lat="47.95515" lon="-2.41815">
        <ele>50</ele>
        <time>2019-03-30T15:16:12Z</time>
      </trkpt>
      <trkpt lat="47.95514" lon="-2.41822">
        <ele>50</ele>
        <time>2019-03-30T15:16:16Z</time>
      </trkpt>
      <trkpt lat="47.95513" lon="-2.41829">
        <ele>50</ele>
        <time>2019-03-30T15:16:20Z</time>
      </trkpt>
      <trkpt lat="47.95512" lon="-2.41836">
        <ele>49</ele>
        <time>2019-03-30T15:16:24Z</time>
      </trkpt>
      <trkpt lat="47.95512" lon="-2.41843">
        <ele>49</ele>
        <time>2019-03-30T15:16:27Z</time>
      </trkpt>
      <trkpt lat="47.95511" lon="-2.4185">
        <ele>50</ele>
        <time>2019-03-30T15:16:30Z</time>
      </trkpt>
      <trkpt lat="47.95509" lon="-2.41858">
        <ele>50</ele>
        <time>2019-03-30T15:16:35Z</time>
      </trkpt>
      <trkpt lat="47.95504" lon="-2.41859">
        <ele>48</ele>
        <time>2019-03-30T15:16:41Z</time>
      </trkpt>
      <trkpt lat="47.955" lon="-2.41864">
        <ele>47</ele>
        <time>2019-03-30T15:16:46Z</time>
      </trkpt>
      <trkpt lat="47.95496" lon="-2.41864">
        <ele>45</ele>
        <time>2019-03-30T15:16:53Z</time>
      </trkpt>
      <trkpt lat="47.9549" lon="-2.41863">
        <ele>43</ele>
        <time>2019-03-30T15:16:58Z</time>
      </trkpt>
      <trkpt lat="47.95485" lon="-2.41863">
        <ele>43</ele>
        <time>2019-03-30T15:17:01Z</time>
      </trkpt>
      <trkpt lat="47.9548" lon="-2.41866">
        <ele>44</ele>
        <time>2019-03-30T15:17:03Z</time>
      </trkpt>
      <trkpt lat="47.95475" lon="-2.41869">
        <ele>46</ele>
        <time>2019-03-30T15:17:06Z</time>
      </trkpt>
      <trkpt lat="47.9547" lon="-2.4187">
        <ele>46</ele>
        <time>2019-03-30T15:17:09Z</time>
      </trkpt>
      <trkpt lat="47.95465" lon="-2.4187">
        <ele>47</ele>
        <time>2019-03-30T15:17:13Z</time>
      </trkpt>
      <trkpt lat="47.95461" lon="-2.41873">
        <ele>46</ele>
        <time>2019-03-30T15:17:17Z</time>
      </trkpt>
      <trkpt lat="47.95454" lon="-2.41875">
        <ele>45</ele>
        <time>2019-03-30T15:17:23Z</time>
      </trkpt>
      <trkpt lat="47.9545" lon="-2.41879">
        <ele>45</ele>
        <time>2019-03-30T15:17:27Z</time>
      </trkpt>
      <trkpt lat="47.95445" lon="-2.41883">
        <ele>46</ele>
        <time>2019-03-30T15:17:32Z</time>
      </trkpt>
      <trkpt lat="47.9544" lon="-2.41884">
        <ele>46</ele>
        <time>2019-03-30T15:17:37Z</time>
      </trkpt>
      <trkpt lat="47.95435" lon="-2.41885">
        <ele>45</ele>
        <time>2019-03-30T15:17:41Z</time>
      </trkpt>
      <trkpt lat="47.95429" lon="-2.41886">
        <ele>46</ele>
        <time>2019-03-30T15:17:44Z</time>
      </trkpt>
      <trkpt lat="47.95424" lon="-2.41889">
        <ele>45</ele>
        <time>2019-03-30T15:17:48Z</time>
      </trkpt>
      <trkpt lat="47.9542" lon="-2.41896">
        <ele>44</ele>
        <time>2019-03-30T15:17:52Z</time>
      </trkpt>
      <trkpt lat="47.95418" lon="-2.41902">
        <ele>42</ele>
        <time>2019-03-30T15:17:57Z</time>
      </trkpt>
      <trkpt lat="47.95418" lon="-2.419">
        <ele>41</ele>
        <time>2019-03-30T15:18:17Z</time>
      </trkpt>
      <trkpt lat="47.95418" lon="-2.419">
        <ele>39</ele>
        <time>2019-03-30T15:18:20Z</time>
      </trkpt>
      <trkpt lat="47.95413" lon="-2.419">
        <ele>38</ele>
        <time>2019-03-30T15:18:27Z</time>
      </trkpt>
      <trkpt lat="47.95407" lon="-2.41899">
        <ele>39</ele>
        <time>2019-03-30T15:18:31Z</time>
      </trkpt>
      <trkpt lat="47.95402" lon="-2.41896">
        <ele>40</ele>
        <time>2019-03-30T15:18:35Z</time>
      </trkpt>
      <trkpt lat="47.95397" lon="-2.41892">
        <ele>41</ele>
        <time>2019-03-30T15:18:39Z</time>
      </trkpt>
      <trkpt lat="47.95394" lon="-2.41887">
        <ele>42</ele>
        <time>2019-03-30T15:18:42Z</time>
      </trkpt>
      <trkpt lat="47.9539" lon="-2.41883">
        <ele>40</ele>
        <time>2019-03-30T15:18:45Z</time>
      </trkpt>
      <trkpt lat="47.95386" lon="-2.41878">
        <ele>39</ele>
        <time>2019-03-30T15:18:48Z</time>
      </trkpt>
      <trkpt lat="47.95385" lon="-2.41871">
        <ele>38</ele>
        <time>2019-03-30T15:18:52Z</time>
      </trkpt>
      <trkpt lat="47.95384" lon="-2.41862">
        <ele>38</ele>
        <time>2019-03-30T15:18:56Z</time>
      </trkpt>
      <trkpt lat="47.95382" lon="-2.41855">
        <ele>38</ele>
        <time>2019-03-30T15:19:00Z</time>
      </trkpt>
      <trkpt lat="47.9538" lon="-2.41849">
        <ele>40</ele>
        <time>2019-03-30T15:19:04Z</time>
      </trkpt>
      <trkpt lat="47.95378" lon="-2.41842">
        <ele>41</ele>
        <time>2019-03-30T15:19:08Z</time>
      </trkpt>
      <trkpt lat="47.95375" lon="-2.41838">
        <ele>42</ele>
        <time>2019-03-30T15:19:13Z</time>
      </trkpt>
      <trkpt lat="47.95371" lon="-2.41832">
        <ele>43</ele>
        <time>2019-03-30T15:19:17Z</time>
      </trkpt>
      <trkpt lat="47.95368" lon="-2.41827">
        <ele>43</ele>
        <time>2019-03-30T15:19:20Z</time>
      </trkpt>
      <trkpt lat="47.95364" lon="-2.41822">
        <ele>43</ele>
        <time>2019-03-30T15:19:24Z</time>
      </trkpt>
      <trkpt lat="47.95359" lon="-2.41817">
        <ele>43</ele>
        <time>2019-03-30T15:19:28Z</time>
      </trkpt>
      <trkpt lat="47.95356" lon="-2.41812">
        <ele>43</ele>
        <time>2019-03-30T15:19:32Z</time>
      </trkpt>
      <trkpt lat="47.95352" lon="-2.41808">
        <ele>42</ele>
        <time>2019-03-30T15:19:44Z</time>
      </trkpt>
      <trkpt lat="47.95347" lon="-2.41803">
        <ele>42</ele>
        <time>2019-03-30T15:19:48Z</time>
      </trkpt>
      <trkpt lat="47.95343" lon="-2.41797">
        <ele>41</ele>
        <time>2019-03-30T15:19:53Z</time>
      </trkpt>
      <trkpt lat="47.95339" lon="-2.41793">
        <ele>41</ele>
        <time>2019-03-30T15:19:56Z</time>
      </trkpt>
      <trkpt lat="47.95334" lon="-2.41786">
        <ele>40</ele>
        <time>2019-03-30T15:19:59Z</time>
      </trkpt>
      <trkpt lat="47.95329" lon="-2.41782">
        <ele>39</ele>
        <time>2019-03-30T15:20:01Z</time>
      </trkpt>
      <trkpt lat="47.95324" lon="-2.41778">
        <ele>39</ele>
        <time>2019-03-30T15:20:05Z</time>
      </trkpt>
      <trkpt lat="47.95324" lon="-2.41767">
        <ele>39</ele>
        <time>2019-03-30T15:20:13Z</time>
      </trkpt>
      <trkpt lat="47.95321" lon="-2.4176">
        <ele>39</ele>
        <time>2019-03-30T15:20:22Z</time>
      </trkpt>
      <trkpt lat="47.95318" lon="-2.41754">
        <ele>39</ele>
        <time>2019-03-30T15:20:26Z</time>
      </trkpt>
      <trkpt lat="47.95314" lon="-2.41748">
        <ele>40</ele>
        <time>2019-03-30T15:20:29Z</time>
      </trkpt>
      <trkpt lat="47.9531" lon="-2.41745">
        <ele>40</ele>
        <time>2019-03-30T15:20:33Z</time>
      </trkpt>
      <trkpt lat="47.95306" lon="-2.41741">
        <ele>40</ele>
        <time>2019-03-30T15:20:36Z</time>
      </trkpt>
      <trkpt lat="47.953" lon="-2.41741">
        <ele>39</ele>
        <time>2019-03-30T15:20:39Z</time>
      </trkpt>
      <trkpt lat="47.95295" lon="-2.41737">
        <ele>38</ele>
        <time>2019-03-30T15:20:42Z</time>
      </trkpt>
      <trkpt lat="47.95291" lon="-2.41733">
        <ele>37</ele>
        <time>2019-03-30T15:20:47Z</time>
      </trkpt>
      <trkpt lat="47.95287" lon="-2.41728">
        <ele>36</ele>
        <time>2019-03-30T15:20:52Z</time>
      </trkpt>
      <trkpt lat="47.95284" lon="-2.41721">
        <ele>35</ele>
        <time>2019-03-30T15:20:55Z</time>
      </trkpt>
      <trkpt lat="47.95282" lon="-2.41716">
        <ele>36</ele>
        <time>2019-03-30T15:21:02Z</time>
      </trkpt>
      <trkpt lat="47.95281" lon="-2.41709">
        <ele>36</ele>
        <time>2019-03-30T15:21:07Z</time>
      </trkpt>
      <trkpt lat="47.95281" lon="-2.41702">
        <ele>35</ele>
        <time>2019-03-30T15:21:12Z</time>
      </trkpt>
      <trkpt lat="47.95279" lon="-2.41695">
        <ele>35</ele>
        <time>2019-03-30T15:21:15Z</time>
      </trkpt>
      <trkpt lat="47.95278" lon="-2.41688">
        <ele>34</ele>
        <time>2019-03-30T15:21:18Z</time>
      </trkpt>
      <trkpt lat="47.95277" lon="-2.41681">
        <ele>33</ele>
        <time>2019-03-30T15:21:23Z</time>
      </trkpt>
      <trkpt lat="47.95274" lon="-2.41674">
        <ele>32</ele>
        <time>2019-03-30T15:21:27Z</time>
      </trkpt>
      <trkpt lat="47.95273" lon="-2.41667">
        <ele>31</ele>
        <time>2019-03-30T15:21:30Z</time>
      </trkpt>
      <trkpt lat="47.95272" lon="-2.41659">
        <ele>31</ele>
        <time>2019-03-30T15:21:35Z</time>
      </trkpt>
      <trkpt lat="47.95269" lon="-2.41653">
        <ele>32</ele>
        <time>2019-03-30T15:21:39Z</time>
      </trkpt>
      <trkpt lat="47.95273" lon="-2.41647">
        <ele>32</ele>
        <time>2019-03-30T15:21:41Z</time>
      </trkpt>
      <trkpt lat="47.95275" lon="-2.4164">
        <ele>33</ele>
        <time>2019-03-30T15:21:45Z</time>
      </trkpt>
      <trkpt lat="47.95274" lon="-2.41633">
        <ele>34</ele>
        <time>2019-03-30T15:21:49Z</time>
      </trkpt>
      <trkpt lat="47.95272" lon="-2.41627">
        <ele>34</ele>
        <time>2019-03-30T15:21:58Z</time>
      </trkpt>
      <trkpt lat="47.95266" lon="-2.41625">
        <ele>34</ele>
        <time>2019-03-30T15:22:06Z</time>
      </trkpt>
      <trkpt lat="47.9526" lon="-2.41626">
        <ele>35</ele>
        <time>2019-03-30T15:22:09Z</time>
      </trkpt>
      <trkpt lat="47.95256" lon="-2.41628">
        <ele>35</ele>
        <time>2019-03-30T15:22:12Z</time>
      </trkpt>
      <trkpt lat="47.95253" lon="-2.41634">
        <ele>36</ele>
        <time>2019-03-30T15:22:15Z</time>
      </trkpt>
      <trkpt lat="47.95252" lon="-2.41641">
        <ele>36</ele>
        <time>2019-03-30T15:22:18Z</time>
      </trkpt>
      <trkpt lat="47.95251" lon="-2.41647">
        <ele>36</ele>
        <time>2019-03-30T15:22:22Z</time>
      </trkpt>
      <trkpt lat="47.95248" lon="-2.41652">
        <ele>35</ele>
        <time>2019-03-30T15:22:26Z</time>
      </trkpt>
      <trkpt lat="47.95244" lon="-2.41655">
        <ele>34</ele>
        <time>2019-03-30T15:22:31Z</time>
      </trkpt>
      <trkpt lat="47.95241" lon="-2.41661">
        <ele>33</ele>
        <time>2019-03-30T15:22:36Z</time>
      </trkpt>
      <trkpt lat="47.95236" lon="-2.41663">
        <ele>32</ele>
        <time>2019-03-30T15:22:43Z</time>
      </trkpt>
      <trkpt lat="47.95232" lon="-2.41669">
        <ele>32</ele>
        <time>2019-03-30T15:22:46Z</time>
      </trkpt>
      <trkpt lat="47.95229" lon="-2.41674">
        <ele>31</ele>
        <time>2019-03-30T15:22:49Z</time>
      </trkpt>
      <trkpt lat="47.95225" lon="-2.4168">
        <ele>31</ele>
        <time>2019-03-30T15:22:53Z</time>
      </trkpt>
      <trkpt lat="47.95222" lon="-2.41685">
        <ele>31</ele>
        <time>2019-03-30T15:22:58Z</time>
      </trkpt>
      <trkpt lat="47.95218" lon="-2.41688">
        <ele>32</ele>
        <time>2019-03-30T15:23:03Z</time>
      </trkpt>
      <trkpt lat="47.95213" lon="-2.41691">
        <ele>32</ele>
        <time>2019-03-30T15:23:06Z</time>
      </trkpt>
      <trkpt lat="47.95207" lon="-2.41691">
        <ele>31</ele>
        <time>2019-03-30T15:23:09Z</time>
      </trkpt>
      <trkpt lat="47.95203" lon="-2.41696">
        <ele>30</ele>
        <time>2019-03-30T15:23:13Z</time>
      </trkpt>
      <trkpt lat="47.952" lon="-2.417">
        <ele>31</ele>
        <time>2019-03-30T15:23:18Z</time>
      </trkpt>
      <trkpt lat="47.95198" lon="-2.41706">
        <ele>31</ele>
        <time>2019-03-30T15:23:21Z</time>
      </trkpt>
      <trkpt lat="47.95194" lon="-2.4171">
        <ele>32</ele>
        <time>2019-03-30T15:23:24Z</time>
      </trkpt>
      <trkpt lat="47.95189" lon="-2.41711">
        <ele>34</ele>
        <time>2019-03-30T15:23:27Z</time>
      </trkpt>
      <trkpt lat="47.95184" lon="-2.41716">
        <ele>36</ele>
        <time>2019-03-30T15:23:30Z</time>
      </trkpt>
      <trkpt lat="47.9518" lon="-2.41719">
        <ele>37</ele>
        <time>2019-03-30T15:23:33Z</time>
      </trkpt>
      <trkpt lat="47.95177" lon="-2.41724">
        <ele>38</ele>
        <time>2019-03-30T15:23:36Z</time>
      </trkpt>
      <trkpt lat="47.95171" lon="-2.41728">
        <ele>39</ele>
        <time>2019-03-30T15:23:39Z</time>
      </trkpt>
      <trkpt lat="47.9517" lon="-2.41735">
        <ele>37</ele>
        <time>2019-03-30T15:23:43Z</time>
      </trkpt>
      <trkpt lat="47.95168" lon="-2.41742">
        <ele>36</ele>
        <time>2019-03-30T15:23:48Z</time>
      </trkpt>
      <trkpt lat="47.95164" lon="-2.41745">
        <ele>34</ele>
        <time>2019-03-30T15:23:54Z</time>
      </trkpt>
      <trkpt lat="47.95158" lon="-2.41745">
        <ele>32</ele>
        <time>2019-03-30T15:23:59Z</time>
      </trkpt>
      <trkpt lat="47.95152" lon="-2.41746">
        <ele>29</ele>
        <time>2019-03-30T15:24:05Z</time>
      </trkpt>
      <trkpt lat="47.95148" lon="-2.4175">
        <ele>29</ele>
        <time>2019-03-30T15:24:08Z</time>
      </trkpt>
      <trkpt lat="47.95144" lon="-2.41755">
        <ele>29</ele>
        <time>2019-03-30T15:24:14Z</time>
      </trkpt>
      <trkpt lat="47.95139" lon="-2.41757">
        <ele>30</ele>
        <time>2019-03-30T15:24:18Z</time>
      </trkpt>
      <trkpt lat="47.95134" lon="-2.41759">
        <ele>31</ele>
        <time>2019-03-30T15:24:22Z</time>
      </trkpt>
      <trkpt lat="47.95131" lon="-2.41766">
        <ele>31</ele>
        <time>2019-03-30T15:24:26Z</time>
      </trkpt>
      <trkpt lat="47.95127" lon="-2.41771">
        <ele>32</ele>
        <time>2019-03-30T15:24:30Z</time>
      </trkpt>
      <trkpt lat="47.95121" lon="-2.41775">
        <ele>32</ele>
        <time>2019-03-30T15:24:34Z</time>
      </trkpt>
      <trkpt lat="47.95117" lon="-2.41778">
        <ele>32</ele>
        <time>2019-03-30T15:24:37Z</time>
      </trkpt>
      <trkpt lat="47.95115" lon="-2.41785">
        <ele>32</ele>
        <time>2019-03-30T15:24:40Z</time>
      </trkpt>
      <trkpt lat="47.95113" lon="-2.41791">
        <ele>32</ele>
        <time>2019-03-30T15:24:42Z</time>
      </trkpt>
      <trkpt lat="47.95108" lon="-2.41796">
        <ele>33</ele>
        <time>2019-03-30T15:24:46Z</time>
      </trkpt>
      <trkpt lat="47.95105" lon="-2.41803">
        <ele>33</ele>
        <time>2019-03-30T15:24:50Z</time>
      </trkpt>
      <trkpt lat="47.95104" lon="-2.41809">
        <ele>34</ele>
        <time>2019-03-30T15:24:55Z</time>
      </trkpt>
      <trkpt lat="47.95101" lon="-2.41816">
        <ele>34</ele>
        <time>2019-03-30T15:24:59Z</time>
      </trkpt>
      <trkpt lat="47.95098" lon="-2.41823">
        <ele>34</ele>
        <time>2019-03-30T15:25:03Z</time>
      </trkpt>
      <trkpt lat="47.95095" lon="-2.4183">
        <ele>35</ele>
        <time>2019-03-30T15:25:07Z</time>
      </trkpt>
      <trkpt lat="47.95091" lon="-2.41834">
        <ele>37</ele>
        <time>2019-03-30T15:25:10Z</time>
      </trkpt>
      <trkpt lat="47.95086" lon="-2.41836">
        <ele>39</ele>
        <time>2019-03-30T15:25:13Z</time>
      </trkpt>
      <trkpt lat="47.95081" lon="-2.41837">
        <ele>41</ele>
        <time>2019-03-30T15:25:16Z</time>
      </trkpt>
      <trkpt lat="47.95078" lon="-2.41842">
        <ele>43</ele>
        <time>2019-03-30T15:25:19Z</time>
      </trkpt>
      <trkpt lat="47.95079" lon="-2.4185">
        <ele>43</ele>
        <time>2019-03-30T15:25:23Z</time>
      </trkpt>
      <trkpt lat="47.95084" lon="-2.41851">
        <ele>41</ele>
        <time>2019-03-30T15:25:28Z</time>
      </trkpt>
      <trkpt lat="47.95081" lon="-2.41858">
        <ele>39</ele>
        <time>2019-03-30T15:25:44Z</time>
      </trkpt>
      <trkpt lat="47.95078" lon="-2.41866">
        <ele>36</ele>
        <time>2019-03-30T15:25:47Z</time>
      </trkpt>
      <trkpt lat="47.95075" lon="-2.41873">
        <ele>34</ele>
        <time>2019-03-30T15:25:50Z</time>
      </trkpt>
      <trkpt lat="47.95071" lon="-2.41879">
        <ele>33</ele>
        <time>2019-03-30T15:25:55Z</time>
      </trkpt>
      <trkpt lat="47.95066" lon="-2.41884">
        <ele>32</ele>
        <time>2019-03-30T15:25:59Z</time>
      </trkpt>
      <trkpt lat="47.95062" lon="-2.41888">
        <ele>32</ele>
        <time>2019-03-30T15:26:03Z</time>
      </trkpt>
      <trkpt lat="47.9506" lon="-2.41894">
        <ele>32</ele>
        <time>2019-03-30T15:26:07Z</time>
      </trkpt>
      <trkpt lat="47.95057" lon="-2.419">
        <ele>33</ele>
        <time>2019-03-30T15:26:12Z</time>
      </trkpt>
      <trkpt lat="47.95053" lon="-2.41905">
        <ele>32</ele>
        <time>2019-03-30T15:26:16Z</time>
      </trkpt>
      <trkpt lat="47.95049" lon="-2.41909">
        <ele>32</ele>
        <time>2019-03-30T15:26:20Z</time>
      </trkpt>
      <trkpt lat="47.95047" lon="-2.41917">
        <ele>33</ele>
        <time>2019-03-30T15:26:25Z</time>
      </trkpt>
      <trkpt lat="47.95043" lon="-2.41918">
        <ele>32</ele>
        <time>2019-03-30T15:26:36Z</time>
      </trkpt>
      <trkpt lat="47.95039" lon="-2.41923">
        <ele>31</ele>
        <time>2019-03-30T15:26:41Z</time>
      </trkpt>
      <trkpt lat="47.95038" lon="-2.4193">
        <ele>31</ele>
        <time>2019-03-30T15:26:44Z</time>
      </trkpt>
      <trkpt lat="47.95036" lon="-2.41938">
        <ele>32</ele>
        <time>2019-03-30T15:26:49Z</time>
      </trkpt>
      <trkpt lat="47.95033" lon="-2.41944">
        <ele>33</ele>
        <time>2019-03-30T15:26:52Z</time>
      </trkpt>
      <trkpt lat="47.9503" lon="-2.41949">
        <ele>34</ele>
        <time>2019-03-30T15:26:56Z</time>
      </trkpt>
      <trkpt lat="47.95026" lon="-2.41953">
        <ele>36</ele>
        <time>2019-03-30T15:26:59Z</time>
      </trkpt>
      <trkpt lat="47.95022" lon="-2.41957">
        <ele>38</ele>
        <time>2019-03-30T15:27:03Z</time>
      </trkpt>
      <trkpt lat="47.95018" lon="-2.41961">
        <ele>40</ele>
        <time>2019-03-30T15:27:06Z</time>
      </trkpt>
      <trkpt lat="47.95015" lon="-2.41969">
        <ele>41</ele>
        <time>2019-03-30T15:27:10Z</time>
      </trkpt>
      <trkpt lat="47.95013" lon="-2.41976">
        <ele>41</ele>
        <time>2019-03-30T15:27:13Z</time>
      </trkpt>
      <trkpt lat="47.95012" lon="-2.41983">
        <ele>39</ele>
        <time>2019-03-30T15:27:17Z</time>
      </trkpt>
      <trkpt lat="47.95009" lon="-2.41987">
        <ele>36</ele>
        <time>2019-03-30T15:27:23Z</time>
      </trkpt>
      <trkpt lat="47.95005" lon="-2.41992">
        <ele>33</ele>
        <time>2019-03-30T15:27:28Z</time>
      </trkpt>
      <trkpt lat="47.95001" lon="-2.41997">
        <ele>30</ele>
        <time>2019-03-30T15:27:33Z</time>
      </trkpt>
      <trkpt lat="47.94997" lon="-2.42002">
        <ele>28</ele>
        <time>2019-03-30T15:27:36Z</time>
      </trkpt>
      <trkpt lat="47.94992" lon="-2.42005">
        <ele>28</ele>
        <time>2019-03-30T15:27:40Z</time>
      </trkpt>
      <trkpt lat="47.94988" lon="-2.4201">
        <ele>29</ele>
        <time>2019-03-30T15:27:44Z</time>
      </trkpt>
      <trkpt lat="47.94986" lon="-2.42016">
        <ele>29</ele>
        <time>2019-03-30T15:27:51Z</time>
      </trkpt>
      <trkpt lat="47.94983" lon="-2.4202">
        <ele>30</ele>
        <time>2019-03-30T15:27:58Z</time>
      </trkpt>
      <trkpt lat="47.94979" lon="-2.42025">
        <ele>30</ele>
        <time>2019-03-30T15:28:02Z</time>
      </trkpt>
      <trkpt lat="47.94975" lon="-2.42028">
        <ele>30</ele>
        <time>2019-03-30T15:28:06Z</time>
      </trkpt>
      <trkpt lat="47.9497" lon="-2.42027">
        <ele>30</ele>
        <time>2019-03-30T15:28:11Z</time>
      </trkpt>
      <trkpt lat="47.94965" lon="-2.42028">
        <ele>31</ele>
        <time>2019-03-30T15:28:14Z</time>
      </trkpt>
      <trkpt lat="47.9496" lon="-2.42032">
        <ele>31</ele>
        <time>2019-03-30T15:28:18Z</time>
      </trkpt>
      <trkpt lat="47.94955" lon="-2.42032">
        <ele>32</ele>
        <time>2019-03-30T15:28:23Z</time>
      </trkpt>
      <trkpt lat="47.9495" lon="-2.42028">
        <ele>32</ele>
        <time>2019-03-30T15:28:27Z</time>
      </trkpt>
      <trkpt lat="47.94944" lon="-2.4203">
        <ele>31</ele>
        <time>2019-03-30T15:28:31Z</time>
      </trkpt>
      <trkpt lat="47.94939" lon="-2.4203">
        <ele>29</ele>
        <time>2019-03-30T15:28:35Z</time>
      </trkpt>
      <trkpt lat="47.94934" lon="-2.4203">
        <ele>29</ele>
        <time>2019-03-30T15:28:39Z</time>
      </trkpt>
      <trkpt lat="47.94929" lon="-2.42032">
        <ele>28</ele>
        <time>2019-03-30T15:28:45Z</time>
      </trkpt>
      <trkpt lat="47.9493" lon="-2.42036">
        <ele>28</ele>
        <time>2019-03-30T15:29:21Z</time>
      </trkpt>
      <trkpt lat="47.94902" lon="-2.42035">
        <ele>28</ele>
        <time>2019-03-30T15:29:42Z</time>
      </trkpt>
      <trkpt lat="47.94903" lon="-2.42027">
        <ele>28</ele>
        <time>2019-03-30T15:29:45Z</time>
      </trkpt>
      <trkpt lat="47.94902" lon="-2.4202">
        <ele>28</ele>
        <time>2019-03-30T15:29:52Z</time>
      </trkpt>
      <trkpt lat="47.94897" lon="-2.42017">
        <ele>28</ele>
        <time>2019-03-30T15:29:59Z</time>
      </trkpt>
      <trkpt lat="47.94895" lon="-2.4201">
        <ele>28</ele>
        <time>2019-03-30T15:30:03Z</time>
      </trkpt>
      <trkpt lat="47.94892" lon="-2.42004">
        <ele>29</ele>
        <time>2019-03-30T15:30:07Z</time>
      </trkpt>
      <trkpt lat="47.94888" lon="-2.42">
        <ele>29</ele>
        <time>2019-03-30T15:30:16Z</time>
      </trkpt>
      <trkpt lat="47.94887" lon="-2.41993">
        <ele>30</ele>
        <time>2019-03-30T15:30:19Z</time>
      </trkpt>
      <trkpt lat="47.94885" lon="-2.41987">
        <ele>30</ele>
        <time>2019-03-30T15:30:22Z</time>
      </trkpt>
      <trkpt lat="47.94883" lon="-2.41979">
        <ele>31</ele>
        <time>2019-03-30T15:30:26Z</time>
      </trkpt>
      <trkpt lat="47.9488" lon="-2.41972">
        <ele>31</ele>
        <time>2019-03-30T15:30:30Z</time>
      </trkpt>
      <trkpt lat="47.94876" lon="-2.41968">
        <ele>32</ele>
        <time>2019-03-30T15:30:35Z</time>
      </trkpt>
      <trkpt lat="47.94872" lon="-2.41971">
        <ele>33</ele>
        <time>2019-03-30T15:30:40Z</time>
      </trkpt>
      <trkpt lat="47.94866" lon="-2.41975">
        <ele>33</ele>
        <time>2019-03-30T15:30:48Z</time>
      </trkpt>
      <trkpt lat="47.94861" lon="-2.41977">
        <ele>32</ele>
        <time>2019-03-30T15:30:51Z</time>
      </trkpt>
      <trkpt lat="47.94855" lon="-2.41976">
        <ele>33</ele>
        <time>2019-03-30T15:30:55Z</time>
      </trkpt>
      <trkpt lat="47.9485" lon="-2.41975">
        <ele>33</ele>
        <time>2019-03-30T15:31:00Z</time>
      </trkpt>
      <trkpt lat="47.94846" lon="-2.41975">
        <ele>34</ele>
        <time>2019-03-30T15:31:09Z</time>
      </trkpt>
      <trkpt lat="47.94841" lon="-2.4198">
        <ele>35</ele>
        <time>2019-03-30T15:31:14Z</time>
      </trkpt>
      <trkpt lat="47.94839" lon="-2.41986">
        <ele>35</ele>
        <time>2019-03-30T15:31:18Z</time>
      </trkpt>
      <trkpt lat="47.94837" lon="-2.41994">
        <ele>35</ele>
        <time>2019-03-30T15:31:23Z</time>
      </trkpt>
      <trkpt lat="47.94834" lon="-2.42">
        <ele>35</ele>
        <time>2019-03-30T15:31:27Z</time>
      </trkpt>
      <trkpt lat="47.9483" lon="-2.42004">
        <ele>36</ele>
        <time>2019-03-30T15:31:32Z</time>
      </trkpt>
      <trkpt lat="47.94826" lon="-2.42008">
        <ele>36</ele>
        <time>2019-03-30T15:31:44Z</time>
      </trkpt>
      <trkpt lat="47.94821" lon="-2.42009">
        <ele>36</ele>
        <time>2019-03-30T15:31:48Z</time>
      </trkpt>
      <trkpt lat="47.94816" lon="-2.4201">
        <ele>36</ele>
        <time>2019-03-30T15:31:52Z</time>
      </trkpt>
      <trkpt lat="47.94811" lon="-2.42015">
        <ele>36</ele>
        <time>2019-03-30T15:31:56Z</time>
      </trkpt>
      <trkpt lat="47.94806" lon="-2.42016">
        <ele>35</ele>
        <time>2019-03-30T15:32:00Z</time>
      </trkpt>
      <trkpt lat="47.94801" lon="-2.42015">
        <ele>34</ele>
        <time>2019-03-30T15:32:04Z</time>
      </trkpt>
      <trkpt lat="47.94796" lon="-2.42013">
        <ele>33</ele>
        <time>2019-03-30T15:32:08Z</time>
      </trkpt>
      <trkpt lat="47.94791" lon="-2.42012">
        <ele>33</ele>
        <time>2019-03-30T15:32:11Z</time>
      </trkpt>
      <trkpt lat="47.94785" lon="-2.42013">
        <ele>34</ele>
        <time>2019-03-30T15:32:15Z</time>
      </trkpt>
      <trkpt lat="47.9478" lon="-2.42015">
        <ele>34</ele>
        <time>2019-03-30T15:32:18Z</time>
      </trkpt>
      <trkpt lat="47.94775" lon="-2.42017">
        <ele>34</ele>
        <time>2019-03-30T15:32:24Z</time>
      </trkpt>
      <trkpt lat="47.9477" lon="-2.42016">
        <ele>34</ele>
        <time>2019-03-30T15:32:28Z</time>
      </trkpt>
      <trkpt lat="47.94766" lon="-2.42017">
        <ele>34</ele>
        <time>2019-03-30T15:32:32Z</time>
      </trkpt>
      <trkpt lat="47.94761" lon="-2.42019">
        <ele>34</ele>
        <time>2019-03-30T15:32:43Z</time>
      </trkpt>
      <trkpt lat="47.94755" lon="-2.42019">
        <ele>34</ele>
        <time>2019-03-30T15:32:47Z</time>
      </trkpt>
      <trkpt lat="47.9475" lon="-2.4202">
        <ele>35</ele>
        <time>2019-03-30T15:32:50Z</time>
      </trkpt>
      <trkpt lat="47.94745" lon="-2.42021">
        <ele>35</ele>
        <time>2019-03-30T15:32:54Z</time>
      </trkpt>
      <trkpt lat="47.9474" lon="-2.42023">
        <ele>36</ele>
        <time>2019-03-30T15:32:58Z</time>
      </trkpt>
      <trkpt lat="47.94734" lon="-2.42025">
        <ele>36</ele>
        <time>2019-03-30T15:33:02Z</time>
      </trkpt>
      <trkpt lat="47.94729" lon="-2.42027">
        <ele>37</ele>
        <time>2019-03-30T15:33:06Z</time>
      </trkpt>
      <trkpt lat="47.94724" lon="-2.42028">
        <ele>37</ele>
        <time>2019-03-30T15:33:11Z</time>
      </trkpt>
      <trkpt lat="47.94719" lon="-2.42028">
        <ele>37</ele>
        <time>2019-03-30T15:33:15Z</time>
      </trkpt>
      <trkpt lat="47.94714" lon="-2.42029">
        <ele>37</ele>
        <time>2019-03-30T15:33:19Z</time>
      </trkpt>
      <trkpt lat="47.94709" lon="-2.4203">
        <ele>36</ele>
        <time>2019-03-30T15:33:23Z</time>
      </trkpt>
      <trkpt lat="47.94705" lon="-2.42032">
        <ele>36</ele>
        <time>2019-03-30T15:33:27Z</time>
      </trkpt>
      <trkpt lat="47.94701" lon="-2.42034">
        <ele>36</ele>
        <time>2019-03-30T15:33:31Z</time>
      </trkpt>
      <trkpt lat="47.94696" lon="-2.42038">
        <ele>36</ele>
        <time>2019-03-30T15:33:36Z</time>
      </trkpt>
      <trkpt lat="47.94693" lon="-2.42043">
        <ele>36</ele>
        <time>2019-03-30T15:33:40Z</time>
      </trkpt>
      <trkpt lat="47.94688" lon="-2.42047">
        <ele>36</ele>
        <time>2019-03-30T15:33:43Z</time>
      </trkpt>
      <trkpt lat="47.94683" lon="-2.42047">
        <ele>36</ele>
        <time>2019-03-30T15:33:46Z</time>
      </trkpt>
      <trkpt lat="47.94678" lon="-2.42047">
        <ele>34</ele>
        <time>2019-03-30T15:33:50Z</time>
      </trkpt>
      <trkpt lat="47.94673" lon="-2.42048">
        <ele>33</ele>
        <time>2019-03-30T15:33:55Z</time>
      </trkpt>
      <trkpt lat="47.94667" lon="-2.42049">
        <ele>32</ele>
        <time>2019-03-30T15:33:59Z</time>
      </trkpt>
      <trkpt lat="47.94663" lon="-2.42051">
        <ele>30</ele>
        <time>2019-03-30T15:34:02Z</time>
      </trkpt>
      <trkpt lat="47.94659" lon="-2.42051">
        <ele>29</ele>
        <time>2019-03-30T15:34:05Z</time>
      </trkpt>
      <trkpt lat="47.94654" lon="-2.42051">
        <ele>29</ele>
        <time>2019-03-30T15:34:09Z</time>
      </trkpt>
      <trkpt lat="47.94649" lon="-2.42052">
        <ele>29</ele>
        <time>2019-03-30T15:34:13Z</time>
      </trkpt>
      <trkpt lat="47.94644" lon="-2.42051">
        <ele>30</ele>
        <time>2019-03-30T15:34:17Z</time>
      </trkpt>
      <trkpt lat="47.94638" lon="-2.4205">
        <ele>30</ele>
        <time>2019-03-30T15:34:21Z</time>
      </trkpt>
      <trkpt lat="47.94634" lon="-2.42049">
        <ele>31</ele>
        <time>2019-03-30T15:34:28Z</time>
      </trkpt>
      <trkpt lat="47.94628" lon="-2.42049">
        <ele>32</ele>
        <time>2019-03-30T15:34:33Z</time>
      </trkpt>
      <trkpt lat="47.94622" lon="-2.42048">
        <ele>32</ele>
        <time>2019-03-30T15:34:37Z</time>
      </trkpt>
      <trkpt lat="47.94617" lon="-2.42049">
        <ele>32</ele>
        <time>2019-03-30T15:34:40Z</time>
      </trkpt>
      <trkpt lat="47.94613" lon="-2.42049">
        <ele>32</ele>
        <time>2019-03-30T15:34:43Z</time>
      </trkpt>
      <trkpt lat="47.94607" lon="-2.42047">
        <ele>32</ele>
        <time>2019-03-30T15:34:47Z</time>
      </trkpt>
      <trkpt lat="47.94604" lon="-2.42041">
        <ele>32</ele>
        <time>2019-03-30T15:34:51Z</time>
      </trkpt>
      <trkpt lat="47.946" lon="-2.42035">
        <ele>31</ele>
        <time>2019-03-30T15:34:55Z</time>
      </trkpt>
      <trkpt lat="47.94595" lon="-2.42032">
        <ele>31</ele>
        <time>2019-03-30T15:35:01Z</time>
      </trkpt>
      <trkpt lat="47.94593" lon="-2.42024">
        <ele>31</ele>
        <time>2019-03-30T15:35:06Z</time>
      </trkpt>
      <trkpt lat="47.9459" lon="-2.42018">
        <ele>31</ele>
        <time>2019-03-30T15:35:11Z</time>
      </trkpt>
      <trkpt lat="47.94585" lon="-2.42015">
        <ele>30</ele>
        <time>2019-03-30T15:35:15Z</time>
      </trkpt>
      <trkpt lat="47.9458" lon="-2.42012">
        <ele>29</ele>
        <time>2019-03-30T15:35:19Z</time>
      </trkpt>
      <trkpt lat="47.94576" lon="-2.42008">
        <ele>28</ele>
        <time>2019-03-30T15:35:23Z</time>
      </trkpt>
      <trkpt lat="47.94572" lon="-2.42004">
        <ele>28</ele>
        <time>2019-03-30T15:35:32Z</time>
      </trkpt>
      <trkpt lat="47.94567" lon="-2.41999">
        <ele>29</ele>
        <time>2019-03-30T15:35:36Z</time>
      </trkpt>
      <trkpt lat="47.94563" lon="-2.42">
        <ele>29</ele>
        <time>2019-03-30T15:35:39Z</time>
      </trkpt>
      <trkpt lat="47.94558" lon="-2.42002">
        <ele>28</ele>
        <time>2019-03-30T15:35:43Z</time>
      </trkpt>
      <trkpt lat="47.94555" lon="-2.42007">
        <ele>28</ele>
        <time>2019-03-30T15:35:47Z</time>
      </trkpt>
      <trkpt lat="47.94552" lon="-2.42014">
        <ele>27</ele>
        <time>2019-03-30T15:35:51Z</time>
      </trkpt>
      <trkpt lat="47.94547" lon="-2.42018">
        <ele>27</ele>
        <time>2019-03-30T15:35:55Z</time>
      </trkpt>
      <trkpt lat="47.94542" lon="-2.42021">
        <ele>28</ele>
        <time>2019-03-30T15:36:00Z</time>
      </trkpt>
      <trkpt lat="47.94538" lon="-2.42025">
        <ele>30</ele>
        <time>2019-03-30T15:36:05Z</time>
      </trkpt>
      <trkpt lat="47.94535" lon="-2.4203">
        <ele>32</ele>
        <time>2019-03-30T15:36:11Z</time>
      </trkpt>
      <trkpt lat="47.94531" lon="-2.42035">
        <ele>34</ele>
        <time>2019-03-30T15:36:17Z</time>
      </trkpt>
      <trkpt lat="47.94529" lon="-2.42041">
        <ele>35</ele>
        <time>2019-03-30T15:36:22Z</time>
      </trkpt>
      <trkpt lat="47.94525" lon="-2.42044">
        <ele>36</ele>
        <time>2019-03-30T15:36:27Z</time>
      </trkpt>
      <trkpt lat="47.9452" lon="-2.42041">
        <ele>38</ele>
        <time>2019-03-30T15:36:43Z</time>
      </trkpt>
      <trkpt lat="47.94515" lon="-2.42036">
        <ele>39</ele>
        <time>2019-03-30T15:36:47Z</time>
      </trkpt>
      <trkpt lat="47.9451" lon="-2.42032">
        <ele>40</ele>
        <time>2019-03-30T15:36:50Z</time>
      </trkpt>
      <trkpt lat="47.94506" lon="-2.42029">
        <ele>42</ele>
        <time>2019-03-30T15:36:53Z</time>
      </trkpt>
      <trkpt lat="47.94502" lon="-2.42026">
        <ele>44</ele>
        <time>2019-03-30T15:36:56Z</time>
      </trkpt>
      <trkpt lat="47.94498" lon="-2.42021">
        <ele>45</ele>
        <time>2019-03-30T15:37:00Z</time>
      </trkpt>
      <trkpt lat="47.94494" lon="-2.42017">
        <ele>46</ele>
        <time>2019-03-30T15:37:03Z</time>
      </trkpt>
      <trkpt lat="47.94489" lon="-2.42013">
        <ele>47</ele>
        <time>2019-03-30T15:37:07Z</time>
      </trkpt>
      <trkpt lat="47.94483" lon="-2.42009">
        <ele>48</ele>
        <time>2019-03-30T15:37:11Z</time>
      </trkpt>
      <trkpt lat="47.94478" lon="-2.42006">
        <ele>49</ele>
        <time>2019-03-30T15:37:15Z</time>
      </trkpt>
      <trkpt lat="47.94473" lon="-2.42002">
        <ele>50</ele>
        <time>2019-03-30T15:37:19Z</time>
      </trkpt>
      <trkpt lat="47.9447" lon="-2.41997">
        <ele>50</ele>
        <time>2019-03-30T15:37:24Z</time>
      </trkpt>
      <trkpt lat="47.94465" lon="-2.41995">
        <ele>49</ele>
        <time>2019-03-30T15:37:31Z</time>
      </trkpt>
      <trkpt lat="47.9446" lon="-2.41994">
        <ele>49</ele>
        <time>2019-03-30T15:37:35Z</time>
      </trkpt>
      <trkpt lat="47.94455" lon="-2.41991">
        <ele>48</ele>
        <time>2019-03-30T15:37:39Z</time>
      </trkpt>
      <trkpt lat="47.9445" lon="-2.41989">
        <ele>47</ele>
        <time>2019-03-30T15:37:43Z</time>
      </trkpt>
      <trkpt lat="47.94445" lon="-2.41987">
        <ele>46</ele>
        <time>2019-03-30T15:37:48Z</time>
      </trkpt>
      <trkpt lat="47.94441" lon="-2.41985">
        <ele>45</ele>
        <time>2019-03-30T15:37:52Z</time>
      </trkpt>
      <trkpt lat="47.94436" lon="-2.41982">
        <ele>44</ele>
        <time>2019-03-30T15:37:56Z</time>
      </trkpt>
      <trkpt lat="47.94432" lon="-2.41977">
        <ele>43</ele>
        <time>2019-03-30T15:37:59Z</time>
      </trkpt>
      <trkpt lat="47.94427" lon="-2.41974">
        <ele>42</ele>
        <time>2019-03-30T15:38:02Z</time>
      </trkpt>
      <trkpt lat="47.94424" lon="-2.41968">
        <ele>43</ele>
        <time>2019-03-30T15:38:06Z</time>
      </trkpt>
      <trkpt lat="47.94419" lon="-2.41964">
        <ele>43</ele>
        <time>2019-03-30T15:38:13Z</time>
      </trkpt>
      <trkpt lat="47.94415" lon="-2.41959">
        <ele>43</ele>
        <time>2019-03-30T15:38:17Z</time>
      </trkpt>
      <trkpt lat="47.9441" lon="-2.41957">
        <ele>42</ele>
        <time>2019-03-30T15:38:21Z</time>
      </trkpt>
      <trkpt lat="47.94406" lon="-2.41957">
        <ele>42</ele>
        <time>2019-03-30T15:38:24Z</time>
      </trkpt>
      <trkpt lat="47.944" lon="-2.41953">
        <ele>41</ele>
        <time>2019-03-30T15:38:28Z</time>
      </trkpt>
      <trkpt lat="47.94396" lon="-2.41949">
        <ele>41</ele>
        <time>2019-03-30T15:38:32Z</time>
      </trkpt>
      <trkpt lat="47.9439" lon="-2.41947">
        <ele>42</ele>
        <time>2019-03-30T15:38:36Z</time>
      </trkpt>
      <trkpt lat="47.94386" lon="-2.41943">
        <ele>42</ele>
        <time>2019-03-30T15:38:40Z</time>
      </trkpt>
      <trkpt lat="47.94382" lon="-2.41938">
        <ele>43</ele>
        <time>2019-03-30T15:38:46Z</time>
      </trkpt>
      <trkpt lat="47.94377" lon="-2.41935">
        <ele>44</ele>
        <time>2019-03-30T15:38:51Z</time>
      </trkpt>
      <trkpt lat="47.94373" lon="-2.41929">
        <ele>44</ele>
        <time>2019-03-30T15:38:55Z</time>
      </trkpt>
      <trkpt lat="47.94368" lon="-2.41925">
        <ele>44</ele>
        <time>2019-03-30T15:38:59Z</time>
      </trkpt>
      <trkpt lat="47.94364" lon="-2.41922">
        <ele>44</ele>
        <time>2019-03-30T15:39:03Z</time>
      </trkpt>
      <trkpt lat="47.9436" lon="-2.41917">
        <ele>43</ele>
        <time>2019-03-30T15:39:08Z</time>
      </trkpt>
      <trkpt lat="47.94352" lon="-2.41908">
        <ele>43</ele>
        <time>2019-03-30T15:39:15Z</time>
      </trkpt>
      <trkpt lat="47.94348" lon="-2.41902">
        <ele>43</ele>
        <time>2019-03-30T15:39:19Z</time>
      </trkpt>
      <trkpt lat="47.94345" lon="-2.41895">
        <ele>44</ele>
        <time>2019-03-30T15:39:23Z</time>
      </trkpt>
      <trkpt lat="47.94343" lon="-2.41889">
        <ele>44</ele>
        <time>2019-03-30T15:39:27Z</time>
      </trkpt>
      <trkpt lat="47.9434" lon="-2.41883">
        <ele>44</ele>
        <time>2019-03-30T15:39:32Z</time>
      </trkpt>
      <trkpt lat="47.94336" lon="-2.41878">
        <ele>43</ele>
        <time>2019-03-30T15:39:37Z</time>
      </trkpt>
      <trkpt lat="47.94333" lon="-2.41872">
        <ele>42</ele>
        <time>2019-03-30T15:39:40Z</time>
      </trkpt>
      <trkpt lat="47.94329" lon="-2.41867">
        <ele>40</ele>
        <time>2019-03-30T15:39:45Z</time>
      </trkpt>
      <trkpt lat="47.94324" lon="-2.41863">
        <ele>38</ele>
        <time>2019-03-30T15:39:49Z</time>
      </trkpt>
      <trkpt lat="47.94322" lon="-2.41857">
        <ele>37</ele>
        <time>2019-03-30T15:39:53Z</time>
      </trkpt>
      <trkpt lat="47.94321" lon="-2.41849">
        <ele>37</ele>
        <time>2019-03-30T15:39:56Z</time>
      </trkpt>
      <trkpt lat="47.94318" lon="-2.41842">
        <ele>37</ele>
        <time>2019-03-30T15:39:59Z</time>
      </trkpt>
      <trkpt lat="47.94316" lon="-2.41835">
        <ele>37</ele>
        <time>2019-03-30T15:40:03Z</time>
      </trkpt>
      <trkpt lat="47.94314" lon="-2.41829">
        <ele>38</ele>
        <time>2019-03-30T15:40:09Z</time>
      </trkpt>
      <trkpt lat="47.94312" lon="-2.41822">
        <ele>38</ele>
        <time>2019-03-30T15:40:14Z</time>
      </trkpt>
      <trkpt lat="47.94312" lon="-2.41814">
        <ele>39</ele>
        <time>2019-03-30T15:40:19Z</time>
      </trkpt>
      <trkpt lat="47.9431" lon="-2.41807">
        <ele>38</ele>
        <time>2019-03-30T15:40:23Z</time>
      </trkpt>
      <trkpt lat="47.94306" lon="-2.41801">
        <ele>38</ele>
        <time>2019-03-30T15:40:27Z</time>
      </trkpt>
      <trkpt lat="47.94304" lon="-2.41794">
        <ele>38</ele>
        <time>2019-03-30T15:40:30Z</time>
      </trkpt>
      <trkpt lat="47.94299" lon="-2.41789">
        <ele>37</ele>
        <time>2019-03-30T15:40:33Z</time>
      </trkpt>
      <trkpt lat="47.94302" lon="-2.41783">
        <ele>37</ele>
        <time>2019-03-30T15:40:39Z</time>
      </trkpt>
      <trkpt lat="47.94299" lon="-2.41776">
        <ele>37</ele>
        <time>2019-03-30T15:40:45Z</time>
      </trkpt>
      <trkpt lat="47.94296" lon="-2.4177">
        <ele>38</ele>
        <time>2019-03-30T15:40:48Z</time>
      </trkpt>
      <trkpt lat="47.94292" lon="-2.41763">
        <ele>37</ele>
        <time>2019-03-30T15:40:53Z</time>
      </trkpt>
      <trkpt lat="47.9429" lon="-2.41757">
        <ele>37</ele>
        <time>2019-03-30T15:40:56Z</time>
      </trkpt>
      <trkpt lat="47.94287" lon="-2.4175">
        <ele>36</ele>
        <time>2019-03-30T15:40:59Z</time>
      </trkpt>
      <trkpt lat="47.94283" lon="-2.41745">
        <ele>35</ele>
        <time>2019-03-30T15:41:02Z</time>
      </trkpt>
      <trkpt lat="47.9428" lon="-2.41739">
        <ele>35</ele>
        <time>2019-03-30T15:41:06Z</time>
      </trkpt>
      <trkpt lat="47.94278" lon="-2.41732">
        <ele>36</ele>
        <time>2019-03-30T15:41:12Z</time>
      </trkpt>
      <trkpt lat="47.94273" lon="-2.41728">
        <ele>36</ele>
        <time>2019-03-30T15:41:16Z</time>
      </trkpt>
      <trkpt lat="47.94272" lon="-2.41722">
        <ele>37</ele>
        <time>2019-03-30T15:41:19Z</time>
      </trkpt>
      <trkpt lat="47.9427" lon="-2.41715">
        <ele>37</ele>
        <time>2019-03-30T15:41:23Z</time>
      </trkpt>
      <trkpt lat="47.94267" lon="-2.4171">
        <ele>37</ele>
        <time>2019-03-30T15:41:26Z</time>
      </trkpt>
      <trkpt lat="47.94263" lon="-2.41707">
        <ele>37</ele>
        <time>2019-03-30T15:41:29Z</time>
      </trkpt>
      <trkpt lat="47.94259" lon="-2.41704">
        <ele>37</ele>
        <time>2019-03-30T15:41:32Z</time>
      </trkpt>
      <trkpt lat="47.94254" lon="-2.417">
        <ele>39</ele>
        <time>2019-03-30T15:41:38Z</time>
      </trkpt>
      <trkpt lat="47.9425" lon="-2.41696">
        <ele>40</ele>
        <time>2019-03-30T15:41:42Z</time>
      </trkpt>
      <trkpt lat="47.94246" lon="-2.41692">
        <ele>41</ele>
        <time>2019-03-30T15:41:46Z</time>
      </trkpt>
      <trkpt lat="47.94241" lon="-2.4169">
        <ele>42</ele>
        <time>2019-03-30T15:41:50Z</time>
      </trkpt>
      <trkpt lat="47.94236" lon="-2.41689">
        <ele>42</ele>
        <time>2019-03-30T15:41:56Z</time>
      </trkpt>
      <trkpt lat="47.94232" lon="-2.4169">
        <ele>41</ele>
        <time>2019-03-30T15:42:00Z</time>
      </trkpt>
      <trkpt lat="47.94228" lon="-2.41684">
        <ele>41</ele>
        <time>2019-03-30T15:42:08Z</time>
      </trkpt>
      <trkpt lat="47.94223" lon="-2.41677">
        <ele>41</ele>
        <time>2019-03-30T15:42:12Z</time>
      </trkpt>
      <trkpt lat="47.9422" lon="-2.41672">
        <ele>41</ele>
        <time>2019-03-30T15:42:17Z</time>
      </trkpt>
      <trkpt lat="47.94214" lon="-2.41671">
        <ele>42</ele>
        <time>2019-03-30T15:42:21Z</time>
      </trkpt>
      <trkpt lat="47.94209" lon="-2.41668">
        <ele>42</ele>
        <time>2019-03-30T15:42:25Z</time>
      </trkpt>
      <trkpt lat="47.94204" lon="-2.41667">
        <ele>42</ele>
        <time>2019-03-30T15:42:28Z</time>
      </trkpt>
      <trkpt lat="47.94199" lon="-2.41665">
        <ele>42</ele>
        <time>2019-03-30T15:42:32Z</time>
      </trkpt>
      <trkpt lat="47.94194" lon="-2.41662">
        <ele>41</ele>
        <time>2019-03-30T15:42:38Z</time>
      </trkpt>
      <trkpt lat="47.9419" lon="-2.41659">
        <ele>41</ele>
        <time>2019-03-30T15:42:45Z</time>
      </trkpt>
      <trkpt lat="47.94189" lon="-2.41667">
        <ele>40</ele>
        <time>2019-03-30T15:42:50Z</time>
      </trkpt>
      <trkpt lat="47.94188" lon="-2.41676">
        <ele>40</ele>
        <time>2019-03-30T15:42:54Z</time>
      </trkpt>
      <trkpt lat="47.94189" lon="-2.41684">
        <ele>40</ele>
        <time>2019-03-30T15:42:58Z</time>
      </trkpt>
      <trkpt lat="47.94192" lon="-2.41689">
        <ele>40</ele>
        <time>2019-03-30T15:43:06Z</time>
      </trkpt>
      <trkpt lat="47.94191" lon="-2.41697">
        <ele>39</ele>
        <time>2019-03-30T15:43:21Z</time>
      </trkpt>
      <trkpt lat="47.94189" lon="-2.41705">
        <ele>38</ele>
        <time>2019-03-30T15:43:25Z</time>
      </trkpt>
      <trkpt lat="47.94187" lon="-2.41711">
        <ele>38</ele>
        <time>2019-03-30T15:43:48Z</time>
      </trkpt>
      <trkpt lat="47.94191" lon="-2.41637">
        <ele>41</ele>
        <time>2019-03-30T15:46:54Z</time>
      </trkpt>
      <trkpt lat="47.94188" lon="-2.41627">
        <ele>41</ele>
        <time>2019-03-30T15:46:59Z</time>
      </trkpt>
      <trkpt lat="47.94186" lon="-2.4162">
        <ele>41</ele>
        <time>2019-03-30T15:47:03Z</time>
      </trkpt>
      <trkpt lat="47.94183" lon="-2.41612">
        <ele>41</ele>
        <time>2019-03-30T15:47:07Z</time>
      </trkpt>
      <trkpt lat="47.94181" lon="-2.41605">
        <ele>40</ele>
        <time>2019-03-30T15:47:11Z</time>
      </trkpt>
      <trkpt lat="47.94179" lon="-2.41599">
        <ele>40</ele>
        <time>2019-03-30T15:47:14Z</time>
      </trkpt>
      <trkpt lat="47.94177" lon="-2.41592">
        <ele>40</ele>
        <time>2019-03-30T15:47:18Z</time>
      </trkpt>
      <trkpt lat="47.94176" lon="-2.41584">
        <ele>39</ele>
        <time>2019-03-30T15:47:22Z</time>
      </trkpt>
      <trkpt lat="47.94175" lon="-2.41577">
        <ele>39</ele>
        <time>2019-03-30T15:47:27Z</time>
      </trkpt>
      <trkpt lat="47.94173" lon="-2.4157">
        <ele>39</ele>
        <time>2019-03-30T15:47:30Z</time>
      </trkpt>
      <trkpt lat="47.9417" lon="-2.41562">
        <ele>38</ele>
        <time>2019-03-30T15:47:33Z</time>
      </trkpt>
      <trkpt lat="47.94168" lon="-2.41554">
        <ele>38</ele>
        <time>2019-03-30T15:47:37Z</time>
      </trkpt>
      <trkpt lat="47.94167" lon="-2.41546">
        <ele>38</ele>
        <time>2019-03-30T15:47:41Z</time>
      </trkpt>
      <trkpt lat="47.94165" lon="-2.41537">
        <ele>38</ele>
        <time>2019-03-30T15:47:45Z</time>
      </trkpt>
      <trkpt lat="47.9416" lon="-2.4153">
        <ele>38</ele>
        <time>2019-03-30T15:47:48Z</time>
      </trkpt>
      <trkpt lat="47.94157" lon="-2.41525">
        <ele>39</ele>
        <time>2019-03-30T15:47:51Z</time>
      </trkpt>
      <trkpt lat="47.94155" lon="-2.41517">
        <ele>38</ele>
        <time>2019-03-30T15:47:56Z</time>
      </trkpt>
      <trkpt lat="47.94154" lon="-2.41509">
        <ele>38</ele>
        <time>2019-03-30T15:48:01Z</time>
      </trkpt>
      <trkpt lat="47.94155" lon="-2.41501">
        <ele>37</ele>
        <time>2019-03-30T15:48:04Z</time>
      </trkpt>
      <trkpt lat="47.94154" lon="-2.41495">
        <ele>37</ele>
        <time>2019-03-30T15:48:08Z</time>
      </trkpt>
      <trkpt lat="47.94156" lon="-2.41488">
        <ele>36</ele>
        <time>2019-03-30T15:48:12Z</time>
      </trkpt>
      <trkpt lat="47.94157" lon="-2.41481">
        <ele>36</ele>
        <time>2019-03-30T15:48:16Z</time>
      </trkpt>
      <trkpt lat="47.9416" lon="-2.41474">
        <ele>37</ele>
        <time>2019-03-30T15:48:19Z</time>
      </trkpt>
      <trkpt lat="47.94164" lon="-2.4147">
        <ele>38</ele>
        <time>2019-03-30T15:48:22Z</time>
      </trkpt>
      <trkpt lat="47.94169" lon="-2.41469">
        <ele>39</ele>
        <time>2019-03-30T15:48:27Z</time>
      </trkpt>
      <trkpt lat="47.94174" lon="-2.41465">
        <ele>40</ele>
        <time>2019-03-30T15:48:31Z</time>
      </trkpt>
      <trkpt lat="47.94179" lon="-2.41465">
        <ele>42</ele>
        <time>2019-03-30T15:48:34Z</time>
      </trkpt>
      <trkpt lat="47.94185" lon="-2.41464">
        <ele>43</ele>
        <time>2019-03-30T15:48:37Z</time>
      </trkpt>
      <trkpt lat="47.94189" lon="-2.41459">
        <ele>44</ele>
        <time>2019-03-30T15:48:40Z</time>
      </trkpt>
      <trkpt lat="47.94194" lon="-2.41453">
        <ele>45</ele>
        <time>2019-03-30T15:48:43Z</time>
      </trkpt>
      <trkpt lat="47.94196" lon="-2.41447">
        <ele>45</ele>
        <time>2019-03-30T15:48:46Z</time>
      </trkpt>
      <trkpt lat="47.94198" lon="-2.4144">
        <ele>44</ele>
        <time>2019-03-30T15:48:50Z</time>
      </trkpt>
      <trkpt lat="47.94201" lon="-2.41433">
        <ele>43</ele>
        <time>2019-03-30T15:48:53Z</time>
      </trkpt>
      <trkpt lat="47.94202" lon="-2.41425">
        <ele>42</ele>
        <time>2019-03-30T15:48:57Z</time>
      </trkpt>
      <trkpt lat="47.94203" lon="-2.41417">
        <ele>40</ele>
        <time>2019-03-30T15:49:01Z</time>
      </trkpt>
      <trkpt lat="47.94205" lon="-2.4141">
        <ele>39</ele>
        <time>2019-03-30T15:49:04Z</time>
      </trkpt>
      <trkpt lat="47.94209" lon="-2.41407">
        <ele>40</ele>
        <time>2019-03-30T15:49:07Z</time>
      </trkpt>
      <trkpt lat="47.9421" lon="-2.41399">
        <ele>39</ele>
        <time>2019-03-30T15:49:12Z</time>
      </trkpt>
      <trkpt lat="47.94208" lon="-2.41392">
        <ele>38</ele>
        <time>2019-03-30T15:49:20Z</time>
      </trkpt>
      <trkpt lat="47.94207" lon="-2.41384">
        <ele>37</ele>
        <time>2019-03-30T15:49:24Z</time>
      </trkpt>
      <trkpt lat="47.94207" lon="-2.41377">
        <ele>37</ele>
        <time>2019-03-30T15:49:27Z</time>
      </trkpt>
      <trkpt lat="47.94208" lon="-2.4137">
        <ele>36</ele>
        <time>2019-03-30T15:49:30Z</time>
      </trkpt>
      <trkpt lat="47.94207" lon="-2.41362">
        <ele>36</ele>
        <time>2019-03-30T15:49:35Z</time>
      </trkpt>
      <trkpt lat="47.94206" lon="-2.41355">
        <ele>36</ele>
        <time>2019-03-30T15:49:39Z</time>
      </trkpt>
      <trkpt lat="47.94203" lon="-2.41348">
        <ele>36</ele>
        <time>2019-03-30T15:49:43Z</time>
      </trkpt>
      <trkpt lat="47.94202" lon="-2.4134">
        <ele>36</ele>
        <time>2019-03-30T15:49:49Z</time>
      </trkpt>
      <trkpt lat="47.94201" lon="-2.41332">
        <ele>36</ele>
        <time>2019-03-30T15:49:54Z</time>
      </trkpt>
      <trkpt lat="47.942" lon="-2.41324">
        <ele>35</ele>
        <time>2019-03-30T15:49:58Z</time>
      </trkpt>
      <trkpt lat="47.942" lon="-2.41317">
        <ele>35</ele>
        <time>2019-03-30T15:50:02Z</time>
      </trkpt>
      <trkpt lat="47.942" lon="-2.41308">
        <ele>34</ele>
        <time>2019-03-30T15:50:07Z</time>
      </trkpt>
      <trkpt lat="47.94199" lon="-2.41301">
        <ele>34</ele>
        <time>2019-03-30T15:50:11Z</time>
      </trkpt>
      <trkpt lat="47.94199" lon="-2.41294">
        <ele>36</ele>
        <time>2019-03-30T15:50:15Z</time>
      </trkpt>
      <trkpt lat="47.942" lon="-2.41286">
        <ele>38</ele>
        <time>2019-03-30T15:50:19Z</time>
      </trkpt>
      <trkpt lat="47.94198" lon="-2.41279">
        <ele>39</ele>
        <time>2019-03-30T15:50:23Z</time>
      </trkpt>
      <trkpt lat="47.94193" lon="-2.41275">
        <ele>41</ele>
        <time>2019-03-30T15:50:28Z</time>
      </trkpt>
      <trkpt lat="47.94194" lon="-2.41269">
        <ele>42</ele>
        <time>2019-03-30T15:50:34Z</time>
      </trkpt>
      <trkpt lat="47.94192" lon="-2.41263">
        <ele>42</ele>
        <time>2019-03-30T15:50:38Z</time>
      </trkpt>
      <trkpt lat="47.94189" lon="-2.41256">
        <ele>42</ele>
        <time>2019-03-30T15:50:42Z</time>
      </trkpt>
      <trkpt lat="47.94188" lon="-2.41249">
        <ele>41</ele>
        <time>2019-03-30T15:50:45Z</time>
      </trkpt>
      <trkpt lat="47.94187" lon="-2.41241">
        <ele>40</ele>
        <time>2019-03-30T15:50:49Z</time>
      </trkpt>
      <trkpt lat="47.94187" lon="-2.41233">
        <ele>39</ele>
        <time>2019-03-30T15:50:55Z</time>
      </trkpt>
      <trkpt lat="47.94184" lon="-2.41227">
        <ele>38</ele>
        <time>2019-03-30T15:50:57Z</time>
      </trkpt>
      <trkpt lat="47.94185" lon="-2.41221">
        <ele>37</ele>
        <time>2019-03-30T15:51:02Z</time>
      </trkpt>
      <trkpt lat="47.94187" lon="-2.41213">
        <ele>36</ele>
        <time>2019-03-30T15:51:06Z</time>
      </trkpt>
      <trkpt lat="47.94188" lon="-2.41205">
        <ele>35</ele>
        <time>2019-03-30T15:51:10Z</time>
      </trkpt>
      <trkpt lat="47.9419" lon="-2.41199">
        <ele>34</ele>
        <time>2019-03-30T15:51:14Z</time>
      </trkpt>
      <trkpt lat="47.94189" lon="-2.41191">
        <ele>34</ele>
        <time>2019-03-30T15:51:19Z</time>
      </trkpt>
      <trkpt lat="47.94187" lon="-2.41184">
        <ele>34</ele>
        <time>2019-03-30T15:51:23Z</time>
      </trkpt>
      <trkpt lat="47.94189" lon="-2.41179">
        <ele>34</ele>
        <time>2019-03-30T15:51:40Z</time>
      </trkpt>
      <trkpt lat="47.94189" lon="-2.4118">
        <ele>34</ele>
        <time>2019-03-30T15:51:42Z</time>
      </trkpt>
    </trkseg>
  </trk>
</gpx>